<
# Wetter Temperatur Luftdruck Luftfeuchtigkeit Sichtweite Windgeschwindigkeit Windrichtung Zeit
1 Clouds 11 1009 81 10000 4.6 100 07:20 14.07.2020
2 Clouds 11 1009 76 10000 2.1 40 06:59 14.07.2020
3 Clouds 11 1009 76 10000 2.1 40 06:27 14.07.2020
4 Clouds 11 1009 81 10000 1.5 170 05:55 14.07.2020
5 Clouds 11 1009 81 10000 2.6 220 04:54 14.07.2020
6 Clouds 10 1009 81 10000 2.6 220 04:34 14.07.2020
7 Clouds 10 1009 81 10000 1.31 155 03:33 14.07.2020
8 Clouds 10 1009 81 10000 1 0 02:30 14.07.2020
9 Clouds 11 1010 81 10000 1 0 01:45 14.07.2020
10 Clouds 11 1010 81 10000 1 0 01:24 14.07.2020
11 Clouds 11 1010 81 10000 2.1 300 00:43 14.07.2020
12 Clouds 11 1010 81 10000 2.1 300 00:25 14.07.2020
13 Clouds 11 1010 76 10000 2.6 320 23:39 13.07.2020
14 Clouds 11 1010 76 10000 2.6 320 23:20 13.07.2020
15 Clouds 11 1010 76 10000 3.1 300 22:58 13.07.2020
16 Clouds 11 1010 76 10000 3.1 300 22:39 13.07.2020
17 Clouds 11 1010 76 10000 3.1 300 22:19 13.07.2020
18 Clouds 12 1010 81 10000 3.1 280 21:55 13.07.2020
19 Clouds 12 1010 81 10000 3.1 280 21:37 13.07.2020
20 Clouds 12 1010 81 10000 3.1 280 21:19 13.07.2020
21 Clouds 12 1010 76 10000 3.1 290 20:54 13.07.2020
22 Clouds 13 1010 76 10000 3.1 290 20:36 13.07.2020
23 Clouds 13 1010 76 10000 3.1 290 20:18 13.07.2020
24 Clouds 13 1010 71 10000 4.1 290 19:42 13.07.2020
25 Clouds 13 1010 71 10000 4.1 290 19:23 13.07.2020
26 Clouds 13 1010 71 10000 3.1 280 18:57 13.07.2020
27 Clouds 13 1010 71 10000 3.1 280 18:38 13.07.2020
28 Clouds 13 1010 71 10000 3.1 280 18:20 13.07.2020
29 Clouds 13 1010 71 10000 2.6 290 17:56 13.07.2020
30 Clouds 13 1010 71 10000 2.6 290 17:37 13.07.2020
31 Clouds 13 1010 71 10000 2.6 290 17:18 13.07.2020
32 Clouds 13 1010 71 10000 2.6 290 16:43 13.07.2020
33 Clouds 13 1010 71 10000 2.6 290 16:21 13.07.2020
34 Clouds 12 1010 71 10000 2.6 300 15:59 13.07.2020
35 Clouds 12 1010 71 10000 2.6 300 15:40 13.07.2020
36 Clouds 12 1010 71 10000 2.6 300 15:20 13.07.2020
37 Clouds 12 1010 71 10000 2.6 300 14:59 13.07.2020
38 Clouds 12 1010 71 10000 2.6 300 14:59 13.07.2020
39 Clouds 12 1010 71 10000 2.6 300 14:39 13.07.2020
40 Clouds 12 1010 71 10000 2.6 300 14:39 13.07.2020
41 Clouds 12 1010 71 10000 2.6 300 14:20 13.07.2020
42 Clouds 12 1010 71 10000 2.1 250 13:56 13.07.2020
43 Clouds 12 1010 71 10000 2.1 250 13:37 13.07.2020
44 Clouds 12 1010 71 10000 2.1 250 13:19 13.07.2020
45 Clouds 11 1010 71 10000 1 0 12:43 13.07.2020
46 Clouds 11 1010 71 10000 1 0 12:22 13.07.2020
47 Clouds 10 1010 81 10000 1 0 11:58 13.07.2020
48 Clouds 10 1010 81 10000 1 0 11:38 13.07.2020
49 Clouds 10 1010 81 10000 1 0 11:19 13.07.2020
50 Clouds 10 1010 81 10000 3.1 250 10:38 13.07.2020
51 Clouds 10 1010 81 10000 3.1 250 10:20 13.07.2020
52 Clouds 10 1009 81 10000 3.1 250 09:43 13.07.2020
53 Clouds 10 1009 81 10000 3.1 250 09:25 13.07.2020
54 Clouds 10 1009 81 10000 3.6 240 08:53 13.07.2020
55 Clouds 10 1009 81 10000 3.6 240 08:34 13.07.2020
56 Clouds 10 1008 81 10000 3.6 260 07:44 13.07.2020
57 Clouds 10 1008 81 10000 3.6 260 07:20 13.07.2020
58 Clouds 10 1008 81 10000 4.1 270 06:44 13.07.2020
59 Clouds 10 1008 81 10000 4.1 270 06:22 13.07.2020
60 Clouds 10 1008 87 10000 3.6 290 04:55 13.07.2020
61 Rain 10 1008 93 10000 1.5 300 01:57 13.07.2020
62 Rain 10 1008 93 10000 1.5 300 01:31 13.07.2020
63 Rain 10 1008 93 10000 1.5 300 01:31 13.07.2020
64 Rain 10 1008 93 10000 2.6 340 00:59 13.07.2020
65 Rain 10 1008 93 10000 2.6 340 00:28 13.07.2020
66 Rain 10 1008 93 10000 2.6 310 23:59 12.07.2020
67 Rain 10 1008 93 10000 2.6 310 23:40 12.07.2020
68 Rain 10 1008 93 10000 2.6 310 23:22 12.07.2020
69 Rain 10 1008 93 10000 2.6 310 22:54 12.07.2020
70 Rain 10 1008 93 10000 2.6 310 22:36 12.07.2020
71 Rain 10 1008 93 10000 2.6 310 22:36 12.07.2020
72 Rain 10 1008 93 10000 2.6 310 22:36 12.07.2020
73 Rain 10 1008 93 10000 2.6 310 22:36 12.07.2020
74 Rain 10 1008 93 10000 2.6 310 22:18 12.07.2020
75 Rain 11 1008 87 10000 4.6 310 21:42 12.07.2020
76 Rain 11 1008 87 10000 4.6 310 21:20 12.07.2020
77 Rain 12 1008 87 10000 2.6 290 20:59 12.07.2020
78 Rain 12 1008 87 10000 2.6 290 20:41 12.07.2020
79 Rain 12 1008 87 10000 2.6 290 20:41 12.07.2020
80 Rain 12 1008 87 10000 2.6 290 20:20 12.07.2020
81 Rain 12 1008 87 10000 2.6 290 20:20 12.07.2020
82 Rain 11 1008 87 10000 1.5 0 19:58 12.07.2020
83 Rain 11 1008 87 10000 1.5 0 19:39 12.07.2020
84 Rain 11 1008 87 10000 1.5 0 19:39 12.07.2020
85 Rain 11 1008 87 10000 1.5 0 19:18 12.07.2020
86 Rain 11 1009 87 10000 1 150 18:43 12.07.2020
87 Rain 11 1009 87 10000 1 150 18:43 12.07.2020
88 Rain 11 1009 87 10000 1 150 18:21 12.07.2020
89 Rain 12 1009 81 10000 2.6 200 17:59 12.07.2020
90 Rain 12 1009 81 10000 2.6 200 17:37 12.07.2020
91 Rain 12 1009 81 10000 2.6 200 17:19 12.07.2020
92 Drizzle 12 1010 87 10000 3.1 200 16:47 12.07.2020
93 Drizzle 12 1010 87 10000 3.1 200 16:22 12.07.2020
94 Drizzle 12 1010 81 10000 2.6 150 15:48 12.07.2020
95 Drizzle 12 1010 81 10000 2.6 150 15:29 12.07.2020
96 Rain 12 1010 87 10000 4.6 150 14:58 12.07.2020
97 Rain 12 1010 87 10000 4.6 150 14:39 12.07.2020
98 Rain 12 1010 87 10000 4.6 150 14:39 12.07.2020
99 Rain 12 1010 87 10000 4.6 150 14:19 12.07.2020
100 Drizzle 12 1010 81 10000 3.6 160 13:39 12.07.2020
101 Drizzle 12 1010 81 10000 3.6 160 13:21 12.07.2020
102 Drizzle 12 1010 87 10000 1.5 120 12:56 12.07.2020
103 Drizzle 11 1010 87 10000 1.5 120 12:38 12.07.2020
104 Drizzle 11 1010 87 10000 1.5 120 12:18 12.07.2020
105 Drizzle 12 1010 81 10000 2.6 170 11:44 12.07.2020
106 Drizzle 12 1010 81 10000 2.6 170 11:21 12.07.2020
107 Clouds 11 1011 87 10000 3.1 150 10:44 12.07.2020
108 Clouds 11 1011 87 10000 3.1 150 10:23 12.07.2020
109 Clouds 11 1011 87 10000 3.1 170 09:59 12.07.2020
110 Clouds 11 1011 87 10000 3.1 170 09:40 12.07.2020
111 Clouds 11 1011 87 10000 3.1 170 09:21 12.07.2020
112 Drizzle 10 1011 93 10000 2.6 140 08:55 12.07.2020
113 Drizzle 10 1011 93 10000 2.6 140 08:37 12.07.2020
114 Drizzle 10 1011 93 10000 2.6 140 08:18 12.07.2020
115 Clouds 10 1011 93 10000 4.6 170 07:45 12.07.2020
116 Clouds 10 1011 93 10000 4.6 170 07:22 12.07.2020
117 Drizzle 10 1011 93 10000 3.6 170 06:52 12.07.2020
118 Drizzle 10 1011 93 10000 3.6 170 06:22 12.07.2020
119 Clouds 10 1012 93 10000 4.6 180 05:44 12.07.2020
120 Drizzle 10 1012 93 9000 5.7 190 04:57 12.07.2020
121 Drizzle 10 1012 93 9000 5.7 190 04:28 12.07.2020
122 Drizzle 10 1012 93 7000 4.6 180 03:40 12.07.2020
123 Drizzle 10 1012 93 7000 4.6 180 03:19 12.07.2020
124 Clouds 10 1012 87 10000 4.6 200 01:50 12.07.2020
125 Clouds 10 1012 81 10000 4.1 210 00:55 12.07.2020
126 Clouds 10 1012 81 10000 4.1 210 00:24 12.07.2020
127 Drizzle 10 1012 87 7000 3.6 230 23:59 11.07.2020
128 Drizzle 11 1012 87 7000 3.6 230 23:40 11.07.2020
129 Drizzle 11 1012 87 7000 3.6 230 23:20 11.07.2020
130 Mist 11 1012 87 10000 3.1 230 22:56 11.07.2020
131 Mist 11 1012 87 10000 3.1 230 22:37 11.07.2020
132 Mist 11 1012 87 10000 3.1 230 22:19 11.07.2020
133 Clouds 11 1012 81 10000 5.1 240 21:43 11.07.2020
134 Clouds 11 1012 81 10000 5.1 240 21:24 11.07.2020
135 Rain 11 1012 76 10000 4.6 250 20:59 11.07.2020
136 Rain 12 1012 76 10000 4.6 250 20:40 11.07.2020
137 Rain 12 1012 76 10000 4.6 250 20:21 11.07.2020
138 Drizzle 11 1012 81 10000 5.7 250 19:58 11.07.2020
139 Drizzle 12 1012 81 10000 5.7 250 19:40 11.07.2020
140 Drizzle 12 1012 81 10000 5.7 250 19:22 11.07.2020
141 Rain 12 1012 76 10000 4.6 250 18:56 11.07.2020
142 Rain 12 1012 76 10000 4.6 250 18:38 11.07.2020
143 Rain 12 1012 76 10000 4.6 250 18:19 11.07.2020
144 Drizzle 12 1012 76 10000 4.6 250 17:55 11.07.2020
145 Drizzle 12 1012 76 10000 4.6 250 17:37 11.07.2020
146 Drizzle 12 1012 76 10000 4.6 250 17:18 11.07.2020
147 Clouds 12 1012 76 10000 4.6 250 16:42 11.07.2020
148 Clouds 12 1012 76 10000 4.6 250 16:23 11.07.2020
149 Clouds 11 1012 87 10000 4.1 260 15:58 11.07.2020
150 Clouds 11 1012 87 10000 4.1 260 15:40 11.07.2020
151 Clouds 11 1012 87 10000 4.1 260 15:20 11.07.2020
152 Rain 11 1012 87 10000 5.7 250 14:57 11.07.2020
153 Rain 11 1012 87 10000 5.7 250 14:37 11.07.2020
154 Rain 11 1012 87 10000 5.7 250 14:19 11.07.2020
155 Drizzle 11 1012 87 10000 4.6 240 13:42 11.07.2020
156 Drizzle 11 1012 87 10000 4.6 240 13:22 11.07.2020
157 Rain 11 1011 87 10000 4.1 240 12:57 11.07.2020
158 Rain 11 1011 87 10000 4.1 240 12:39 11.07.2020
159 Rain 11 1011 87 10000 4.1 240 12:20 11.07.2020
160 Rain 11 1011 87 10000 3.6 230 11:42 11.07.2020
161 Rain 11 1011 87 10000 3.6 230 11:21 11.07.2020
162 Drizzle 11 1011 81 10000 1.5 210 10:57 11.07.2020
163 Drizzle 11 1011 81 10000 1.5 210 10:39 11.07.2020
164 Drizzle 11 1011 81 10000 1.5 210 10:21 11.07.2020
165 Clouds 11 1011 76 10000 3.1 100 09:43 11.07.2020
166 Clouds 11 1011 76 10000 3.1 100 09:20 11.07.2020
167 Clouds 10 1011 81 10000 3.6 80 08:49 11.07.2020
168 Clouds 10 1011 81 10000 3.6 80 08:31 11.07.2020
169 Clouds 10 1011 81 10000 3.6 80 07:59 11.07.2020
170 Clouds 10 1011 81 10000 3.6 80 07:40 11.07.2020
171 Clouds 10 1011 81 10000 3.6 80 07:19 11.07.2020
172 Clouds 10 1011 81 10000 3.6 90 06:46 11.07.2020
173 Clouds 10 1011 81 10000 3.6 90 06:18 11.07.2020
174 Clouds 10 1011 81 10000 4.6 80 05:20 11.07.2020
175 Clouds 10 1011 76 10000 3.1 90 04:53 11.07.2020
176 Clouds 10 1011 76 10000 3.1 90 04:31 11.07.2020
177 Drizzle 10 1012 76 10000 2.1 100 02:58 11.07.2020
178 Drizzle 10 1012 76 10000 2.1 100 02:36 11.07.2020
179 Rain 10 1013 71 10000 2.1 90 01:27 11.07.2020
180 Clouds 10 1013 66 10000 2.6 160 00:59 11.07.2020
181 Clouds 10 1013 66 10000 2.6 160 00:38 11.07.2020
182 Clouds 10 1013 66 10000 2.6 160 00:19 11.07.2020
183 Clouds 10 1014 71 10000 1.89 121 23:56 10.07.2020
184 Clouds 10 1014 71 10000 1.89 121 23:38 10.07.2020
185 Clouds 10 1014 71 10000 1.41 133 23:18 10.07.2020
186 Clouds 11 1014 66 10000 1.5 270 22:42 10.07.2020
187 Clouds 11 1014 66 10000 1.5 270 22:19 10.07.2020
188 Clouds 11 1014 66 10000 1.5 300 21:41 10.07.2020
189 Clouds 11 1014 66 10000 1.5 300 21:21 10.07.2020
190 Clouds 11 1015 66 10000 2.6 300 20:59 10.07.2020
191 Clouds 11 1015 66 10000 2.6 300 20:41 10.07.2020
192 Clouds 11 1015 66 10000 2.6 300 20:21 10.07.2020
193 Clouds 11 1015 71 10000 3.6 270 19:57 10.07.2020
194 Clouds 11 1015 71 10000 3.6 270 19:39 10.07.2020
195 Clouds 11 1015 71 10000 3.6 270 19:20 10.07.2020
196 Clouds 11 1016 71 10000 4.6 270 18:41 10.07.2020
197 Clouds 11 1016 71 10000 4.6 270 18:20 10.07.2020
198 Clouds 11 1016 71 10000 4.6 280 17:58 10.07.2020
199 Clouds 11 1016 71 10000 4.6 280 17:39 10.07.2020
200 Clouds 11 1016 71 10000 4.6 280 17:20 10.07.2020
201 Clouds 11 1016 71 10000 2.6 290 16:43 10.07.2020
202 Clouds 11 1016 71 10000 2.6 290 16:21 10.07.2020
203 Clouds 10 1017 76 10000 2.1 340 15:48 10.07.2020
204 Clouds 10 1017 76 10000 2.1 340 15:26 10.07.2020
205 Clouds 11 1017 66 10000 1.5 310 14:59 10.07.2020
206 Clouds 11 1017 66 10000 1.5 310 14:40 10.07.2020
207 Clouds 11 1017 66 10000 1.5 310 14:20 10.07.2020
208 Clouds 11 1017 66 10000 1.5 310 14:20 10.07.2020
209 Clouds 11 1017 62 10000 3.6 300 13:57 10.07.2020
210 Clouds 11 1017 62 10000 3.6 300 13:38 10.07.2020
211 Clouds 11 1017 62 10000 3.6 300 13:20 10.07.2020
212 Clouds 11 1017 62 10000 4.6 310 12:56 10.07.2020
213 Clouds 11 1017 62 10000 4.6 310 12:37 10.07.2020
214 Clouds 11 1017 62 10000 4.6 310 12:19 10.07.2020
215 Clouds 11 1017 66 10000 3.6 310 11:39 10.07.2020
216 Clouds 11 1017 66 10000 3.6 310 11:20 10.07.2020
217 Rain 10 1017 71 10000 5.1 320 10:56 10.07.2020
218 Rain 10 1017 71 10000 5.1 320 10:38 10.07.2020
219 Rain 10 1017 71 10000 5.1 320 10:18 10.07.2020
220 Clouds 10 1017 76 10000 6.2 290 09:40 10.07.2020
221 Clouds 10 1017 76 10000 6.2 290 09:22 10.07.2020
222 Clouds 9 1017 71 10000 5.7 300 08:58 10.07.2020
223 Clouds 9 1017 71 10000 5.7 300 08:40 10.07.2020
224 Clouds 9 1017 71 10000 5.7 300 08:22 10.07.2020
225 Clouds 9 1017 76 10000 6.2 310 07:44 10.07.2020
226 Clouds 10 1017 76 10000 6.2 310 07:23 10.07.2020
227 Clouds 10 1017 66 10000 4.6 290 06:54 10.07.2020
228 Clouds 10 1017 66 10000 4.6 290 06:32 10.07.2020
229 Clouds 10 1017 66 10000 5.7 300 05:27 10.07.2020
230 Clouds 10 1017 66 10000 6.2 310 03:44 10.07.2020
231 Clouds 11 1017 66 10000 6.2 300 02:53 10.07.2020
232 Clouds 11 1017 66 10000 6.7 310 01:57 10.07.2020
233 Clouds 11 1016 66 10000 6.7 300 00:54 10.07.2020
234 Clouds 11 1016 66 10000 6.7 300 00:22 10.07.2020
235 Clouds 11 1016 71 10000 7.2 300 23:56 09.07.2020
236 Clouds 11 1016 71 10000 7.2 300 23:37 09.07.2020
237 Clouds 11 1016 71 10000 7.2 300 23:19 09.07.2020
238 Clouds 12 1016 66 10000 8.7 300 22:56 09.07.2020
239 Clouds 12 1016 66 10000 8.7 300 22:38 09.07.2020
240 Clouds 12 1016 66 10000 8.7 300 22:19 09.07.2020
241 Clouds 12 1016 62 10000 7.7 310 21:39 09.07.2020
242 Clouds 12 1016 62 10000 7.7 310 21:20 09.07.2020
243 Clouds 12 1015 66 10000 8.7 310 20:59 09.07.2020
244 Clouds 12 1015 66 10000 8.7 310 20:40 09.07.2020
245 Clouds 12 1015 66 10000 8.7 310 20:22 09.07.2020
246 Clouds 11 1015 71 10000 7.2 300 19:43 09.07.2020
247 Clouds 11 1015 71 10000 7.2 300 19:22 09.07.2020
248 Clouds 12 1015 62 10000 8.7 310 18:58 09.07.2020
249 Clouds 12 1015 62 10000 8.7 310 18:40 09.07.2020
250 Clouds 12 1015 62 10000 8.7 310 18:19 09.07.2020
251 Clouds 12 1015 62 10000 6.7 320 17:43 09.07.2020
252 Clouds 12 1015 62 10000 6.7 320 17:23 09.07.2020
253 Clouds 12 1015 66 10000 7.2 320 16:58 09.07.2020
254 Clouds 12 1015 66 10000 7.2 320 16:38 09.07.2020
255 Clouds 12 1015 66 10000 7.2 320 16:19 09.07.2020
256 Clouds 12 1015 62 10000 6.2 300 15:58 09.07.2020
257 Clouds 12 1015 62 10000 6.2 300 15:38 09.07.2020
258 Clouds 12 1015 62 10000 6.2 300 15:19 09.07.2020
259 Clouds 11 1014 62 10000 4.1 310 14:58 09.07.2020
260 Clouds 11 1014 62 10000 4.1 310 14:40 09.07.2020
261 Clouds 11 1014 62 10000 4.1 310 14:20 09.07.2020
262 Clouds 11 1014 62 10000 4.6 320 13:56 09.07.2020
263 Clouds 11 1014 62 10000 4.6 320 13:56 09.07.2020
264 Clouds 11 1014 62 10000 4.6 320 13:38 09.07.2020
265 Clouds 11 1014 62 10000 4.6 320 13:19 09.07.2020
266 Clouds 11 1014 62 10000 4.6 340 12:42 09.07.2020
267 Clouds 11 1014 62 10000 4.6 340 12:23 09.07.2020
268 Clouds 10 1014 66 10000 4.1 330 11:58 09.07.2020
269 Clouds 10 1014 66 10000 4.1 330 11:40 09.07.2020
270 Clouds 10 1014 66 10000 4.1 330 11:19 09.07.2020
271 Clouds 10 1013 71 10000 4.1 320 10:56 09.07.2020
272 Clouds 10 1013 71 10000 4.1 320 10:38 09.07.2020
273 Clouds 10 1013 71 10000 4.1 320 10:19 09.07.2020
274 Clouds 10 1013 71 10000 4.6 340 09:43 09.07.2020
275 Clouds 10 1013 71 10000 4.6 340 09:23 09.07.2020
276 Clouds 10 1013 71 10000 5.7 320 08:52 09.07.2020
277 Clouds 10 1013 71 10000 5.7 320 08:27 09.07.2020
278 Clouds 10 1012 76 10000 6.7 300 07:58 09.07.2020
279 Clouds 10 1012 76 10000 6.7 300 07:40 09.07.2020
280 Clouds 10 1012 76 10000 6.7 300 07:21 09.07.2020
281 Clouds 10 1012 76 10000 6.2 290 06:21 09.07.2020
282 Clouds 10 1012 76 10000 5.7 290 05:57 09.07.2020
283 Clouds 10 1012 71 10000 4.1 280 04:29 09.07.2020
284 Clouds 10 1012 76 10000 5.1 290 03:24 09.07.2020
285 Clouds 9 1012 76 10000 4.1 290 01:56 09.07.2020
286 Clouds 9 1012 76 10000 4.1 290 01:21 09.07.2020
287 Clouds 9 1012 70 10000 3.6 290 00:41 09.07.2020
288 Clouds 9 1012 70 10000 3.6 290 00:23 09.07.2020
289 Clouds 9 1012 70 10000 4.6 300 23:44 08.07.2020
290 Clouds 9 1012 70 10000 4.6 300 23:25 08.07.2020
291 Clouds 9 1012 70 10000 4.1 280 22:56 08.07.2020
292 Clouds 9 1012 70 10000 4.1 280 22:38 08.07.2020
293 Clouds 9 1012 70 10000 4.1 280 22:38 08.07.2020
294 Clouds 9 1012 70 10000 4.1 280 22:20 08.07.2020
295 Clouds 9 1012 70 10000 4.1 280 22:20 08.07.2020
296 Clouds 9 1012 70 10000 4.1 270 21:56 08.07.2020
297 Clouds 9 1012 70 10000 4.1 270 21:37 08.07.2020
298 Clouds 9 1012 70 10000 4.1 270 21:37 08.07.2020
299 Clouds 9 1012 70 10000 4.1 270 21:19 08.07.2020
300 Clouds 9 1012 70 10000 4.1 280 20:42 08.07.2020
301 Clouds 9 1012 70 10000 4.1 280 20:24 08.07.2020
302 Clouds 9 1013 70 10000 4.6 280 19:57 08.07.2020
303 Clouds 9 1013 70 10000 4.6 280 19:39 08.07.2020
304 Clouds 9 1013 70 10000 4.6 280 19:20 08.07.2020
305 Clouds 9 1013 70 10000 5.1 270 18:42 08.07.2020
306 Clouds 9 1013 70 10000 5.1 270 18:21 08.07.2020
307 Clouds 9 1013 70 10000 4.1 260 17:58 08.07.2020
308 Clouds 9 1013 70 10000 4.1 260 17:39 08.07.2020
309 Clouds 9 1013 70 10000 4.1 260 17:21 08.07.2020
310 Clouds 9 1013 81 10000 4.1 280 16:58 08.07.2020
311 Clouds 9 1013 81 10000 4.1 280 16:38 08.07.2020
312 Clouds 9 1013 81 10000 4.1 280 16:20 08.07.2020
313 Clouds 9 1013 76 10000 4.1 260 15:58 08.07.2020
314 Clouds 9 1013 76 10000 4.1 260 15:39 08.07.2020
315 Clouds 9 1013 76 10000 4.1 260 15:19 08.07.2020
316 Clouds 9 1013 76 10000 3.6 250 14:46 08.07.2020
317 Clouds 9 1013 76 10000 3.6 250 14:28 08.07.2020
318 Clouds 9 1013 76 10000 5.1 240 13:58 08.07.2020
319 Clouds 9 1013 76 10000 5.1 240 13:40 08.07.2020
320 Clouds 9 1013 76 10000 5.1 240 13:20 08.07.2020
321 Clouds 9 1013 76 10000 3.6 240 12:43 08.07.2020
322 Clouds 9 1013 76 10000 3.6 240 12:21 08.07.2020
323 Clouds 9 1013 76 10000 3.6 240 11:56 08.07.2020
324 Clouds 9 1013 76 10000 3.6 240 11:38 08.07.2020
325 Clouds 9 1013 76 10000 3.6 240 11:20 08.07.2020
326 Clouds 9 1013 76 10000 2.6 240 10:44 08.07.2020
327 Clouds 9 1013 76 10000 2.6 240 10:25 08.07.2020
328 Clouds 9 1013 70 10000 2.6 260 09:46 08.07.2020
329 Clouds 9 1013 70 10000 2.6 260 09:26 08.07.2020
330 Clouds 9 1013 70 10000 2.6 260 08:58 08.07.2020
331 Clouds 9 1013 70 10000 2.6 260 08:39 08.07.2020
332 Clouds 9 1013 70 10000 2.6 260 08:20 08.07.2020
333 Clouds 9 1014 70 10000 3.1 260 07:44 08.07.2020
334 Clouds 9 1014 70 10000 3.1 260 07:22 08.07.2020
335 Clouds 9 1014 76 10000 3.1 290 06:52 08.07.2020
336 Clouds 9 1014 76 10000 3.1 290 06:31 08.07.2020
337 Clouds 9 1014 76 10000 3.6 260 05:49 08.07.2020
338 Clouds 9 1014 76 10000 3.1 250 04:50 08.07.2020
339 Clouds 9 1014 76 10000 3.1 250 04:19 08.07.2020
340 Clouds 9 1015 76 10000 1.5 260 02:20 08.07.2020
341 Clouds 9 1014 76 10000 2.6 260 01:39 08.07.2020
342 Clouds 10 1015 76 10000 2.1 260 00:56 08.07.2020
343 Clouds 10 1015 76 10000 2.1 260 00:22 08.07.2020
344 Clouds 10 1015 76 10000 3.1 290 23:44 07.07.2020
345 Clouds 10 1015 76 10000 3.1 290 23:22 07.07.2020
346 Clouds 10 1015 76 10000 3.1 290 23:22 07.07.2020
347 Clouds 10 1015 76 10000 3.6 280 22:58 07.07.2020
348 Clouds 10 1015 76 10000 3.6 280 22:39 07.07.2020
349 Clouds 10 1015 76 10000 3.6 280 22:20 07.07.2020
350 Clouds 10 1015 76 10000 3.6 280 22:20 07.07.2020
351 Clouds 11 1015 71 10000 3.6 280 21:58 07.07.2020
352 Clouds 11 1015 71 10000 3.6 280 21:38 07.07.2020
353 Clouds 11 1015 71 10000 3.6 280 21:38 07.07.2020
354 Clouds 11 1015 71 10000 3.6 280 21:19 07.07.2020
355 Clouds 11 1015 71 10000 4.1 270 20:55 07.07.2020
356 Clouds 11 1015 71 10000 4.1 270 20:36 07.07.2020
357 Clouds 11 1015 71 10000 4.1 270 20:18 07.07.2020
358 Clouds 11 1015 76 10000 3.6 270 19:39 07.07.2020
359 Clouds 11 1015 76 10000 3.6 270 19:20 07.07.2020
360 Clouds 12 1015 71 10000 4.1 260 18:55 07.07.2020
361 Clouds 12 1015 71 10000 4.1 260 18:37 07.07.2020
362 Clouds 12 1015 71 10000 4.1 260 18:19 07.07.2020
363 Clouds 12 1015 71 10000 3.6 270 17:56 07.07.2020
364 Clouds 12 1015 71 10000 3.6 270 17:37 07.07.2020
365 Clouds 12 1015 71 10000 3.6 270 17:19 07.07.2020
366 Clouds 12 1015 71 10000 4.1 290 16:42 07.07.2020
367 Clouds 12 1015 71 10000 4.1 290 16:23 07.07.2020
368 Clouds 12 1015 71 10000 4.1 290 16:23 07.07.2020
369 Clouds 12 1015 71 10000 4.6 280 15:56 07.07.2020
370 Clouds 12 1015 71 10000 4.6 280 15:37 07.07.2020
371 Clouds 12 1015 71 10000 4.6 280 15:19 07.07.2020
372 Clouds 12 1014 66 10000 4.6 280 14:46 07.07.2020
373 Clouds 12 1014 66 10000 4.6 280 14:24 07.07.2020
374 Clouds 12 1014 71 10000 4.1 280 13:46 07.07.2020
375 Clouds 12 1014 71 10000 4.1 280 13:22 07.07.2020
376 Clouds 12 1014 76 10000 3.6 270 12:58 07.07.2020
377 Clouds 12 1014 76 10000 3.6 270 12:40 07.07.2020
378 Clouds 12 1014 76 10000 3.6 270 12:21 07.07.2020
379 Clouds 12 1014 71 10000 1.5 220 11:48 07.07.2020
380 Clouds 12 1014 71 10000 1.5 220 11:24 07.07.2020
381 Clouds 12 1014 76 10000 1.5 200 10:59 07.07.2020
382 Clouds 12 1014 76 10000 1.5 200 10:41 07.07.2020
383 Clouds 12 1014 76 10000 1.5 200 10:21 07.07.2020
384 Clouds 11 1014 81 10000 1.5 180 09:55 07.07.2020
385 Clouds 11 1014 81 10000 1.5 180 09:37 07.07.2020
386 Clouds 11 1014 81 10000 1.5 180 09:18 07.07.2020
387 Clouds 9 1014 87 10000 1.5 150 08:40 07.07.2020
388 Clouds 9 1014 87 10000 1.5 150 08:21 07.07.2020
389 Clouds 9 1014 76 10000 2.1 140 07:41 07.07.2020
390 Clouds 9 1014 76 10000 2.1 140 07:21 07.07.2020
391 Clouds 8 1013 81 10000 2.6 120 06:49 07.07.2020
392 Clouds 8 1013 81 10000 2.6 120 06:28 07.07.2020
393 Clouds 8 1013 87 10000 1.5 160 05:51 07.07.2020
394 Clouds 8 1013 87 10000 1.5 160 05:21 07.07.2020
395 Clouds 9 1013 81 10000 1.5 180 04:38 07.07.2020
396 Clouds 9 1013 76 10000 1.5 140 03:35 07.07.2020
397 Clouds 10 1013 76 10000 1 240 02:21 07.07.2020
398 Clouds 11 1013 66 10000 2.1 310 01:22 07.07.2020
399 Clouds 12 1013 66 10000 3.6 290 00:42 07.07.2020
400 Clouds 12 1013 66 10000 3.6 290 00:23 07.07.2020
401 Clouds 12 1013 66 10000 4.6 290 23:46 06.07.2020
402 Clouds 13 1013 66 10000 4.6 290 23:26 06.07.2020
403 Clouds 13 1013 71 10000 4.6 290 22:59 06.07.2020
404 Clouds 13 1013 71 10000 4.6 290 22:40 06.07.2020
405 Clouds 13 1013 71 10000 4.6 290 22:19 06.07.2020
406 Clouds 13 1013 71 10000 6.2 300 21:57 06.07.2020
407 Clouds 13 1013 71 10000 6.2 300 21:38 06.07.2020
408 Clear 13 1013 71 10000 6.2 300 21:19 06.07.2020
409 Clouds 14 1013 58 10000 6.2 300 20:57 06.07.2020
410 Clouds 14 1013 58 10000 6.2 300 20:37 06.07.2020
411 Clouds 14 1013 58 10000 6.2 300 20:19 06.07.2020
412 Clouds 15 1013 44 10000 4.6 330 19:56 06.07.2020
413 Clouds 15 1013 44 10000 4.6 330 19:37 06.07.2020
414 Clouds 15 1013 44 10000 4.6 330 19:19 06.07.2020
415 Clouds 16 1013 38 10000 4.6 290 18:41 06.07.2020
416 Clouds 16 1013 38 10000 4.6 290 18:23 06.07.2020
417 Clouds 15 1013 44 10000 4.1 300 17:59 06.07.2020
418 Clouds 15 1013 44 10000 4.1 300 17:41 06.07.2020
419 Clouds 15 1013 44 10000 4.1 300 17:41 06.07.2020
420 Clouds 15 1013 44 10000 4.1 300 17:21 06.07.2020
421 Clouds 15 1013 41 10000 4.6 300 16:55 06.07.2020
422 Clouds 15 1013 41 10000 4.6 300 16:37 06.07.2020
423 Clouds 15 1013 41 10000 4.6 300 16:18 06.07.2020
424 Clear 15 1013 44 10000 4.6 330 15:42 06.07.2020
425 Clear 15 1013 44 10000 4.6 330 15:24 06.07.2020
426 Clear 15 1013 47 10000 4.1 350 14:55 06.07.2020
427 Clear 14 1013 47 10000 4.1 350 14:37 06.07.2020
428 Clouds 14 1013 47 10000 4.1 350 14:19 06.07.2020
429 Clouds 13 1013 47 10000 4.1 350 13:46 06.07.2020
430 Clouds 13 1013 47 10000 4.1 350 13:27 06.07.2020
431 Clouds 13 1013 44 10000 2.6 20 12:57 06.07.2020
432 Clouds 13 1013 44 10000 2.6 20 12:39 06.07.2020
433 Clouds 13 1013 44 10000 2.6 20 12:18 06.07.2020
434 Clouds 12 1013 58 10000 3.6 30 11:57 06.07.2020
435 Clouds 12 1013 58 10000 3.6 30 11:37 06.07.2020
436 Clouds 12 1013 54 10000 2.1 80 11:18 06.07.2020
437 Clouds 11 1013 54 10000 2.1 80 10:42 06.07.2020
438 Clouds 12 1013 54 10000 2.1 80 10:42 06.07.2020
439 Clouds 11 1013 54 10000 2.1 80 10:21 06.07.2020
440 Clouds 11 1013 53 10000 3.6 120 09:57 06.07.2020
441 Clouds 11 1013 53 10000 3.6 120 09:39 06.07.2020
442 Clouds 11 1013 53 10000 3.6 120 09:21 06.07.2020
443 Clouds 10 1013 71 10000 2.6 170 08:42 06.07.2020
444 Clouds 10 1013 71 10000 2.6 170 08:24 06.07.2020
445 Clouds 8 1013 70 10000 2.1 210 07:58 06.07.2020
446 Clouds 8 1013 70 10000 2.1 210 07:40 06.07.2020
447 Clouds 8 1013 70 10000 2.1 210 07:21 06.07.2020
448 Clouds 9 1013 57 10000 1 0 06:39 06.07.2020
449 Clouds 9 1013 57 10000 1 0 06:20 06.07.2020
450 Clouds 9 1013 57 10000 1 0 06:20 06.07.2020
451 Clouds 9 1013 70 10000 0.5 0 05:33 06.07.2020
452 Clouds 10 1012 76 10000 2.1 130 04:52 06.07.2020
453 Clouds 11 1012 76 10000 1.5 300 03:25 06.07.2020
454 Clear 12 1012 76 10000 3.1 140 02:21 06.07.2020
455 Clear 12 1011 71 10000 4.1 130 01:26 06.07.2020
456 Clear 14 1011 62 10000 1 0 00:36 06.07.2020
457 Clear 14 1011 62 10000 1 0 00:18 06.07.2020
458 Clear 15 1010 55 10000 3.1 350 23:41 05.07.2020
459 Clear 15 1010 55 10000 3.1 350 23:23 05.07.2020
460 Clear 13 1010 67 10000 7.2 320 22:59 05.07.2020
461 Clear 13 1010 67 10000 7.2 320 22:39 05.07.2020
462 Clear 13 1010 67 10000 7.2 320 22:19 05.07.2020
463 Clouds 13 1010 71 10000 8.2 310 21:57 05.07.2020
464 Clouds 13 1010 71 10000 8.2 310 21:38 05.07.2020
465 Clouds 13 1010 71 10000 8.2 310 21:18 05.07.2020
466 Clouds 15 1009 59 10000 5.7 300 20:57 05.07.2020
467 Clouds 15 1009 59 10000 5.7 300 20:38 05.07.2020
468 Clouds 15 1009 59 10000 5.7 300 20:20 05.07.2020
469 Clouds 15 1009 51 10000 4.6 320 19:42 05.07.2020
470 Clouds 15 1009 51 10000 4.6 320 19:21 05.07.2020
471 Clouds 16 1009 51 10000 4.1 330 18:56 05.07.2020
472 Clouds 16 1009 51 10000 4.1 330 18:37 05.07.2020
473 Clouds 16 1009 51 10000 4.1 330 18:19 05.07.2020
474 Clouds 15 1008 51 10000 3.6 330 17:43 05.07.2020
475 Clouds 15 1008 51 10000 3.6 330 17:19 05.07.2020
476 Clouds 15 1007 54 10000 4.6 340 16:59 05.07.2020
477 Clouds 15 1007 54 10000 4.6 340 16:40 05.07.2020
478 Clouds 15 1007 54 10000 4.6 340 16:21 05.07.2020
479 Clouds 14 1007 58 10000 4.1 350 15:41 05.07.2020
480 Clouds 14 1007 58 10000 4.1 350 15:20 05.07.2020
481 Clouds 13 1006 58 10000 2.6 320 14:56 05.07.2020
482 Clouds 13 1006 58 10000 2.6 320 14:38 05.07.2020
483 Clouds 13 1006 58 10000 2.6 320 14:20 05.07.2020
484 Clouds 13 1006 62 10000 3.1 350 13:41 05.07.2020
485 Clouds 13 1006 62 10000 3.1 350 13:23 05.07.2020
486 Clouds 13 1006 62 10000 3.1 350 13:23 05.07.2020
487 Clouds 12 1005 71 10000 3.1 10 12:46 05.07.2020
488 Clouds 12 1005 71 10000 3.1 10 12:46 05.07.2020
489 Clouds 12 1005 71 10000 3.1 10 12:21 05.07.2020
490 Clouds 12 1004 71 10000 1.5 30 11:56 05.07.2020
491 Clouds 12 1004 71 10000 1.5 30 11:38 05.07.2020
492 Clouds 12 1004 71 10000 1.5 30 11:19 05.07.2020
493 Clouds 11 1004 76 10000 2.1 30 10:55 05.07.2020
494 Clouds 11 1004 76 10000 2.1 30 10:37 05.07.2020
495 Clouds 11 1004 76 10000 2.1 30 10:18 05.07.2020
496 Clouds 11 1003 76 10000 2.1 90 09:41 05.07.2020
497 Clouds 11 1003 76 10000 2.1 90 09:20 05.07.2020
498 Clouds 10 1002 81 10000 2.6 160 08:57 05.07.2020
499 Clouds 10 1002 81 10000 2.6 160 08:38 05.07.2020
500 Clouds 10 1002 81 10000 2.6 160 08:18 05.07.2020
501 Clouds 8 1001 87 10000 1.5 160 07:40 05.07.2020
502 Clouds 8 1001 87 10000 1.5 160 07:22 05.07.2020
503 Clouds 9 1001 81 10000 4.15 20 06:45 05.07.2020
504 Clouds 9 1000 87 10000 2.6 200 04:27 05.07.2020
505 Clouds 10 1000 81 10000 3.1 190 03:18 05.07.2020
506 Clouds 11 1000 76 10000 3.6 240 02:40 05.07.2020
507 Clouds 11 1000 76 10000 3.6 260 01:59 05.07.2020
508 Clouds 11 1000 76 10000 3.6 260 01:28 05.07.2020
509 Clouds 11 999 76 10000 4.1 260 00:52 05.07.2020
510 Clouds 11 999 76 10000 4.1 260 00:31 05.07.2020
511 Clouds 11 999 76 10000 4.1 290 23:57 04.07.2020
512 Clouds 11 999 76 10000 4.1 290 23:38 04.07.2020
513 Clouds 11 999 76 10000 4.1 290 23:20 04.07.2020
514 Clouds 11 999 71 10000 4.6 290 22:42 04.07.2020
515 Clouds 11 999 71 10000 4.6 290 22:24 04.07.2020
516 Clouds 12 999 66 10000 5.1 290 21:58 04.07.2020
517 Clouds 12 999 66 10000 5.1 290 21:40 04.07.2020
518 Clouds 12 999 66 10000 5.1 290 21:22 04.07.2020
519 Clouds 12 999 66 10000 4.6 270 20:43 04.07.2020
520 Clouds 12 999 66 10000 4.6 270 20:22 04.07.2020
521 Clouds 12 998 71 10000 5.1 250 19:58 04.07.2020
522 Clouds 12 998 71 10000 5.1 250 19:39 04.07.2020
523 Clouds 12 998 71 10000 5.1 250 19:21 04.07.2020
524 Clouds 12 998 71 10000 5.1 250 19:21 04.07.2020
525 Clouds 12 998 66 10000 5.7 240 18:46 04.07.2020
526 Clouds 12 998 66 10000 5.7 240 18:23 04.07.2020
527 Clouds 12 998 66 10000 5.7 310 17:56 04.07.2020
528 Clouds 12 998 66 10000 5.7 310 17:38 04.07.2020
529 Clouds 12 998 66 10000 5.7 310 17:19 04.07.2020
530 Clouds 11 998 71 10000 4.6 330 16:56 04.07.2020
531 Clouds 11 998 71 10000 4.6 330 16:36 04.07.2020
532 Clouds 11 998 71 10000 4.6 330 16:36 04.07.2020
533 Clouds 11 998 71 10000 4.6 330 16:18 04.07.2020
534 Clouds 11 999 71 10000 4.6 320 15:41 04.07.2020
535 Clouds 11 999 71 10000 4.6 320 15:23 04.07.2020
536 Clouds 11 999 66 10000 4.1 340 14:58 04.07.2020
537 Clouds 11 999 66 10000 4.1 340 14:37 04.07.2020
538 Clouds 11 999 66 10000 4.1 340 14:18 04.07.2020
539 Clouds 11 999 62 10000 3.1 10 13:43 04.07.2020
540 Clouds 11 999 62 10000 3.1 10 13:20 04.07.2020
541 Clouds 10 999 61 10000 2.6 20 12:59 04.07.2020
542 Clouds 10 999 61 10000 2.6 20 12:40 04.07.2020
543 Clouds 10 999 61 10000 2.6 20 12:20 04.07.2020
544 Clouds 10 1000 61 10000 2.1 60 11:45 04.07.2020
545 Clouds 10 1000 61 10000 2.1 60 11:24 04.07.2020
546 Clouds 10 1000 61 10000 2.1 100 10:57 04.07.2020
547 Clouds 10 1000 61 10000 2.1 100 10:38 04.07.2020
548 Clouds 10 1000 61 10000 2.1 100 10:19 04.07.2020
549 Clouds 9 1000 66 10000 1.5 100 09:54 04.07.2020
550 Clouds 9 1000 66 10000 1.5 100 09:36 04.07.2020
551 Clouds 9 1000 66 10000 1.5 100 09:18 04.07.2020
552 Clouds 9 1000 66 10000 1.5 100 08:43 04.07.2020
553 Clouds 9 1000 66 10000 1.5 100 08:24 04.07.2020
554 Clouds 9 1000 66 10000 3.6 120 07:42 04.07.2020
555 Clouds 9 1000 66 10000 3.6 120 07:20 04.07.2020
556 Clouds 10 1000 66 10000 2.6 110 06:40 04.07.2020
557 Clouds 10 1000 66 10000 2.6 110 06:20 04.07.2020
558 Clouds 10 1001 66 10000 2.6 100 05:31 04.07.2020
559 Clouds 10 1001 66 10000 3.1 120 04:23 04.07.2020
560 Clouds 10 1002 61 10000 4.1 130 02:48 04.07.2020
561 Clouds 10 1002 61 10000 4.6 130 01:51 04.07.2020
562 Clouds 11 1002 57 10000 6.2 130 00:59 04.07.2020
563 Clouds 11 1002 57 10000 6.2 130 00:40 04.07.2020
564 Clouds 11 1002 57 10000 6.2 130 00:21 04.07.2020
565 Clouds 11 1002 54 10000 6.7 130 23:39 03.07.2020
566 Clouds 11 1002 54 10000 6.7 130 23:18 03.07.2020
567 Clouds 11 1002 54 10000 6.7 130 23:18 03.07.2020
568 Clouds 12 1001 50 10000 6.7 140 22:43 03.07.2020
569 Clouds 12 1001 50 10000 6.7 140 22:25 03.07.2020
570 Clouds 12 1001 54 10000 6.7 160 21:59 03.07.2020
571 Clouds 12 1001 54 10000 6.7 160 21:59 03.07.2020
572 Clouds 12 1001 54 10000 6.7 160 21:39 03.07.2020
573 Clouds 12 1001 54 10000 6.7 160 21:19 03.07.2020
574 Clouds 13 1001 50 10000 7.2 160 20:43 03.07.2020
575 Clouds 13 1001 50 10000 7.2 160 20:25 03.07.2020
576 Clouds 13 1001 50 10000 6.2 150 19:59 03.07.2020
577 Clouds 14 1001 50 10000 6.2 150 19:39 03.07.2020
578 Clouds 14 1001 50 10000 6.2 150 19:18 03.07.2020
579 Clouds 14 1001 50 10000 5.7 150 18:45 03.07.2020
580 Clouds 15 1001 44 10000 4.6 130 18:24 03.07.2020
581 Clouds 15 1001 44 10000 4.6 130 17:56 03.07.2020
582 Clouds 14 1001 44 10000 4.6 130 17:38 03.07.2020
583 Clouds 14 1001 44 10000 4.6 130 17:20 03.07.2020
584 Clouds 14 1002 50 10000 4.6 130 16:41 03.07.2020
585 Clouds 14 1002 50 10000 4.6 130 16:21 03.07.2020
586 Clouds 14 1002 50 10000 3.6 110 15:45 03.07.2020
587 Clouds 14 1002 50 10000 3.6 110 15:24 03.07.2020
588 Clouds 14 1002 44 10000 3.6 90 14:57 03.07.2020
589 Clouds 14 1002 44 10000 3.6 90 14:39 03.07.2020
590 Clouds 14 1002 44 10000 3.6 90 14:19 03.07.2020
591 Clouds 13 1002 54 10000 4.1 130 13:47 03.07.2020
592 Clouds 13 1002 54 10000 4.1 130 13:29 03.07.2020
593 Clouds 13 1002 54 10000 2.1 0 12:54 03.07.2020
594 Clouds 13 1002 54 10000 2.1 0 12:36 03.07.2020
595 Clouds 13 1002 54 10000 2.1 0 12:18 03.07.2020
596 Clouds 12 1002 54 10000 3.6 120 11:42 03.07.2020
597 Clouds 12 1002 54 10000 3.6 120 11:23 03.07.2020
598 Clouds 12 1003 62 10000 3.1 110 10:56 03.07.2020
599 Clouds 12 1003 62 10000 3.1 110 10:37 03.07.2020
600 Clouds 12 1003 62 10000 3.1 110 10:19 03.07.2020
601 Clouds 11 1003 66 10000 3.1 90 09:54 03.07.2020
602 Clouds 11 1003 66 10000 3.1 90 09:36 03.07.2020
603 Clouds 11 1003 66 10000 3.1 90 09:18 03.07.2020
604 Clouds 10 1003 71 10000 3.1 70 08:39 03.07.2020
605 Clouds 10 1003 71 10000 3.1 70 08:18 03.07.2020
606 Clouds 10 1003 71 10000 2.6 100 07:48 03.07.2020
607 Clouds 10 1003 71 10000 2.6 100 07:26 03.07.2020
608 Clouds 9 1003 76 10000 2.1 80 06:49 03.07.2020
609 Clouds 9 1003 76 10000 2.6 70 05:59 03.07.2020
610 Clouds 10 1004 66 10000 1.5 70 04:48 03.07.2020
611 Clouds 10 1004 66 10000 2.6 90 03:26 03.07.2020
612 Clouds 11 1004 71 10000 4.1 110 02:45 03.07.2020
613 Clouds 11 1004 71 10000 4.1 110 02:23 03.07.2020
614 Clouds 11 1004 66 10000 3.1 120 01:28 03.07.2020
615 Clouds 12 1004 66 10000 4.6 140 00:44 03.07.2020
616 Clouds 12 1004 66 10000 4.6 140 00:26 03.07.2020
617 Clouds 12 1004 62 10000 6.2 150 23:44 02.07.2020
618 Clouds 12 1004 62 10000 6.2 150 23:20 02.07.2020
619 Clouds 13 1004 58 10000 5.1 150 22:57 02.07.2020
620 Clouds 13 1004 58 10000 5.1 150 22:39 02.07.2020
621 Clouds 13 1004 58 10000 5.1 150 22:20 02.07.2020
622 Clouds 14 1004 51 10000 6.7 160 21:54 02.07.2020
623 Clouds 14 1004 51 10000 6.7 160 21:36 02.07.2020
624 Clouds 14 1004 51 10000 6.7 160 21:18 02.07.2020
625 Clouds 15 1004 51 10000 6.2 210 20:42 02.07.2020
626 Clouds 15 1004 51 10000 6.2 210 20:21 02.07.2020
627 Clouds 14 1004 62 10000 4.6 270 19:59 02.07.2020
628 Clouds 15 1004 62 10000 4.6 270 19:38 02.07.2020
629 Clouds 15 1004 62 10000 4.6 270 19:20 02.07.2020
630 Clouds 14 1005 71 10000 5.1 270 18:57 02.07.2020
631 Clouds 14 1005 71 10000 5.1 270 18:39 02.07.2020
632 Clouds 14 1005 71 10000 5.1 270 18:20 02.07.2020
633 Clouds 14 1005 67 10000 4.6 270 17:40 02.07.2020
634 Clouds 14 1005 67 10000 4.6 270 17:20 02.07.2020
635 Clouds 14 1005 67 10000 4.6 270 17:20 02.07.2020
636 Clouds 14 1005 58 10000 3.6 290 16:58 02.07.2020
637 Clouds 14 1005 58 10000 3.6 290 16:40 02.07.2020
638 Clouds 14 1005 58 10000 3.6 290 16:20 02.07.2020
639 Clouds 13 1005 66 10000 2.6 270 15:55 02.07.2020
640 Clouds 13 1005 66 10000 2.6 270 15:36 02.07.2020
641 Clouds 13 1005 66 10000 2.6 270 15:18 02.07.2020
642 Clouds 14 1006 71 10000 3.6 280 14:43 02.07.2020
643 Clouds 14 1006 71 10000 3.6 280 14:20 02.07.2020
644 Clouds 14 1006 71 10000 3.6 290 13:56 02.07.2020
645 Clouds 13 1006 71 10000 3.6 290 13:37 02.07.2020
646 Clouds 13 1006 71 10000 3.6 290 13:18 02.07.2020
647 Clouds 12 1007 76 10000 2.6 290 12:41 02.07.2020
648 Clouds 12 1007 76 10000 2.6 290 12:22 02.07.2020
649 Clouds 12 1007 76 10000 2.6 290 12:22 02.07.2020
650 Clouds 12 1007 81 10000 2.1 300 11:55 02.07.2020
651 Clouds 11 1007 81 10000 2.1 300 11:37 02.07.2020
652 Clouds 11 1007 81 10000 2.1 300 11:19 02.07.2020
653 Clouds 10 1008 87 10000 2.1 280 10:42 02.07.2020
654 Clouds 10 1008 87 10000 2.1 280 10:23 02.07.2020
655 Fog 10 1008 81 10000 1 0 09:44 02.07.2020
656 Fog 10 1008 81 10000 1 0 09:23 02.07.2020
657 Clouds 9 1008 81 10000 1 140 08:59 02.07.2020
658 Clouds 9 1008 81 10000 1 140 08:40 02.07.2020
659 Clouds 9 1008 81 10000 1 140 08:20 02.07.2020
660 Clouds 8 1008 87 10000 1 110 07:42 02.07.2020
661 Clouds 8 1008 87 10000 1 110 07:22 02.07.2020
662 Clouds 9 1009 81 10000 0.32 202 06:47 02.07.2020
663 Clouds 9 1009 81 10000 0.31 216 06:27 02.07.2020
664 Clouds 9 1009 81 10000 0.31 216 05:49 02.07.2020
665 Clouds 9 1010 87 10000 1 0 04:55 02.07.2020
666 Clouds 9 1010 81 10000 1 0 03:34 02.07.2020
667 Clouds 10 1011 76 10000 2.6 270 01:51 02.07.2020
668 Clouds 11 1012 76 10000 3.1 270 00:44 02.07.2020
669 Clouds 11 1012 76 10000 3.1 270 00:18 02.07.2020
670 Clouds 11 1012 76 10000 3.6 270 23:43 01.07.2020
671 Clouds 11 1012 76 10000 3.6 270 23:22 01.07.2020
672 Clouds 11 1012 76 10000 3.6 260 22:55 01.07.2020
673 Clouds 11 1012 76 10000 3.6 260 22:37 01.07.2020
674 Clouds 11 1012 76 10000 3.6 260 22:18 01.07.2020
675 Clouds 11 1012 81 10000 4.1 260 21:56 01.07.2020
676 Clouds 11 1012 81 10000 4.1 260 21:38 01.07.2020
677 Clouds 11 1012 81 10000 4.1 260 21:19 01.07.2020
678 Clouds 12 1013 71 10000 4.1 290 20:46 01.07.2020
679 Clouds 12 1013 71 10000 4.1 290 20:26 01.07.2020
680 Clouds 12 1013 71 10000 4.1 280 19:58 01.07.2020
681 Clouds 12 1013 71 10000 4.1 280 19:39 01.07.2020
682 Clouds 12 1013 71 10000 4.1 280 19:20 01.07.2020
683 Clouds 12 1013 71 10000 4.1 270 18:56 01.07.2020
684 Clouds 12 1013 71 10000 4.1 270 18:38 01.07.2020
685 Clouds 12 1013 71 10000 4.1 270 18:20 01.07.2020
686 Clouds 12 1013 76 10000 4.6 280 17:41 01.07.2020
687 Clouds 12 1013 76 10000 4.6 280 17:20 01.07.2020
688 Clouds 12 1014 76 10000 4.1 280 16:56 01.07.2020
689 Clouds 12 1014 76 10000 4.1 280 16:38 01.07.2020
690 Clouds 12 1014 76 10000 4.1 280 16:20 01.07.2020
691 Clouds 11 1014 81 10000 3.6 290 15:41 01.07.2020
692 Clouds 11 1014 81 10000 3.6 290 15:22 01.07.2020
693 Clouds 11 1014 87 10000 3.6 280 14:56 01.07.2020
694 Clouds 11 1014 87 10000 3.6 280 14:37 01.07.2020
695 Clouds 11 1014 87 10000 3.6 280 14:19 01.07.2020
696 Clouds 11 1014 87 10000 4.1 270 13:40 01.07.2020
697 Clouds 11 1014 87 10000 4.1 270 13:22 01.07.2020
698 Clouds 10 1014 93 10000 4.1 280 12:59 01.07.2020
699 Clouds 10 1014 93 10000 4.1 280 12:40 01.07.2020
700 Clouds 10 1014 93 10000 4.1 280 12:22 01.07.2020
701 Clouds 9 1014 100 10000 4.6 260 11:58 01.07.2020
702 Clouds 9 1014 100 10000 4.6 260 11:38 01.07.2020
703 Clouds 9 1014 100 10000 4.6 260 11:38 01.07.2020
704 Clouds 9 1014 100 10000 4.6 260 11:19 01.07.2020
705 Drizzle 9 1014 93 10000 4.6 260 10:43 01.07.2020
706 Drizzle 9 1014 93 10000 4.6 260 10:23 01.07.2020
707 Drizzle 9 1015 100 3500 4.6 250 09:59 01.07.2020
708 Mist 8 1015 100 3500 4.6 250 09:38 01.07.2020
709 Drizzle 8 1015 100 3500 4.6 250 09:20 01.07.2020
710 Drizzle 8 1015 100 2500 3.6 220 08:56 01.07.2020
711 Drizzle 8 1015 100 2500 3.6 220 08:38 01.07.2020
712 Drizzle 8 1015 100 2500 3.6 220 08:18 01.07.2020
713 Drizzle 8 1015 100 4000 4.1 230 07:40 01.07.2020
714 Mist 8 1015 100 4000 4.1 230 07:21 01.07.2020
715 Drizzle 8 1015 100 4000 4.1 230 06:50 01.07.2020
716 Drizzle 8 1015 100 4000 4.1 230 06:28 01.07.2020
717 Drizzle 9 1016 93 4000 3.6 220 05:28 01.07.2020
718 Drizzle 9 1016 81 10000 3.1 260 03:48 01.07.2020
719 Drizzle 9 1016 81 10000 3.1 260 03:28 01.07.2020
720 Drizzle 10 1016 100 10000 3.1 250 02:41 01.07.2020
721 Clouds 10 1016 100 10000 3.1 260 01:53 01.07.2020
722 Clouds 10 1016 87 10000 3.1 220 00:48 01.07.2020
723 Clouds 10 1016 87 10000 3.1 220 00:26 01.07.2020
724 Rain 10 1016 87 10000 4.1 240 23:43 30.06.2020
725 Rain 10 1016 87 10000 4.1 240 23:23 30.06.2020
726 Drizzle 10 1016 87 8000 4.1 250 22:59 30.06.2020
727 Drizzle 10 1016 87 8000 4.1 250 22:41 30.06.2020
728 Mist 10 1016 87 8000 4.1 250 22:18 30.06.2020
729 Clouds 10 1016 87 10000 4.1 240 21:41 30.06.2020
730 Clouds 10 1016 87 10000 4.1 240 21:19 30.06.2020
731 Clouds 10 1016 87 8000 4.6 240 20:57 30.06.2020
732 Clouds 10 1016 87 8000 4.6 240 20:39 30.06.2020
733 Clouds 10 1016 87 8000 4.6 240 20:20 30.06.2020
734 Drizzle 10 1016 87 4000 5.1 220 19:43 30.06.2020
735 Drizzle 10 1016 87 4000 5.1 220 19:20 30.06.2020
736 Drizzle 10 1016 93 3000 5.7 220 18:54 30.06.2020
737 Drizzle 10 1016 93 3000 5.7 220 18:36 30.06.2020
738 Drizzle 10 1016 93 3000 5.7 220 18:18 30.06.2020
739 Drizzle 11 1016 87 4000 5.1 210 17:38 30.06.2020
740 Drizzle 11 1016 87 4000 5.1 210 17:19 30.06.2020
741 Drizzle 11 1016 87 2800 4.1 210 16:55 30.06.2020
742 Drizzle 11 1016 87 2800 4.1 210 16:36 30.06.2020
743 Drizzle 11 1016 87 2800 4.1 210 16:18 30.06.2020
744 Drizzle 12 1016 100 3500 3.6 230 15:41 30.06.2020
745 Drizzle 12 1016 100 3500 3.6 230 15:22 30.06.2020
746 Clouds 12 1016 82 10000 3.1 240 14:57 30.06.2020
747 Clouds 12 1016 82 10000 3.1 240 14:38 30.06.2020
748 Clouds 12 1016 82 10000 3.1 240 14:18 30.06.2020
749 Clouds 12 1016 82 10000 3.1 240 14:18 30.06.2020
750 Clouds 12 1015 76 10000 3.6 280 13:41 30.06.2020
751 Clouds 12 1015 76 10000 3.6 280 13:21 30.06.2020
752 Clouds 12 1015 87 10000 2.1 260 12:59 30.06.2020
753 Clouds 12 1015 87 10000 2.1 260 12:40 30.06.2020
754 Clouds 12 1015 87 10000 2.1 260 12:21 30.06.2020
755 Clouds 12 1015 87 10000 2.1 260 12:21 30.06.2020
756 Clouds 12 1015 81 10000 1 0 11:58 30.06.2020
757 Clouds 12 1015 81 10000 1 0 11:39 30.06.2020
758 Clouds 12 1015 81 10000 1 0 11:20 30.06.2020
759 Clouds 11 1015 100 10000 1.5 280 10:59 30.06.2020
760 Rain 14 1005 67 10000 2.1 340 16:43 28.06.2020
761 Rain 15 1005 67 10000 2.1 340 16:24 28.06.2020
762 Rain 15 1005 72 10000 1.5 290 15:56 28.06.2020
763 Rain 15 1005 72 10000 1.5 290 15:38 28.06.2020
764 Rain 15 1005 72 10000 1.5 290 15:19 28.06.2020
765 Clouds 15 1004 67 10000 1.5 350 14:46 28.06.2020
766 Clouds 14 1004 67 10000 1.5 350 14:28 28.06.2020
767 Rain 13 1004 76 10000 2.6 10 13:58 28.06.2020
768 Rain 13 1004 76 10000 2.6 10 13:38 28.06.2020
769 Rain 13 1004 76 10000 2.6 10 13:19 28.06.2020
770 Clouds 13 1004 76 10000 2.1 350 12:56 28.06.2020
771 Clouds 13 1004 76 10000 2.1 350 12:37 28.06.2020
772 Clouds 13 1004 76 10000 2.1 350 12:19 28.06.2020
773 Clouds 13 1004 76 10000 2.1 300 11:56 28.06.2020
774 Clouds 12 1004 76 10000 2.1 300 11:37 28.06.2020
775 Clouds 12 1004 76 10000 2.1 300 11:19 28.06.2020
776 Clouds 12 1003 87 10000 0.5 0 10:55 28.06.2020
777 Clouds 12 1003 87 10000 0.5 0 10:36 28.06.2020
778 Clouds 12 1003 87 10000 0.5 0 10:18 28.06.2020
779 Clouds 11 1003 93 10000 2.55 22 09:39 28.06.2020
780 Clouds 11 1003 93 10000 2.83 10 09:20 28.06.2020
781 Clouds 11 1003 93 10000 0.5 230 08:47 28.06.2020
782 Clouds 10 1003 93 10000 0.5 230 08:25 28.06.2020
783 Clouds 10 1003 93 10000 2.87 5 07:47 28.06.2020
784 Clouds 10 1003 93 10000 2.87 5 07:47 28.06.2020
785 Clouds 11 1003 93 10000 2.56 11 07:28 28.06.2020
786 Clouds 10 1003 93 10000 1.5 220 06:43 28.06.2020
787 Clouds 10 1003 93 10000 1.5 220 06:24 28.06.2020
788 Rain 10 1003 87 10000 1 0 05:26 28.06.2020
789 Rain 10 1003 81 10000 3.6 160 03:32 28.06.2020
790 Clouds 11 1003 81 10000 3.6 180 02:39 28.06.2020
791 Clouds 12 1003 76 10000 3.1 170 01:53 28.06.2020
792 Rain 12 1003 76 10000 3.1 170 01:26 28.06.2020
793 Rain 13 1003 67 10000 1.5 30 00:48 28.06.2020
794 Clouds 13 1003 67 10000 1.5 30 00:24 28.06.2020
795 Rain 13 1003 67 10000 3.1 30 23:42 27.06.2020
796 Rain 13 1003 67 10000 3.1 30 23:23 27.06.2020
797 Clouds 14 1003 62 10000 4.1 360 22:58 27.06.2020
798 Clouds 14 1003 62 10000 4.1 360 22:40 27.06.2020
799 Clouds 14 1003 62 10000 4.1 360 22:20 27.06.2020
800 Clouds 14 1003 62 10000 4.1 360 21:55 27.06.2020
801 Clouds 15 1003 62 10000 4.1 360 21:37 27.06.2020
802 Clouds 15 1003 62 10000 4.1 360 21:18 27.06.2020
803 Clouds 15 1003 63 10000 4.1 350 20:42 27.06.2020
804 Clouds 15 1003 63 10000 4.1 350 20:19 27.06.2020
805 Clouds 15 1003 59 10000 4.6 360 19:55 27.06.2020
806 Clouds 15 1003 59 10000 4.6 360 19:36 27.06.2020
807 Clouds 15 1003 59 10000 4.6 360 19:18 27.06.2020
808 Clouds 15 1004 59 10000 5.1 360 18:43 27.06.2020
809 Clouds 15 1004 59 10000 5.1 360 18:22 27.06.2020
810 Clouds 15 1004 55 10000 4.1 360 17:57 27.06.2020
811 Clouds 15 1004 55 10000 4.1 360 17:38 27.06.2020
812 Clouds 15 1004 55 10000 4.1 360 17:19 27.06.2020
813 Clouds 15 1004 59 10000 3.1 340 16:43 27.06.2020
814 Clouds 15 1004 59 10000 3.1 340 16:25 27.06.2020
815 Clouds 15 1005 54 10000 4.1 350 15:55 27.06.2020
816 Clouds 14 1005 54 10000 4.1 350 15:37 27.06.2020
817 Clouds 14 1005 54 10000 4.1 350 15:18 27.06.2020
818 Clouds 14 1005 58 10000 3.1 350 14:41 27.06.2020
819 Clouds 14 1005 58 10000 3.1 350 14:23 27.06.2020
820 Clouds 13 1006 62 10000 4.1 340 13:57 27.06.2020
821 Clouds 13 1006 62 10000 4.1 340 13:37 27.06.2020
822 Clouds 13 1006 62 10000 4.1 340 13:19 27.06.2020
823 Clouds 12 1006 66 10000 1.5 0 12:56 27.06.2020
824 Clouds 12 1006 66 10000 1.5 0 12:37 27.06.2020
825 Clouds 12 1006 66 10000 1.5 0 12:19 27.06.2020
826 Clouds 11 1006 81 10000 2.6 320 11:42 27.06.2020
827 Clouds 11 1006 81 10000 2.6 320 11:24 27.06.2020
828 Clouds 11 1007 87 10000 0.5 0 10:59 27.06.2020
829 Clouds 11 1007 87 10000 0.5 0 10:38 27.06.2020
830 Clouds 11 1007 87 10000 0.5 0 10:18 27.06.2020
831 Clouds 9 1007 93 10000 0.5 0 09:41 27.06.2020
832 Clouds 9 1007 93 10000 0.5 0 09:21 27.06.2020
833 Clouds 9 1007 93 10000 3.12 13 08:57 27.06.2020
834 Clouds 9 1007 93 10000 3.12 13 08:39 27.06.2020
835 Clouds 9 1007 93 10000 2.84 17 08:20 27.06.2020
836 Clouds 8 1008 83 10000 1 0 07:41 27.06.2020
837 Clouds 8 1008 85 10000 1 0 07:23 27.06.2020
838 Clouds 8 1008 85 10000 1 0 06:38 27.06.2020
839 Clouds 8 1008 86 10000 1 0 06:19 27.06.2020
840 Clouds 9 1009 93 10000 2.6 170 04:22 27.06.2020
841 Clouds 10 1009 93 10000 0.5 0 03:51 27.06.2020
842 Clouds 10 1010 87 10000 1.5 280 02:49 27.06.2020
843 Clouds 10 1010 87 10000 1.5 280 02:29 27.06.2020
844 Clouds 11 1010 81 10000 3.1 320 01:41 27.06.2020
845 Clouds 11 1010 81 10000 3.1 320 00:56 27.06.2020
846 Clouds 11 1010 81 10000 3.1 320 00:27 27.06.2020
847 Clouds 11 1010 76 10000 2.1 330 23:41 26.06.2020
848 Clouds 11 1010 76 10000 2.1 330 23:22 26.06.2020
849 Clouds 11 1010 76 10000 2.1 340 22:56 26.06.2020
850 Clouds 11 1010 76 10000 2.1 340 22:37 26.06.2020
851 Clouds 11 1010 76 10000 2.1 340 22:19 26.06.2020
852 Rain 11 1010 76 10000 2.1 350 21:57 26.06.2020
853 Rain 11 1010 76 10000 2.1 350 21:37 26.06.2020
854 Rain 11 1010 76 10000 2.1 350 21:19 26.06.2020
855 Clouds 11 1010 76 10000 3.6 10 20:42 26.06.2020
856 Clouds 11 1010 76 10000 3.6 10 20:19 26.06.2020
857 Rain 11 1011 76 10000 3.1 350 19:43 26.06.2020
858 Rain 11 1011 76 10000 3.1 350 19:23 26.06.2020
859 Rain 11 1011 76 10000 2.6 310 18:55 26.06.2020
860 Rain 11 1011 76 10000 2.6 310 18:37 26.06.2020
861 Rain 11 1011 76 10000 2.6 310 18:18 26.06.2020
862 Rain 11 1011 76 10000 3.6 300 17:43 26.06.2020
863 Rain 11 1011 76 10000 3.6 300 17:24 26.06.2020
864 Clouds 12 1011 71 10000 3.6 300 16:48 26.06.2020
865 Clouds 12 1011 71 10000 3.6 300 16:25 26.06.2020
866 Clouds 12 1011 58 10000 2.6 140 15:55 26.06.2020
867 Clouds 13 1011 58 10000 2.6 140 15:37 26.06.2020
868 Clouds 13 1011 58 10000 2.6 140 15:18 26.06.2020
869 Rain 13 1011 58 10000 4.6 150 14:55 26.06.2020
870 Rain 13 1011 58 10000 4.6 150 14:37 26.06.2020
871 Rain 13 1011 58 10000 4.6 150 14:19 26.06.2020
872 Rain 12 1012 58 10000 3.6 100 13:43 26.06.2020
873 Rain 12 1012 58 10000 3.6 100 13:18 26.06.2020
874 Rain 12 1012 58 10000 3.6 100 13:18 26.06.2020
875 Clouds 12 1012 58 10000 3.6 140 12:41 26.06.2020
876 Clouds 12 1012 58 10000 3.6 140 12:23 26.06.2020
877 Clouds 12 1012 58 10000 3.6 140 12:23 26.06.2020
878 Clouds 12 1012 66 10000 3.6 110 11:59 26.06.2020
879 Clouds 11 1012 66 10000 3.6 110 11:40 26.06.2020
880 Clouds 11 1012 66 10000 3.6 110 11:21 26.06.2020
881 Clouds 11 1012 66 10000 3.1 70 10:58 26.06.2020
882 Clouds 11 1012 66 10000 3.1 70 10:39 26.06.2020
883 Clouds 11 1012 66 10000 3.1 70 10:19 26.06.2020
884 Clouds 10 1012 76 10000 2.1 80 09:44 26.06.2020
885 Clouds 10 1012 76 10000 2.1 80 09:26 26.06.2020
886 Rain 9 1012 81 10000 2.1 110 08:57 26.06.2020
887 Rain 9 1012 81 10000 2.1 110 08:37 26.06.2020
888 Rain 9 1012 81 10000 2.1 110 08:19 26.06.2020
889 Clouds 9 1013 81 10000 2.1 80 07:44 26.06.2020
890 Clouds 9 1013 81 10000 2.1 80 07:22 26.06.2020
891 Clouds 9 1013 81 10000 2.6 80 06:44 26.06.2020
892 Clouds 9 1013 81 10000 2.6 80 06:26 26.06.2020
893 Clouds 10 1013 76 10000 2.1 90 05:49 26.06.2020
894 Clouds 10 1013 76 10000 1.5 50 04:42 26.06.2020
895 Clouds 10 1014 76 10000 2.1 360 02:22 26.06.2020
896 Clouds 10 1014 76 10000 2.1 10 01:22 26.06.2020
897 Clouds 10 1014 76 10000 2.6 10 00:42 26.06.2020
898 Clouds 10 1014 76 10000 2.6 10 00:20 26.06.2020
899 Clouds 10 1014 76 10000 2.1 350 23:46 25.06.2020
900 Clouds 10 1014 76 10000 2.1 350 23:20 25.06.2020
901 Clouds 10 1014 76 10000 2.1 310 22:57 25.06.2020
902 Clouds 10 1014 76 10000 2.1 310 22:38 25.06.2020
903 Clouds 10 1014 76 10000 2.1 310 22:19 25.06.2020
904 Clouds 10 1014 76 10000 2.1 280 21:56 25.06.2020
905 Clouds 10 1014 76 10000 2.1 280 21:38 25.06.2020
906 Clouds 10 1014 76 10000 2.1 280 21:20 25.06.2020
907 Clouds 10 1014 81 10000 2.1 290 20:55 25.06.2020
908 Clouds 10 1014 81 10000 2.1 290 20:37 25.06.2020
909 Clouds 10 1014 81 10000 2.1 290 20:19 25.06.2020
910 Clouds 10 1014 81 10000 3.1 290 19:41 25.06.2020
911 Clouds 10 1014 81 10000 3.1 290 19:19 25.06.2020
912 Clouds 10 1014 81 10000 3.6 290 18:58 25.06.2020
913 Clouds 10 1014 81 10000 3.6 290 18:38 25.06.2020
914 Clouds 10 1014 81 10000 3.6 290 18:19 25.06.2020
915 Clouds 10 1014 87 10000 2.1 310 17:44 25.06.2020
916 Clouds 10 1014 87 10000 2.1 310 17:20 25.06.2020
917 Rain 9 1014 87 10000 2.6 280 16:58 25.06.2020
918 Rain 9 1014 87 10000 2.6 280 16:37 25.06.2020
919 Rain 9 1014 87 10000 2.6 280 16:19 25.06.2020
920 Rain 9 1014 87 10000 3.1 270 15:41 25.06.2020
921 Rain 9 1014 87 10000 3.1 270 15:22 25.06.2020
922 Rain 9 1013 81 10000 3.6 220 14:45 25.06.2020
923 Rain 9 1013 81 10000 3.6 220 14:25 25.06.2020
924 Clouds 9 1013 87 10000 2.1 270 13:59 25.06.2020
925 Clouds 9 1013 87 10000 2.1 270 13:41 25.06.2020
926 Clouds 9 1013 87 10000 2.1 270 13:19 25.06.2020
927 Clouds 9 1013 87 10000 2.1 270 13:19 25.06.2020
928 Clouds 9 1012 87 10000 2.1 220 12:55 25.06.2020
929 Rain 9 1012 87 10000 2.6 230 12:37 25.06.2020
930 Rain 9 1012 87 10000 2.6 230 12:18 25.06.2020
931 Rain 9 1012 87 10000 2.6 230 11:42 25.06.2020
932 Rain 9 1012 87 10000 2.6 230 11:21 25.06.2020
933 Drizzle 8 1012 93 10000 3.1 220 10:44 25.06.2020
934 Drizzle 8 1012 93 10000 3.1 220 10:25 25.06.2020
935 Drizzle 8 1011 93 10000 3.1 190 09:55 25.06.2020
936 Drizzle 8 1011 93 10000 3.1 190 09:36 25.06.2020
937 Drizzle 8 1011 93 10000 3.1 190 09:18 25.06.2020
938 Drizzle 8 1010 93 10000 3.6 200 08:42 25.06.2020
939 Drizzle 8 1010 93 10000 3.6 200 08:18 25.06.2020
940 Drizzle 8 1010 93 10000 3.6 200 08:18 25.06.2020
941 Drizzle 8 1009 87 10000 3.6 210 07:43 25.06.2020
942 Drizzle 8 1009 87 10000 3.6 210 07:24 25.06.2020
943 Drizzle 9 1009 81 10000 3.1 200 06:45 25.06.2020
944 Drizzle 9 1009 81 10000 3.1 200 06:25 25.06.2020
945 Drizzle 9 1008 81 10000 3.6 200 05:39 25.06.2020
946 Clouds 9 1007 81 10000 4.6 200 03:51 25.06.2020
947 Clouds 9 1007 81 10000 2.6 220 02:59 25.06.2020
948 Clouds 9 1007 81 10000 2.6 220 02:41 25.06.2020
949 Clouds 10 1006 81 10000 3.6 240 01:43 25.06.2020
950 Clouds 10 1005 81 10000 3.6 260 00:59 25.06.2020
951 Clouds 10 1005 81 10000 3.6 260 00:40 25.06.2020
952 Clouds 10 1005 81 10000 3.6 260 00:18 25.06.2020
953 Clouds 10 1004 81 10000 3.6 280 23:41 24.06.2020
954 Clouds 10 1004 81 10000 3.6 280 23:23 24.06.2020
955 Clouds 11 1003 76 10000 3.1 260 22:56 24.06.2020
956 Clouds 12 1003 76 10000 3.1 260 22:37 24.06.2020
957 Clouds 12 1003 76 10000 3.1 260 22:18 24.06.2020
958 Clouds 12 1002 76 10000 3.6 290 21:55 24.06.2020
959 Clouds 12 1002 76 10000 3.6 290 21:36 24.06.2020
960 Clouds 12 1002 76 10000 3.6 290 21:18 24.06.2020
961 Clouds 13 1001 66 10000 5.1 290 20:56 24.06.2020
962 Clouds 13 1001 66 10000 5.1 290 20:37 24.06.2020
963 Clouds 13 1001 66 10000 5.1 290 20:19 24.06.2020
964 Clouds 13 1000 71 10000 5.1 310 19:55 24.06.2020
965 Clouds 13 1000 71 10000 5.1 310 19:36 24.06.2020
966 Clouds 13 1000 71 10000 5.1 310 19:18 24.06.2020
967 Clouds 13 1000 71 10000 3.6 320 18:56 24.06.2020
968 Clouds 13 1000 71 10000 3.6 320 18:37 24.06.2020
969 Clouds 13 1000 71 10000 3.6 320 18:18 24.06.2020
970 Rain 13 1000 81 10000 3.1 300 17:41 24.06.2020
971 Rain 13 1000 81 10000 3.1 300 17:19 24.06.2020
972 Rain 13 999 66 10000 4.6 330 16:56 24.06.2020
973 Rain 13 999 66 10000 4.6 330 16:56 24.06.2020
974 Rain 13 999 66 10000 4.6 330 16:38 24.06.2020
975 Rain 13 999 66 10000 4.6 330 16:20 24.06.2020
976 Rain 14 998 71 10000 5.1 330 15:56 24.06.2020
977 Rain 13 998 71 10000 5.1 330 15:38 24.06.2020
978 Rain 13 998 71 10000 5.1 330 15:20 24.06.2020
979 Clouds 12 998 76 10000 4.1 330 14:43 24.06.2020
980 Clouds 12 998 76 10000 4.1 330 14:25 24.06.2020
981 Clouds 12 998 76 10000 2.6 10 13:57 24.06.2020
982 Clouds 12 998 76 10000 2.6 10 13:38 24.06.2020
983 Clouds 12 998 76 10000 2.6 10 13:18 24.06.2020
984 Rain 11 998 76 10000 3.1 70 12:41 24.06.2020
985 Rain 11 998 76 10000 3.1 70 12:20 24.06.2020
986 Rain 11 998 81 10000 2.1 90 11:56 24.06.2020
987 Rain 11 998 81 10000 2.1 90 11:38 24.06.2020
988 Rain 11 998 81 10000 2.1 90 11:18 24.06.2020
989 Rain 11 998 81 10000 2.6 50 10:43 24.06.2020
990 Rain 11 998 81 10000 2.6 50 10:19 24.06.2020
991 Drizzle 11 998 81 10000 3.1 70 09:43 24.06.2020
992 Drizzle 11 998 81 10000 3.1 70 09:22 24.06.2020
993 Rain 10 998 87 10000 2.6 40 08:45 24.06.2020
994 Rain 10 998 87 10000 2.6 40 08:26 24.06.2020
995 Rain 10 998 81 10000 2.6 90 07:58 24.06.2020
996 Rain 10 998 81 10000 2.6 90 07:40 24.06.2020
997 Rain 10 998 81 10000 2.6 90 07:18 24.06.2020
998 Rain 10 997 81 10000 3.6 70 06:40 24.06.2020
999 Rain 10 997 81 10000 3.6 70 06:21 24.06.2020
1000 Rain 10 997 81 10000 2.6 60 05:32 24.06.2020
1001 Drizzle 10 997 81 10000 3.6 70 04:37 24.06.2020
1002 Rain 10 998 76 10000 4.1 50 03:37 24.06.2020
1003 Rain 10 998 71 10000 4.1 70 02:52 24.06.2020
1004 Drizzle 11 998 71 7000 4.6 90 01:46 24.06.2020
1005 Rain 11 998 71 10000 6.2 80 00:49 24.06.2020
1006 Rain 11 998 71 10000 6.2 80 00:29 24.06.2020
1007 Rain 11 998 62 10000 5.1 90 23:46 23.06.2020
1008 Rain 11 998 62 10000 5.1 90 23:21 23.06.2020
1009 Rain 12 997 58 10000 6.7 80 22:57 23.06.2020
1010 Rain 12 997 58 10000 6.7 80 22:38 23.06.2020
1011 Rain 12 997 58 10000 6.7 80 22:18 23.06.2020
1012 Rain 11 998 58 10000 7.2 70 21:42 23.06.2020
1013 Rain 11 998 58 10000 7.2 70 21:20 23.06.2020
1014 Rain 11 998 58 10000 7.2 80 20:56 23.06.2020
1015 Rain 11 998 58 10000 7.2 80 20:38 23.06.2020
1016 Rain 11 998 58 10000 7.2 80 20:19 23.06.2020
1017 Rain 11 999 66 10000 3.1 20 19:57 23.06.2020
1018 Rain 11 999 66 10000 3.1 20 19:38 23.06.2020
1019 Rain 11 999 66 10000 3.1 20 19:20 23.06.2020
1020 Rain 12 999 62 10000 6.2 110 18:38 23.06.2020
1021 Rain 12 999 62 10000 6.2 110 18:18 23.06.2020
1022 Clouds 12 999 50 10000 4.6 110 17:41 23.06.2020
1023 Clouds 12 999 50 10000 4.6 110 17:22 23.06.2020
1024 Clouds 12 999 47 10000 6.2 140 16:57 23.06.2020
1025 Clouds 12 999 47 10000 6.2 140 16:38 23.06.2020
1026 Clouds 12 999 47 10000 6.2 140 16:20 23.06.2020
1027 Clouds 12 999 47 10000 6.2 140 16:20 23.06.2020
1028 Clouds 13 999 50 10000 8.7 150 15:57 23.06.2020
1029 Clouds 12 999 50 10000 8.7 150 15:38 23.06.2020
1030 Clouds 12 999 50 10000 8.7 150 15:18 23.06.2020
1031 Rain 12 999 58 10000 6.2 130 14:42 23.06.2020
1032 Rain 12 999 58 10000 6.2 130 14:19 23.06.2020
1033 Rain 12 999 62 10000 6.7 130 13:56 23.06.2020
1034 Rain 12 999 62 10000 6.7 130 13:38 23.06.2020
1035 Rain 12 999 62 10000 6.7 130 13:20 23.06.2020
1036 Clouds 11 999 71 10000 4.6 130 12:42 23.06.2020
1037 Clouds 11 999 71 10000 4.6 130 12:22 23.06.2020
1038 Rain 11 998 71 10000 4.1 140 11:58 23.06.2020
1039 Rain 11 998 71 10000 4.1 140 11:39 23.06.2020
1040 Rain 11 998 71 10000 4.1 140 11:19 23.06.2020
1041 Rain 9 998 76 10000 6.2 120 10:55 23.06.2020
1042 Rain 9 998 76 10000 6.2 120 10:37 23.06.2020
1043 Rain 9 998 76 10000 6.2 120 10:19 23.06.2020
1044 Clouds 10 997 66 10000 5.7 120 09:41 23.06.2020
1045 Clouds 10 997 66 10000 5.7 120 09:20 23.06.2020
1046 Clouds 10 997 66 10000 5.1 140 08:57 23.06.2020
1047 Clouds 10 997 66 10000 5.1 140 08:38 23.06.2020
1048 Clouds 10 997 66 10000 5.1 140 08:19 23.06.2020
1049 Rain 9 997 70 10000 2.1 150 07:40 23.06.2020
1050 Rain 9 997 70 10000 2.1 150 07:21 23.06.2020
1051 Clouds 9 997 70 10000 3.6 130 06:49 23.06.2020
1052 Clouds 8 997 70 10000 3.6 130 06:30 23.06.2020
1053 Clouds 8 997 75 10000 3.6 120 05:41 23.06.2020
1054 Clouds 8 996 75 10000 3.6 130 03:39 23.06.2020
1055 Clouds 9 996 70 10000 3.6 140 02:56 23.06.2020
1056 Clouds 9 996 70 10000 3.6 140 02:37 23.06.2020
1057 Clouds 9 996 70 10000 3.6 140 02:19 23.06.2020
1058 Clouds 9 996 70 10000 4.1 140 01:37 23.06.2020
1059 Clouds 9 996 70 10000 4.1 140 01:18 23.06.2020
1060 Clouds 10 996 66 10000 4.6 160 00:24 23.06.2020
1061 Clouds 11 996 62 10000 4.6 160 23:57 22.06.2020
1062 Clouds 11 996 62 10000 4.6 160 23:38 22.06.2020
1063 Clouds 11 996 62 10000 4.6 160 23:19 22.06.2020
1064 Clouds 11 996 58 10000 4.1 180 22:57 22.06.2020
1065 Clouds 11 996 58 10000 4.1 180 22:39 22.06.2020
1066 Clouds 11 996 58 10000 4.1 180 22:19 22.06.2020
1067 Clouds 12 996 54 10000 4.6 170 21:57 22.06.2020
1068 Clouds 12 996 54 10000 4.6 170 21:38 22.06.2020
1069 Clouds 12 996 54 10000 4.6 170 21:20 22.06.2020
1070 Clouds 12 996 58 10000 4.6 180 20:42 22.06.2020
1071 Clouds 12 996 58 10000 4.6 180 20:24 22.06.2020
1072 Clouds 12 996 58 10000 6.2 160 19:58 22.06.2020
1073 Clouds 12 996 58 10000 6.2 160 19:38 22.06.2020
1074 Clouds 12 996 58 10000 6.2 160 19:18 22.06.2020
1075 Clouds 12 996 62 10000 5.1 160 18:41 22.06.2020
1076 Clouds 12 996 62 10000 5.1 160 18:23 22.06.2020
1077 Clouds 12 996 62 10000 6.2 150 17:57 22.06.2020
1078 Clouds 12 996 62 10000 6.2 150 17:38 22.06.2020
1079 Clouds 12 996 62 10000 6.2 150 17:20 22.06.2020
1080 Clouds 12 996 66 10000 5.7 160 16:57 22.06.2020
1081 Clouds 12 996 66 10000 5.7 160 16:38 22.06.2020
1082 Clouds 12 996 66 10000 5.7 160 16:18 22.06.2020
1083 Rain 11 996 71 10000 4.6 160 15:44 22.06.2020
1084 Rain 11 996 71 10000 4.6 160 15:26 22.06.2020
1085 Rain 11 997 76 10000 4.1 140 14:58 22.06.2020
1086 Rain 11 997 76 10000 4.1 140 14:38 22.06.2020
1087 Rain 11 997 76 10000 4.1 140 14:19 22.06.2020
1088 Rain 10 996 81 10000 3.6 170 13:54 22.06.2020
1089 Rain 10 996 81 10000 3.6 170 13:36 22.06.2020
1090 Rain 10 996 81 10000 3.6 170 13:18 22.06.2020
1091 Drizzle 10 996 87 10000 3.1 200 12:41 22.06.2020
1092 Drizzle 10 996 87 10000 3.1 200 12:22 22.06.2020
1093 Drizzle 10 996 87 10000 2.1 190 11:38 22.06.2020
1094 Drizzle 10 996 87 10000 2.1 190 11:20 22.06.2020
1095 Drizzle 10 995 87 3000 3.6 210 10:57 22.06.2020
1096 Drizzle 10 995 87 3000 3.6 210 10:39 22.06.2020
1097 Drizzle 10 995 87 3000 3.6 210 10:19 22.06.2020
1098 Clouds 11 995 71 10000 2.1 140 09:58 22.06.2020
1099 Clouds 11 995 71 10000 2.1 140 09:40 22.06.2020
1100 Clouds 11 995 71 10000 2.1 140 09:19 22.06.2020
1101 Rain 11 995 71 10000 4.1 110 08:57 22.06.2020
1102 Rain 12 995 71 10000 4.1 110 08:38 22.06.2020
1103 Rain 12 995 71 10000 4.1 110 08:19 22.06.2020
1104 Clouds 12 995 66 10000 5.7 100 07:50 22.06.2020
1105 Clouds 12 995 66 10000 5.7 100 07:31 22.06.2020
1106 Clouds 12 995 62 10000 7.2 90 06:44 22.06.2020
1107 Clouds 13 995 62 10000 7.2 90 06:25 22.06.2020
1108 Clouds 13 996 62 10000 5.7 70 05:43 22.06.2020
1109 Clouds 13 996 66 10000 5.7 70 04:22 22.06.2020
1110 Clouds 14 996 58 10000 6.2 70 02:35 22.06.2020
1111 Clouds 14 997 62 10000 5.1 100 01:21 22.06.2020
1112 Rain 14 997 62 10000 4.6 100 00:39 22.06.2020
1113 Clouds 16 996 51 10000 8.2 110 23:58 21.06.2020
1114 Clouds 16 996 51 10000 8.2 110 23:39 21.06.2020
1115 Clouds 16 996 51 10000 8.2 110 23:21 21.06.2020
1116 Clouds 16 996 48 10000 7.2 110 22:57 21.06.2020
1117 Clouds 17 996 48 10000 7.2 110 22:37 21.06.2020
1118 Clouds 17 996 48 10000 7.2 110 22:19 21.06.2020
1119 Clouds 17 996 48 10000 7.2 110 22:19 21.06.2020
1120 Clouds 17 996 45 10000 7.7 110 21:57 21.06.2020
1121 Clouds 17 996 45 10000 7.7 110 21:39 21.06.2020
1122 Clouds 17 996 45 10000 7.7 110 21:39 21.06.2020
1123 Clouds 17 996 45 10000 7.7 110 21:21 21.06.2020
1124 Clouds 18 997 39 10000 7.2 110 20:58 21.06.2020
1125 Clouds 19 997 39 10000 7.2 110 20:38 21.06.2020
1126 Clear 19 997 39 10000 7.2 110 20:19 21.06.2020
1127 Clear 19 997 37 10000 9.8 110 19:56 21.06.2020
1128 Clear 20 997 37 10000 9.8 110 19:38 21.06.2020
1129 Clear 20 997 37 10000 9.8 110 19:19 21.06.2020
1130 Clear 21 997 30 10000 8.7 100 18:54 21.06.2020
1131 Clear 21 997 30 10000 8.7 100 18:36 21.06.2020
1132 Clear 21 997 30 10000 8.7 100 18:18 21.06.2020
1133 Clear 19 998 32 10000 9.3 90 17:39 21.06.2020
1134 Clear 19 998 32 10000 9.3 90 17:39 21.06.2020
1135 Clear 19 998 32 10000 9.3 90 17:20 21.06.2020
1136 Clear 19 999 32 10000 8.7 100 16:43 21.06.2020
1137 Clear 19 999 32 10000 8.7 100 16:24 21.06.2020
1138 Clear 19 999 32 10000 10.8 100 15:59 21.06.2020
1139 Clear 19 999 32 10000 10.8 100 15:37 21.06.2020
1140 Clouds 19 999 32 10000 10.8 100 15:19 21.06.2020
1141 Clouds 18 999 32 10000 7.7 70 14:39 21.06.2020
1142 Clouds 18 999 32 10000 7.7 70 14:20 21.06.2020
1143 Clouds 17 1000 36 10000 4.1 70 13:59 21.06.2020
1144 Clouds 17 1000 36 10000 4.1 70 13:41 21.06.2020
1145 Clouds 16 1000 36 10000 4.1 70 13:22 21.06.2020
1146 Clouds 15 1000 47 10000 4.6 50 12:56 21.06.2020
1147 Clouds 15 1000 47 10000 4.6 50 12:37 21.06.2020
1148 Clouds 14 1000 47 10000 4.6 50 12:19 21.06.2020
1149 Clouds 13 1001 54 10000 5.1 50 11:42 21.06.2020
1150 Clouds 13 1001 54 10000 5.1 50 11:23 21.06.2020
1151 Clouds 12 1002 54 10000 6.2 70 10:58 21.06.2020
1152 Clouds 12 1002 54 10000 6.2 70 10:39 21.06.2020
1153 Clouds 12 1002 54 10000 6.2 70 10:21 21.06.2020
1154 Clouds 12 1001 54 10000 9.8 70 09:44 21.06.2020
1155 Clouds 12 1001 54 10000 9.8 70 09:23 21.06.2020
1156 Clouds 12 1001 54 10000 6.7 60 08:57 21.06.2020
1157 Clouds 12 1001 54 10000 6.7 60 08:39 21.06.2020
1158 Clouds 12 1001 54 10000 6.7 60 08:20 21.06.2020
1159 Clouds 12 1002 54 10000 10.3 80 07:42 21.06.2020
1160 Clouds 12 1002 54 10000 10.3 80 07:24 21.06.2020
1161 Clouds 12 1002 58 10000 5.7 60 06:51 21.06.2020
1162 Clouds 12 1002 58 10000 5.7 60 06:28 21.06.2020
1163 Clouds 12 1003 58 10000 6.2 70 05:57 21.06.2020
1164 Clouds 12 1003 58 10000 7.7 80 04:42 21.06.2020
1165 Clouds 12 1004 62 10000 7.2 90 03:19 21.06.2020
1166 Clouds 12 1004 62 10000 6.2 80 02:36 21.06.2020
1167 Clouds 12 1004 62 10000 3.6 70 01:40 21.06.2020
1168 Clouds 12 1004 62 10000 3.6 70 01:19 21.06.2020
1169 Clouds 12 1004 71 10000 3.1 130 00:46 21.06.2020
1170 Clouds 12 1004 71 10000 3.1 130 00:25 21.06.2020
1171 Clouds 13 1004 66 10000 4.6 120 23:46 20.06.2020
1172 Clouds 13 1004 66 10000 4.6 120 23:23 20.06.2020
1173 Clouds 13 1003 62 10000 7.2 130 22:59 20.06.2020
1174 Clouds 13 1003 62 10000 7.2 130 22:59 20.06.2020
1175 Clouds 13 1003 62 10000 7.2 130 22:40 20.06.2020
1176 Clouds 13 1003 62 10000 7.2 130 22:20 20.06.2020
1177 Clouds 14 1003 62 10000 6.7 130 21:58 20.06.2020
1178 Clouds 14 1003 62 10000 6.7 130 21:40 20.06.2020
1179 Clouds 14 1003 62 10000 6.7 130 21:21 20.06.2020
1180 Clouds 14 1003 58 10000 8.2 140 20:58 20.06.2020
1181 Clouds 14 1003 58 10000 8.2 140 20:40 20.06.2020
1182 Clouds 14 1003 58 10000 8.2 140 20:21 20.06.2020
1183 Clouds 13 1003 62 10000 8.2 130 19:59 20.06.2020
1184 Clouds 13 1003 62 10000 8.2 130 19:40 20.06.2020
1185 Clouds 13 1003 62 10000 8.2 130 19:20 20.06.2020
1186 Clouds 13 1003 67 10000 7.2 130 18:43 20.06.2020
1187 Clouds 13 1003 67 10000 7.2 130 18:21 20.06.2020
1188 Rain 13 1003 67 10000 8.2 140 17:58 20.06.2020
1189 Rain 13 1003 67 10000 8.2 140 17:39 20.06.2020
1190 Rain 13 1003 67 10000 8.2 140 17:20 20.06.2020
1191 Clouds 14 1003 58 10000 5.1 120 16:55 20.06.2020
1192 Clouds 14 1003 58 10000 5.1 120 16:37 20.06.2020
1193 Clouds 14 1003 58 10000 5.1 120 16:18 20.06.2020
1194 Clouds 13 1003 62 10000 7.2 110 15:41 20.06.2020
1195 Clouds 13 1003 62 10000 7.2 110 15:18 20.06.2020
1196 Clouds 13 1003 66 10000 6.2 120 14:43 20.06.2020
1197 Clouds 13 1003 66 10000 6.2 120 14:21 20.06.2020
1198 Clouds 13 1003 66 10000 7.2 110 13:55 20.06.2020
1199 Clouds 12 1003 66 10000 7.2 110 13:37 20.06.2020
1200 Clouds 12 1003 66 10000 7.2 110 13:19 20.06.2020
1201 Clouds 11 1003 81 10000 5.7 100 12:42 20.06.2020
1202 Clouds 11 1003 81 10000 5.7 100 12:21 20.06.2020
1203 Clouds 11 1003 81 10000 2.1 100 11:57 20.06.2020
1204 Clouds 11 1003 81 10000 2.1 100 11:38 20.06.2020
1205 Clouds 11 1003 81 10000 2.1 100 11:20 20.06.2020
1206 Clouds 11 1003 81 10000 2.1 100 11:20 20.06.2020
1207 Rain 11 1003 81 10000 3.1 130 10:50 20.06.2020
1208 Rain 11 1003 81 10000 3.1 130 10:23 20.06.2020
1209 Rain 10 1003 87 10000 1 0 09:57 20.06.2020
1210 Rain 10 1003 87 10000 1 0 09:39 20.06.2020
1211 Rain 10 1003 87 10000 1 0 09:21 20.06.2020
1212 Rain 10 1004 87 10000 1.5 220 08:48 20.06.2020
1213 Rain 10 1004 87 10000 1.5 220 08:30 20.06.2020
1214 Rain 10 1004 87 10000 2.6 220 07:53 20.06.2020
1215 Rain 10 1004 87 10000 2.6 220 07:28 20.06.2020
1216 Rain 10 1004 81 10000 2.6 200 06:58 20.06.2020
1217 Rain 10 1004 81 10000 2.6 200 06:24 20.06.2020
1218 Clouds 11 1004 76 10000 1 0 05:54 20.06.2020
1219 Clouds 11 1004 76 10000 1 0 05:30 20.06.2020
1220 Clouds 11 1007 71 10000 1.5 330 02:56 20.06.2020
1221 Clouds 11 1008 62 10000 1.5 190 01:50 20.06.2020
1222 Clouds 11 1008 62 10000 1.5 190 01:27 20.06.2020
1223 Clouds 12 1008 62 10000 0.5 220 00:22 20.06.2020
1224 Clouds 12 1009 66 10000 2.6 200 23:58 19.06.2020
1225 Clouds 12 1009 66 10000 2.6 200 23:39 19.06.2020
1226 Clouds 12 1009 66 10000 2.6 200 23:18 19.06.2020
1227 Clouds 13 1010 62 10000 2.1 220 22:42 19.06.2020
1228 Clouds 13 1010 62 10000 2.1 220 22:24 19.06.2020
1229 Clouds 13 1010 54 10000 6.2 330 21:59 19.06.2020
1230 Clouds 13 1010 54 10000 6.2 330 21:39 19.06.2020
1231 Clouds 13 1010 54 10000 6.2 330 21:39 19.06.2020
1232 Clouds 13 1010 54 10000 6.2 330 21:18 19.06.2020
1233 Clouds 13 1011 58 10000 7.2 330 20:59 19.06.2020
1234 Clouds 13 1011 58 10000 7.2 330 20:40 19.06.2020
1235 Clouds 13 1011 58 10000 7.2 330 20:21 19.06.2020
1236 Clouds 13 1011 58 10000 7.2 330 20:21 19.06.2020
1237 Clouds 13 1011 58 10000 7.2 330 20:21 19.06.2020
1238 Clouds 13 1011 58 10000 7.2 330 20:21 19.06.2020
1239 Clouds 13 1012 58 10000 6.7 330 19:59 19.06.2020
1240 Clouds 13 1012 58 10000 6.7 330 19:41 19.06.2020
1241 Clouds 13 1012 58 10000 6.7 330 19:23 19.06.2020
1242 Clouds 14 1013 54 10000 6.2 330 18:57 19.06.2020
1243 Clouds 14 1013 54 10000 6.2 330 18:38 19.06.2020
1244 Clouds 14 1013 54 10000 6.2 330 18:20 19.06.2020
1245 Clouds 14 1013 54 10000 6.2 330 18:20 19.06.2020
1246 Clouds 13 1014 58 10000 5.1 340 17:42 19.06.2020
1247 Clouds 13 1014 58 10000 5.1 340 17:23 19.06.2020
1248 Clouds 13 1014 58 10000 3.6 330 16:57 19.06.2020
1249 Clouds 13 1014 58 10000 3.6 330 16:38 19.06.2020
1250 Clouds 13 1014 58 10000 3.6 330 16:20 19.06.2020
1251 Clouds 13 1015 58 10000 3.1 280 15:44 19.06.2020
1252 Clouds 13 1015 58 10000 3.1 280 15:25 19.06.2020
1253 Clouds 13 1015 58 10000 2.6 0 14:57 19.06.2020
1254 Clouds 13 1015 58 10000 2.6 0 14:39 19.06.2020
1255 Clouds 13 1015 58 10000 2.6 0 14:21 19.06.2020
1256 Clouds 13 1015 58 10000 4.1 120 13:57 19.06.2020
1257 Clouds 13 1015 58 10000 4.1 120 13:57 19.06.2020
1258 Clouds 13 1015 58 10000 4.1 120 13:39 19.06.2020
1259 Clouds 13 1015 58 10000 4.1 120 13:19 19.06.2020
1260 Clouds 11 1016 66 10000 5.1 120 12:43 19.06.2020
1261 Clouds 11 1016 66 10000 5.1 120 12:20 19.06.2020
1262 Clouds 11 1016 66 10000 6.7 100 11:40 19.06.2020
1263 Clouds 11 1016 66 10000 6.7 100 11:19 19.06.2020
1264 Clouds 10 1015 66 10000 6.2 100 10:59 19.06.2020
1265 Clouds 10 1015 66 10000 6.2 100 10:41 19.06.2020
1266 Clouds 10 1015 66 10000 6.2 100 10:41 19.06.2020
1267 Clouds 10 1015 66 10000 6.2 100 10:21 19.06.2020
1268 Clouds 9 1015 70 10000 4.6 100 09:45 19.06.2020
1269 Clouds 9 1015 70 10000 4.6 100 09:25 19.06.2020
1270 Rain 10 1015 66 10000 5.1 100 08:59 19.06.2020
1271 Rain 10 1015 66 10000 5.1 100 08:39 19.06.2020
1272 Rain 10 1015 66 10000 5.1 100 08:20 19.06.2020
1273 Clouds 10 1015 71 10000 4.6 110 07:41 19.06.2020
1274 Clouds 10 1015 71 10000 4.6 110 07:21 19.06.2020
1275 Rain 9 1015 70 10000 3.6 90 06:47 19.06.2020
1276 Rain 9 1015 70 10000 3.6 90 06:21 19.06.2020
1277 Clouds 10 1015 66 10000 5.1 120 05:29 19.06.2020
1278 Clouds 10 1015 71 10000 4.6 120 03:45 19.06.2020
1279 Clouds 11 1015 62 10000 3.6 120 02:20 19.06.2020
1280 Clouds 11 1015 57 10000 5.1 130 00:44 19.06.2020
1281 Clouds 11 1015 57 10000 5.1 130 00:22 19.06.2020
1282 Clouds 11 1014 57 10000 7.7 140 23:57 18.06.2020
1283 Clouds 11 1014 57 10000 7.7 140 23:39 18.06.2020
1284 Clouds 11 1014 57 10000 7.7 140 23:20 18.06.2020
1285 Clouds 11 1014 58 10000 7.7 140 22:41 18.06.2020
1286 Clouds 11 1014 58 10000 7.7 140 22:20 18.06.2020
1287 Clouds 11 1014 54 10000 7.7 160 21:57 18.06.2020
1288 Clouds 11 1014 54 10000 7.7 160 21:38 18.06.2020
1289 Clouds 11 1014 54 10000 7.7 160 21:19 18.06.2020
1290 Clouds 11 1013 54 10000 8.7 150 20:41 18.06.2020
1291 Clouds 11 1013 54 10000 8.7 150 20:21 18.06.2020
1292 Clouds 12 1013 47 10000 8.2 150 19:58 18.06.2020
1293 Clouds 12 1013 47 10000 8.2 150 19:40 18.06.2020
1294 Clouds 12 1013 47 10000 8.2 150 19:20 18.06.2020
1295 Clouds 11 1013 50 10000 9.3 150 18:41 18.06.2020
1296 Clouds 11 1013 50 10000 9.3 150 18:23 18.06.2020
1297 Clouds 12 1013 47 10000 10.8 140 17:55 18.06.2020
1298 Clouds 12 1013 47 10000 10.8 140 17:37 18.06.2020
1299 Clouds 12 1013 47 10000 10.8 140 17:19 18.06.2020
1300 Clouds 13 1013 44 10000 9.8 140 16:44 18.06.2020
1301 Clouds 13 1013 44 10000 9.8 140 16:25 18.06.2020
1302 Clouds 12 1014 50 10000 9.3 140 15:59 18.06.2020
1303 Clouds 12 1014 50 10000 9.3 140 15:40 18.06.2020
1304 Clouds 12 1014 50 10000 9.3 140 15:20 18.06.2020
1305 Clouds 12 1014 50 10000 10.3 140 14:57 18.06.2020
1306 Clouds 12 1014 50 10000 10.3 140 14:38 18.06.2020
1307 Clouds 12 1014 50 10000 10.3 140 14:20 18.06.2020
1308 Clouds 11 1014 57 10000 10.3 140 13:48 18.06.2020
1309 Clouds 11 1014 57 10000 10.3 140 13:29 18.06.2020
1310 Clouds 11 1013 53 10000 10.8 140 12:58 18.06.2020
1311 Clouds 11 1013 53 10000 10.8 140 12:40 18.06.2020
1312 Clouds 11 1013 53 10000 10.8 140 12:20 18.06.2020
1313 Clouds 11 1013 62 10000 7.7 130 11:59 18.06.2020
1314 Clouds 11 1013 62 10000 7.7 130 11:40 18.06.2020
1315 Clouds 11 1013 62 10000 7.7 130 11:19 18.06.2020
1316 Clouds 11 1013 62 10000 7.7 130 11:19 18.06.2020
1317 Clouds 10 1014 61 10000 7.7 130 10:41 18.06.2020
1318 Clouds 10 1014 61 10000 7.7 130 10:41 18.06.2020
1319 Clouds 10 1014 61 10000 7.7 130 10:19 18.06.2020
1320 Clouds 9 1014 66 10000 6.2 110 09:55 18.06.2020
1321 Clouds 9 1014 66 10000 6.2 110 09:37 18.06.2020
1322 Clouds 9 1014 66 10000 6.2 110 09:19 18.06.2020
1323 Clouds 9 1014 66 10000 8.2 120 08:40 18.06.2020
1324 Clouds 9 1014 66 10000 8.2 120 08:21 18.06.2020
1325 Clouds 9 1015 61 10000 7.2 130 07:46 18.06.2020
1326 Clouds 9 1015 61 10000 7.2 130 07:26 18.06.2020
1327 Clouds 8 1015 65 10000 6.2 110 06:54 18.06.2020
1328 Clouds 9 1016 61 10000 4.1 120 05:55 18.06.2020
1329 Clouds 9 1017 61 10000 4.6 120 04:22 18.06.2020
1330 Clouds 9 1017 61 10000 4.6 130 02:51 18.06.2020
1331 Clouds 10 1017 57 10000 7.2 140 01:28 18.06.2020
1332 Clouds 10 1018 61 10000 5.1 140 00:56 18.06.2020
1333 Clouds 10 1018 61 10000 5.1 140 00:37 18.06.2020
1334 Clouds 10 1018 61 10000 5.1 140 00:19 18.06.2020
1335 Clouds 10 1018 61 10000 6.2 140 23:42 17.06.2020
1336 Clouds 10 1018 61 10000 6.2 140 23:20 17.06.2020
1337 Clouds 10 1018 57 10000 5.1 150 22:57 17.06.2020
1338 Clouds 10 1018 57 10000 5.1 150 22:38 17.06.2020
1339 Clouds 10 1018 57 10000 5.1 150 22:20 17.06.2020
1340 Clouds 10 1018 62 10000 2.6 50 21:55 17.06.2020
1341 Clouds 10 1018 66 10000 4.1 360 21:37 17.06.2020
1342 Clouds 10 1018 66 10000 4.1 360 21:18 17.06.2020
1343 Clouds 10 1018 66 10000 4.1 360 21:18 17.06.2020
1344 Clouds 10 1018 66 10000 4.1 360 21:18 17.06.2020
1345 Clouds 11 1018 66 10000 4.1 360 20:38 17.06.2020
1346 Clouds 11 1018 66 10000 4.1 360 20:38 17.06.2020
1347 Clouds 11 1018 66 10000 4.1 360 20:38 17.06.2020
1348 Clouds 11 1018 66 10000 4.1 360 20:20 17.06.2020
1349 Clouds 11 1018 62 10000 5.1 300 19:56 17.06.2020
1350 Clouds 10 1018 62 10000 5.1 300 19:37 17.06.2020
1351 Clouds 10 1018 62 10000 5.1 300 19:18 17.06.2020
1352 Clouds 11 1019 58 10000 4.6 310 18:44 17.06.2020
1353 Clouds 11 1019 58 10000 4.6 310 18:26 17.06.2020
1354 Clouds 11 1019 58 10000 5.7 350 17:45 17.06.2020
1355 Clouds 11 1019 58 10000 5.7 350 17:23 17.06.2020
1356 Clouds 12 1019 50 10000 4.6 220 16:58 17.06.2020
1357 Clouds 12 1019 50 10000 4.6 220 16:39 17.06.2020
1358 Clouds 12 1019 50 10000 4.6 220 16:21 17.06.2020
1359 Clouds 11 1020 58 10000 6.7 220 15:57 17.06.2020
1360 Clouds 11 1020 58 10000 6.7 220 15:39 17.06.2020
1361 Clouds 11 1020 58 10000 6.7 220 15:19 17.06.2020
1362 Clouds 11 1020 54 10000 3.6 180 14:57 17.06.2020
1363 Clouds 11 1020 54 10000 3.6 180 14:39 17.06.2020
1364 Clouds 11 1020 54 10000 3.6 180 14:19 17.06.2020
1365 Clouds 11 1020 57 10000 2.1 140 13:56 17.06.2020
1366 Clouds 10 1020 57 10000 2.1 140 13:36 17.06.2020
1367 Clouds 10 1020 57 10000 2.1 140 13:18 17.06.2020
1368 Clouds 10 1020 61 10000 2.6 200 12:42 17.06.2020
1369 Clouds 10 1020 61 10000 2.6 200 12:22 17.06.2020
1370 Clouds 10 1021 61 10000 2.6 170 11:57 17.06.2020
1371 Clouds 10 1021 61 10000 2.6 170 11:37 17.06.2020
1372 Clouds 10 1021 61 10000 2.6 170 11:18 17.06.2020
1373 Clouds 9 1021 61 10000 2.6 140 10:38 17.06.2020
1374 Clouds 9 1021 61 10000 2.6 140 10:19 17.06.2020
1375 Clouds 9 1021 61 10000 2.6 140 10:19 17.06.2020
1376 Clouds 9 1021 66 10000 2.1 130 09:57 17.06.2020
1377 Clouds 9 1021 66 10000 2.1 130 09:39 17.06.2020
1378 Clouds 9 1021 66 10000 2.1 130 09:20 17.06.2020
1379 Clouds 8 1021 70 10000 2.1 110 08:45 17.06.2020
1380 Clouds 8 1021 70 10000 2.1 110 08:20 17.06.2020
1381 Clouds 7 1021 75 10000 1.5 120 07:55 17.06.2020
1382 Clouds 7 1021 75 10000 1.5 120 07:37 17.06.2020
1383 Clouds 7 1021 75 10000 1.5 120 07:19 17.06.2020
1384 Clouds 7 1021 75 10000 2.6 120 06:41 17.06.2020
1385 Clouds 7 1021 75 10000 2.6 120 06:23 17.06.2020
1386 Clouds 6 1021 81 10000 2.6 120 05:59 17.06.2020
1387 Clouds 7 1021 75 10000 2.6 110 04:39 17.06.2020
1388 Clouds 8 1021 70 10000 2.1 190 02:48 17.06.2020
1389 Clouds 9 1021 66 10000 1.72 215 01:28 17.06.2020
1390 Clouds 9 1020 66 10000 1 0 00:37 17.06.2020
1391 Clouds 9 1020 66 10000 1 0 00:19 17.06.2020
1392 Clouds 10 1020 61 10000 2.1 270 23:55 16.06.2020
1393 Clouds 10 1020 61 10000 2.1 270 23:37 16.06.2020
1394 Clouds 10 1020 61 10000 2.1 270 23:18 16.06.2020
1395 Clouds 10 1020 61 10000 3.6 270 22:39 16.06.2020
1396 Clouds 10 1020 61 10000 3.6 270 22:19 16.06.2020
1397 Clouds 10 1019 66 10000 4.1 290 21:58 16.06.2020
1398 Clouds 10 1019 66 10000 4.1 290 21:40 16.06.2020
1399 Clouds 10 1019 66 10000 4.1 290 21:22 16.06.2020
1400 Clouds 10 1019 66 10000 4.1 280 20:57 16.06.2020
1401 Clouds 10 1019 66 10000 4.1 280 20:39 16.06.2020
1402 Clouds 10 1019 66 10000 4.1 280 20:18 16.06.2020
1403 Clouds 10 1018 66 10000 5.1 270 19:56 16.06.2020
1404 Clouds 10 1018 66 10000 5.1 270 19:37 16.06.2020
1405 Clouds 10 1018 66 10000 5.1 270 19:18 16.06.2020
1406 Clouds 10 1018 66 10000 5.1 270 18:44 16.06.2020
1407 Clouds 10 1018 66 10000 5.1 270 18:21 16.06.2020
1408 Clouds 10 1017 62 10000 5.7 260 17:58 16.06.2020
1409 Clouds 10 1017 62 10000 5.7 260 17:39 16.06.2020
1410 Clouds 10 1017 62 10000 5.7 260 17:21 16.06.2020
1411 Clouds 10 1017 71 10000 6.7 240 16:58 16.06.2020
1412 Clouds 10 1017 71 10000 6.7 240 16:39 16.06.2020
1413 Clouds 10 1017 71 10000 6.7 240 16:19 16.06.2020
1414 Clouds 10 1017 71 10000 6.7 240 16:19 16.06.2020
1415 Rain 9 1016 70 10000 6.2 230 15:57 16.06.2020
1416 Rain 9 1016 70 10000 6.2 230 15:57 16.06.2020
1417 Rain 9 1016 70 10000 6.2 230 15:56 16.06.2020
1418 Rain 9 1016 70 10000 6.2 230 15:38 16.06.2020
1419 Rain 9 1016 70 10000 6.2 230 15:20 16.06.2020
1420 Rain 9 1016 70 10000 6.2 220 14:55 16.06.2020
1421 Rain 9 1016 70 10000 6.2 220 14:36 16.06.2020
1422 Rain 9 1016 70 10000 6.2 220 14:18 16.06.2020
1423 Rain 9 1015 70 10000 7.7 240 13:44 16.06.2020
1424 Rain 9 1015 70 10000 7.7 240 13:24 16.06.2020
1425 Rain 9 1015 70 10000 7.7 240 13:24 16.06.2020
1426 Rain 9 1014 66 10000 6.2 220 12:42 16.06.2020
1427 Rain 9 1014 66 10000 6.2 220 12:23 16.06.2020
1428 Rain 9 1014 70 10000 6.7 210 11:58 16.06.2020
1429 Rain 9 1014 70 10000 6.7 210 11:40 16.06.2020
1430 Rain 9 1014 70 10000 6.7 210 11:22 16.06.2020
1431 Rain 9 1014 66 10000 7.2 220 10:58 16.06.2020
1432 Rain 9 1014 66 10000 7.2 220 10:39 16.06.2020
1433 Rain 9 1014 66 10000 7.2 220 10:20 16.06.2020
1434 Clouds 9 1014 70 10000 5.7 200 09:45 16.06.2020
1435 Clouds 8 1014 70 10000 5.7 200 09:23 16.06.2020
1436 Rain 8 1013 75 10000 4.6 190 08:55 16.06.2020
1437 Rain 8 1013 75 10000 4.6 190 08:34 16.06.2020
1438 Clouds 6 1013 81 10000 3.6 150 07:55 16.06.2020
1439 Clouds 6 1013 81 10000 3.6 150 07:37 16.06.2020
1440 Clouds 6 1013 81 10000 3.6 150 07:19 16.06.2020
1441 Clouds 6 1013 81 10000 3.6 170 06:34 16.06.2020
1442 Clouds 7 1012 75 10000 3.6 170 05:52 16.06.2020
1443 Rain 7 1012 75 10000 4.6 170 04:58 16.06.2020
1444 Rain 7 1012 75 10000 4.6 170 04:26 16.06.2020
1445 Clouds 8 1012 70 10000 4.1 190 02:46 16.06.2020
1446 Clouds 8 1011 70 10000 5.1 190 01:34 16.06.2020
1447 Rain 9 1011 66 10000 5.7 190 00:58 16.06.2020
1448 Rain 9 1011 66 10000 5.7 190 00:27 16.06.2020
1449 Rain 9 1011 61 10000 6.2 200 23:57 15.06.2020
1450 Rain 9 1011 61 10000 6.2 200 23:57 15.06.2020
1451 Rain 9 1011 61 10000 6.2 200 23:38 15.06.2020
1452 Rain 9 1011 61 10000 6.2 200 23:20 15.06.2020
1453 Rain 10 1010 61 10000 7.2 200 22:42 15.06.2020
1454 Rain 10 1010 61 10000 7.2 200 22:23 15.06.2020
1455 Clouds 10 1010 53 10000 6.2 220 21:58 15.06.2020
1456 Clouds 11 1010 53 10000 6.2 220 21:38 15.06.2020
1457 Clouds 11 1010 53 10000 6.2 220 21:20 15.06.2020
1458 Clouds 10 1010 57 10000 6.2 210 20:59 15.06.2020
1459 Clouds 10 1010 57 10000 6.2 210 20:39 15.06.2020
1460 Clouds 10 1010 57 10000 6.2 210 20:20 15.06.2020
1461 Clouds 10 1010 61 10000 5.7 220 19:59 15.06.2020
1462 Clouds 10 1010 61 10000 5.7 220 19:59 15.06.2020
1463 Clouds 10 1010 61 10000 5.7 220 19:40 15.06.2020
1464 Clouds 10 1010 61 10000 5.7 220 19:21 15.06.2020
1465 Clouds 10 1009 57 10000 6.2 200 18:57 15.06.2020
1466 Clouds 10 1009 57 10000 6.2 200 18:39 15.06.2020
1467 Clouds 10 1009 57 10000 6.2 200 18:19 15.06.2020
1468 Clouds 10 1009 61 10000 6.7 220 17:57 15.06.2020
1469 Clouds 10 1009 61 10000 6.7 220 17:39 15.06.2020
1470 Clouds 10 1009 61 10000 6.7 220 17:19 15.06.2020
1471 Clouds 10 1009 66 10000 6.7 210 16:43 15.06.2020
1472 Clouds 10 1009 66 10000 6.7 210 16:20 15.06.2020
1473 Clouds 9 1009 81 10000 5.1 220 15:58 15.06.2020
1474 Clouds 9 1009 81 10000 5.1 220 15:40 15.06.2020
1475 Clouds 9 1009 81 10000 5.1 220 15:20 15.06.2020
1476 Rain 8 1009 87 10000 5.1 240 14:56 15.06.2020
1477 Rain 8 1009 87 10000 5.1 240 14:37 15.06.2020
1478 Rain 8 1009 87 10000 5.1 240 14:18 15.06.2020
1479 Drizzle 8 1009 100 10000 3.1 200 13:42 15.06.2020
1480 Drizzle 8 1009 100 10000 3.1 200 13:24 15.06.2020
1481 Drizzle 8 1009 100 10000 3.1 200 13:24 15.06.2020
1482 Rain 8 1009 93 6000 5.1 230 12:59 15.06.2020
1483 Rain 8 1009 93 6000 5.1 230 12:41 15.06.2020
1484 Rain 8 1009 93 6000 5.1 230 12:21 15.06.2020
1485 Rain 8 1009 100 7000 4.1 220 11:46 15.06.2020
1486 Rain 9 1008 100 3500 5.7 200 11:26 15.06.2020
1487 Rain 9 1008 100 3500 5.7 200 10:57 15.06.2020
1488 Rain 9 1008 100 3500 5.7 200 10:38 15.06.2020
1489 -273 0 0 0 0 0 10:19 15.06.2020
1490 Drizzle 9 1009 93 10000 6.2 190 09:42 15.06.2020
1491 Drizzle 9 1009 93 10000 6.2 190 09:22 15.06.2020
1492 Rain 9 1009 87 10000 2.6 210 08:45 15.06.2020
1493 Rain 9 1009 87 10000 2.6 210 08:26 15.06.2020
1494 Rain 9 1009 87 10000 2.6 160 07:52 15.06.2020
1495 Rain 9 1009 87 10000 2.6 160 07:34 15.06.2020
1496 Rain 9 1010 87 10000 4.6 190 06:57 15.06.2020
1497 Rain 9 1010 87 10000 4.6 190 06:57 15.06.2020
1498 Rain 10 1010 87 10000 4.6 190 06:27 15.06.2020
1499 Rain 10 1009 76 10000 8.2 140 05:50 15.06.2020
1500 Rain 10 1009 76 10000 8.2 140 05:28 15.06.2020
1501 Rain 10 1010 76 10000 9.3 150 04:22 15.06.2020
1502 Rain 10 1011 76 10000 9.3 140 03:48 15.06.2020
1503 Rain 10 1011 81 10000 9.8 140 02:56 15.06.2020
1504 Rain 10 1011 81 10000 9.8 140 02:26 15.06.2020
1505 Rain 10 1012 71 10000 8.7 140 01:44 15.06.2020
1506 Rain 10 1012 71 10000 8.7 140 01:24 15.06.2020
1507 Rain 10 1013 71 10000 9.8 150 00:44 15.06.2020
1508 Rain 10 1013 71 10000 9.8 150 00:23 15.06.2020
1509 Rain 10 1013 71 10000 9.8 140 23:57 14.06.2020
1510 Rain 10 1013 71 10000 9.8 140 23:57 14.06.2020
1511 Rain 10 1013 71 10000 9.8 140 23:39 14.06.2020
1512 Rain 10 1013 71 10000 9.8 140 23:20 14.06.2020
1513 Rain 10 1014 76 10000 8.7 140 22:56 14.06.2020
1514 Rain 10 1014 76 10000 8.7 140 22:56 14.06.2020
1515 Rain 10 1014 76 10000 8.7 140 22:37 14.06.2020
1516 Rain 10 1014 76 10000 8.7 140 22:18 14.06.2020
1517 Clouds 10 1015 76 10000 9.3 150 21:56 14.06.2020
1518 Clouds 10 1015 76 10000 9.3 150 21:37 14.06.2020
1519 Clouds 10 1015 76 10000 9.3 150 21:18 14.06.2020
1520 Clouds 10 1015 76 10000 9.3 150 21:18 14.06.2020
1521 Drizzle 10 1016 76 10000 8.2 160 20:56 14.06.2020
1522 Drizzle 10 1016 76 10000 8.2 160 20:37 14.06.2020
1523 Drizzle 10 1016 76 10000 8.2 160 20:18 14.06.2020
1524 Clouds 10 1016 76 10000 7.7 140 19:55 14.06.2020
1525 Clouds 10 1016 76 10000 7.7 140 19:37 14.06.2020
1526 Clouds 10 1016 76 10000 7.7 140 19:18 14.06.2020
1527 Drizzle 10 1016 76 10000 7.2 160 18:55 14.06.2020
1528 Drizzle 11 1016 76 10000 7.2 160 18:37 14.06.2020
1529 Drizzle 11 1016 76 10000 7.2 160 18:18 14.06.2020
1530 Rain 11 1017 76 10000 6.7 170 17:40 14.06.2020
1531 Rain 11 1017 76 10000 6.7 170 17:20 14.06.2020
1532 Clouds 11 1017 81 10000 6.2 180 16:59 14.06.2020
1533 Clouds 11 1017 81 10000 6.2 180 16:40 14.06.2020
1534 Clouds 11 1017 81 10000 6.2 180 16:20 14.06.2020
1535 Clouds 11 1017 81 10000 6.2 180 15:57 14.06.2020
1536 Clouds 11 1017 81 10000 6.2 180 15:37 14.06.2020
1537 Clouds 11 1017 81 10000 6.2 180 15:18 14.06.2020
1538 Rain 10 1018 93 10000 6.2 180 14:41 14.06.2020
1539 Rain 10 1018 93 10000 6.2 180 14:23 14.06.2020
1540 Drizzle 10 1018 87 10000 6.2 190 13:59 14.06.2020
1541 Drizzle 10 1018 87 10000 6.2 190 13:41 14.06.2020
1542 Drizzle 10 1018 87 10000 6.2 190 13:22 14.06.2020
1543 Drizzle 9 1018 93 10000 6.2 190 12:57 14.06.2020
1544 Drizzle 9 1018 93 10000 6.2 190 12:39 14.06.2020
1545 Drizzle 9 1018 93 10000 6.2 190 12:21 14.06.2020
1546 Drizzle 9 1018 87 10000 4.6 180 11:58 14.06.2020
1547 Drizzle 9 1018 87 10000 4.6 180 11:38 14.06.2020
1548 Drizzle 9 1018 87 10000 4.6 180 11:20 14.06.2020
1549 Rain 9 1018 87 10000 4.1 180 10:43 14.06.2020
1550 Rain 9 1018 87 10000 4.1 180 10:21 14.06.2020
1551 Drizzle 8 1018 93 10000 3.1 170 09:58 14.06.2020
1552 Drizzle 8 1018 93 10000 3.1 170 09:40 14.06.2020
1553 Drizzle 8 1018 93 10000 3.1 170 09:21 14.06.2020
1554 Drizzle 8 1018 87 10000 3.6 180 08:42 14.06.2020
1555 Drizzle 8 1018 87 10000 3.6 180 08:22 14.06.2020
1556 Rain 7 1018 87 10000 3.6 170 07:52 14.06.2020
1557 Rain 7 1018 87 10000 3.6 170 07:34 14.06.2020
1558 Drizzle 7 1018 87 10000 2.6 180 06:51 14.06.2020
1559 Drizzle 7 1018 87 10000 3.6 180 05:51 14.06.2020
1560 Drizzle 7 1018 87 10000 3.6 180 05:29 14.06.2020
1561 Rain 8 1019 75 10000 2.6 220 04:38 14.06.2020
1562 Rain 8 1019 75 10000 3.1 180 03:54 14.06.2020
1563 Clouds 9 1019 70 10000 4.1 190 02:40 14.06.2020
1564 Clouds 9 1019 70 10000 4.1 190 02:18 14.06.2020
1565 Rain 9 1019 70 10000 4.1 190 01:27 14.06.2020
1566 Clouds 9 1019 70 10000 5.1 200 00:48 14.06.2020
1567 Clouds 9 1019 70 10000 5.1 200 00:21 14.06.2020
1568 Clouds 9 1019 70 10000 4.1 200 23:46 13.06.2020
1569 Clouds 9 1019 70 10000 4.1 200 23:26 13.06.2020
1570 Clouds 9 1019 66 10000 5.1 220 22:59 13.06.2020
1571 Clouds 9 1019 66 10000 5.1 220 22:38 13.06.2020
1572 Clouds 9 1019 66 10000 5.1 220 22:19 13.06.2020
1573 Clouds 9 1019 66 10000 1.5 290 21:58 13.06.2020
1574 Clouds 9 1019 66 10000 1.5 290 21:40 13.06.2020
1575 Clouds 9 1019 66 10000 1.5 290 21:21 13.06.2020
1576 Clouds 10 1019 61 10000 0.5 0 20:54 13.06.2020
1577 Clouds 10 1019 61 10000 0.5 0 20:36 13.06.2020
1578 Clouds 10 1019 61 10000 0.5 0 20:18 13.06.2020
1579 Clouds 9 1020 66 10000 2.1 300 19:39 13.06.2020
1580 Clouds 9 1020 66 10000 2.1 300 19:20 13.06.2020
1581 Clouds 10 1020 57 10000 3.6 290 18:58 13.06.2020
1582 Clouds 10 1020 57 10000 3.6 290 18:40 13.06.2020
1583 Clouds 10 1020 57 10000 3.6 290 18:20 13.06.2020
1584 Clouds 10 1020 57 10000 3.6 290 18:20 13.06.2020
1585 Clouds 9 1020 61 10000 3.1 300 17:57 13.06.2020
1586 Clouds 9 1020 61 10000 3.1 300 17:38 13.06.2020
1587 Clouds 9 1020 61 10000 3.1 300 17:20 13.06.2020
1588 Clouds 10 1020 57 10000 3.6 300 16:54 13.06.2020
1589 Clouds 10 1020 57 10000 3.6 300 16:36 13.06.2020
1590 Clouds 10 1020 57 10000 3.6 300 16:18 13.06.2020
1591 Clouds 9 1019 66 10000 4.1 300 15:42 13.06.2020
1592 Clouds 9 1019 66 10000 4.1 300 15:21 13.06.2020
1593 Clouds 10 1019 57 10000 4.6 260 14:44 13.06.2020
1594 Clouds 10 1019 57 10000 4.6 260 14:25 13.06.2020
1595 Clouds 9 1019 66 10000 3.6 270 13:58 13.06.2020
1596 Clouds 9 1019 66 10000 3.6 270 13:39 13.06.2020
1597 Clouds 9 1019 66 10000 3.6 270 13:20 13.06.2020
1598 Clouds 8 1019 65 10000 4.1 250 12:43 13.06.2020
1599 Clouds 8 1019 65 10000 4.1 250 12:43 13.06.2020
1600 Clouds 8 1019 65 10000 4.1 250 12:25 13.06.2020
1601 Clouds 8 1018 70 10000 3.1 210 11:57 13.06.2020
1602 Clouds 8 1018 70 10000 3.1 210 11:38 13.06.2020
1603 Clouds 8 1018 70 10000 3.1 210 11:19 13.06.2020
1604 Clouds 7 1018 81 10000 3.1 230 10:56 13.06.2020
1605 Clouds 7 1018 81 10000 3.1 230 10:37 13.06.2020
1606 Clouds 7 1018 81 10000 3.1 230 10:18 13.06.2020
1607 Rain 7 1018 81 10000 2.1 270 09:42 13.06.2020
1608 Rain 7 1018 81 10000 2.1 270 09:21 13.06.2020
1609 Rain 7 1018 75 10000 3.6 240 08:48 13.06.2020
1610 Rain 7 1018 75 10000 3.6 240 08:30 13.06.2020
1611 Rain 7 1017 75 10000 3.6 260 07:50 13.06.2020
1612 Rain 7 1017 75 10000 3.6 260 07:27 13.06.2020
1613 Rain 6 1017 87 10000 1.5 330 06:49 13.06.2020
1614 Rain 6 1017 87 10000 1.5 330 06:28 13.06.2020
1615 Rain 7 1017 81 10000 4.1 280 05:42 13.06.2020
1616 Rain 7 1017 81 10000 4.1 280 05:23 13.06.2020
1617 Rain 7 1016 75 10000 4.6 300 03:47 13.06.2020
1618 Drizzle 6 1016 87 10000 6.2 290 02:53 13.06.2020
1619 Drizzle 6 1016 87 10000 6.2 290 02:29 13.06.2020
1620 Clouds 6 1016 87 10000 6.7 290 01:41 13.06.2020
1621 Clouds 6 1016 87 10000 6.7 290 01:18 13.06.2020
1622 Rain 7 1015 87 10000 5.1 280 00:42 13.06.2020
1623 Rain 7 1015 87 10000 5.1 280 00:23 13.06.2020
1624 Rain 6 1014 100 9000 6.2 290 23:41 12.06.2020
1625 Rain 6 1014 100 9000 6.2 290 23:19 12.06.2020
1626 Rain 6 1014 100 9000 6.2 290 23:19 12.06.2020
1627 Rain 9 1013 93 9000 7.7 190 22:56 12.06.2020
1628 Rain 9 1013 93 9000 7.7 190 22:38 12.06.2020
1629 Rain 9 1013 93 9000 7.7 190 22:19 12.06.2020
1630 Rain 9 1013 87 9000 7.7 160 21:47 12.06.2020
1631 Rain 9 1013 87 9000 7.7 160 21:24 12.06.2020
1632 Rain 10 1014 87 7000 10.8 160 20:58 12.06.2020
1633 Rain 10 1014 87 7000 10.8 160 20:39 12.06.2020
1634 Rain 10 1014 87 7000 10.8 160 20:21 12.06.2020
1635 Rain 10 1014 87 10000 11.8 150 19:54 12.06.2020
1636 Rain 10 1014 87 10000 11.8 150 19:36 12.06.2020
1637 Rain 10 1014 87 10000 11.8 150 19:18 12.06.2020
1638 Rain 10 1015 87 10000 10.8 160 18:37 12.06.2020
1639 Rain 10 1015 87 10000 10.8 160 18:18 12.06.2020
1640 Rain 10 1016 87 10000 10.8 160 17:46 12.06.2020
1641 Rain 10 1016 87 10000 10.8 160 17:27 12.06.2020
1642 Rain 10 1017 87 10000 7.7 150 16:58 12.06.2020
1643 Rain 10 1017 87 10000 7.7 150 16:40 12.06.2020
1644 Rain 10 1017 87 10000 7.7 150 16:19 12.06.2020
1645 Rain 10 1018 87 10000 6.7 140 15:45 12.06.2020
1646 Rain 10 1018 87 10000 6.7 140 15:20 12.06.2020
1647 Rain 11 1018 87 10000 5.1 130 14:44 12.06.2020
1648 Rain 11 1018 87 10000 5.1 130 14:23 12.06.2020
1649 Rain 11 1019 93 10000 5.1 130 13:59 12.06.2020
1650 Rain 11 1019 93 10000 5.1 130 13:59 12.06.2020
1651 Rain 11 1019 93 10000 5.1 130 13:40 12.06.2020
1652 Rain 11 1019 93 10000 5.1 130 13:19 12.06.2020
1653 Drizzle 11 1020 93 10000 5.1 130 12:40 12.06.2020
1654 Drizzle 11 1020 93 10000 5.1 130 12:20 12.06.2020
1655 Rain 11 1020 93 10000 5.7 150 11:57 12.06.2020
1656 Rain 11 1020 93 10000 5.7 150 11:38 12.06.2020
1657 Rain 11 1020 93 10000 5.7 150 11:19 12.06.2020
1658 Rain 10 1021 93 10000 2.6 170 10:45 12.06.2020
1659 Rain 10 1021 93 10000 2.6 170 10:24 12.06.2020
1660 Clouds 9 1022 93 10000 3.6 150 09:45 12.06.2020
1661 Clouds 9 1022 93 10000 3.6 150 09:21 12.06.2020
1662 Drizzle 9 1022 100 10000 1 0 08:44 12.06.2020
1663 Drizzle 8 1022 100 10000 1 0 08:25 12.06.2020
1664 Drizzle 8 1023 100 7000 1.5 230 07:44 12.06.2020
1665 Drizzle 8 1023 100 7000 1.5 230 07:25 12.06.2020
1666 Clouds 8 1024 100 10000 0.5 160 06:55 12.06.2020
1667 Clouds 8 1024 100 10000 0.5 160 06:30 12.06.2020
1668 Clouds 8 1024 100 10000 1.62 96 05:53 12.06.2020
1669 Clouds 8 1024 100 10000 0.55 167 05:30 12.06.2020
1670 Clouds 8 1025 100 10000 0.5 0 04:55 12.06.2020
1671 Mist 8 1026 100 1900 1.5 280 03:20 12.06.2020
1672 Drizzle 8 1027 100 700 1.5 290 01:55 12.06.2020
1673 Fog 8 1027 100 700 1.5 290 01:27 12.06.2020
1674 Drizzle 9 1027 87 700 2.1 270 00:45 12.06.2020
1675 Drizzle 9 1027 87 700 2.1 270 00:25 12.06.2020
1676 Rain 10 1027 81 10000 5.1 200 23:59 11.06.2020
1677 Rain 10 1027 81 10000 5.1 200 23:41 11.06.2020
1678 Rain 10 1027 81 10000 5.1 200 23:21 11.06.2020
1679 Rain 11 1027 71 10000 6.2 190 22:59 11.06.2020
1680 Rain 11 1027 71 10000 6.2 190 22:39 11.06.2020
1681 Rain 11 1027 71 10000 6.2 190 22:20 11.06.2020
1682 Clouds 11 1028 71 10000 4.6 180 21:56 11.06.2020
1683 Clouds 11 1028 71 10000 4.6 180 21:38 11.06.2020
1684 Clouds 11 1028 71 10000 4.6 180 21:20 11.06.2020
1685 Drizzle 11 1028 71 10000 5.7 180 20:45 11.06.2020
1686 Drizzle 11 1028 71 10000 5.7 180 20:22 11.06.2020
1687 Drizzle 11 1028 66 10000 4.6 170 19:55 11.06.2020
1688 Drizzle 11 1028 66 10000 4.6 170 19:37 11.06.2020
1689 Drizzle 11 1028 66 10000 4.6 170 19:37 11.06.2020
1690 Drizzle 11 1028 66 10000 4.6 170 19:18 11.06.2020
1691 Clouds 11 1029 71 10000 4.6 190 18:42 11.06.2020
1692 Clouds 11 1029 71 10000 4.6 190 18:24 11.06.2020
1693 Rain 11 1030 76 10000 5.1 190 17:57 11.06.2020
1694 Rain 11 1030 76 10000 5.1 190 17:38 11.06.2020
1695 Rain 11 1030 76 10000 5.1 190 17:19 11.06.2020
1696 Drizzle 11 1029 71 10000 6.2 180 16:57 11.06.2020
1697 Drizzle 11 1029 71 10000 6.2 180 16:38 11.06.2020
1698 Drizzle 11 1029 71 10000 6.2 180 16:20 11.06.2020
1699 Drizzle 11 1030 71 10000 6.2 170 15:43 11.06.2020
1700 Drizzle 11 1030 71 10000 6.2 170 15:25 11.06.2020
1701 Drizzle 11 1030 71 10000 7.2 170 14:58 11.06.2020
1702 Drizzle 11 1030 71 10000 7.2 170 14:39 11.06.2020
1703 Drizzle 11 1030 71 10000 7.2 170 14:39 11.06.2020
1704 Drizzle 11 1030 71 10000 7.2 170 14:20 11.06.2020
1705 Drizzle 11 1031 71 10000 6.7 170 13:55 11.06.2020
1706 Drizzle 11 1031 71 10000 6.7 170 13:37 11.06.2020
1707 Drizzle 11 1031 71 10000 6.7 170 13:18 11.06.2020
1708 Drizzle 11 1031 71 10000 6.7 170 13:18 11.06.2020
1709 Clouds 11 1031 66 10000 6.7 170 12:55 11.06.2020
1710 Clouds 11 1031 66 10000 6.7 170 12:37 11.06.2020
1711 Clouds 11 1031 66 10000 6.7 170 12:18 11.06.2020
1712 Clouds 11 1030 62 10000 7.2 150 11:56 11.06.2020
1713 Clouds 11 1030 62 10000 7.2 150 11:37 11.06.2020
1714 Clouds 11 1030 62 10000 7.2 150 11:18 11.06.2020
1715 Clouds 11 1031 62 10000 5.7 160 10:43 11.06.2020
1716 Clouds 11 1031 62 10000 5.7 160 10:20 11.06.2020
1717 Clouds 11 1031 66 10000 5.7 170 09:58 11.06.2020
1718 Clouds 11 1031 66 10000 5.7 170 09:39 11.06.2020
1719 Clouds 11 1031 66 10000 5.7 170 09:21 11.06.2020
1720 Clouds 10 1031 76 10000 4.6 150 08:42 11.06.2020
1721 Clouds 10 1031 76 10000 4.6 150 08:19 11.06.2020
1722 Clouds 10 1031 76 10000 5.1 150 07:42 11.06.2020
1723 Clouds 10 1031 76 10000 5.1 150 07:24 11.06.2020
1724 Clouds 9 1031 71 10000 6.2 140 06:37 11.06.2020
1725 Clouds 9 1031 71 10000 5.1 140 05:58 11.06.2020
1726 Clouds 8 1031 76 10000 4.1 120 04:49 11.06.2020
1727 Clouds 9 1031 70 10000 2.6 140 03:25 11.06.2020
1728 Clouds 9 1031 66 10000 3.1 150 02:49 11.06.2020
1729 Clouds 10 1031 62 10000 3.1 190 01:57 11.06.2020
1730 Clouds 10 1031 62 10000 3.1 190 01:35 11.06.2020
1731 Clouds 11 1030 62 10000 2.1 190 00:59 11.06.2020
1732 Clouds 11 1030 62 10000 2.1 190 00:39 11.06.2020
1733 Clouds 11 1030 62 10000 2.1 190 00:20 11.06.2020
1734 Clouds 11 1030 66 10000 1 0 23:43 10.06.2020
1735 Clouds 11 1030 66 10000 1 0 23:23 10.06.2020
1736 Clouds 11 1030 66 10000 1.5 290 22:55 10.06.2020
1737 Clouds 11 1030 66 10000 1.5 290 22:37 10.06.2020
1738 Clouds 11 1030 66 10000 1.5 290 22:18 10.06.2020
1739 Clouds 10 1029 76 10000 3.6 290 21:55 10.06.2020
1740 Clouds 10 1029 76 10000 3.6 290 21:37 10.06.2020
1741 Clouds 10 1029 76 10000 3.6 290 21:18 10.06.2020
1742 Clouds 11 1029 71 10000 2.1 300 20:55 10.06.2020
1743 Clouds 11 1029 71 10000 2.1 300 20:37 10.06.2020
1744 Clouds 11 1029 71 10000 2.1 300 20:18 10.06.2020
1745 Clouds 10 1028 76 10000 2.6 290 19:39 10.06.2020
1746 Clouds 10 1028 76 10000 2.6 290 19:18 10.06.2020
1747 Clouds 11 1028 76 10000 3.6 290 18:57 10.06.2020
1748 Clouds 10 1028 76 10000 3.6 290 18:38 10.06.2020
1749 Clouds 10 1028 76 10000 3.6 290 18:19 10.06.2020
1750 Clouds 11 1027 76 10000 4.6 290 17:55 10.06.2020
1751 Clouds 11 1027 76 10000 4.6 290 17:36 10.06.2020
1752 Clouds 11 1027 76 10000 4.6 290 17:18 10.06.2020
1753 Clouds 11 1026 71 10000 4.6 290 16:55 10.06.2020
1754 Clouds 11 1026 71 10000 4.6 290 16:37 10.06.2020
1755 Clouds 11 1026 71 10000 4.6 290 16:18 10.06.2020
1756 Clouds 11 1026 71 10000 4.1 280 15:39 10.06.2020
1757 Clear 11 1026 71 10000 4.1 280 15:21 10.06.2020
1758 Clear 10 1025 81 10000 4.6 290 14:56 10.06.2020
1759 Clear 10 1025 81 10000 4.6 290 14:37 10.06.2020
1760 Clear 10 1025 81 10000 4.6 290 14:19 10.06.2020
1761 Clear 10 1025 81 10000 3.6 290 13:40 10.06.2020
1762 Clear 10 1025 81 10000 3.6 290 13:21 10.06.2020
1763 Clouds 9 1024 87 10000 3.1 290 12:43 10.06.2020
1764 Clouds 9 1024 87 10000 3.1 290 12:20 10.06.2020
1765 Clouds 9 1024 81 10000 3.1 250 11:57 10.06.2020
1766 Clouds 9 1024 81 10000 3.1 250 11:39 10.06.2020
1767 Clouds 9 1024 81 10000 3.1 250 11:19 10.06.2020
1768 Clouds 9 1023 81 10000 2.6 270 10:56 10.06.2020
1769 Clouds 9 1023 81 10000 2.6 270 10:38 10.06.2020
1770 Clouds 9 1023 81 10000 2.6 270 10:20 10.06.2020
1771 Clouds 8 1021 87 10000 2.6 310 09:41 10.06.2020
1772 Clouds 8 1021 87 10000 2.6 310 09:22 10.06.2020
1773 Clouds 8 1021 87 10000 3.6 300 08:44 10.06.2020
1774 Clouds 8 1021 87 10000 3.6 300 08:24 10.06.2020
1775 Clouds 7 1020 87 10000 3.6 300 07:57 10.06.2020
1776 Clouds 7 1020 87 10000 3.6 300 07:38 10.06.2020
1777 Clouds 7 1020 87 10000 3.6 300 07:18 10.06.2020
1778 Clouds 8 1019 87 10000 3.1 310 06:44 10.06.2020
1779 Clouds 8 1019 87 10000 3.1 310 06:22 10.06.2020
1780 Clouds 7 1018 87 10000 2.1 310 05:55 10.06.2020
1781 Clouds 7 1018 87 10000 2.1 310 05:23 10.06.2020
1782 Clouds 7 1018 81 10000 3.1 320 04:34 10.06.2020
1783 Clouds 8 1016 81 10000 3.6 300 02:55 10.06.2020
1784 Clouds 9 1016 76 10000 4.6 300 01:59 10.06.2020
1785 Clouds 9 1016 76 10000 4.6 300 01:35 10.06.2020
1786 Clouds 9 1014 76 10000 4.1 290 00:39 10.06.2020
1787 Clouds 9 1014 76 10000 4.1 290 00:21 10.06.2020
1788 Clouds 9 1013 76 10000 4.6 290 23:55 09.06.2020
1789 Clouds 9 1013 76 10000 4.6 290 23:37 09.06.2020
1790 Clouds 9 1013 76 10000 4.6 290 23:18 09.06.2020
1791 Clouds 10 1013 71 10000 4.1 290 22:55 09.06.2020
1792 Clouds 10 1013 71 10000 4.1 290 22:36 09.06.2020
1793 Clouds 10 1013 71 10000 4.1 290 22:18 09.06.2020
1794 Clouds 10 1012 71 10000 5.1 290 21:55 09.06.2020
1795 Clouds 10 1012 71 10000 5.1 290 21:36 09.06.2020
1796 Clouds 10 1012 71 10000 5.1 290 21:18 09.06.2020
1797 Clouds 10 1011 71 10000 5.1 280 20:56 09.06.2020
1798 Clouds 10 1011 71 10000 5.1 280 20:37 09.06.2020
1799 Clouds 10 1011 71 10000 5.1 280 20:18 09.06.2020
1800 Clouds 11 1010 66 10000 4.6 290 19:55 09.06.2020
1801 Clouds 11 1010 66 10000 4.6 290 19:36 09.06.2020
1802 Clouds 11 1010 66 10000 4.6 290 19:18 09.06.2020
1803 Clouds 10 1009 71 10000 4.6 290 18:43 09.06.2020
1804 Clouds 10 1009 71 10000 4.6 290 18:25 09.06.2020
1805 Clouds 10 1009 76 10000 5.7 280 17:57 09.06.2020
1806 Clouds 10 1009 76 10000 5.7 280 17:38 09.06.2020
1807 Clouds 10 1009 76 10000 5.7 280 17:38 09.06.2020
1808 Clouds 10 1009 76 10000 5.7 280 17:20 09.06.2020
1809 Clouds 10 1008 71 10000 5.1 290 16:55 09.06.2020
1810 Clouds 10 1008 71 10000 5.1 290 16:36 09.06.2020
1811 Clouds 10 1008 71 10000 5.1 290 16:18 09.06.2020
1812 Clouds 10 1007 76 10000 5.1 290 15:39 09.06.2020
1813 Clouds 10 1007 76 10000 5.1 290 15:21 09.06.2020
1814 Clouds 9 1006 76 10000 4.1 290 14:57 09.06.2020
1815 Clouds 9 1006 76 10000 4.1 290 14:37 09.06.2020
1816 Clouds 9 1006 76 10000 4.1 290 14:18 09.06.2020
1817 Clouds 9 1006 76 10000 3.6 290 13:43 09.06.2020
1818 Clouds 9 1006 76 10000 3.6 290 13:21 09.06.2020
1819 Clouds 9 1005 76 10000 2.6 330 12:59 09.06.2020
1820 Clouds 9 1005 76 10000 2.6 330 12:41 09.06.2020
1821 Clouds 9 1005 76 10000 2.6 330 12:19 09.06.2020
1822 Rain 8 1004 87 10000 3.1 300 11:56 09.06.2020
1823 Rain 8 1004 87 10000 3.1 300 11:56 09.06.2020
1824 Rain 8 1004 87 10000 3.1 300 11:37 09.06.2020
1825 Rain 8 1004 87 10000 3.1 300 11:19 09.06.2020
1826 Clouds 8 1004 81 10000 2.1 270 10:45 09.06.2020
1827 Clouds 8 1004 81 10000 2.1 270 10:45 09.06.2020
1828 Clouds 8 1004 81 10000 2.1 270 10:25 09.06.2020
1829 Clouds 8 1003 87 10000 1 0 09:57 09.06.2020
1830 Clouds 8 1003 87 10000 1 0 09:38 09.06.2020
1831 Clouds 8 1003 87 10000 1 0 09:18 09.06.2020
1832 Clouds 6 1002 93 10000 1.5 160 08:39 09.06.2020
1833 Clouds 6 1002 93 10000 1.5 160 08:39 09.06.2020
1834 Clouds 6 1002 93 10000 1.5 160 08:39 09.06.2020
1835 Clouds 6 1002 93 10000 1.5 160 08:20 09.06.2020
1836 Clouds 5 1002 93 10000 1.5 180 07:42 09.06.2020
1837 Clouds 5 1002 93 10000 1.5 180 07:22 09.06.2020
1838 Clouds 5 1002 100 10000 1.5 120 06:55 09.06.2020
1839 Clouds 5 1002 100 10000 1.5 120 06:36 09.06.2020
1840 Clouds 6 1002 93 10000 1.5 170 05:37 09.06.2020
1841 Clouds 7 1002 93 10000 3.1 200 03:53 09.06.2020
1842 Clouds 7 1001 87 10000 2.1 230 02:22 09.06.2020
1843 Clouds 7 1001 81 10000 2.6 230 01:37 09.06.2020
1844 Clouds 7 1001 81 10000 2.6 230 01:18 09.06.2020
1845 Clouds 8 1001 87 10000 2.1 250 00:42 09.06.2020
1846 Clouds 8 1001 87 10000 2.1 250 00:19 09.06.2020
1847 Rain 8 1001 87 10000 3.1 220 23:42 08.06.2020
1848 Rain 8 1001 87 10000 3.1 220 23:21 08.06.2020
1849 Drizzle 8 1001 93 10000 5.7 240 22:59 08.06.2020
1850 Drizzle 8 1001 93 10000 5.7 240 22:38 08.06.2020
1851 Drizzle 8 1001 93 10000 5.7 240 22:20 08.06.2020
1852 Rain 9 1001 87 10000 2.1 260 21:56 08.06.2020
1853 Rain 9 1001 87 10000 2.1 260 21:37 08.06.2020
1854 Rain 9 1001 87 10000 2.1 260 21:19 08.06.2020
1855 Drizzle 8 1001 87 10000 3.1 240 20:55 08.06.2020
1856 Drizzle 9 1001 87 10000 3.1 240 20:36 08.06.2020
1857 Drizzle 9 1001 87 10000 3.1 240 20:18 08.06.2020
1858 Drizzle 9 1001 93 6000 4.6 240 19:43 08.06.2020
1859 Drizzle 9 1001 93 6000 4.6 240 19:21 08.06.2020
1860 Drizzle 10 1001 93 9000 5.1 220 18:44 08.06.2020
1861 Drizzle 10 1001 93 9000 5.1 220 18:21 08.06.2020
1862 Drizzle 10 1001 93 10000 5.1 190 17:58 08.06.2020
1863 Drizzle 10 1001 93 10000 5.1 190 17:40 08.06.2020
1864 Drizzle 10 1001 93 10000 5.1 190 17:22 08.06.2020
1865 Rain 10 1001 93 10000 5.7 180 16:58 08.06.2020
1866 Rain 10 1001 93 10000 5.7 180 16:58 08.06.2020
1867 Rain 10 1001 93 10000 5.7 180 16:39 08.06.2020
1868 Rain 10 1001 93 10000 5.7 180 16:21 08.06.2020
1869 Drizzle 11 1001 87 10000 6.2 180 15:43 08.06.2020
1870 Drizzle 11 1001 87 10000 6.2 180 15:22 08.06.2020
1871 Drizzle 11 1001 87 10000 7.2 160 14:58 08.06.2020
1872 Drizzle 11 1001 87 10000 7.2 160 14:58 08.06.2020
1873 Drizzle 11 1001 87 10000 7.2 160 14:39 08.06.2020
1874 Drizzle 11 1001 87 10000 7.2 160 14:19 08.06.2020
1875 Drizzle 11 1001 87 9000 8.7 150 13:43 08.06.2020
1876 Drizzle 11 1001 87 9000 8.7 150 13:23 08.06.2020
1877 Drizzle 11 1002 81 10000 7.2 120 12:43 08.06.2020
1878 Drizzle 11 1002 81 10000 7.2 120 12:20 08.06.2020
1879 Drizzle 11 1002 81 10000 9.8 120 11:59 08.06.2020
1880 Drizzle 11 1002 81 10000 9.8 120 11:59 08.06.2020
1881 Drizzle 11 1002 81 10000 9.8 120 11:40 08.06.2020
1882 Drizzle 11 1002 81 10000 9.8 120 11:22 08.06.2020
1883 Drizzle 11 1002 81 10000 9.8 120 11:22 08.06.2020
1884 Drizzle 11 1003 81 10000 9.3 120 10:58 08.06.2020
1885 Drizzle 11 1003 81 10000 9.3 120 10:38 08.06.2020
1886 Drizzle 11 1003 81 10000 9.3 120 10:20 08.06.2020
1887 Drizzle 11 1003 81 10000 9.3 120 10:20 08.06.2020
1888 Rain 9 1004 87 10000 9.3 100 09:57 08.06.2020
1889 Rain 9 1004 87 10000 9.3 100 09:39 08.06.2020
1890 Rain 9 1004 87 10000 9.3 100 09:20 08.06.2020
1891 Drizzle 10 1004 76 10000 8.7 100 08:44 08.06.2020
1892 Drizzle 10 1004 76 10000 8.7 100 08:21 08.06.2020
1893 Rain 9 1005 81 10000 8.7 100 07:46 08.06.2020
1894 Rain 9 1005 81 10000 8.7 100 07:21 08.06.2020
1895 Rain 9 1006 76 10000 11.3 110 06:49 08.06.2020
1896 Rain 9 1006 76 10000 11.3 110 06:28 08.06.2020
1897 Clouds 8 1007 75 10000 10.8 110 05:46 08.06.2020
1898 Drizzle 8 1008 75 10000 9.3 100 04:29 08.06.2020
1899 Drizzle 9 1010 70 10000 7.2 110 02:32 08.06.2020
1900 Clouds 9 1010 61 10000 7.2 100 01:46 08.06.2020
1901 Clouds 9 1010 61 10000 7.2 100 01:26 08.06.2020
1902 Clouds 9 1011 57 10000 6.7 110 00:30 08.06.2020
1903 Clouds 10 1011 57 10000 7.7 130 23:42 07.06.2020
1904 Clouds 10 1011 57 10000 7.7 130 23:20 07.06.2020
1905 Rain 9 1011 66 10000 6.2 120 22:59 07.06.2020
1906 Rain 9 1011 66 10000 6.2 120 22:39 07.06.2020
1907 Rain 9 1011 66 10000 6.2 120 22:19 07.06.2020
1908 Clouds 10 1012 57 10000 7.7 140 21:59 07.06.2020
1909 Clouds 10 1012 57 10000 7.7 140 21:38 07.06.2020
1910 Clouds 10 1012 57 10000 7.7 140 21:38 07.06.2020
1911 Clouds 10 1012 57 10000 7.7 140 21:20 07.06.2020
1912 Clouds 10 1012 50 10000 6.2 130 20:56 07.06.2020
1913 Clouds 10 1012 50 10000 6.2 130 20:37 07.06.2020
1914 Clouds 10 1012 50 10000 6.2 130 20:18 07.06.2020
1915 Rain 10 1013 57 10000 6.2 160 19:55 07.06.2020
1916 Rain 10 1013 57 10000 6.2 160 19:37 07.06.2020
1917 Rain 10 1013 57 10000 6.2 160 19:18 07.06.2020
1918 Clouds 11 1013 37 10000 7.2 170 18:42 07.06.2020
1919 Clouds 11 1013 37 10000 7.2 170 18:23 07.06.2020
1920 Clouds 12 1013 30 10000 7.7 180 18:00 07.06.2020
1921 Clouds 12 1013 30 10000 7.7 180 17:40 07.06.2020
1922 Clouds 12 1013 30 10000 7.7 180 17:22 07.06.2020
1923 Clouds 12 1013 30 10000 5.7 180 16:45 07.06.2020
1924 Clouds 12 1013 30 10000 5.7 180 16:23 07.06.2020
1925 Clouds 13 1013 26 10000 5.7 180 15:59 07.06.2020
1926 Clouds 13 1013 26 10000 5.7 180 15:36 07.06.2020
1927 Clouds 13 1013 26 10000 5.7 180 15:18 07.06.2020
1928 Clouds 12 1013 26 10000 2.6 200 14:38 07.06.2020
1929 Clouds 12 1013 26 10000 2.6 200 14:19 07.06.2020
1930 Clouds 12 1013 40 10000 1.5 230 13:47 07.06.2020
1931 Clouds 12 1013 40 10000 1.5 230 13:47 07.06.2020
1932 Clouds 12 1013 40 10000 1.5 230 13:47 07.06.2020
1933 Clouds 11 1013 40 10000 1.5 230 13:21 07.06.2020
1934 Clouds 11 1014 40 10000 1 0 12:55 07.06.2020
1935 Clouds 11 1014 40 10000 1 0 12:36 07.06.2020
1936 Clouds 10 1014 46 10000 1 0 12:18 07.06.2020
1937 Clouds 10 1014 46 10000 1 0 11:54 07.06.2020
1938 Clouds 10 1014 46 10000 1 0 11:36 07.06.2020
1939 Clouds 10 1014 46 10000 1 0 11:18 07.06.2020
1940 Clouds 9 1014 51 10000 1 0 10:42 07.06.2020
1941 Clouds 9 1014 52 10000 1 0 10:20 07.06.2020
1942 Clouds 9 1014 52 10000 1 200 09:57 07.06.2020
1943 Clouds 9 1014 52 10000 1 200 09:38 07.06.2020
1944 Clouds 9 1014 55 10000 1 200 09:20 07.06.2020
1945 Clouds 8 1014 49 10000 1.5 130 08:48 07.06.2020
1946 Clouds 8 1014 49 10000 1.5 130 08:23 07.06.2020
1947 Clouds 8 1015 52 10000 1.5 110 07:50 07.06.2020
1948 Clouds 8 1015 52 10000 1.5 110 07:29 07.06.2020
1949 Clouds 6 1015 75 10000 1 130 06:48 07.06.2020
1950 Clouds 7 1015 65 10000 0.8 257 05:41 07.06.2020
1951 Clouds 7 1016 70 10000 1.5 160 04:20 07.06.2020
1952 Clouds 8 1017 65 10000 2.1 240 02:35 07.06.2020
1953 Clouds 8 1017 61 10000 2.6 340 01:55 07.06.2020
1954 Clouds 8 1017 61 10000 2.6 340 01:25 07.06.2020
1955 Clouds 9 1018 57 10000 3.6 320 00:46 07.06.2020
1956 Clouds 9 1018 57 10000 3.6 320 00:19 07.06.2020
1957 Clouds 9 1018 46 10000 4.6 320 23:57 06.06.2020
1958 Clouds 10 1018 46 10000 4.6 320 23:37 06.06.2020
1959 Clouds 10 1019 59 10000 5.7 300 23:19 06.06.2020
1960 Clouds 10 1019 59 10000 5.7 300 22:56 06.06.2020
1961 Clouds 10 1019 59 10000 5.7 300 22:37 06.06.2020
1962 Clouds 10 1019 58 10000 5.7 300 22:18 06.06.2020
1963 Clouds 9 1019 57 10000 6.2 300 21:44 06.06.2020
1964 Clouds 9 1019 57 10000 6.2 300 21:22 06.06.2020
1965 Clouds 10 1019 57 10000 6.2 300 20:57 06.06.2020
1966 Clouds 10 1019 57 10000 6.2 300 20:38 06.06.2020
1967 Clouds 10 1019 55 10000 6.2 300 20:18 06.06.2020
1968 Clouds 10 1020 53 10000 7.2 300 19:57 06.06.2020
1969 Clouds 10 1020 53 10000 7.2 300 19:37 06.06.2020
1970 Clouds 10 1020 53 10000 7.2 300 19:19 06.06.2020
1971 Clouds 11 1020 37 10000 7.7 320 18:43 06.06.2020
1972 Clouds 11 1020 37 10000 7.7 320 18:24 06.06.2020
1973 Clouds 10 1021 46 10000 7.7 300 17:58 06.06.2020
1974 Clouds 10 1021 46 10000 7.7 300 17:39 06.06.2020
1975 Clouds 10 1021 46 10000 7.7 300 17:19 06.06.2020
1976 Clouds 10 1021 51 10000 8.7 300 16:44 06.06.2020
1977 Clouds 9 1021 49 10000 8.7 300 16:22 06.06.2020
1978 Clouds 9 1021 45 10000 7.2 330 15:56 06.06.2020
1979 Clouds 9 1021 45 10000 7.2 330 15:37 06.06.2020
1980 Clouds 9 1021 45 10000 7.2 330 15:19 06.06.2020
1981 Clouds 9 1022 42 10000 6.2 330 14:43 06.06.2020
1982 Clear 9 1022 42 10000 6.2 330 14:25 06.06.2020
1983 Clear 9 1022 39 10000 6.2 330 13:59 06.06.2020
1984 Clear 9 1022 39 10000 6.2 330 13:40 06.06.2020
1985 Clouds 9 1022 39 10000 6.2 330 13:18 06.06.2020
1986 Clouds 9 1022 34 10000 7.2 350 12:43 06.06.2020
1987 Clouds 9 1022 34 10000 7.2 350 12:23 06.06.2020
1988 Clouds 8 1023 31 10000 6.7 10 11:58 06.06.2020
1989 Clouds 8 1023 31 10000 6.7 10 11:39 06.06.2020
1990 Clouds 8 1023 31 10000 6.7 10 11:20 06.06.2020
1991 Clouds 7 1023 36 10000 8.2 360 10:58 06.06.2020
1992 Clouds 7 1023 36 10000 8.2 360 10:58 06.06.2020
1993 Clouds 7 1023 36 10000 8.2 360 10:39 06.06.2020
1994 Clear 7 1023 36 10000 8.2 360 10:21 06.06.2020
1995 Clear 6 1023 45 10000 7.7 360 09:58 06.06.2020
1996 Clear 6 1023 45 10000 7.7 360 09:40 06.06.2020
1997 Clear 6 1023 45 10000 7.7 360 09:20 06.06.2020
1998 Clear 6 1023 52 10000 7.7 360 08:40 06.06.2020
1999 Clear 6 1023 52 10000 7.7 360 08:20 06.06.2020
2000 Clear 5 1023 52 10000 2.1 0 07:46 06.06.2020
2001 Clouds 5 1023 52 10000 2.1 0 07:22 06.06.2020
2002 Clouds 5 1023 52 10000 6.2 360 06:48 06.06.2020
2003 Clouds 5 1023 52 10000 6.2 360 06:30 06.06.2020
2004 Clouds 5 1023 56 10000 6.7 350 05:58 06.06.2020
2005 Clouds 5 1023 56 10000 6.7 350 05:30 06.06.2020
2006 Clouds 5 1024 52 10000 7.2 20 04:46 06.06.2020
2007 Clear 6 1024 52 10000 8.2 360 02:52 06.06.2020
2008 Clear 6 1024 52 10000 7.7 10 01:58 06.06.2020
2009 Clear 6 1024 52 10000 7.7 10 01:20 06.06.2020
2010 Clouds 8 1023 39 10000 8.7 20 00:46 06.06.2020
2011 Clouds 8 1023 39 10000 8.7 20 00:27 06.06.2020
2012 Clouds 8 1023 42 10000 9.3 10 23:58 05.06.2020
2013 Clouds 8 1023 42 10000 9.3 10 23:39 05.06.2020
2014 Clouds 8 1023 42 10000 9.3 10 23:39 05.06.2020
2015 Clouds 8 1023 42 10000 9.3 10 23:19 05.06.2020
2016 Clouds 9 1023 39 10000 8.7 20 22:55 05.06.2020
2017 Clouds 9 1023 39 10000 8.7 20 22:37 05.06.2020
2018 Clouds 9 1023 39 10000 8.7 20 22:18 05.06.2020
2019 Clouds 10 1023 34 10000 7.7 10 21:42 05.06.2020
2020 Clouds 10 1023 34 10000 7.7 10 21:22 05.06.2020
2021 Clear 10 1022 31 10000 8.7 360 20:58 05.06.2020
2022 Clear 10 1022 31 10000 8.7 360 20:39 05.06.2020
2023 Clear 10 1022 31 10000 8.7 360 20:21 05.06.2020
2024 Clear 10 1023 29 10000 8.2 10 19:42 05.06.2020
2025 Clear 10 1023 29 10000 8.2 10 19:23 05.06.2020
2026 Clouds 10 1023 29 10000 7.7 10 18:57 05.06.2020
2027 Clouds 10 1023 29 10000 7.7 10 18:38 05.06.2020
2028 Clouds 10 1023 29 10000 7.7 10 18:19 05.06.2020
2029 Clear 10 1023 34 10000 8.2 360 17:57 05.06.2020
2030 Clear 10 1023 34 10000 8.2 360 17:39 05.06.2020
2031 Clear 10 1023 34 10000 8.2 360 17:19 05.06.2020
2032 Clouds 10 1023 34 10000 8.7 360 16:39 05.06.2020
2033 Clouds 10 1023 34 10000 8.7 360 16:20 05.06.2020
2034 Clouds 9 1023 36 10000 11.3 360 15:56 05.06.2020
2035 Clouds 9 1023 36 10000 11.3 360 15:37 05.06.2020
2036 Clouds 9 1023 36 10000 11.3 360 15:19 05.06.2020
2037 Clouds 9 1023 36 10000 11.3 360 15:19 05.06.2020
2038 Clouds 8 1023 39 10000 10.3 10 14:41 05.06.2020
2039 Clouds 8 1023 39 10000 10.3 10 14:22 05.06.2020
2040 Clouds 7 1023 48 10000 8.7 20 13:59 05.06.2020
2041 Clouds 7 1023 48 10000 8.7 20 13:41 05.06.2020
2042 Clouds 7 1023 48 10000 8.7 20 13:22 05.06.2020
2043 Clouds 7 1023 42 10000 5.7 30 12:43 05.06.2020
2044 Clouds 7 1023 42 10000 5.7 30 12:20 05.06.2020
2045 Clouds 6 1023 48 10000 5.7 30 11:57 05.06.2020
2046 Clouds 6 1023 48 10000 5.7 30 11:39 05.06.2020
2047 Clouds 6 1023 48 10000 5.7 30 11:20 05.06.2020
2048 Clouds 4 1023 60 10000 4.1 20 10:54 05.06.2020
2049 Clouds 4 1023 60 10000 4.1 20 10:36 05.06.2020
2050 Clouds 4 1023 60 10000 4.1 20 10:18 05.06.2020
2051 Clouds 4 1023 60 10000 7.2 10 09:55 05.06.2020
2052 Clouds 4 1023 60 10000 7.2 10 09:36 05.06.2020
2053 Clouds 4 1023 60 10000 7.2 10 09:18 05.06.2020
2054 Clouds 4 1023 60 10000 7.2 10 09:18 05.06.2020
2055 Clouds 4 1022 60 10000 10.3 10 08:41 05.06.2020
2056 Clouds 4 1022 60 10000 10.3 10 08:20 05.06.2020
2057 Clouds 3 1022 69 10000 7.2 360 07:58 05.06.2020
2058 Clouds 3 1022 69 10000 7.2 360 07:39 05.06.2020
2059 Clouds 3 1022 69 10000 7.2 360 07:19 05.06.2020
2060 Clouds 5 1021 60 10000 8.7 10 05:50 05.06.2020
2061 Clouds 5 1021 60 10000 8.7 10 05:19 05.06.2020
2062 Clouds 5 1021 60 10000 7.2 20 03:54 05.06.2020
2063 Clouds 6 1020 60 10000 8.7 10 02:53 05.06.2020
2064 Clouds 6 1020 60 10000 8.7 10 02:24 05.06.2020
2065 Clouds 6 1020 60 10000 9.3 10 01:52 05.06.2020
2066 Clouds 6 1020 60 10000 9.3 10 01:26 05.06.2020
2067 Clouds 7 1020 56 10000 9.8 10 00:42 05.06.2020
2068 Clouds 7 1020 56 10000 9.8 10 00:20 05.06.2020
2069 Clouds 8 1019 52 10000 9.8 10 23:46 04.06.2020
2070 Clouds 8 1019 52 10000 9.8 10 23:27 04.06.2020
2071 Clouds 9 1018 59 10000 9.3 10 22:55 04.06.2020
2072 Clouds 9 1018 59 10000 9.3 10 22:36 04.06.2020
2073 Clouds 9 1018 57 10000 9.3 10 22:18 04.06.2020
2074 Clouds 10 1017 43 10000 8.7 20 21:56 04.06.2020
2075 Clouds 10 1017 43 10000 8.7 20 21:36 04.06.2020
2076 Clouds 10 1017 43 10000 8.7 20 21:18 04.06.2020
2077 Clouds 11 1017 43 10000 9.8 10 20:40 04.06.2020
2078 Clouds 11 1017 43 10000 9.8 10 20:22 04.06.2020
2079 Clouds 11 1016 59 10000 8.7 20 19:59 04.06.2020
2080 Clouds 12 1016 59 10000 8.7 20 19:39 04.06.2020
2081 Clouds 12 1016 58 10000 8.7 20 19:21 04.06.2020
2082 Clouds 11 1015 58 10000 9.8 20 18:56 04.06.2020
2083 Clouds 11 1015 58 10000 9.8 20 18:38 04.06.2020
2084 Clouds 11 1015 58 10000 9.8 20 18:19 04.06.2020
2085 Clouds 11 1015 46 10000 7.2 20 17:42 04.06.2020
2086 Clouds 11 1015 46 10000 7.2 20 17:21 04.06.2020
2087 Clouds 12 1014 35 10000 7.2 20 16:56 04.06.2020
2088 Clouds 12 1014 35 10000 7.2 20 16:38 04.06.2020
2089 Clouds 12 1014 35 10000 7.2 20 16:18 04.06.2020
2090 Clouds 11 1014 40 10000 6.7 10 15:43 04.06.2020
2091 Clear 11 1014 40 10000 6.7 10 15:24 04.06.2020
2092 Clear 10 1014 55 10000 8.7 10 14:41 04.06.2020
2093 Clouds 10 1014 55 10000 8.7 10 14:22 04.06.2020
2094 Clouds 10 1013 50 10000 6.7 360 13:56 04.06.2020
2095 Clouds 10 1013 50 10000 6.7 360 13:38 04.06.2020
2096 Clouds 10 1013 50 10000 6.7 360 13:20 04.06.2020
2097 Clouds 9 1013 61 10000 4.6 10 12:56 04.06.2020
2098 Clouds 9 1013 61 10000 4.6 10 12:38 04.06.2020
2099 Clouds 9 1013 61 10000 4.6 10 12:20 04.06.2020
2100 Clouds 9 1013 81 10000 1.5 220 11:41 04.06.2020
2101 Clouds 9 1013 81 10000 1.5 220 11:41 04.06.2020
2102 Clouds 9 1013 81 10000 1.5 220 11:21 04.06.2020
2103 Clouds 9 1013 93 10000 1.5 320 10:59 04.06.2020
2104 Clouds 9 1013 93 10000 1.5 320 10:39 04.06.2020
2105 Clouds 9 1013 93 10000 1.5 320 10:21 04.06.2020
2106 Clouds 8 1013 93 10000 1 200 09:56 04.06.2020
2107 Clouds 8 1013 93 10000 1 200 09:37 04.06.2020
2108 Clouds 8 1013 93 10000 1 200 09:18 04.06.2020
2109 Clouds 8 1014 93 10000 0.5 110 08:38 04.06.2020
2110 Clouds 8 1014 93 10000 0.5 110 08:20 04.06.2020
2111 Clouds 7 1014 100 10000 1 0 07:32 04.06.2020
2112 Clouds 7 1014 100 10000 1 120 06:57 04.06.2020
2113 Clouds 7 1014 100 10000 1 120 06:39 04.06.2020
2114 Clouds 7 1014 100 10000 1 120 06:18 04.06.2020
2115 Clouds 8 1015 93 10000 1 0 05:33 04.06.2020
2116 Clouds 8 1015 93 10000 1 0 05:33 04.06.2020
2117 Clouds 8 1015 100 10000 2.1 190 03:50 04.06.2020
2118 Clouds 8 1016 93 10000 3.6 180 02:21 04.06.2020
2119 Clouds 8 1016 93 10000 3.6 180 02:21 04.06.2020
2120 Clouds 8 1016 93 10000 2.6 210 01:39 04.06.2020
2121 Clouds 8 1016 93 10000 2.6 210 01:18 04.06.2020
2122 Clouds 9 1017 87 10000 2.6 260 00:19 04.06.2020
2123 Clouds 9 1017 87 10000 3.6 290 23:39 03.06.2020
2124 Clouds 9 1017 87 10000 3.6 290 23:19 03.06.2020
2125 Clouds 9 1018 87 10000 4.6 300 22:56 03.06.2020
2126 Clouds 9 1018 87 10000 4.6 300 22:38 03.06.2020
2127 Clouds 9 1018 87 10000 4.6 300 22:18 03.06.2020
2128 Clouds 9 1018 81 10000 3.6 300 21:55 03.06.2020
2129 Clouds 9 1018 81 10000 3.6 300 21:36 03.06.2020
2130 Clouds 9 1018 81 10000 3.6 300 21:18 03.06.2020
2131 Clouds 9 1018 81 10000 5.1 300 20:42 03.06.2020
2132 Clouds 9 1018 81 10000 5.1 300 20:21 03.06.2020
2133 Clouds 9 1019 87 10000 4.1 290 19:57 03.06.2020
2134 Clouds 9 1019 87 10000 4.1 290 19:39 03.06.2020
2135 Clouds 9 1019 87 10000 4.1 290 19:20 03.06.2020
2136 Clouds 9 1019 87 10000 4.1 300 18:58 03.06.2020
2137 Clouds 9 1019 87 10000 4.1 300 18:39 03.06.2020
2138 Clouds 9 1019 87 10000 4.1 300 18:19 03.06.2020
2139 Clouds 9 1019 87 10000 3.6 280 17:45 03.06.2020
2140 Clouds 9 1019 87 10000 3.6 280 17:23 03.06.2020
2141 Clouds 9 1020 87 10000 3.6 280 16:58 03.06.2020
2142 Clouds 9 1020 87 10000 3.6 280 16:39 03.06.2020
2143 Clouds 9 1020 87 10000 3.6 280 16:19 03.06.2020
2144 Clouds 9 1020 87 10000 2.1 290 15:54 03.06.2020
2145 Clouds 9 1020 87 10000 2.1 290 15:36 03.06.2020
2146 Clouds 9 1020 87 10000 2.1 290 15:36 03.06.2020
2147 Clouds 9 1020 87 10000 2.1 290 15:18 03.06.2020
2148 Clouds 8 1021 93 10000 3.1 280 14:42 03.06.2020
2149 Clouds 8 1021 93 10000 3.1 280 14:22 03.06.2020
2150 Clouds 8 1021 100 10000 4.6 290 13:40 03.06.2020
2151 Clouds 8 1021 100 10000 4.6 290 13:21 03.06.2020
2152 Drizzle 8 1022 100 4000 3.6 290 12:56 03.06.2020
2153 Clouds 8 1022 93 9000 4.1 250 12:38 03.06.2020
2154 Clouds 8 1022 93 9000 4.1 250 12:18 03.06.2020
2155 Clouds 8 1022 93 10000 4.1 270 11:43 03.06.2020
2156 Clouds 8 1022 93 10000 4.1 270 11:24 03.06.2020
2157 Drizzle 7 1022 100 9000 3.6 270 10:43 03.06.2020
2158 Drizzle 7 1022 100 9000 3.6 270 10:24 03.06.2020
2159 Drizzle 7 1023 100 2200 4.6 240 09:55 03.06.2020
2160 Drizzle 7 1023 100 2200 4.6 240 09:36 03.06.2020
2161 Drizzle 7 1023 100 2200 4.6 240 09:18 03.06.2020
2162 Drizzle 7 1024 100 10000 5.1 250 08:45 03.06.2020
2163 Drizzle 7 1024 100 10000 5.1 250 08:21 03.06.2020
2164 Drizzle 8 1025 81 8000 4.1 250 07:46 03.06.2020
2165 Drizzle 8 1025 81 8000 4.1 250 07:24 03.06.2020
2166 -273 0 0 0 0 0 06:58 03.06.2020
2167 Clouds 8 1025 75 10000 4.6 250 06:40 03.06.2020
2168 Clouds 8 1025 75 10000 4.6 250 06:21 03.06.2020
2169 Rain 8 1026 81 10000 5.1 250 05:42 03.06.2020
2170 Clouds 8 1026 75 10000 4.6 260 04:18 03.06.2020
2171 Clouds 8 1027 81 10000 4.6 240 03:40 03.06.2020
2172 Clouds 8 1027 81 10000 5.7 240 02:33 03.06.2020
2173 Clouds 8 1028 75 10000 3.1 280 01:34 03.06.2020
2174 Clouds 8 1028 87 10000 3.6 250 00:38 03.06.2020
2175 Clouds 8 1028 87 10000 3.6 250 00:19 03.06.2020
2176 Clouds 8 1028 87 10000 3.6 260 23:43 02.06.2020
2177 Clouds 8 1028 87 10000 3.6 260 23:24 02.06.2020
2178 Clouds 8 1028 93 10000 5.1 260 22:40 02.06.2020
2179 Clouds 8 1028 93 10000 5.1 260 22:19 02.06.2020
2180 Clouds 9 1028 87 10000 4.1 280 21:57 02.06.2020
2181 Clouds 9 1028 87 10000 4.1 280 21:39 02.06.2020
2182 Clouds 9 1028 87 10000 4.1 280 21:21 02.06.2020
2183 Clouds 9 1028 87 10000 4.1 280 21:21 02.06.2020
2184 Clouds 9 1028 87 10000 4.1 280 21:21 02.06.2020
2185 Clouds 9 1028 87 10000 4.6 270 20:59 02.06.2020
2186 Clouds 9 1028 87 10000 4.6 270 20:41 02.06.2020
2187 Clouds 9 1028 87 10000 4.6 270 20:22 02.06.2020
2188 Clouds 9 1028 87 10000 4.6 280 19:46 02.06.2020
2189 Clouds 9 1028 87 10000 4.6 280 19:26 02.06.2020
2190 Clouds 9 1028 87 10000 4.1 270 18:59 02.06.2020
2191 Clouds 9 1028 87 10000 4.1 270 18:40 02.06.2020
2192 Clouds 9 1028 87 10000 4.1 270 18:21 02.06.2020
2193 Clouds 9 1028 87 10000 3.1 290 17:59 02.06.2020
2194 Clouds 9 1028 87 10000 3.1 290 17:40 02.06.2020
2195 Clouds 9 1028 87 10000 3.1 290 17:21 02.06.2020
2196 Clouds 9 1028 81 10000 4.6 280 16:56 02.06.2020
2197 Clouds 10 1028 81 10000 4.6 280 16:38 02.06.2020
2198 Clouds 10 1028 81 10000 4.6 280 16:19 02.06.2020
2199 Clouds 10 1028 93 10000 2.6 250 15:42 02.06.2020
2200 Clouds 10 1028 93 10000 2.6 250 15:23 02.06.2020
2201 Rain 10 1028 87 10000 2.1 270 14:49 02.06.2020
2202 Rain 10 1028 87 10000 2.1 270 14:30 02.06.2020
2203 Rain 9 1028 93 10000 2.6 240 13:57 02.06.2020
2204 Rain 9 1028 93 10000 2.6 240 13:38 02.06.2020
2205 Rain 9 1028 93 10000 2.6 240 13:19 02.06.2020
2206 Drizzle 8 1028 93 10000 2.1 230 12:58 02.06.2020
2207 Drizzle 9 1028 93 10000 2.1 230 12:39 02.06.2020
2208 Drizzle 9 1028 93 10000 2.1 230 12:20 02.06.2020
2209 Rain 9 1027 87 10000 4.1 260 11:55 02.06.2020
2210 Rain 9 1027 87 10000 4.1 260 11:36 02.06.2020
2211 Rain 9 1027 87 10000 4.1 260 11:18 02.06.2020
2212 Clouds 9 1027 93 10000 3.1 230 10:46 02.06.2020
2213 Clouds 9 1027 93 10000 3.1 230 10:28 02.06.2020
2214 Clouds 9 1026 93 10000 3.1 220 09:55 02.06.2020
2215 Clouds 9 1026 93 10000 3.1 220 09:36 02.06.2020
2216 Clouds 9 1026 93 10000 3.1 220 09:18 02.06.2020
2217 Clouds 8 1026 93 10000 1.5 190 08:45 02.06.2020
2218 Clouds 8 1026 93 10000 1.5 190 08:20 02.06.2020
2219 Clouds 8 1026 93 10000 1.5 210 07:44 02.06.2020
2220 Clouds 8 1026 93 10000 1.5 210 07:25 02.06.2020
2221 Clouds 8 1026 87 10000 1 0 06:43 02.06.2020
2222 Clouds 8 1026 87 10000 0.5 0 05:54 02.06.2020
2223 Clouds 8 1025 87 10000 2.1 200 04:58 02.06.2020
2224 Clouds 8 1025 87 10000 2.1 220 03:21 02.06.2020
2225 Clouds 9 1025 81 10000 2.1 220 02:24 02.06.2020
2226 Clouds 9 1025 76 10000 2.6 230 01:21 02.06.2020
2227 Clouds 9 1025 76 10000 3.6 230 00:25 02.06.2020
2228 Rain 10 1024 71 10000 4.6 230 23:55 01.06.2020
2229 Rain 10 1024 71 10000 4.6 230 23:36 01.06.2020
2230 Rain 10 1024 71 10000 4.6 230 23:18 01.06.2020
2231 Rain 10 1024 71 10000 5.1 210 22:41 01.06.2020
2232 Rain 10 1024 71 10000 5.1 210 22:21 01.06.2020
2233 Rain 10 1024 71 10000 5.1 210 22:21 01.06.2020
2234 Rain 10 1023 71 10000 5.1 200 21:58 01.06.2020
2235 Rain 10 1023 71 10000 5.1 200 21:39 01.06.2020
2236 Rain 10 1023 71 10000 5.1 200 21:19 01.06.2020
2237 Rain 11 1023 62 10000 5.7 200 20:55 01.06.2020
2238 Rain 11 1023 62 10000 5.7 200 20:55 01.06.2020
2239 Rain 10 1023 62 10000 5.7 200 20:37 01.06.2020
2240 Rain 10 1023 62 10000 5.7 200 20:19 01.06.2020
2241 Rain 11 1023 57 10000 5.1 190 19:43 01.06.2020
2242 Rain 11 1023 57 10000 5.1 190 19:21 01.06.2020
2243 Rain 11 1023 57 10000 4.6 200 18:59 01.06.2020
2244 Rain 11 1023 57 10000 4.6 200 18:39 01.06.2020
2245 Rain 11 1023 57 10000 4.6 200 18:20 01.06.2020
2246 Rain 11 1023 62 10000 5.7 200 17:58 01.06.2020
2247 Rain 11 1023 62 10000 5.7 200 17:40 01.06.2020
2248 Rain 11 1023 62 10000 5.7 200 17:19 01.06.2020
2249 Rain 11 1023 66 10000 5.1 220 16:42 01.06.2020
2250 Rain 11 1023 66 10000 5.1 220 16:22 01.06.2020
2251 Rain 10 1023 66 10000 5.1 210 15:57 01.06.2020
2252 Rain 10 1023 66 10000 5.1 210 15:39 01.06.2020
2253 Rain 10 1023 66 10000 5.1 210 15:19 01.06.2020
2254 Rain 10 1023 61 10000 1.5 260 14:57 01.06.2020
2255 Rain 10 1023 61 10000 1.5 260 14:39 01.06.2020
2256 Rain 10 1023 61 10000 1.5 260 14:21 01.06.2020
2257 Clouds 10 1023 66 10000 3.6 220 13:54 01.06.2020
2258 Clouds 10 1023 66 10000 3.6 220 13:36 01.06.2020
2259 Clouds 10 1023 66 10000 3.6 220 13:18 01.06.2020
2260 Rain 9 1022 70 10000 5.1 210 12:54 01.06.2020
2261 Rain 9 1022 70 10000 5.1 210 12:36 01.06.2020
2262 Rain 9 1022 70 10000 5.1 210 12:18 01.06.2020
2263 Clouds 8 1022 75 10000 5.1 220 11:38 01.06.2020
2264 Clouds 8 1022 75 10000 5.1 220 11:19 01.06.2020
2265 Clouds 8 1022 75 10000 3.1 200 10:57 01.06.2020
2266 Clouds 8 1022 75 10000 3.1 200 10:37 01.06.2020
2267 Clouds 8 1022 75 10000 3.1 200 10:18 01.06.2020
2268 Clouds 7 1021 81 10000 3.6 200 09:46 01.06.2020
2269 Clouds 7 1021 81 10000 3.6 200 09:27 01.06.2020
2270 Clouds 6 1021 87 10000 2.6 170 08:57 01.06.2020
2271 Clouds 6 1021 87 10000 2.6 170 08:37 01.06.2020
2272 Clouds 6 1021 87 10000 2.6 170 08:19 01.06.2020
2273 Clouds 6 1021 87 10000 2.1 140 07:41 01.06.2020
2274 Clouds 6 1021 87 10000 2.1 140 07:41 01.06.2020
2275 Clouds 6 1021 87 10000 2.1 140 07:41 01.06.2020
2276 Clouds 6 1021 87 10000 2.1 140 07:22 01.06.2020
2277 Clouds 6 1020 87 10000 3.1 160 06:49 01.06.2020
2278 Clouds 6 1020 81 10000 2.6 150 05:57 01.06.2020
2279 Clouds 6 1020 81 10000 2.6 150 05:22 01.06.2020
2280 Clouds 5 1020 86 10000 2.1 180 04:18 01.06.2020
2281 Clouds 6 1020 81 10000 3.6 180 03:42 01.06.2020
2282 Clouds 6 1020 81 10000 4.1 190 02:57 01.06.2020
2283 Clouds 6 1020 87 10000 3.6 190 01:47 01.06.2020
2284 Clouds 6 1020 87 10000 3.6 190 01:26 01.06.2020
2285 Rain 7 1019 81 10000 4.6 200 00:56 01.06.2020
2286 Rain 7 1019 81 10000 4.6 200 00:38 01.06.2020
2287 Rain 7 1019 81 10000 4.6 200 00:19 01.06.2020
2288 Clouds 8 1019 70 10000 4.1 220 23:42 31.05.2020
2289 Clouds 8 1019 70 10000 4.1 220 23:23 31.05.2020
2290 Rain 9 1019 66 10000 4.6 220 22:59 31.05.2020
2291 Rain 9 1019 66 10000 4.6 220 22:41 31.05.2020
2292 Rain 9 1019 66 10000 4.6 220 22:22 31.05.2020
2293 Rain 9 1018 61 10000 5.7 220 21:57 31.05.2020
2294 Rain 9 1018 61 10000 5.7 220 21:39 31.05.2020
2295 Rain 8 1018 61 10000 5.7 220 21:21 31.05.2020
2296 Clouds 9 1018 61 10000 4.1 250 20:47 31.05.2020
2297 Clouds 9 1018 61 10000 4.1 250 20:25 31.05.2020
2298 Clouds 10 1018 57 10000 5.1 260 19:56 31.05.2020
2299 Clouds 9 1018 57 10000 5.1 260 19:38 31.05.2020
2300 Clouds 9 1018 57 10000 5.1 260 19:20 31.05.2020
2301 Clouds 9 1018 57 10000 5.1 260 19:20 31.05.2020
2302 Clouds 9 1018 66 10000 4.6 280 18:56 31.05.2020
2303 Clouds 9 1018 66 10000 4.6 280 18:37 31.05.2020
2304 Clouds 9 1018 66 10000 4.6 280 18:19 31.05.2020
2305 Clouds 9 1018 70 10000 4.6 290 17:42 31.05.2020
2306 Clouds 9 1018 70 10000 4.6 290 17:24 31.05.2020
2307 Rain 8 1017 81 10000 3.6 290 16:42 31.05.2020
2308 Rain 8 1017 81 10000 3.6 290 16:22 31.05.2020
2309 Clouds 9 1017 76 10000 3.6 270 15:57 31.05.2020
2310 Clouds 9 1017 76 10000 3.6 270 15:37 31.05.2020
2311 Clouds 9 1017 76 10000 3.6 270 15:19 31.05.2020
2312 Rain 8 1017 87 10000 2.6 350 14:44 31.05.2020
2313 Rain 8 1017 87 10000 2.6 350 14:19 31.05.2020
2314 Clouds 9 1017 70 10000 2.1 70 13:56 31.05.2020
2315 Clouds 9 1017 70 10000 2.1 70 13:37 31.05.2020
2316 Clouds 9 1017 70 10000 2.1 70 13:19 31.05.2020
2317 Clouds 8 1017 81 10000 2.6 100 12:55 31.05.2020
2318 Clouds 8 1017 81 10000 2.6 100 12:36 31.05.2020
2319 Clouds 8 1017 81 10000 2.6 100 12:18 31.05.2020
2320 Rain 8 1017 81 10000 2.6 120 11:42 31.05.2020
2321 Rain 8 1017 81 10000 2.6 120 11:21 31.05.2020
2322 Rain 7 1017 81 10000 2.1 170 10:55 31.05.2020
2323 Rain 7 1017 81 10000 2.1 170 10:37 31.05.2020
2324 Rain 7 1017 81 10000 2.1 170 10:18 31.05.2020
2325 Rain 7 1018 81 10000 3.1 160 09:42 31.05.2020
2326 Rain 7 1018 81 10000 3.1 160 09:22 31.05.2020
2327 Rain 7 1017 75 10000 2.6 140 08:56 31.05.2020
2328 Rain 7 1017 75 10000 2.6 140 08:36 31.05.2020
2329 Rain 7 1017 75 10000 2.6 140 08:18 31.05.2020
2330 Rain 7 1017 70 10000 2.6 150 07:39 31.05.2020
2331 Rain 7 1017 70 10000 2.6 150 07:18 31.05.2020
2332 Clouds 7 1017 70 10000 4.6 150 06:49 31.05.2020
2333 Clouds 7 1017 70 10000 4.6 150 06:31 31.05.2020
2334 Rain 7 1018 75 10000 4.1 150 05:40 31.05.2020
2335 Clouds 8 1018 70 10000 4.6 150 04:22 31.05.2020
2336 Clouds 8 1018 66 10000 5.7 150 03:47 31.05.2020
2337 Clouds 8 1018 66 10000 4.6 140 02:58 31.05.2020
2338 Rain 8 1018 66 10000 4.6 150 01:48 31.05.2020
2339 Rain 9 1018 66 10000 5.1 160 00:59 31.05.2020
2340 Rain 9 1018 66 10000 5.1 160 00:29 31.05.2020
2341 Clouds 9 1017 53 10000 5.1 170 23:45 30.05.2020
2342 Clouds 9 1017 53 10000 5.1 170 23:27 30.05.2020
2343 Clouds 10 1017 57 10000 6.2 160 22:59 30.05.2020
2344 Clouds 10 1017 57 10000 6.2 160 22:40 30.05.2020
2345 Clouds 10 1017 57 10000 6.2 160 22:40 30.05.2020
2346 Clouds 10 1017 57 10000 6.2 160 22:40 30.05.2020
2347 Clouds 10 1017 57 10000 6.2 160 22:21 30.05.2020
2348 Rain 10 1016 61 10000 6.2 160 21:56 30.05.2020
2349 Rain 10 1016 61 10000 6.2 160 21:37 30.05.2020
2350 Rain 10 1016 61 10000 6.2 160 21:18 30.05.2020
2351 Clouds 10 1016 57 10000 6.2 160 20:56 30.05.2020
2352 Clouds 10 1016 57 10000 6.2 160 20:37 30.05.2020
2353 Clouds 10 1016 57 10000 6.2 160 20:19 30.05.2020
2354 Clouds 10 1016 53 10000 5.7 170 19:42 30.05.2020
2355 Clouds 10 1016 53 10000 5.7 170 19:21 30.05.2020
2356 Clouds 10 1015 61 10000 7.2 170 18:45 30.05.2020
2357 Clouds 10 1015 61 10000 7.2 170 18:24 30.05.2020
2358 Clouds 10 1015 61 10000 7.2 170 17:55 30.05.2020
2359 Clouds 10 1015 61 10000 7.2 170 17:37 30.05.2020
2360 Rain 10 1015 61 10000 7.2 170 17:18 30.05.2020
2361 Rain 11 1014 57 10000 6.2 180 16:41 30.05.2020
2362 Rain 11 1014 57 10000 6.2 180 16:22 30.05.2020
2363 Clouds 10 1014 57 10000 7.7 160 15:48 30.05.2020
2364 Clouds 10 1014 57 10000 7.7 160 15:28 30.05.2020
2365 Clouds 10 1013 61 10000 7.7 160 14:48 30.05.2020
2366 Clouds 10 1013 61 10000 7.7 160 14:30 30.05.2020
2367 Clouds 9 1013 70 10000 8.7 160 13:47 30.05.2020
2368 Clouds 9 1013 70 10000 8.7 160 13:27 30.05.2020
2369 Clouds 9 1012 76 10000 8.7 170 12:57 30.05.2020
2370 Clouds 9 1012 76 10000 8.7 170 12:39 30.05.2020
2371 Clouds 9 1012 76 10000 8.7 170 12:19 30.05.2020
2372 Rain 9 1012 70 10000 5.1 150 11:41 30.05.2020
2373 Rain 8 1012 70 10000 5.1 150 11:23 30.05.2020
2374 Clouds 8 1011 81 10000 5.1 150 10:58 30.05.2020
2375 Clouds 8 1011 81 10000 5.1 150 10:58 30.05.2020
2376 Clouds 8 1011 81 10000 5.1 150 10:38 30.05.2020
2377 Clouds 8 1011 81 10000 5.1 150 10:20 30.05.2020
2378 Rain 8 1010 87 10000 4.6 150 09:44 30.05.2020
2379 Rain 7 1010 87 10000 4.6 150 09:25 30.05.2020
2380 Drizzle 7 1009 87 10000 4.6 160 08:44 30.05.2020
2381 Rain 7 1009 87 10000 4.6 160 08:44 30.05.2020
2382 Drizzle 7 1009 87 10000 4.6 160 08:26 30.05.2020
2383 Clouds 7 1009 93 10000 5.1 170 07:40 30.05.2020
2384 Clouds 7 1009 93 10000 5.1 170 07:19 30.05.2020
2385 Clouds 7 1007 87 10000 5.7 170 06:30 30.05.2020
2386 Clouds 7 1006 100 10000 5.7 190 05:52 30.05.2020
2387 Rain 8 1004 100 6000 9.8 150 04:59 30.05.2020
2388 Clouds 10 1004 93 10000 9.3 140 02:56 30.05.2020
2389 Clouds 10 1004 93 10000 9.3 140 02:23 30.05.2020
2390 Rain 10 1003 93 10000 10.3 150 01:20 30.05.2020
2391 Drizzle 10 1003 93 9000 7.7 130 00:36 30.05.2020
2392 Drizzle 10 1003 93 9000 7.7 130 00:18 30.05.2020
2393 Drizzle 10 1002 100 10000 9.8 130 23:38 29.05.2020
2394 Drizzle 10 1002 100 10000 9.8 130 23:20 29.05.2020
2395 Drizzle 10 1002 100 10000 9.8 130 23:20 29.05.2020
2396 Rain 10 1002 100 9000 9.8 130 22:56 29.05.2020
2397 Rain 10 1002 100 9000 9.8 130 22:37 29.05.2020
2398 Rain 10 1002 100 9000 9.8 130 22:18 29.05.2020
2399 Drizzle 10 1003 100 10000 6.7 140 21:41 29.05.2020
2400 Drizzle 10 1003 100 10000 6.7 140 21:41 29.05.2020
2401 Drizzle 10 1003 100 10000 6.7 140 21:21 29.05.2020
2402 Drizzle 10 1003 93 10000 12.9 150 20:58 29.05.2020
2403 Drizzle 10 1003 93 10000 12.9 150 20:39 29.05.2020
2404 Drizzle 10 1003 93 10000 12.9 150 20:19 29.05.2020
2405 Drizzle 10 1002 93 10000 13.4 150 19:44 29.05.2020
2406 Drizzle 10 1002 93 10000 13.4 150 19:26 29.05.2020
2407 Drizzle 10 1003 100 8000 12.9 140 18:49 29.05.2020
2408 Drizzle 10 1003 100 8000 12.9 140 18:24 29.05.2020
2409 Drizzle 10 1003 100 10000 11.3 150 17:59 29.05.2020
2410 Drizzle 10 1003 100 10000 11.3 150 17:40 29.05.2020
2411 Drizzle 10 1003 100 10000 11.3 150 17:21 29.05.2020
2412 Drizzle 10 1004 100 6000 10.3 150 16:58 29.05.2020
2413 Drizzle 10 1004 100 6000 10.3 150 16:40 29.05.2020
2414 Drizzle 10 1004 100 6000 10.3 150 16:21 29.05.2020
2415 Drizzle 10 1003 100 6000 10.8 150 15:42 29.05.2020
2416 Drizzle 10 1003 100 6000 10.8 150 15:22 29.05.2020
2417 Drizzle 10 1004 100 10000 12.9 150 14:59 29.05.2020
2418 Drizzle 10 1004 100 10000 12.9 150 14:39 29.05.2020
2419 Drizzle 10 1004 100 10000 12.9 150 14:39 29.05.2020
2420 Drizzle 10 1004 100 10000 12.9 150 14:20 29.05.2020
2421 Drizzle 11 1004 93 10000 10.8 150 13:43 29.05.2020
2422 Drizzle 11 1004 93 10000 10.8 150 13:23 29.05.2020
2423 Rain 10 1003 100 10000 8.7 140 12:58 29.05.2020
2424 Rain 10 1003 100 10000 8.7 140 12:39 29.05.2020
2425 Rain 10 1003 100 10000 8.7 140 12:39 29.05.2020
2426 Rain 10 1003 100 10000 8.7 140 12:20 29.05.2020
2427 Rain 10 1003 93 10000 10.8 150 11:44 29.05.2020
2428 Rain 10 1003 93 10000 10.8 150 11:25 29.05.2020
2429 Rain 10 1002 93 8000 10.8 140 10:55 29.05.2020
2430 Rain 10 1002 93 8000 10.8 140 10:36 29.05.2020
2431 Rain 10 1002 93 8000 10.8 140 10:18 29.05.2020
2432 Rain 10 1002 100 7000 10.3 130 09:41 29.05.2020
2433 Rain 10 1002 100 7000 10.3 130 09:19 29.05.2020
2434 Drizzle 10 1002 100 5000 13.4 120 08:48 29.05.2020
2435 Drizzle 10 1002 100 5000 13.4 120 08:26 29.05.2020
2436 Drizzle 10 1003 93 4000 10.8 110 07:52 29.05.2020
2437 Drizzle 10 1003 93 4000 10.8 110 07:33 29.05.2020
2438 Drizzle 10 1004 81 10000 8.7 80 06:58 29.05.2020
2439 Drizzle 10 1004 81 10000 8.7 80 06:40 29.05.2020
2440 Drizzle 10 1004 81 10000 8.7 80 06:22 29.05.2020
2441 Clouds 11 1005 81 10000 10.3 110 05:40 29.05.2020
2442 Drizzle 10 1009 93 10000 8.2 110 02:20 29.05.2020
2443 Drizzle 10 1009 93 10000 8.2 110 02:20 29.05.2020
2444 Clouds 10 1011 93 10000 8.2 110 01:27 29.05.2020
2445 Clouds 10 1012 87 10000 5.7 110 00:53 29.05.2020
2446 Clouds 10 1012 87 10000 5.7 110 00:33 29.05.2020
2447 Clouds 10 1013 87 10000 5.7 120 23:57 28.05.2020
2448 Clouds 10 1013 87 10000 5.7 120 23:39 28.05.2020
2449 Clouds 10 1013 87 10000 5.7 120 23:18 28.05.2020
2450 Clouds 10 1013 87 10000 6.7 150 22:42 28.05.2020
2451 Clouds 10 1013 87 10000 6.7 150 22:24 28.05.2020
2452 Rain 10 1014 93 10000 7.2 150 21:56 28.05.2020
2453 Rain 10 1014 93 10000 7.2 150 21:37 28.05.2020
2454 Rain 10 1014 93 10000 7.2 150 21:19 28.05.2020
2455 Rain 10 1014 93 10000 7.2 150 21:19 28.05.2020
2456 Clouds 10 1014 93 10000 7.2 140 20:56 28.05.2020
2457 Clouds 11 1014 93 10000 7.2 140 20:37 28.05.2020
2458 Clouds 11 1014 93 10000 7.2 140 20:18 28.05.2020
2459 Drizzle 10 1014 93 10000 7.7 140 19:43 28.05.2020
2460 Drizzle 11 1014 93 10000 7.7 140 19:21 28.05.2020
2461 Clouds 12 1014 76 10000 8.2 150 18:57 28.05.2020
2462 Clouds 12 1014 76 10000 8.2 150 18:39 28.05.2020
2463 Clouds 12 1014 76 10000 8.2 150 18:21 28.05.2020
2464 Clouds 11 1014 81 10000 9.3 150 17:41 28.05.2020
2465 Clouds 11 1014 81 10000 9.3 150 17:22 28.05.2020
2466 Rain 11 1015 81 10000 9.3 150 16:56 28.05.2020
2467 Rain 11 1015 81 10000 9.3 150 16:37 28.05.2020
2468 Rain 11 1015 81 10000 9.3 150 16:18 28.05.2020
2469 Rain 10 1015 81 10000 8.7 140 15:42 28.05.2020
2470 Rain 10 1015 81 10000 8.7 140 15:23 28.05.2020
2471 Rain 10 1015 87 10000 6.2 150 14:44 28.05.2020
2472 Rain 10 1015 87 10000 6.2 150 14:25 28.05.2020
2473 Rain 10 1016 87 10000 4.6 150 13:58 28.05.2020
2474 Rain 10 1016 87 10000 4.6 150 13:39 28.05.2020
2475 Rain 10 1016 87 10000 4.6 150 13:20 28.05.2020
2476 Drizzle 10 1016 81 10000 4.6 150 12:42 28.05.2020
2477 Drizzle 10 1016 81 10000 4.6 150 12:19 28.05.2020
2478 Rain 9 1017 76 10000 7.2 170 11:43 28.05.2020
2479 Rain 9 1017 76 10000 7.2 170 11:43 28.05.2020
2480 Rain 10 1017 76 10000 7.2 170 11:24 28.05.2020
2481 Rain 9 1017 81 10000 5.7 180 10:57 28.05.2020
2482 Rain 9 1017 81 10000 5.7 180 10:39 28.05.2020
2483 Rain 9 1017 81 10000 5.7 180 10:18 28.05.2020
2484 Clouds 9 1017 81 10000 6.2 180 09:39 28.05.2020
2485 Clouds 9 1017 81 10000 6.2 180 09:20 28.05.2020
2486 Clouds 8 1017 81 10000 3.6 170 08:49 28.05.2020
2487 Clouds 8 1017 81 10000 3.6 170 08:26 28.05.2020
2488 Clouds 7 1017 87 10000 5.1 180 07:45 28.05.2020
2489 Clouds 7 1017 87 10000 5.1 180 07:26 28.05.2020
2490 Clouds 7 1017 87 10000 7.7 190 06:57 28.05.2020
2491 Clouds 7 1017 87 10000 7.7 190 06:37 28.05.2020
2492 Rain 8 1017 87 10000 6.7 180 05:56 28.05.2020
2493 Rain 8 1017 87 10000 6.7 180 05:35 28.05.2020
2494 Rain 8 1017 87 10000 6.2 180 04:28 28.05.2020
2495 Rain 7 1017 87 10000 6.7 180 03:45 28.05.2020
2496 Rain 8 1017 87 10000 8.7 200 02:45 28.05.2020
2497 Rain 8 1017 87 10000 8.7 190 01:51 28.05.2020
2498 Rain 8 1017 87 10000 8.7 190 00:54 28.05.2020
2499 Rain 8 1017 87 10000 8.7 190 00:26 28.05.2020
2500 Rain 8 1017 87 10000 8.7 200 23:58 27.05.2020
2501 Rain 8 1017 87 10000 8.7 200 23:58 27.05.2020
2502 Rain 8 1017 87 10000 8.7 200 23:39 27.05.2020
2503 Rain 8 1017 87 10000 8.7 200 23:20 27.05.2020
2504 Rain 8 1016 87 10000 9.8 200 22:56 27.05.2020
2505 Rain 8 1016 87 10000 9.8 200 22:38 27.05.2020
2506 Rain 8 1016 87 10000 9.8 200 22:19 27.05.2020
2507 Rain 8 1016 87 9000 9.3 190 21:41 27.05.2020
2508 Rain 8 1016 87 9000 9.3 190 21:23 27.05.2020
2509 Rain 8 1016 81 9000 10.3 190 20:59 27.05.2020
2510 Rain 8 1016 81 9000 10.3 190 20:41 27.05.2020
2511 Rain 8 1016 81 9000 10.3 190 20:41 27.05.2020
2512 Rain 8 1016 81 9000 10.3 190 20:21 27.05.2020
2513 Rain 8 1016 87 9000 9.8 190 19:57 27.05.2020
2514 Rain 8 1016 87 9000 9.8 190 19:57 27.05.2020
2515 Rain 8 1016 87 9000 9.8 190 19:39 27.05.2020
2516 Rain 8 1016 87 9000 9.8 190 19:19 27.05.2020
2517 Rain 8 1016 81 10000 11.3 190 18:40 27.05.2020
2518 Rain 8 1016 81 10000 11.3 190 18:19 27.05.2020
2519 Rain 8 1017 81 10000 10.3 190 17:56 27.05.2020
2520 Rain 8 1017 81 10000 10.3 190 17:37 27.05.2020
2521 Rain 8 1017 81 10000 10.3 190 17:18 27.05.2020
2522 Rain 8 1017 81 10000 10.8 190 16:54 27.05.2020
2523 Rain 8 1017 81 10000 10.8 190 16:36 27.05.2020
2524 Rain 8 1017 81 10000 10.8 190 16:18 27.05.2020
2525 Rain 8 1017 81 10000 11.8 200 15:40 27.05.2020
2526 Rain 8 1017 81 10000 11.8 200 15:21 27.05.2020
2527 Rain 8 1018 81 10000 11.8 190 14:43 27.05.2020
2528 Rain 8 1018 81 10000 11.8 190 14:21 27.05.2020
2529 Rain 8 1018 81 10000 10.8 200 13:55 27.05.2020
2530 Rain 8 1018 81 10000 10.8 200 13:36 27.05.2020
2531 Rain 8 1018 81 10000 10.8 200 13:18 27.05.2020
2532 Rain 8 1018 81 10000 10.8 200 12:40 27.05.2020
2533 Rain 8 1018 81 10000 10.8 200 12:22 27.05.2020
2534 Rain 7 1018 87 10000 9.3 200 11:40 27.05.2020
2535 Rain 7 1018 87 10000 9.3 200 11:40 27.05.2020
2536 Rain 7 1018 87 10000 9.3 200 11:22 27.05.2020
2537 Rain 7 1018 87 10000 9.8 200 10:58 27.05.2020
2538 Rain 7 1018 87 10000 9.8 200 10:39 27.05.2020
2539 Rain 7 1018 87 10000 9.8 200 10:20 27.05.2020
2540 Rain 7 1018 87 10000 9.3 190 09:41 27.05.2020
2541 Rain 7 1018 87 10000 9.3 190 09:22 27.05.2020
2542 Rain 7 1018 87 10000 9.3 190 09:22 27.05.2020
2543 Clouds 7 1018 81 10000 8.2 190 08:56 27.05.2020
2544 Clouds 7 1018 81 10000 8.2 190 08:38 27.05.2020
2545 Clouds 7 1018 81 10000 8.2 190 08:19 27.05.2020
2546 Clouds 6 1018 87 10000 7.7 200 07:50 27.05.2020
2547 Clouds 6 1018 87 10000 7.7 200 07:32 27.05.2020
2548 Rain 6 1019 87 10000 8.2 200 06:52 27.05.2020
2549 Rain 6 1019 87 10000 8.2 200 06:24 27.05.2020
2550 Clouds 6 1019 87 10000 8.2 200 05:49 27.05.2020
2551 Clouds 6 1019 87 10000 8.2 200 05:22 27.05.2020
2552 Clouds 6 1018 87 10000 6.7 210 02:42 27.05.2020
2553 Clouds 6 1018 87 10000 6.7 210 02:18 27.05.2020
2554 Clouds 6 1018 87 10000 7.7 210 01:31 27.05.2020
2555 Rain 7 1018 70 10000 7.2 200 00:47 27.05.2020
2556 Rain 8 1018 70 10000 7.2 200 00:20 27.05.2020
2557 Clouds 8 1018 65 10000 6.2 220 23:57 26.05.2020
2558 Clouds 8 1018 65 10000 6.2 220 23:39 26.05.2020
2559 Clouds 8 1018 65 10000 6.2 220 23:20 26.05.2020
2560 Clouds 8 1017 70 10000 4.6 240 22:42 26.05.2020
2561 Clouds 8 1017 70 10000 4.6 240 22:23 26.05.2020
2562 Clouds 8 1017 65 10000 4.6 250 21:59 26.05.2020
2563 Clouds 8 1017 65 10000 4.6 250 21:59 26.05.2020
2564 Clouds 8 1017 65 10000 4.6 250 21:40 26.05.2020
2565 Clouds 8 1017 65 10000 4.6 250 21:22 26.05.2020
2566 Clouds 7 1016 70 10000 5.7 270 20:59 26.05.2020
2567 Clouds 7 1016 70 10000 5.7 270 20:41 26.05.2020
2568 Clouds 7 1016 70 10000 5.7 270 20:20 26.05.2020
2569 Clouds 7 1015 70 10000 4.6 270 19:41 26.05.2020
2570 Clouds 7 1015 70 10000 4.6 270 19:21 26.05.2020
2571 Clouds 7 1014 65 10000 5.7 260 18:59 26.05.2020
2572 Clouds 7 1014 65 10000 5.7 260 18:39 26.05.2020
2573 Clouds 7 1014 65 10000 5.7 260 18:21 26.05.2020
2574 Clouds 7 1013 70 10000 6.2 270 17:42 26.05.2020
2575 Clouds 7 1013 70 10000 6.2 270 17:23 26.05.2020
2576 Clouds 8 1012 65 10000 6.2 280 16:49 26.05.2020
2577 Clouds 8 1012 65 10000 6.2 280 16:23 26.05.2020
2578 Clouds 7 1011 70 10000 6.2 280 15:59 26.05.2020
2579 Clouds 7 1011 70 10000 6.2 280 15:41 26.05.2020
2580 Clouds 7 1011 70 10000 6.2 280 15:20 26.05.2020
2581 Clouds 7 1010 65 10000 7.2 270 14:55 26.05.2020
2582 Clouds 7 1010 65 10000 7.2 270 14:37 26.05.2020
2583 Clouds 7 1010 65 10000 7.2 270 14:18 26.05.2020
2584 Clouds 7 1009 81 10000 5.1 260 13:41 26.05.2020
2585 Clouds 7 1009 81 10000 5.1 260 13:22 26.05.2020
2586 Rain 6 1008 81 10000 6.7 270 12:44 26.05.2020
2587 Rain 6 1008 81 10000 6.7 270 12:23 26.05.2020
2588 Rain 7 1007 75 10000 7.2 270 11:59 26.05.2020
2589 Rain 7 1007 75 10000 7.2 270 11:40 26.05.2020
2590 Rain 7 1007 75 10000 7.2 270 11:40 26.05.2020
2591 Rain 7 1007 75 10000 7.2 270 11:40 26.05.2020
2592 Rain 7 1007 75 10000 7.2 270 11:19 26.05.2020
2593 Clouds 6 1006 75 10000 8.7 290 10:47 26.05.2020
2594 Clouds 6 1006 75 10000 8.7 290 10:19 26.05.2020
2595 Clouds 6 1004 81 10000 11.8 290 09:57 26.05.2020
2596 Clouds 6 1004 81 10000 11.8 290 09:57 26.05.2020
2597 Clouds 6 1004 81 10000 11.8 290 09:37 26.05.2020
2598 Clouds 6 1004 81 10000 11.8 290 09:18 26.05.2020
2599 Rain 6 1001 87 10000 13.4 290 08:40 26.05.2020
2600 Rain 6 1001 87 10000 13.4 290 08:22 26.05.2020
2601 Rain 6 998 87 9000 9.8 290 07:43 26.05.2020
2602 Rain 6 998 87 9000 9.8 290 07:23 26.05.2020
2603 Clouds 6 996 87 10000 4.6 290 06:53 26.05.2020
2604 Clouds 6 996 87 10000 4.6 290 06:31 26.05.2020
2605 Clouds 6 994 87 10000 3.1 300 05:43 26.05.2020
2606 Clouds 6 994 87 10000 3.1 300 05:21 26.05.2020
2607 Rain 6 992 87 8000 2.6 40 04:48 26.05.2020
2608 Rain 6 992 87 8000 2.6 40 04:30 26.05.2020
2609 Rain 6 991 81 10000 2.6 50 03:49 26.05.2020
2610 Clouds 6 991 87 10000 3.6 90 02:40 26.05.2020
2611 Clouds 6 992 81 10000 3.6 90 01:47 26.05.2020
2612 Rain 7 992 75 10000 7.2 170 00:48 26.05.2020
2613 Rain 7 992 75 10000 7.2 170 00:29 26.05.2020
2614 Rain 8 992 75 10000 7.7 180 23:59 25.05.2020
2615 Rain 8 992 75 10000 7.7 180 23:39 25.05.2020
2616 Rain 8 992 75 10000 7.7 180 23:20 25.05.2020
2617 Rain 7 992 81 10000 8.7 170 22:56 25.05.2020
2618 Rain 7 992 81 10000 8.7 170 22:38 25.05.2020
2619 Rain 7 992 81 10000 8.7 170 22:20 25.05.2020
2620 Rain 8 992 75 10000 6.7 160 21:59 25.05.2020
2621 Rain 8 992 75 10000 6.7 160 21:39 25.05.2020
2622 Rain 8 992 75 10000 6.7 160 21:20 25.05.2020
2623 Rain 8 992 75 10000 8.7 150 20:59 25.05.2020
2624 Rain 8 992 75 10000 8.7 150 20:41 25.05.2020
2625 Rain 8 992 75 10000 8.7 150 20:20 25.05.2020
2626 Rain 8 993 70 10000 8.7 160 19:58 25.05.2020
2627 Rain 8 993 70 10000 8.7 160 19:38 25.05.2020
2628 Rain 8 993 70 10000 8.7 160 19:18 25.05.2020
2629 Rain 8 993 70 10000 8.7 160 19:18 25.05.2020
2630 Rain 9 993 57 10000 8.7 160 18:43 25.05.2020
2631 Rain 9 993 57 10000 8.7 160 18:22 25.05.2020
2632 Clouds 9 994 57 10000 8.7 160 17:57 25.05.2020
2633 Clouds 10 994 57 10000 8.7 160 17:39 25.05.2020
2634 Clouds 10 994 57 10000 8.7 160 17:21 25.05.2020
2635 Rain 9 994 70 10000 6.7 170 16:56 25.05.2020
2636 Rain 9 994 70 10000 6.7 170 16:56 25.05.2020
2637 Rain 9 994 70 10000 6.7 170 16:37 25.05.2020
2638 Rain 9 994 70 10000 6.7 170 16:19 25.05.2020
2639 Rain 9 994 66 10000 8.7 170 15:42 25.05.2020
2640 Rain 9 994 66 10000 8.7 170 15:19 25.05.2020
2641 Rain 9 994 53 10000 8.2 150 14:44 25.05.2020
2642 Rain 10 994 53 10000 8.2 150 14:26 25.05.2020
2643 Rain 10 994 57 10000 7.2 170 13:59 25.05.2020
2644 Rain 9 994 57 10000 7.2 170 13:39 25.05.2020
2645 Rain 9 994 57 10000 7.2 170 13:20 25.05.2020
2646 Clouds 9 994 61 10000 5.7 150 12:57 25.05.2020
2647 Clouds 9 994 61 10000 5.7 150 12:37 25.05.2020
2648 Clouds 9 994 61 10000 5.7 150 12:19 25.05.2020
2649 Rain 7 994 70 10000 5.1 160 11:39 25.05.2020
2650 Rain 7 994 70 10000 5.1 160 11:20 25.05.2020
2651 Clouds 7 995 81 10000 3.6 120 10:54 25.05.2020
2652 Clouds 7 995 81 10000 3.6 120 10:36 25.05.2020
2653 Clouds 7 995 81 10000 3.6 120 10:18 25.05.2020
2654 Clouds 5 995 86 10000 1 0 09:42 25.05.2020
2655 Clouds 5 995 86 10000 1 0 09:20 25.05.2020
2656 Rain 4 995 86 10000 3.6 110 08:59 25.05.2020
2657 Rain 4 995 86 10000 3.6 110 08:38 25.05.2020
2658 Rain 4 995 86 10000 3.6 110 08:20 25.05.2020
2659 Rain 4 996 80 10000 5.7 150 07:47 25.05.2020
2660 Rain 4 996 80 10000 5.7 150 07:26 25.05.2020
2661 Rain 5 996 86 10000 3.6 130 06:56 25.05.2020
2662 Rain 4 996 86 10000 3.6 130 06:35 25.05.2020
2663 Clouds 6 996 81 10000 4.6 110 05:24 25.05.2020
2664 Clouds 5 998 80 10000 3.1 130 03:26 25.05.2020
2665 Clouds 5 998 80 10000 3.6 130 02:47 25.05.2020
2666 Clouds 5 998 80 10000 3.6 130 02:18 25.05.2020
2667 Clouds 6 998 75 10000 3.6 140 01:41 25.05.2020
2668 Clouds 6 998 75 10000 4.6 160 00:46 25.05.2020
2669 Clouds 7 998 75 10000 4.6 160 00:24 25.05.2020
2670 Clouds 7 997 75 10000 5.7 160 23:58 24.05.2020
2671 Clouds 7 997 75 10000 5.7 160 23:39 24.05.2020
2672 Clouds 7 997 75 10000 5.7 160 23:20 24.05.2020
2673 Clouds 7 997 81 10000 6.7 190 22:55 24.05.2020
2674 Clouds 7 997 81 10000 6.7 190 22:37 24.05.2020
2675 Clouds 7 997 81 10000 6.7 190 22:18 24.05.2020
2676 Clouds 6 997 81 10000 2.6 140 21:54 24.05.2020
2677 Clouds 6 997 81 10000 2.6 140 21:36 24.05.2020
2678 Clouds 6 997 81 10000 2.6 140 21:18 24.05.2020
2679 Rain 5 996 80 10000 5.1 210 20:41 24.05.2020
2680 Rain 5 996 80 10000 5.1 210 20:19 24.05.2020
2681 Rain 6 996 81 10000 6.2 190 19:56 24.05.2020
2682 Rain 5 996 81 10000 6.2 190 19:36 24.05.2020
2683 Rain 5 996 81 10000 6.2 190 19:18 24.05.2020
2684 Rain 5 996 81 10000 6.2 190 19:18 24.05.2020
2685 Rain 6 997 87 6000 4.6 180 18:42 24.05.2020
2686 Rain 6 997 87 6000 4.6 180 18:23 24.05.2020
2687 Clouds 7 997 75 10000 9.8 160 17:57 24.05.2020
2688 Rain 7 997 75 8000 10.3 150 17:38 24.05.2020
2689 Rain 7 997 75 8000 10.3 150 17:19 24.05.2020
2690 Rain 7 997 81 6000 9.3 150 16:56 24.05.2020
2691 Rain 9 997 76 10000 9.8 150 16:36 24.05.2020
2692 Rain 9 997 76 10000 9.8 150 16:18 24.05.2020
2693 Rain 10 998 76 10000 8.7 150 15:55 24.05.2020
2694 Rain 10 998 76 10000 8.7 150 15:36 24.05.2020
2695 Rain 10 998 76 10000 8.7 150 15:18 24.05.2020
2696 Rain 10 998 81 10000 8.7 140 14:41 24.05.2020
2697 Rain 10 998 81 10000 8.7 140 14:41 24.05.2020
2698 Rain 10 998 81 10000 8.7 140 14:21 24.05.2020
2699 Rain 9 998 81 10000 9.8 100 13:55 24.05.2020
2700 Rain 8 998 81 10000 9.8 100 13:37 24.05.2020
2701 Rain 8 998 81 10000 9.8 100 13:19 24.05.2020
2702 Rain 8 999 75 10000 10.8 110 12:55 24.05.2020
2703 Rain 8 999 75 10000 10.8 110 12:37 24.05.2020
2704 Rain 8 999 75 10000 10.8 110 12:19 24.05.2020
2705 Rain 9 1000 70 10000 9.8 110 11:54 24.05.2020
2706 Rain 9 1000 70 10000 9.8 110 11:36 24.05.2020
2707 Rain 9 1000 70 10000 9.8 110 11:18 24.05.2020
2708 Rain 9 1001 70 10000 9.3 110 10:41 24.05.2020
2709 Rain 9 1001 70 10000 9.3 110 10:23 24.05.2020
2710 Clouds 9 1000 66 10000 11.8 120 09:57 24.05.2020
2711 Clouds 9 1000 66 10000 11.8 120 09:39 24.05.2020
2712 Clouds 9 1000 66 10000 11.8 120 09:18 24.05.2020
2713 Rain 9 1002 66 10000 6.7 120 08:42 24.05.2020
2714 Rain 9 1002 66 10000 6.7 120 08:24 24.05.2020
2715 Clouds 9 1002 61 10000 7.2 110 07:58 24.05.2020
2716 Clouds 9 1002 61 10000 7.2 110 07:40 24.05.2020
2717 Clouds 9 1002 61 10000 7.2 110 07:21 24.05.2020
2718 Clouds 8 1003 65 10000 5.1 90 06:39 24.05.2020
2719 Clouds 8 1003 70 10000 7.7 120 05:50 24.05.2020
2720 Clouds 8 1003 65 10000 4.6 100 03:58 24.05.2020
2721 Clouds 8 1003 65 10000 4.6 100 03:39 24.05.2020
2722 Clouds 9 1003 61 10000 4.1 90 02:26 24.05.2020
2723 Clouds 10 1003 63 10000 6.7 120 01:32 24.05.2020
2724 Clouds 11 1002 34 10000 4.6 130 00:38 24.05.2020
2725 Clouds 11 1002 34 10000 4.6 130 00:20 24.05.2020
2726 Clouds 13 1002 33 10000 6.7 150 23:40 23.05.2020
2727 Clouds 14 1002 33 10000 6.7 150 23:21 23.05.2020
2728 Clouds 15 1001 18 10000 7.2 100 22:57 23.05.2020
2729 Clouds 15 1001 18 10000 7.2 100 22:37 23.05.2020
2730 Clouds 15 1001 18 10000 7.2 100 22:19 23.05.2020
2731 Clouds 15 1001 29 10000 3.6 30 21:57 23.05.2020
2732 Clouds 15 1001 29 10000 3.6 30 21:37 23.05.2020
2733 Clear 15 1001 29 10000 3.6 30 21:19 23.05.2020
2734 Clear 15 1001 29 10000 3.6 30 21:19 23.05.2020
2735 Clear 14 1001 33 10000 5.1 330 20:55 23.05.2020
2736 Clear 14 1001 33 10000 5.1 330 20:36 23.05.2020
2737 Clouds 14 1001 33 10000 5.1 330 20:18 23.05.2020
2738 Clouds 15 1001 33 10000 4.6 340 19:41 23.05.2020
2739 Clouds 15 1001 33 10000 4.6 340 19:19 23.05.2020
2740 Clouds 15 1001 46 10000 4.6 350 18:56 23.05.2020
2741 Clouds 15 1001 46 10000 4.6 350 18:38 23.05.2020
2742 Clouds 15 1001 47 10000 4.6 350 18:19 23.05.2020
2743 Clouds 14 1001 47 10000 5.7 360 17:54 23.05.2020
2744 Clouds 14 1001 47 10000 5.7 360 17:36 23.05.2020
2745 Clouds 14 1001 47 10000 5.7 360 17:36 23.05.2020
2746 Clouds 14 1001 46 10000 5.7 360 17:18 23.05.2020
2747 Clouds 13 1001 33 10000 3.6 350 16:55 23.05.2020
2748 Clouds 13 1001 33 10000 3.6 350 16:37 23.05.2020
2749 Clouds 12 1000 35 10000 3.1 290 16:18 23.05.2020
2750 Clouds 12 1000 35 10000 3.1 290 15:42 23.05.2020
2751 Clouds 12 1000 35 10000 3.1 290 15:23 23.05.2020
2752 Clouds 11 1000 40 10000 3.1 300 14:55 23.05.2020
2753 Clouds 11 1000 40 10000 3.1 300 14:36 23.05.2020
2754 Clouds 11 1000 40 10000 3.1 300 14:18 23.05.2020
2755 Clouds 10 1000 50 10000 2.1 340 13:39 23.05.2020
2756 Clouds 10 1000 52 10000 2.1 340 13:19 23.05.2020
2757 Clouds 9 999 52 10000 0.5 0 12:54 23.05.2020
2758 Clouds 9 999 52 10000 0.5 0 12:36 23.05.2020
2759 Clouds 9 999 57 10000 0.5 0 12:18 23.05.2020
2760 Clouds 8 999 61 10000 3.6 350 11:42 23.05.2020
2761 Clouds 8 999 61 10000 3.6 350 11:20 23.05.2020
2762 Clouds 9 999 61 10000 1.5 230 10:56 23.05.2020
2763 Clouds 8 999 61 10000 1.5 230 10:38 23.05.2020
2764 Clouds 8 999 61 10000 1.5 230 10:19 23.05.2020
2765 Clouds 8 999 65 10000 1.5 100 09:55 23.05.2020
2766 Clouds 8 999 65 10000 1.5 100 09:37 23.05.2020
2767 Clouds 8 999 65 10000 1.5 100 09:19 23.05.2020
2768 Clouds 7 999 65 10000 1 0 08:41 23.05.2020
2769 Clouds 7 999 65 10000 1 0 08:19 23.05.2020
2770 Clouds 6 999 70 10000 2.6 230 07:46 23.05.2020
2771 Clouds 6 999 70 10000 2.6 230 07:27 23.05.2020
2772 Clouds 6 998 70 10000 3.1 200 06:45 23.05.2020
2773 Clouds 6 998 70 10000 3.1 200 06:19 23.05.2020
2774 Clouds 8 998 61 10000 1.5 210 04:40 23.05.2020
2775 Clouds 9 998 53 10000 1.5 0 03:27 23.05.2020
2776 Clouds 9 998 53 10000 1 0 02:48 23.05.2020
2777 Clouds 11 998 46 10000 2.1 30 01:53 23.05.2020
2778 Clouds 11 998 46 10000 2.1 30 01:20 23.05.2020
2779 Clouds 12 998 43 10000 4.1 70 00:44 23.05.2020
2780 Clouds 12 998 43 10000 4.1 70 00:22 23.05.2020
2781 Clouds 12 998 50 10000 5.1 30 23:55 22.05.2020
2782 Clouds 12 998 50 10000 5.1 30 23:36 22.05.2020
2783 Clouds 12 998 50 10000 5.1 30 23:18 22.05.2020
2784 Clouds 13 998 47 10000 5.7 30 22:42 22.05.2020
2785 Clouds 13 998 47 10000 5.7 30 22:21 22.05.2020
2786 Clouds 15 998 29 10000 2.6 10 21:55 22.05.2020
2787 Clouds 15 998 29 10000 2.6 10 21:37 22.05.2020
2788 Clouds 15 998 29 10000 2.6 10 21:19 22.05.2020
2789 Clouds 14 998 38 10000 3.1 300 20:45 22.05.2020
2790 Clouds 14 998 38 10000 3.1 300 20:21 22.05.2020
2791 Clouds 15 998 44 10000 4.1 300 19:45 22.05.2020
2792 Clouds 16 998 44 10000 4.1 300 19:26 22.05.2020
2793 Clouds 16 999 26 10000 4.1 340 18:58 22.05.2020
2794 Clouds 16 999 26 10000 4.1 340 18:39 22.05.2020
2795 Clouds 16 999 26 10000 4.1 340 18:19 22.05.2020
2796 Clouds 15 999 33 10000 5.1 300 17:41 22.05.2020
2797 Clouds 15 999 33 10000 5.1 300 17:20 22.05.2020
2798 Clouds 14 1000 45 10000 5.1 330 16:58 22.05.2020
2799 Clouds 14 1000 45 10000 5.1 330 16:39 22.05.2020
2800 Clouds 14 1000 49 10000 5.1 330 16:20 22.05.2020
2801 Clouds 14 1000 49 10000 5.1 330 16:20 22.05.2020
2802 Clouds 13 1001 43 10000 5.7 320 15:57 22.05.2020
2803 Clouds 13 1001 43 10000 5.7 320 15:38 22.05.2020
2804 Clouds 13 1002 47 10000 4.1 350 15:18 22.05.2020
2805 Clouds 13 1002 47 10000 4.1 350 14:41 22.05.2020
2806 Clouds 13 1002 47 10000 4.1 350 14:23 22.05.2020
2807 Clouds 13 1003 47 10000 4.1 320 13:44 22.05.2020
2808 Clouds 12 1003 47 10000 4.1 320 13:20 22.05.2020
2809 Clouds 12 1003 50 10000 2.6 20 12:43 22.05.2020
2810 Clouds 12 1003 50 10000 2.6 20 12:25 22.05.2020
2811 Clouds 11 1003 53 10000 4.6 70 11:56 22.05.2020
2812 Clouds 11 1003 53 10000 4.6 70 11:37 22.05.2020
2813 Clouds 11 1003 53 10000 4.6 70 11:19 22.05.2020
2814 Clouds 10 1004 57 10000 3.6 30 10:41 22.05.2020
2815 Clouds 10 1004 57 10000 3.6 30 10:22 22.05.2020
2816 Clouds 10 1004 61 10000 4.1 60 09:59 22.05.2020
2817 Clouds 10 1004 61 10000 4.1 60 09:59 22.05.2020
2818 Clouds 10 1004 61 10000 4.1 60 09:40 22.05.2020
2819 Clouds 9 1004 61 10000 4.1 60 09:18 22.05.2020
2820 Clouds 9 1004 61 10000 4.1 60 09:18 22.05.2020
2821 Clouds 9 1005 66 10000 1.5 120 08:43 22.05.2020
2822 Clouds 9 1005 66 10000 1.5 120 08:20 22.05.2020
2823 Clouds 8 1005 70 10000 2.1 80 07:56 22.05.2020
2824 Clouds 8 1005 70 10000 2.1 80 07:24 22.05.2020
2825 Clouds 8 1006 75 10000 4.1 110 06:56 22.05.2020
2826 Clouds 8 1006 75 10000 4.1 110 06:35 22.05.2020
2827 Clouds 9 1006 76 10000 5.1 110 05:38 22.05.2020
2828 Rain 9 1006 81 10000 6.2 130 04:51 22.05.2020
2829 Rain 9 1006 81 10000 6.2 130 04:20 22.05.2020
2830 Clouds 9 1006 76 10000 7.2 120 03:47 22.05.2020
2831 Clouds 9 1006 76 10000 5.7 130 02:59 22.05.2020
2832 Clouds 9 1006 66 10000 4.6 130 01:56 22.05.2020
2833 Clouds 9 1006 66 10000 4.6 130 01:28 22.05.2020
2834 Clouds 9 1006 66 10000 6.7 130 00:46 22.05.2020
2835 Clouds 10 1006 66 10000 6.7 130 00:27 22.05.2020
2836 Clouds 10 1006 62 10000 6.7 140 23:42 21.05.2020
2837 Clouds 10 1006 62 10000 6.7 140 23:24 21.05.2020
2838 Rain 10 1006 66 10000 7.7 140 22:58 21.05.2020
2839 Rain 10 1006 66 10000 7.7 140 22:38 21.05.2020
2840 Rain 10 1006 66 10000 7.7 140 22:20 21.05.2020
2841 Clouds 11 1005 58 10000 7.7 140 21:56 21.05.2020
2842 Clouds 11 1005 58 10000 7.7 140 21:38 21.05.2020
2843 Clouds 11 1005 58 10000 7.7 140 21:18 21.05.2020
2844 Clouds 11 1005 62 10000 6.2 150 20:42 21.05.2020
2845 Clouds 11 1005 62 10000 6.2 150 20:22 21.05.2020
2846 Clouds 11 1005 58 10000 6.7 150 19:41 21.05.2020
2847 Clouds 11 1005 58 10000 6.7 150 19:21 21.05.2020
2848 Clouds 11 1005 58 10000 7.7 150 18:59 21.05.2020
2849 Clouds 11 1005 58 10000 7.7 150 18:39 21.05.2020
2850 Clouds 11 1005 58 10000 7.7 150 18:19 21.05.2020
2851 Clouds 11 1004 66 10000 7.2 150 17:57 21.05.2020
2852 Clouds 11 1004 66 10000 7.2 150 17:39 21.05.2020
2853 Clouds 11 1004 66 10000 7.2 150 17:21 21.05.2020
2854 Rain 11 1004 62 10000 6.7 150 16:45 21.05.2020
2855 Rain 11 1004 62 10000 6.7 150 16:23 21.05.2020
2856 Clouds 11 1004 62 10000 7.7 150 15:45 21.05.2020
2857 Clouds 11 1004 62 10000 7.7 150 15:24 21.05.2020
2858 Clouds 11 1003 62 10000 8.2 150 14:56 21.05.2020
2859 Clouds 11 1003 62 10000 8.2 150 14:36 21.05.2020
2860 Clouds 11 1003 62 10000 8.2 150 14:18 21.05.2020
2861 Clouds 11 1003 58 10000 7.2 160 13:39 21.05.2020
2862 Clouds 11 1003 58 10000 7.2 160 13:39 21.05.2020
2863 Clouds 11 1003 58 10000 7.2 160 13:21 21.05.2020
2864 Clouds 11 1002 66 10000 6.2 150 12:55 21.05.2020
2865 Clouds 11 1002 66 10000 6.2 150 12:36 21.05.2020
2866 Clouds 11 1002 66 10000 6.2 150 12:18 21.05.2020
2867 Clouds 10 1002 71 10000 6.2 170 11:41 21.05.2020
2868 Clouds 10 1002 71 10000 6.2 170 11:23 21.05.2020
2869 Clouds 9 1001 76 10000 7.7 170 10:57 21.05.2020
2870 Clouds 9 1001 76 10000 7.7 170 10:39 21.05.2020
2871 Clouds 9 1001 76 10000 7.7 170 10:19 21.05.2020
2872 Clouds 9 1000 76 10000 5.7 170 09:43 21.05.2020
2873 Clouds 9 1000 76 10000 5.7 170 09:25 21.05.2020
2874 Clouds 9 999 76 10000 6.7 160 08:59 21.05.2020
2875 Clouds 9 999 76 10000 6.7 160 08:40 21.05.2020
2876 Clouds 9 999 76 10000 6.7 160 08:22 21.05.2020
2877 Clouds 8 999 87 10000 6.2 160 07:44 21.05.2020
2878 Clouds 8 999 87 10000 6.2 160 07:25 21.05.2020
2879 Clouds 9 998 76 10000 8.2 160 06:48 21.05.2020
2880 Rain 8 998 81 10000 8.2 160 05:53 21.05.2020
2881 Clouds 8 997 75 10000 10.8 170 04:53 21.05.2020
2882 Clouds 8 996 75 10000 11.8 170 03:21 21.05.2020
2883 Clouds 8 995 75 10000 10.3 180 02:37 21.05.2020
2884 Clouds 8 995 75 10000 10.3 180 02:18 21.05.2020
2885 Clouds 8 993 81 10000 11.3 160 01:42 21.05.2020
2886 Clouds 8 993 81 10000 11.3 160 01:18 21.05.2020
2887 Rain 8 992 81 10000 6.7 130 00:44 21.05.2020
2888 Rain 8 992 81 10000 6.7 130 00:21 21.05.2020
2889 Rain 9 991 81 10000 8.2 90 23:41 20.05.2020
2890 Rain 9 991 81 10000 8.2 90 23:20 20.05.2020
2891 Rain 9 992 76 10000 8.2 80 22:55 20.05.2020
2892 Rain 9 992 76 10000 8.2 80 22:37 20.05.2020
2893 Rain 9 992 76 10000 8.2 80 22:19 20.05.2020
2894 Rain 10 993 66 10000 7.7 80 21:40 20.05.2020
2895 Rain 10 993 66 10000 7.7 80 21:21 20.05.2020
2896 Rain 9 994 76 10000 5.7 70 20:44 20.05.2020
2897 Rain 9 994 76 10000 5.7 70 20:24 20.05.2020
2898 Rain 9 996 76 10000 5.7 60 19:56 20.05.2020
2899 Rain 9 996 76 10000 5.7 60 19:37 20.05.2020
2900 Rain 9 996 76 10000 5.7 60 19:19 20.05.2020
2901 Rain 9 998 71 10000 6.7 70 18:43 20.05.2020
2902 Rain 9 998 71 10000 6.7 70 18:23 20.05.2020
2903 Clouds 10 999 62 10000 5.7 60 17:42 20.05.2020
2904 Clouds 10 999 62 10000 5.7 60 17:22 20.05.2020
2905 Clouds 9 1001 61 10000 4.1 20 16:58 20.05.2020
2906 Clouds 9 1001 61 10000 4.1 20 16:39 20.05.2020
2907 Clouds 9 1001 61 10000 4.1 20 16:21 20.05.2020
2908 Clouds 9 1002 61 10000 3.6 50 15:44 20.05.2020
2909 Clouds 9 1002 61 10000 3.6 50 15:25 20.05.2020
2910 Clouds 10 1003 53 10000 7.2 70 14:59 20.05.2020
2911 Clouds 10 1003 53 10000 7.2 70 14:37 20.05.2020
2912 Clouds 10 1003 53 10000 7.2 70 14:19 20.05.2020
2913 Clouds 8 1004 61 10000 5.1 70 13:39 20.05.2020
2914 Clouds 8 1004 61 10000 5.1 70 13:18 20.05.2020
2915 Clouds 7 1005 61 10000 3.6 60 12:42 20.05.2020
2916 Clouds 7 1005 61 10000 3.6 60 12:21 20.05.2020
2917 Clouds 7 1006 65 10000 5.1 60 11:39 20.05.2020
2918 Clouds 7 1006 65 10000 5.1 60 11:20 20.05.2020
2919 Clouds 6 1007 69 10000 5.7 70 10:58 20.05.2020
2920 Clouds 6 1007 69 10000 5.7 70 10:40 20.05.2020
2921 Clouds 6 1007 68 10000 5.7 70 10:19 20.05.2020
2922 Rain 6 1008 60 10000 3.1 90 09:41 20.05.2020
2923 Rain 6 1008 60 10000 3.1 90 09:20 20.05.2020
2924 Rain 6 1008 60 10000 6.2 100 08:42 20.05.2020
2925 Rain 5 1008 60 10000 6.2 100 08:20 20.05.2020
2926 Rain 5 1008 56 10000 7.2 90 07:54 20.05.2020
2927 Rain 6 1008 56 10000 7.2 90 07:36 20.05.2020
2928 Clouds 6 1008 56 10000 7.2 90 07:18 20.05.2020
2929 Clouds 5 1009 60 10000 8.2 90 06:24 20.05.2020
2930 Clouds 5 1010 60 10000 4.6 100 05:18 20.05.2020
2931 Clouds 5 1011 60 10000 4.6 100 04:19 20.05.2020
2932 Clouds 5 1012 60 10000 4.6 110 03:36 20.05.2020
2933 Clouds 6 1013 48 10000 4.1 100 01:58 20.05.2020
2934 Clouds 7 1013 48 10000 4.1 100 01:24 20.05.2020
2935 Clouds 7 1013 61 10000 3.1 100 00:42 20.05.2020
2936 Clouds 7 1013 61 10000 3.1 100 00:23 20.05.2020
2937 Clouds 8 1013 57 10000 4.6 140 23:39 19.05.2020
2938 Clouds 8 1013 57 10000 4.6 140 23:19 19.05.2020
2939 Clouds 9 1014 57 10000 5.1 120 22:55 19.05.2020
2940 Clouds 9 1014 57 10000 5.1 120 22:37 19.05.2020
2941 Clouds 9 1014 57 10000 5.1 120 22:18 19.05.2020
2942 Clouds 9 1014 64 10000 5.7 120 21:55 19.05.2020
2943 Clouds 9 1014 61 10000 5.7 120 21:36 19.05.2020
2944 Clouds 9 1014 60 10000 5.7 120 21:18 19.05.2020
2945 Clouds 9 1015 60 10000 5.7 140 20:56 19.05.2020
2946 Clouds 9 1015 60 10000 5.7 140 20:38 19.05.2020
2947 Clouds 9 1015 59 10000 5.7 140 20:19 19.05.2020
2948 Clouds 10 1015 46 10000 5.1 140 19:39 19.05.2020
2949 Clouds 10 1015 46 10000 5.1 140 19:20 19.05.2020
2950 Clouds 11 1015 43 10000 4.6 140 18:46 19.05.2020
2951 Clouds 11 1015 43 10000 4.6 140 18:24 19.05.2020
2952 Clouds 11 1016 58 10000 5.1 120 17:59 19.05.2020
2953 Clouds 10 1016 58 10000 5.1 120 17:40 19.05.2020
2954 Clouds 10 1016 59 10000 5.1 120 17:20 19.05.2020
2955 Clouds 10 1016 43 10000 5.7 130 16:56 19.05.2020
2956 Clouds 10 1016 43 10000 5.7 130 16:37 19.05.2020
2957 Clouds 10 1016 43 10000 5.7 130 16:19 19.05.2020
2958 Clouds 9 1016 46 10000 4.6 120 15:44 19.05.2020
2959 Clouds 9 1016 46 10000 4.6 120 15:21 19.05.2020
2960 Clouds 9 1017 46 10000 5.1 120 14:55 19.05.2020
2961 Clouds 9 1017 46 10000 5.1 120 14:37 19.05.2020
2962 Clouds 9 1017 46 10000 5.1 120 14:37 19.05.2020
2963 Clouds 9 1017 46 10000 5.1 120 14:19 19.05.2020
2964 Clouds 8 1017 49 10000 5.1 120 13:56 19.05.2020
2965 Clouds 8 1017 49 10000 5.1 120 13:37 19.05.2020
2966 Clouds 8 1017 49 10000 5.1 120 13:19 19.05.2020
2967 Clouds 8 1017 49 10000 6.2 90 12:56 19.05.2020
2968 Clouds 8 1017 49 10000 6.2 90 12:36 19.05.2020
2969 Clouds 8 1017 49 10000 6.2 90 12:18 19.05.2020
2970 Clouds 8 1017 49 10000 6.2 90 12:18 19.05.2020
2971 Clouds 7 1017 56 10000 5.1 70 11:42 19.05.2020
2972 Clouds 7 1017 56 10000 5.1 70 11:22 19.05.2020
2973 Clouds 7 1017 52 10000 4.1 70 10:57 19.05.2020
2974 Clouds 7 1017 52 10000 4.1 70 10:39 19.05.2020
2975 Clouds 7 1017 52 10000 4.1 70 10:39 19.05.2020
2976 Clouds 7 1017 52 10000 4.1 70 10:20 19.05.2020
2977 Clouds 6 1017 56 10000 3.1 80 09:44 19.05.2020
2978 Clouds 6 1017 56 10000 3.1 80 09:25 19.05.2020
2979 Clouds 5 1017 60 10000 3.6 70 08:47 19.05.2020
2980 Clouds 5 1017 60 10000 3.6 70 08:25 19.05.2020
2981 Clouds 5 1017 60 10000 3.6 70 08:25 19.05.2020
2982 Clouds 5 1017 56 10000 4.1 80 07:49 19.05.2020
2983 Clouds 5 1017 56 10000 4.1 80 07:28 19.05.2020
2984 Clouds 4 1017 60 10000 5.1 60 06:56 19.05.2020
2985 Clouds 4 1017 60 10000 5.1 60 06:56 19.05.2020
2986 Clouds 4 1017 60 10000 5.1 60 06:32 19.05.2020
2987 Clouds 4 1017 60 10000 4.1 70 05:53 19.05.2020
2988 Clouds 5 1017 60 10000 4.1 70 05:35 19.05.2020
2989 Clouds 5 1017 64 10000 3.1 60 04:50 19.05.2020
2990 Mist 6 1017 71 9000 2.6 80 02:59 19.05.2020
2991 Rain 7 1017 66 10000 4.6 130 00:59 19.05.2020
2992 Rain 7 1017 66 10000 4.6 130 00:36 19.05.2020
2993 Rain 7 1017 65 10000 4.6 130 00:18 19.05.2020
2994 Rain 8 1016 61 10000 2.6 100 23:40 18.05.2020
2995 Rain 8 1016 61 10000 2.6 100 23:20 18.05.2020
2996 Rain 7 1016 65 10000 0.5 0 22:56 18.05.2020
2997 Rain 7 1016 65 10000 0.5 0 22:56 18.05.2020
2998 Rain 7 1016 65 10000 0.5 0 22:38 18.05.2020
2999 Rain 7 1016 65 10000 0.5 0 22:19 18.05.2020
3000 Rain 7 1016 65 10000 1.5 310 21:42 18.05.2020
3001 Rain 7 1016 65 10000 1.5 310 21:21 18.05.2020
3002 Rain 8 1016 61 10000 2.1 290 20:57 18.05.2020
3003 Rain 7 1016 61 10000 2.1 290 20:37 18.05.2020
3004 Rain 7 1016 61 10000 2.1 290 20:19 18.05.2020
3005 Rain 7 1016 61 10000 2.1 290 20:19 18.05.2020
3006 Clouds 8 1016 61 10000 2.1 270 19:54 18.05.2020
3007 Clouds 8 1016 61 10000 2.1 270 19:36 18.05.2020
3008 Clouds 8 1016 61 10000 2.1 270 19:18 18.05.2020
3009 Clouds 8 1015 52 10000 2.6 320 18:43 18.05.2020
3010 Clouds 8 1015 52 10000 2.6 320 18:20 18.05.2020
3011 Clouds 9 1015 42 10000 4.1 330 17:39 18.05.2020
3012 Clouds 9 1015 42 10000 4.1 330 17:18 18.05.2020
3013 Clouds 8 1015 39 10000 5.1 360 16:56 18.05.2020
3014 Clouds 8 1015 39 10000 5.1 360 16:37 18.05.2020
3015 Clouds 8 1015 39 10000 5.1 360 16:18 18.05.2020
3016 Clouds 9 1015 36 10000 5.1 50 15:54 18.05.2020
3017 Clouds 8 1015 36 10000 5.1 50 15:36 18.05.2020
3018 Clouds 8 1015 36 10000 5.1 50 15:18 18.05.2020
3019 Clouds 9 1015 36 10000 5.1 50 14:42 18.05.2020
3020 Clouds 9 1015 36 10000 5.1 50 14:23 18.05.2020
3021 Clouds 9 1015 36 10000 4.1 40 13:57 18.05.2020
3022 Clouds 9 1015 36 10000 4.1 40 13:38 18.05.2020
3023 Clouds 9 1015 36 10000 4.1 40 13:19 18.05.2020
3024 Clouds 8 1015 39 10000 4.1 60 12:55 18.05.2020
3025 Clouds 8 1015 39 10000 4.1 60 12:37 18.05.2020
3026 Clouds 8 1015 39 10000 4.1 60 12:18 18.05.2020
3027 Clouds 8 1015 42 10000 5.1 80 11:46 18.05.2020
3028 Clouds 7 1015 42 10000 5.1 80 11:26 18.05.2020
3029 Clouds 6 1015 48 10000 6.2 90 10:57 18.05.2020
3030 Clouds 6 1015 48 10000 6.2 90 10:38 18.05.2020
3031 Clouds 6 1015 48 10000 6.2 90 10:20 18.05.2020
3032 Clouds 5 1015 52 10000 7.2 80 09:42 18.05.2020
3033 Clouds 5 1015 52 10000 7.2 80 09:24 18.05.2020
3034 Clouds 5 1015 52 10000 5.7 80 08:43 18.05.2020
3035 Clouds 5 1015 52 10000 5.7 80 08:25 18.05.2020
3036 Clouds 5 1015 56 10000 6.2 80 07:52 18.05.2020
3037 Clouds 5 1015 56 10000 6.2 80 07:26 18.05.2020
3038 Clouds 5 1015 56 10000 6.2 80 06:51 18.05.2020
3039 Clouds 5 1015 56 10000 6.2 80 06:33 18.05.2020
3040 Clouds 5 1015 56 10000 5.7 80 05:49 18.05.2020
3041 Clouds 5 1016 60 10000 5.1 90 04:52 18.05.2020
3042 Clouds 6 1016 56 10000 4.1 90 03:31 18.05.2020
3043 Clouds 6 1017 52 10000 4.1 90 02:22 18.05.2020
3044 Rain 7 1017 56 10000 4.6 150 00:55 18.05.2020
3045 Rain 7 1017 56 10000 4.6 150 00:25 18.05.2020
3046 Rain 7 1017 49 10000 3.6 120 23:57 17.05.2020
3047 Rain 8 1017 49 10000 3.6 120 23:39 17.05.2020
3048 Rain 8 1017 49 10000 3.6 120 23:20 17.05.2020
3049 Rain 8 1017 39 10000 6.7 120 22:56 17.05.2020
3050 Rain 8 1017 39 10000 6.7 120 22:37 17.05.2020
3051 Rain 8 1017 39 10000 6.7 120 22:19 17.05.2020
3052 Clouds 8 1017 42 10000 4.1 110 21:55 17.05.2020
3053 Clouds 8 1017 42 10000 4.1 110 21:37 17.05.2020
3054 Clouds 8 1017 42 10000 4.1 110 21:18 17.05.2020
3055 Clouds 8 1017 39 10000 4.6 110 20:42 17.05.2020
3056 Clouds 8 1017 39 10000 4.6 110 20:21 17.05.2020
3057 Clouds 9 1017 42 10000 4.1 130 19:57 17.05.2020
3058 Clouds 8 1017 42 10000 4.1 130 19:38 17.05.2020
3059 Clouds 8 1017 42 10000 4.1 130 19:19 17.05.2020
3060 Clouds 8 1017 49 10000 4.1 160 18:42 17.05.2020
3061 Clouds 8 1017 49 10000 4.1 160 18:23 17.05.2020
3062 Clouds 7 1018 49 10000 4.6 160 17:59 17.05.2020
3063 Clouds 7 1018 49 10000 4.6 160 17:39 17.05.2020
3064 Clouds 7 1018 49 10000 4.6 160 17:19 17.05.2020
3065 Clouds 7 1018 49 10000 4.6 160 17:19 17.05.2020
3066 Clouds 8 1018 42 10000 6.7 120 16:40 17.05.2020
3067 Clouds 8 1018 42 10000 6.7 120 16:21 17.05.2020
3068 Clouds 8 1017 39 10000 7.2 90 15:59 17.05.2020
3069 Clouds 8 1017 39 10000 7.2 90 15:39 17.05.2020
3070 Clouds 8 1017 39 10000 7.2 90 15:20 17.05.2020
3071 Clouds 8 1017 45 10000 7.7 80 14:43 17.05.2020
3072 Clouds 7 1017 45 10000 7.7 80 14:24 17.05.2020
3073 Clouds 7 1017 45 10000 8.2 90 13:59 17.05.2020
3074 Clouds 7 1017 45 10000 8.2 90 13:40 17.05.2020
3075 Clouds 7 1017 45 10000 8.2 90 13:19 17.05.2020
3076 Clouds 5 1015 56 10000 6.2 70 04:47 17.05.2020
3077 Clear 5 1015 52 10000 3.6 60 02:46 17.05.2020
3078 Clear 5 1015 52 10000 3.6 60 02:20 17.05.2020
3079 Clear 6 1015 48 10000 3.1 60 01:47 17.05.2020
3080 Clear 7 1015 42 10000 4.1 60 00:40 17.05.2020
3081 Clear 7 1015 42 10000 4.1 60 00:20 17.05.2020
3082 Clear 8 1015 42 10000 5.1 30 23:40 16.05.2020
3083 Clear 8 1015 42 10000 5.1 30 23:20 16.05.2020
3084 Clear 8 1015 34 10000 5.7 30 22:58 16.05.2020
3085 Clear 8 1015 34 10000 5.7 30 22:40 16.05.2020
3086 Clear 8 1015 34 10000 5.7 30 22:20 16.05.2020
3087 Clear 9 1015 31 10000 6.7 30 21:46 16.05.2020
3088 Clear 9 1015 31 10000 6.7 30 21:28 16.05.2020
3089 Clear 10 1016 29 10000 7.2 30 20:59 16.05.2020
3090 Clear 10 1016 29 10000 7.2 30 20:41 16.05.2020
3091 Clear 10 1016 29 10000 7.2 30 20:22 16.05.2020
3092 Clear 11 1016 23 10000 6.2 30 19:59 16.05.2020
3093 Clear 10 1016 23 10000 6.2 30 19:40 16.05.2020
3094 Clear 10 1016 23 10000 6.2 30 19:22 16.05.2020
3095 Clear 10 1016 23 10000 6.7 360 18:44 16.05.2020
3096 Clear 10 1016 23 10000 6.7 360 18:25 16.05.2020
3097 Clear 9 1016 34 10000 5.7 340 17:58 16.05.2020
3098 Clear 9 1016 34 10000 5.7 340 17:40 16.05.2020
3099 Clear 9 1016 34 10000 5.7 340 17:20 16.05.2020
3100 Clouds 9 1017 29 10000 5.7 340 16:42 16.05.2020
3101 Clouds 9 1017 29 10000 5.7 340 16:23 16.05.2020
3102 Clouds 9 1017 29 10000 5.7 340 16:23 16.05.2020
3103 Clouds 8 1017 39 10000 5.7 350 15:58 16.05.2020
3104 Clouds 8 1017 39 10000 5.7 350 15:40 16.05.2020
3105 Clouds 8 1017 39 10000 5.7 350 15:20 16.05.2020
3106 Clouds 8 1018 45 10000 4.1 360 14:48 16.05.2020
3107 Clouds 8 1018 45 10000 4.1 360 14:21 16.05.2020
3108 Clouds 8 1018 45 10000 4.1 10 13:59 16.05.2020
3109 Clouds 8 1018 45 10000 4.1 10 13:41 16.05.2020
3110 Clouds 8 1018 45 10000 4.1 10 13:23 16.05.2020
3111 Clouds 7 1018 45 10000 3.6 40 12:56 16.05.2020
3112 Clouds 7 1018 45 10000 3.6 40 12:38 16.05.2020
3113 Clouds 7 1018 45 10000 3.6 40 12:18 16.05.2020
3114 Clouds 6 1018 45 10000 3.6 70 11:40 16.05.2020
3115 Clouds 6 1018 45 10000 3.6 70 11:22 16.05.2020
3116 Clouds 5 1018 52 10000 3.6 70 10:56 16.05.2020
3117 Clouds 5 1018 52 10000 3.6 70 10:38 16.05.2020
3118 Clouds 5 1018 52 10000 3.6 70 10:19 16.05.2020
3119 Clouds 4 1018 51 10000 4.1 70 09:46 16.05.2020
3120 Clouds 4 1018 51 10000 4.1 70 09:27 16.05.2020
3121 Clouds 3 1017 51 10000 4.1 70 08:46 16.05.2020
3122 Clouds 3 1017 51 10000 4.1 70 08:24 16.05.2020
3123 Clouds 2 1018 51 10000 2.1 70 07:58 16.05.2020
3124 Clouds 2 1018 51 10000 2.1 70 07:40 16.05.2020
3125 Clouds 1 1018 51 10000 2.1 70 07:21 16.05.2020
3126 Clear 2 1018 47 10000 2.6 70 06:46 16.05.2020
3127 Clear 2 1018 47 10000 2.6 70 06:19 16.05.2020
3128 Clear 3 1018 44 10000 3.1 80 05:41 16.05.2020
3129 Clear 3 1018 44 10000 3.1 80 05:20 16.05.2020
3130 Clear 2 1018 44 10000 3.1 90 03:27 16.05.2020
3131 Clear 2 1019 44 10000 5.1 90 02:42 16.05.2020
3132 Clouds 3 1019 44 10000 5.1 90 02:18 16.05.2020
3133 Clouds 3 1019 41 10000 5.7 80 01:40 16.05.2020
3134 Clear 6 1018 35 10000 6.7 90 00:57 16.05.2020
3135 Clear 5 1018 35 10000 6.7 90 00:39 16.05.2020
3136 Clear 6 1018 35 10000 6.7 90 00:19 16.05.2020
3137 Clouds 6 1018 33 10000 6.7 90 23:39 15.05.2020
3138 Clouds 6 1018 33 10000 6.7 90 23:19 15.05.2020
3139 Clouds 7 1018 31 10000 6.2 80 22:42 15.05.2020
3140 Clouds 7 1018 31 10000 6.2 80 22:21 15.05.2020
3141 Clouds 8 1018 26 10000 4.1 60 21:57 15.05.2020
3142 Clouds 8 1018 26 10000 4.1 60 21:39 15.05.2020
3143 Clouds 8 1018 26 10000 4.1 60 21:20 15.05.2020
3144 Clouds 8 1019 31 10000 5.1 10 20:56 15.05.2020
3145 Clouds 8 1019 31 10000 5.1 10 20:37 15.05.2020
3146 Clouds 8 1019 31 10000 5.1 10 20:19 15.05.2020
3147 Clouds 9 1019 24 10000 4.1 60 19:43 15.05.2020
3148 Clouds 9 1019 24 10000 4.1 60 19:24 15.05.2020
3149 Clouds 9 1020 24 10000 5.7 60 18:54 15.05.2020
3150 Clouds 9 1020 24 10000 5.7 60 18:36 15.05.2020
3151 Clouds 9 1020 24 10000 5.7 60 18:18 15.05.2020
3152 Clouds 9 1020 26 10000 6.7 70 17:38 15.05.2020
3153 Clouds 9 1020 26 10000 6.7 70 17:19 15.05.2020
3154 Clouds 9 1020 31 10000 5.7 50 16:56 15.05.2020
3155 Clouds 9 1020 31 10000 5.7 50 16:38 15.05.2020
3156 Clouds 9 1020 31 10000 5.7 50 16:18 15.05.2020
3157 Clouds 8 1020 26 10000 6.2 50 15:41 15.05.2020
3158 Clouds 8 1020 26 10000 6.2 50 15:21 15.05.2020
3159 Clouds 8 1021 29 10000 4.6 70 14:58 15.05.2020
3160 Clouds 8 1021 29 10000 4.6 70 14:40 15.05.2020
3161 Clouds 8 1021 29 10000 4.6 70 14:22 15.05.2020
3162 Clouds 8 1021 33 10000 4.1 60 13:43 15.05.2020
3163 Clouds 8 1021 33 10000 4.1 60 13:22 15.05.2020
3164 Clouds 8 1021 52 10000 3.1 30 12:59 15.05.2020
3165 Clouds 7 1021 52 10000 3.1 30 12:39 15.05.2020
3166 Clouds 7 1021 52 10000 3.1 30 12:39 15.05.2020
3167 Clouds 7 1021 52 10000 3.1 30 12:18 15.05.2020
3168 Clouds 7 1021 75 10000 1.5 340 11:56 15.05.2020
3169 Clouds 7 1021 75 10000 1.5 340 11:37 15.05.2020
3170 Clouds 7 1021 75 10000 1.5 340 11:19 15.05.2020
3171 Clouds 7 1021 75 10000 2.1 60 10:56 15.05.2020
3172 Clouds 6 1021 75 10000 2.1 60 10:38 15.05.2020
3173 Clouds 6 1021 75 10000 2.1 60 10:19 15.05.2020
3174 Clouds 5 1021 86 10000 1 0 09:40 15.05.2020
3175 Clouds 5 1021 86 10000 1 0 09:20 15.05.2020
3176 Clouds 5 1020 80 10000 4.1 90 08:58 15.05.2020
3177 Clouds 5 1020 80 10000 4.1 90 08:58 15.05.2020
3178 Clouds 4 1020 80 10000 4.1 90 08:38 15.05.2020
3179 Clouds 4 1020 80 10000 4.1 90 08:19 15.05.2020
3180 Clouds 5 1020 80 10000 4.1 90 07:46 15.05.2020
3181 Clouds 5 1020 80 10000 4.1 90 07:46 15.05.2020
3182 Clouds 4 1020 80 10000 4.1 90 07:27 15.05.2020
3183 Clouds 4 1019 93 10000 1 0 06:57 15.05.2020
3184 Clouds 4 1019 93 10000 2.1 10 05:55 15.05.2020
3185 Clouds 6 1019 93 10000 2.6 330 04:33 15.05.2020
3186 Rain 6 1019 93 10000 2.6 280 03:49 15.05.2020
3187 Rain 6 1019 93 10000 2.6 220 02:40 15.05.2020
3188 Rain 6 1019 93 10000 2.1 280 01:31 15.05.2020
3189 Rain 6 1018 93 10000 2.6 270 00:57 15.05.2020
3190 Rain 6 1018 93 10000 2.6 270 00:39 15.05.2020
3191 Rain 6 1018 93 10000 2.6 270 00:20 15.05.2020
3192 Rain 6 1018 93 5000 4.6 300 23:40 14.05.2020
3193 Drizzle 6 1018 100 8000 4.1 300 23:18 14.05.2020
3194 Drizzle 6 1018 100 8000 4.1 300 23:18 14.05.2020
3195 Rain 6 1018 100 2700 4.1 290 22:42 14.05.2020
3196 Rain 7 1018 93 9000 3.6 270 22:23 14.05.2020
3197 Rain 7 1018 93 10000 4.6 260 21:58 14.05.2020
3198 Drizzle 7 1018 93 10000 4.6 260 21:40 14.05.2020
3199 Drizzle 7 1018 93 10000 4.6 260 21:19 14.05.2020
3200 Rain 7 1017 100 9000 4.6 250 20:56 14.05.2020
3201 Rain 7 1017 100 9000 4.6 250 20:38 14.05.2020
3202 Rain 7 1017 100 9000 4.6 250 20:19 14.05.2020
3203 Drizzle 7 1017 93 7000 4.6 260 19:55 14.05.2020
3204 Drizzle 7 1017 93 7000 4.6 260 19:37 14.05.2020
3205 Drizzle 7 1017 93 7000 4.6 260 19:19 14.05.2020
3206 Drizzle 7 1017 93 6000 4.6 250 18:54 14.05.2020
3207 Drizzle 7 1017 93 6000 4.6 250 18:36 14.05.2020
3208 Drizzle 7 1017 93 6000 4.6 250 18:18 14.05.2020
3209 Drizzle 7 1017 93 10000 5.7 250 17:55 14.05.2020
3210 Drizzle 7 1017 93 10000 5.7 250 17:36 14.05.2020
3211 Drizzle 7 1017 93 10000 5.7 250 17:18 14.05.2020
3212 Drizzle 7 1017 93 10000 5.7 250 17:18 14.05.2020
3213 Drizzle 7 1017 93 10000 5.1 250 16:39 14.05.2020
3214 Drizzle 7 1017 93 10000 5.1 250 16:20 14.05.2020
3215 Drizzle 7 1017 93 10000 6.2 250 15:57 14.05.2020
3216 Drizzle 7 1017 93 10000 6.2 250 15:39 14.05.2020
3217 Drizzle 7 1017 93 10000 6.2 250 15:19 14.05.2020
3218 Drizzle 7 1016 93 9000 6.7 260 14:56 14.05.2020
3219 Drizzle 7 1016 93 9000 6.7 260 14:38 14.05.2020
3220 Drizzle 7 1016 93 9000 6.7 260 14:19 14.05.2020
3221 Drizzle 7 1016 93 3000 7.2 260 13:55 14.05.2020
3222 Drizzle 7 1016 93 3000 7.2 260 13:37 14.05.2020
3223 Rain 7 1016 93 3000 7.2 260 13:18 14.05.2020
3224 Rain 7 1015 93 3000 7.2 260 12:56 14.05.2020
3225 Rain 7 1015 93 3000 7.2 260 12:37 14.05.2020
3226 Rain 7 1015 93 3000 7.2 260 12:18 14.05.2020
3227 Rain 6 1015 100 2000 3.1 270 11:42 14.05.2020
3228 Rain 6 1015 100 2000 3.1 270 11:24 14.05.2020
3229 Rain 7 1015 93 3000 4.1 280 10:58 14.05.2020
3230 Drizzle 7 1015 93 3000 4.1 280 10:40 14.05.2020
3231 Rain 7 1015 93 3000 4.1 280 10:21 14.05.2020
3232 Rain 6 1015 93 10000 2.1 310 09:43 14.05.2020
3233 Rain 6 1015 93 10000 2.1 310 09:24 14.05.2020
3234 Drizzle 6 1015 93 9000 2.1 310 08:56 14.05.2020
3235 Rain 6 1015 93 9000 2.1 310 08:37 14.05.2020
3236 Rain 6 1015 93 9000 2.1 310 08:18 14.05.2020
3237 Rain 6 1015 100 4700 3.6 290 07:44 14.05.2020
3238 Drizzle 6 1015 100 4700 3.6 290 07:21 14.05.2020
3239 Rain 7 1015 93 7000 6.7 260 06:43 14.05.2020
3240 Rain 7 1015 93 7000 6.7 260 06:23 14.05.2020
3241 Rain 6 1015 100 7000 3.1 270 05:37 14.05.2020
3242 Rain 6 1016 93 10000 4.6 270 04:45 14.05.2020
3243 Rain 6 1016 87 10000 6.2 280 03:37 14.05.2020
3244 Rain 7 1016 93 10000 7.2 260 02:57 14.05.2020
3245 Drizzle 7 1016 93 10000 7.2 260 02:34 14.05.2020
3246 Rain 7 1016 93 9000 8.2 260 01:48 14.05.2020
3247 Rain 7 1017 93 4700 8.7 250 00:53 14.05.2020
3248 Rain 7 1017 93 9000 7.2 250 00:27 14.05.2020
3249 Drizzle 7 1017 93 10000 6.7 260 23:45 13.05.2020
3250 Rain 7 1017 93 10000 6.7 260 23:23 13.05.2020
3251 Rain 7 1017 87 10000 5.7 260 22:59 13.05.2020
3252 Rain 7 1017 87 10000 5.7 260 22:41 13.05.2020
3253 Rain 7 1017 87 10000 5.7 260 22:21 13.05.2020
3254 Rain 7 1017 87 10000 5.7 260 22:21 13.05.2020
3255 Clouds 7 1018 87 10000 5.7 260 21:57 13.05.2020
3256 Clouds 7 1018 87 10000 5.7 260 21:39 13.05.2020
3257 Clouds 7 1018 87 10000 5.7 260 21:39 13.05.2020
3258 Clouds 7 1018 87 10000 5.7 260 21:19 13.05.2020
3259 Rain 7 1018 81 10000 5.7 260 20:55 13.05.2020
3260 Rain 7 1018 81 10000 5.7 260 20:37 13.05.2020
3261 Rain 7 1018 81 10000 5.7 260 20:18 13.05.2020
3262 Clouds 8 1019 70 10000 6.2 260 19:41 13.05.2020
3263 Clouds 8 1019 70 10000 6.2 260 19:22 13.05.2020
3264 Clouds 8 1019 70 10000 7.2 260 18:44 13.05.2020
3265 Clouds 8 1019 70 10000 7.2 260 18:22 13.05.2020
3266 Clouds 8 1019 70 10000 7.2 260 18:22 13.05.2020
3267 Clouds 8 1020 70 10000 6.2 250 17:58 13.05.2020
3268 Clouds 8 1020 70 10000 6.2 250 17:38 13.05.2020
3269 Clouds 8 1020 70 10000 6.2 250 17:18 13.05.2020
3270 Clouds 8 1020 65 10000 6.2 240 16:40 13.05.2020
3271 Clouds 8 1020 65 10000 6.2 240 16:19 13.05.2020
3272 Clouds 7 1021 65 10000 5.1 270 15:55 13.05.2020
3273 Clouds 7 1021 65 10000 5.1 270 15:37 13.05.2020
3274 Clouds 7 1021 65 10000 5.1 270 15:18 13.05.2020
3275 Clouds 7 1021 61 10000 7.2 290 14:42 13.05.2020
3276 Clouds 8 1021 61 10000 7.2 290 14:24 13.05.2020
3277 Clouds 7 1021 75 10000 7.2 280 13:59 13.05.2020
3278 Clouds 7 1021 75 10000 7.2 280 13:59 13.05.2020
3279 Clouds 7 1021 75 10000 7.2 280 13:41 13.05.2020
3280 Clouds 7 1021 75 10000 7.2 280 13:22 13.05.2020
3281 -273 0 0 0 0 0 12:59 13.05.2020
3282 Rain 7 1022 70 10000 6.2 270 12:41 13.05.2020
3283 Rain 7 1022 70 10000 6.2 270 12:20 13.05.2020
3284 Rain 7 1022 81 10000 6.2 290 11:56 13.05.2020
3285 Rain 6 1022 81 10000 6.2 290 11:37 13.05.2020
3286 Rain 6 1022 81 10000 6.2 290 11:19 13.05.2020
3287 Rain 6 1022 87 10000 6.2 300 10:57 13.05.2020
3288 Rain 6 1022 87 10000 6.2 300 10:38 13.05.2020
3289 Rain 6 1022 87 10000 6.2 300 10:19 13.05.2020
3290 Rain 5 1022 86 10000 1 0 09:47 13.05.2020
3291 Rain 5 1022 86 10000 1 0 09:24 13.05.2020
3292 Rain 4 1022 93 3100 2.87 259 08:58 13.05.2020
3293 Rain 4 1022 93 3100 2.87 259 08:39 13.05.2020
3294 Drizzle 4 1022 93 3100 3.2 290 08:20 13.05.2020
3295 Rain 4 1023 86 10000 2.6 340 07:52 13.05.2020
3296 Rain 4 1023 86 10000 2.6 340 07:32 13.05.2020
3297 Clouds 4 1023 86 10000 5.1 310 06:52 13.05.2020
3298 Clouds 4 1023 86 10000 5.1 310 06:34 13.05.2020
3299 Clouds 4 1023 80 10000 4.1 310 05:37 13.05.2020
3300 Clouds 4 1023 83 10000 6.2 290 03:49 13.05.2020
3301 Clouds 4 1023 82 10000 5.7 300 02:38 13.05.2020
3302 Drizzle 4 1023 80 10000 7.2 290 01:46 13.05.2020
3303 Drizzle 4 1023 86 2800 5.7 290 00:58 13.05.2020
3304 Drizzle 4 1023 86 2800 5.7 290 00:23 13.05.2020
3305 Clouds 5 1023 76 10000 3.1 280 23:59 12.05.2020
3306 Clouds 5 1023 76 10000 3.1 280 23:39 12.05.2020
3307 Clouds 5 1023 75 10000 3.1 280 23:20 12.05.2020
3308 Clouds 5 1023 75 10000 4.6 290 22:42 12.05.2020
3309 Clouds 5 1023 74 10000 4.6 290 22:22 12.05.2020
3310 Clouds 5 1024 74 10000 5.7 290 21:57 12.05.2020
3311 Clouds 5 1024 74 10000 5.7 290 21:38 12.05.2020
3312 Clouds 5 1024 74 10000 5.7 290 21:20 12.05.2020
3313 Clouds 5 1024 74 10000 4.6 290 20:59 12.05.2020
3314 Clouds 5 1024 74 10000 4.6 290 20:40 12.05.2020
3315 Clouds 5 1024 75 10000 4.6 290 20:21 12.05.2020
3316 Clouds 6 1024 75 10000 4.6 300 19:58 12.05.2020
3317 Clouds 6 1024 75 10000 4.6 300 19:40 12.05.2020
3318 Clouds 6 1024 77 10000 4.6 300 19:21 12.05.2020
3319 Clouds 6 1024 77 10000 4.1 300 18:56 12.05.2020
3320 Clouds 6 1024 77 10000 4.1 300 18:38 12.05.2020
3321 Clouds 6 1024 76 10000 4.1 300 18:20 12.05.2020
3322 Clouds 6 1024 70 10000 5.1 300 17:43 12.05.2020
3323 Clouds 6 1024 70 10000 5.1 300 17:24 12.05.2020
3324 Clouds 6 1025 65 10000 3.6 320 16:47 12.05.2020
3325 Clouds 6 1025 65 10000 3.6 320 16:26 12.05.2020
3326 Clouds 6 1025 65 10000 3.6 300 15:56 12.05.2020
3327 Clouds 6 1025 65 10000 3.6 300 15:38 12.05.2020
3328 Clouds 6 1025 65 10000 3.6 300 15:19 12.05.2020
3329 Clouds 7 1025 65 10000 4.1 280 14:57 12.05.2020
3330 Clouds 7 1025 65 10000 4.1 280 14:38 12.05.2020
3331 Clouds 7 1025 65 10000 4.1 280 14:20 12.05.2020
3332 Clouds 7 1026 75 10000 3.1 320 13:58 12.05.2020
3333 Clouds 7 1026 75 10000 3.1 320 13:40 12.05.2020
3334 Clouds 7 1026 74 10000 3.1 320 13:20 12.05.2020
3335 Clouds 7 1026 74 10000 1.5 0 12:57 12.05.2020
3336 Clouds 7 1026 74 10000 1.5 0 12:39 12.05.2020
3337 Clouds 7 1026 73 10000 1.5 0 12:21 12.05.2020
3338 Clouds 6 1026 73 10000 1 0 11:58 12.05.2020
3339 Clouds 6 1026 73 10000 1 0 11:39 12.05.2020
3340 Clouds 6 1026 74 10000 1 0 11:21 12.05.2020
3341 Clouds 5 1026 75 10000 2.1 100 10:58 12.05.2020
3342 Clouds 5 1026 75 10000 2.1 100 10:40 12.05.2020
3343 Clouds 5 1026 75 10000 2.1 100 10:21 12.05.2020
3344 Clouds 4 1027 75 10000 3.6 90 09:59 12.05.2020
3345 Clouds 4 1027 75 10000 3.6 90 09:39 12.05.2020
3346 Clouds 4 1027 76 10000 3.6 90 09:20 12.05.2020
3347 Clouds 4 1027 76 10000 3.1 100 08:57 12.05.2020
3348 Clouds 4 1027 76 10000 3.1 100 08:38 12.05.2020
3349 Clouds 4 1027 78 10000 3.1 100 08:19 12.05.2020
3350 Clouds 2 1027 93 10000 2.1 140 07:41 12.05.2020
3351 Clouds 3 1027 93 10000 2.1 140 07:22 12.05.2020
3352 Clouds 3 1027 86 10000 1.5 10 06:49 12.05.2020
3353 Clouds 3 1027 86 10000 1.5 10 06:27 12.05.2020
3354 Clouds 4 1027 80 10000 1.35 300 05:50 12.05.2020
3355 Clouds 4 1027 80 10000 1.75 294 05:30 12.05.2020
3356 Clouds 4 1027 80 10000 1 0 03:27 12.05.2020
3357 Clouds 4 1027 80 10000 2.6 330 02:44 12.05.2020
3358 Clouds 4 1027 80 10000 2.6 330 02:24 12.05.2020
3359 Clouds 4 1027 86 10000 5.1 290 01:27 12.05.2020
3360 Rain 5 1027 93 10000 7.2 300 00:28 12.05.2020
3361 Drizzle 6 1027 93 5000 6.7 310 23:59 11.05.2020
3362 Drizzle 6 1027 93 5000 6.7 310 23:40 11.05.2020
3363 Drizzle 6 1027 93 5000 6.7 310 23:21 11.05.2020
3364 -273 0 0 0 0 0 22:59 11.05.2020
3365 -273 0 0 0 0 0 22:59 11.05.2020
3366 Drizzle 7 1028 87 2700 6.2 300 22:40 11.05.2020
3367 Drizzle 7 1028 87 2700 6.2 300 22:20 11.05.2020
3368 Drizzle 7 1028 87 5000 6.2 270 21:58 11.05.2020
3369 Drizzle 7 1028 87 5000 6.2 270 21:40 11.05.2020
3370 Drizzle 7 1028 87 5000 6.2 270 21:19 11.05.2020
3371 Drizzle 7 1028 87 5000 6.2 270 21:19 11.05.2020
3372 Mist 7 1028 87 3000 7.2 260 20:59 11.05.2020
3373 Drizzle 7 1028 87 3000 7.2 260 20:40 11.05.2020
3374 Drizzle 7 1028 87 3000 7.2 260 20:21 11.05.2020
3375 Drizzle 7 1028 81 4000 7.7 270 19:55 11.05.2020
3376 Drizzle 7 1028 81 4000 7.7 270 19:37 11.05.2020
3377 Drizzle 7 1028 81 4000 7.7 270 19:19 11.05.2020
3378 Clouds 7 1029 75 10000 8.2 270 18:55 11.05.2020
3379 Clouds 7 1029 75 10000 8.2 270 18:55 11.05.2020
3380 Clouds 7 1029 75 10000 8.2 270 18:37 11.05.2020
3381 Clouds 7 1029 75 10000 8.2 270 18:18 11.05.2020
3382 Clouds 8 1029 70 10000 7.2 270 17:55 11.05.2020
3383 Clouds 8 1029 70 10000 7.2 270 17:36 11.05.2020
3384 Clouds 8 1029 70 10000 7.2 270 17:36 11.05.2020
3385 Clouds 8 1029 70 10000 7.2 270 17:18 11.05.2020
3386 Clouds 8 1029 70 10000 6.7 260 16:41 11.05.2020
3387 Clouds 8 1029 70 10000 6.7 260 16:22 11.05.2020
3388 Clouds 8 1029 65 10000 5.7 270 15:58 11.05.2020
3389 Clouds 8 1029 65 10000 5.7 270 15:39 11.05.2020
3390 Clouds 8 1029 65 10000 5.7 270 15:19 11.05.2020
3391 Clouds 8 1029 65 10000 5.7 270 15:19 11.05.2020
3392 Clouds 8 1029 65 10000 5.7 260 14:55 11.05.2020
3393 Clouds 8 1029 65 10000 5.7 260 14:37 11.05.2020
3394 Clouds 8 1029 65 10000 5.7 260 14:18 11.05.2020
3395 Clouds 8 1029 65 10000 5.7 260 14:18 11.05.2020
3396 Clouds 8 1030 65 10000 5.7 250 13:41 11.05.2020
3397 Clouds 8 1030 65 10000 5.7 250 13:22 11.05.2020
3398 Clouds 7 1030 70 10000 4.6 240 12:58 11.05.2020
3399 Clouds 7 1030 70 10000 4.6 240 12:40 11.05.2020
3400 Clouds 7 1030 70 10000 4.6 240 12:22 11.05.2020
3401 Rain 7 1030 65 10000 6.2 260 11:56 11.05.2020
3402 Rain 7 1030 65 10000 6.2 260 11:38 11.05.2020
3403 Rain 7 1030 65 10000 6.2 260 11:38 11.05.2020
3404 Rain 7 1030 65 10000 6.2 260 11:19 11.05.2020
3405 Rain 7 1030 65 10000 7.2 270 10:55 11.05.2020
3406 Rain 7 1030 65 10000 7.2 270 10:37 11.05.2020
3407 Rain 7 1030 65 10000 7.2 270 10:18 11.05.2020
3408 Rain 7 1030 65 10000 7.2 270 10:18 11.05.2020
3409 Rain 7 1030 65 10000 6.7 250 09:55 11.05.2020
3410 Rain 7 1030 65 10000 6.7 250 09:37 11.05.2020
3411 Rain 7 1030 65 10000 6.7 250 09:18 11.05.2020
3412 Rain 6 1030 75 10000 5.7 260 08:40 11.05.2020
3413 Rain 6 1030 75 10000 5.7 260 08:21 11.05.2020
3414 Rain 7 1030 75 10000 6.7 250 07:50 11.05.2020
3415 Rain 7 1030 75 10000 6.7 250 07:32 11.05.2020
3416 Clouds 6 1030 75 10000 4.6 250 06:55 11.05.2020
3417 Clouds 6 1030 75 10000 4.6 250 06:32 11.05.2020
3418 Clouds 6 1030 70 10000 5.1 270 05:44 11.05.2020
3419 Clouds 6 1030 70 10000 5.1 270 05:19 11.05.2020
3420 Clouds 6 1030 60 10000 6.2 260 03:47 11.05.2020
3421 Clouds 6 1030 60 10000 5.7 260 02:35 11.05.2020
3422 Clouds 6 1030 60 10000 5.7 250 01:55 11.05.2020
3423 Clouds 6 1030 60 10000 5.1 270 00:55 11.05.2020
3424 Clouds 6 1030 60 10000 5.1 270 00:28 11.05.2020
3425 Clouds 7 1030 56 10000 5.7 270 23:59 10.05.2020
3426 Clouds 7 1030 56 10000 5.7 270 23:39 10.05.2020
3427 Clouds 7 1030 56 10000 5.7 270 23:19 10.05.2020
3428 Clouds 7 1030 56 10000 5.7 260 22:54 10.05.2020
3429 Clouds 7 1030 56 10000 5.7 260 22:36 10.05.2020
3430 Clouds 7 1030 56 10000 5.7 260 22:18 10.05.2020
3431 Clouds 7 1030 56 10000 5.7 260 21:41 10.05.2020
3432 Clouds 7 1030 56 10000 5.7 260 21:18 10.05.2020
3433 Clouds 7 1030 52 10000 6.2 270 20:42 10.05.2020
3434 Clouds 7 1030 52 10000 6.2 270 20:24 10.05.2020
3435 Clouds 7 1030 64 10000 5.7 270 19:56 10.05.2020
3436 Clouds 7 1030 64 10000 5.7 270 19:38 10.05.2020
3437 Clouds 7 1030 63 10000 5.7 270 19:20 10.05.2020
3438 Clouds 7 1030 63 10000 5.7 270 19:20 10.05.2020
3439 Clouds 8 1030 63 10000 7.2 280 18:55 10.05.2020
3440 Clouds 8 1030 63 10000 7.2 280 18:36 10.05.2020
3441 Clouds 8 1030 62 10000 6.2 280 18:18 10.05.2020
3442 Clouds 8 1030 62 10000 6.2 280 17:57 10.05.2020
3443 Clouds 8 1030 62 10000 6.2 280 17:39 10.05.2020
3444 Clouds 8 1030 62 10000 6.2 280 17:20 10.05.2020
3445 Clouds 7 1030 62 10000 5.7 280 16:43 10.05.2020
3446 Clouds 7 1030 62 10000 5.7 280 16:21 10.05.2020
3447 Clouds 8 1030 62 10000 5.7 270 15:58 10.05.2020
3448 Clouds 8 1030 62 10000 5.7 270 15:39 10.05.2020
3449 Clouds 8 1030 62 10000 5.7 270 15:21 10.05.2020
3450 Clouds 7 1030 56 10000 4.6 270 14:56 10.05.2020
3451 Clouds 7 1030 56 10000 4.6 270 14:37 10.05.2020
3452 Clouds 7 1030 56 10000 4.6 270 14:19 10.05.2020
3453 Clouds 7 1030 52 10000 4.1 260 13:57 10.05.2020
3454 Clouds 7 1030 52 10000 4.1 260 13:37 10.05.2020
3455 Clouds 7 1030 52 10000 4.1 260 13:18 10.05.2020
3456 Clouds 6 1031 52 10000 3.6 250 12:56 10.05.2020
3457 Clouds 6 1031 52 10000 3.6 250 12:37 10.05.2020
3458 Clouds 6 1031 52 10000 3.6 250 12:19 10.05.2020
3459 Clouds 6 1031 52 10000 4.1 250 11:54 10.05.2020
3460 Clouds 6 1031 52 10000 4.1 250 11:36 10.05.2020
3461 Clouds 6 1031 52 10000 4.1 250 11:18 10.05.2020
3462 Clouds 4 1031 64 10000 1.5 170 10:42 10.05.2020
3463 Clouds 4 1031 64 10000 1.5 170 10:24 10.05.2020
3464 Clouds 3 1031 55 10000 1.5 120 09:43 10.05.2020
3465 Clouds 3 1031 55 10000 1.5 120 09:24 10.05.2020
3466 Clouds 1 1031 64 10000 2.1 150 08:59 10.05.2020
3467 Clouds 1 1031 64 10000 2.1 150 08:41 10.05.2020
3468 Clouds 1 1031 64 10000 2.1 150 08:22 10.05.2020
3469 Clouds 1 1031 59 10000 2.1 130 07:43 10.05.2020
3470 Clouds 1 1031 59 10000 2.1 130 07:19 10.05.2020
3471 Clear 1 1031 59 10000 1.5 140 06:51 10.05.2020
3472 Clear 1 1031 59 10000 1.5 140 06:27 10.05.2020
3473 Clear 1 1031 59 10000 1.5 140 05:48 10.05.2020
3474 Clear 2 1031 59 10000 2.1 150 04:48 10.05.2020
3475 Clear 2 1031 59 10000 2.1 150 04:29 10.05.2020
3476 Clear 3 1031 55 10000 1.5 0 03:51 10.05.2020
3477 Clear 3 1031 55 10000 1.5 0 03:30 10.05.2020
3478 Clear 4 1031 51 10000 3.6 310 02:25 10.05.2020
3479 Clouds 4 1031 48 10000 3.6 300 01:59 10.05.2020
3480 Clouds 4 1031 48 10000 3.6 300 01:59 10.05.2020
3481 Clouds 4 1031 48 10000 3.6 300 01:40 10.05.2020
3482 Clouds 4 1031 48 10000 3.6 300 01:19 10.05.2020
3483 Clouds 5 1031 38 10000 3.6 310 00:53 10.05.2020
3484 Clouds 5 1031 38 10000 3.6 310 00:22 10.05.2020
3485 Clouds 6 1031 33 10000 3.6 320 23:57 09.05.2020
3486 Clouds 6 1031 33 10000 3.6 320 23:38 09.05.2020
3487 Clouds 6 1031 33 10000 3.6 320 23:19 09.05.2020
3488 Clouds 6 1031 33 10000 3.6 320 23:19 09.05.2020
3489 Clear 6 1030 35 10000 4.1 330 22:41 09.05.2020
3490 Clear 6 1030 35 10000 4.1 330 22:23 09.05.2020
3491 Clear 7 1030 33 10000 4.6 330 21:58 09.05.2020
3492 Clear 7 1030 33 10000 4.6 330 21:40 09.05.2020
3493 Clear 7 1030 33 10000 4.6 330 21:20 09.05.2020
3494 Clear 7 1030 30 10000 4.1 330 20:57 09.05.2020
3495 Clear 7 1030 30 10000 4.1 330 20:38 09.05.2020
3496 Clear 7 1030 30 10000 4.1 330 20:20 09.05.2020
3497 Clear 7 1030 22 10000 3.6 340 19:55 09.05.2020
3498 Clear 7 1030 22 10000 3.6 340 19:37 09.05.2020
3499 Clear 7 1030 22 10000 3.6 340 19:18 09.05.2020
3500 Clear 7 1030 24 10000 6.2 360 18:42 09.05.2020
3501 Clear 7 1030 24 10000 6.2 360 18:42 09.05.2020
3502 Clear 7 1030 24 10000 6.2 360 18:23 09.05.2020
3503 Clear 7 1030 22 10000 3.1 340 17:45 09.05.2020
3504 Clear 7 1030 22 10000 3.1 340 17:23 09.05.2020
3505 Clear 6 1029 26 10000 4.6 350 16:56 09.05.2020
3506 Clear 6 1029 26 10000 4.6 350 16:38 09.05.2020
3507 Clear 6 1029 26 10000 4.6 350 16:18 09.05.2020
3508 Clear 6 1030 22 10000 4.1 360 15:42 09.05.2020
3509 Clear 6 1030 22 10000 4.1 360 15:22 09.05.2020
3510 Clear 6 1030 22 10000 4.1 360 15:22 09.05.2020
3511 Clear 5 1030 21 10000 3.6 340 14:56 09.05.2020
3512 Clear 5 1030 21 10000 3.6 340 14:37 09.05.2020
3513 Clear 5 1030 21 10000 3.6 340 14:18 09.05.2020
3514 Clear 5 1029 21 10000 5.1 20 13:55 09.05.2020
3515 Clear 5 1029 21 10000 5.1 20 13:37 09.05.2020
3516 Clear 5 1029 21 10000 5.1 20 13:18 09.05.2020
3517 Clear 5 1029 23 10000 3.6 360 12:39 09.05.2020
3518 Clear 5 1029 23 10000 3.6 360 12:21 09.05.2020
3519 Clear 4 1028 23 10000 3.1 70 11:45 09.05.2020
3520 Clear 4 1028 23 10000 3.1 70 11:20 09.05.2020
3521 Clear 3 1028 34 10000 1.5 90 10:56 09.05.2020
3522 Clear 3 1028 34 10000 1.5 90 10:37 09.05.2020
3523 Clear 3 1028 34 10000 1.5 90 10:19 09.05.2020
3524 Clear 2 1028 34 10000 1.5 20 09:47 09.05.2020
3525 Clear 2 1028 34 10000 1.5 20 09:20 09.05.2020
3526 Clear 2 1027 37 10000 3.6 40 08:58 09.05.2020
3527 Clear 2 1027 37 10000 3.6 40 08:40 09.05.2020
3528 Clouds 2 1027 37 10000 3.6 40 08:21 09.05.2020
3529 Clouds 0 1027 54 10000 5.09 33 07:45 09.05.2020
3530 Clouds -1 1027 54 10000 5.1 33 07:27 09.05.2020
3531 Clouds 2 1026 37 10000 4.1 20 06:45 09.05.2020
3532 Clear 2 1026 37 10000 4.1 20 06:21 09.05.2020
3533 Clear 2 1026 37 10000 5.1 360 05:44 09.05.2020
3534 Clear 2 1025 55 10000 2.1 340 03:44 09.05.2020
3535 Clear 3 1025 55 10000 3.1 350 02:55 09.05.2020
3536 Clear 3 1025 55 10000 3.1 350 02:30 09.05.2020
3537 Clear 3 1024 59 10000 4.1 340 01:51 09.05.2020
3538 Clear 3 1024 59 10000 4.1 340 01:23 09.05.2020
3539 Clear 4 1023 52 10000 5.7 360 00:44 09.05.2020
3540 Clear 5 1023 52 10000 5.7 360 00:24 09.05.2020
3541 Clear 5 1023 45 10000 7.7 360 23:48 08.05.2020
3542 Clear 6 1023 45 10000 7.7 360 23:28 08.05.2020
3543 Clear 6 1022 39 10000 6.7 360 22:57 08.05.2020
3544 Clear 7 1022 39 10000 6.7 360 22:39 08.05.2020
3545 Clear 7 1022 39 10000 6.7 360 22:19 08.05.2020
3546 Clouds 7 1021 26 10000 4.1 350 21:58 08.05.2020
3547 Clouds 8 1021 26 10000 4.1 350 21:39 08.05.2020
3548 Clouds 8 1021 26 10000 4.1 350 21:18 08.05.2020
3549 Clouds 7 1021 28 10000 6.7 350 20:56 08.05.2020
3550 Clear 8 1020 31 10000 5.1 350 20:38 08.05.2020
3551 Clear 8 1020 31 10000 5.1 350 20:20 08.05.2020
3552 Clear 8 1020 31 10000 5.1 350 19:43 08.05.2020
3553 Clear 8 1020 31 10000 5.1 350 19:22 08.05.2020
3554 Clear 7 1020 33 10000 6.7 350 18:50 08.05.2020
3555 Clear 8 1020 33 10000 6.7 350 18:31 08.05.2020
3556 Clear 7 1020 36 10000 5.7 350 17:55 08.05.2020
3557 Clear 7 1020 36 10000 5.7 350 17:37 08.05.2020
3558 Clear 7 1020 36 10000 5.7 350 17:18 08.05.2020
3559 Clear 6 1020 36 10000 5.1 360 16:42 08.05.2020
3560 Clear 6 1020 36 10000 5.1 360 16:24 08.05.2020
3561 Clear 7 1020 36 10000 3.6 330 15:55 08.05.2020
3562 Clear 6 1020 36 10000 3.6 330 15:36 08.05.2020
3563 Clear 6 1020 36 10000 3.6 330 15:18 08.05.2020
3564 Clear 6 1020 35 10000 3.1 0 14:41 08.05.2020
3565 Clear 6 1020 35 10000 3.1 0 14:20 08.05.2020
3566 Clear 5 1020 44 10000 3.1 280 13:58 08.05.2020
3567 Clear 5 1020 44 10000 3.1 280 13:39 08.05.2020
3568 Clear 5 1020 44 10000 3.1 280 13:39 08.05.2020
3569 Clear 5 1020 44 10000 3.1 280 13:19 08.05.2020
3570 Clear 4 1019 44 10000 2.6 0 12:45 08.05.2020
3571 Clear 4 1019 44 10000 2.6 0 12:25 08.05.2020
3572 Clear 4 1019 44 10000 2.6 230 11:55 08.05.2020
3573 Clear 4 1019 44 10000 2.6 230 11:37 08.05.2020
3574 Clear 4 1019 44 10000 2.6 230 11:18 08.05.2020
3575 Clear 3 1019 44 10000 2.6 80 10:54 08.05.2020
3576 Clear 3 1019 44 10000 2.6 80 10:54 08.05.2020
3577 Clear 3 1019 44 10000 2.6 80 10:36 08.05.2020
3578 Clear 3 1019 44 10000 2.6 80 10:18 08.05.2020
3579 Clear 2 1019 55 10000 3.6 130 09:41 08.05.2020
3580 Clear 2 1019 55 10000 3.6 130 09:19 08.05.2020
3581 Clear 1 1019 69 10000 1 0 08:51 08.05.2020
3582 Clouds 1 1019 69 10000 1 0 08:25 08.05.2020
3583 Clouds 2 1018 64 10000 3.1 120 07:55 08.05.2020
3584 Clouds 2 1018 64 10000 3.1 120 07:37 08.05.2020
3585 Clouds 2 1018 64 10000 3.1 120 07:19 08.05.2020
3586 Clouds 2 1018 69 10000 4.49 36 06:39 08.05.2020
3587 Clouds 2 1018 69 10000 4.75 34 06:20 08.05.2020
3588 Clouds 4 1018 64 10000 5.1 10 05:29 08.05.2020
3589 Clouds 5 1018 78 10000 3.1 90 03:21 08.05.2020
3590 Clouds 4 1017 80 10000 1.5 110 02:29 08.05.2020
3591 Clouds 5 1017 80 10000 2.6 350 01:40 08.05.2020
3592 Clouds 5 1017 80 10000 2.6 350 01:20 08.05.2020
3593 Clouds 6 1017 87 10000 4.1 300 00:47 08.05.2020
3594 Clouds 6 1017 87 10000 4.1 300 00:27 08.05.2020
3595 Clouds 6 1017 81 10000 4.1 300 23:56 07.05.2020
3596 Clouds 6 1017 81 10000 4.1 300 23:37 07.05.2020
3597 Clouds 6 1017 81 10000 4.1 300 23:19 07.05.2020
3598 Clouds 6 1017 87 10000 5.1 300 22:41 07.05.2020
3599 Clouds 6 1017 87 10000 5.1 300 22:20 07.05.2020
3600 Rain 7 1017 81 10000 5.1 280 21:57 07.05.2020
3601 Rain 7 1017 81 10000 5.1 280 21:38 07.05.2020
3602 Rain 7 1017 81 10000 5.1 280 21:20 07.05.2020
3603 Rain 6 1017 81 10000 5.1 280 20:57 07.05.2020
3604 Rain 6 1017 81 10000 5.1 280 20:38 07.05.2020
3605 Rain 6 1017 81 10000 5.1 280 20:19 07.05.2020
3606 Rain 6 1017 87 10000 5.1 280 19:47 07.05.2020
3607 Rain 7 1017 87 10000 5.1 280 19:23 07.05.2020
3608 Rain 7 1017 75 10000 3.6 280 18:56 07.05.2020
3609 Rain 7 1017 75 10000 3.6 280 18:38 07.05.2020
3610 Rain 7 1017 75 10000 3.6 280 18:20 07.05.2020
3611 Rain 7 1017 75 10000 4.1 270 17:41 07.05.2020
3612 Rain 7 1017 75 10000 4.1 270 17:20 07.05.2020
3613 Rain 7 1017 75 10000 5.1 280 16:43 07.05.2020
3614 Rain 7 1017 75 10000 5.1 280 16:19 07.05.2020
3615 Clouds 7 1017 70 10000 3.6 270 15:58 07.05.2020
3616 Clouds 7 1017 70 10000 3.6 270 15:39 07.05.2020
3617 Clouds 7 1017 70 10000 3.6 270 15:18 07.05.2020
3618 Clouds 7 1017 75 10000 3.1 300 14:57 07.05.2020
3619 Clouds 7 1017 75 10000 3.1 300 14:39 07.05.2020
3620 Clouds 7 1017 75 10000 3.1 300 14:18 07.05.2020
3621 Clouds 6 1017 81 10000 5.7 300 13:42 07.05.2020
3622 Clouds 6 1017 81 10000 5.7 300 13:24 07.05.2020
3623 Clouds 6 1017 81 10000 7.7 300 12:43 07.05.2020
3624 Clouds 6 1017 81 10000 7.7 300 12:20 07.05.2020
3625 Clouds 7 1017 81 10000 6.2 320 11:57 07.05.2020
3626 Clouds 7 1017 81 10000 6.2 320 11:38 07.05.2020
3627 Clouds 7 1017 81 10000 6.2 320 11:20 07.05.2020
3628 Clouds 6 1017 87 10000 6.7 300 10:41 07.05.2020
3629 Clouds 6 1017 87 10000 6.7 300 10:21 07.05.2020
3630 Clouds 6 1017 87 10000 6.2 300 09:41 07.05.2020
3631 Clouds 6 1017 87 10000 6.2 300 09:20 07.05.2020
3632 Drizzle 6 1017 93 10000 5.1 260 08:57 07.05.2020
3633 Drizzle 6 1017 93 10000 5.1 260 08:38 07.05.2020
3634 Drizzle 6 1017 93 10000 5.1 260 08:20 07.05.2020
3635 Clouds 6 1017 93 10000 5.1 260 07:45 07.05.2020
3636 Clouds 6 1017 93 10000 5.1 260 07:26 07.05.2020
3637 Clouds 6 1017 100 10000 5.7 250 06:48 07.05.2020
3638 Clouds 6 1017 100 10000 5.7 250 06:24 07.05.2020
3639 Drizzle 6 1018 100 10000 5.7 250 05:30 07.05.2020
3640 Drizzle 6 1019 93 10000 6.2 230 03:55 07.05.2020
3641 Drizzle 6 1019 93 10000 6.2 230 03:25 07.05.2020
3642 Drizzle 6 1019 93 10000 6.2 240 02:42 07.05.2020
3643 Drizzle 6 1020 93 4500 6.7 250 01:44 07.05.2020
3644 Drizzle 6 1020 93 4500 6.7 250 01:24 07.05.2020
3645 Clouds 7 1020 87 10000 6.2 230 00:46 07.05.2020
3646 Clouds 7 1020 87 10000 6.2 230 00:27 07.05.2020
3647 Clouds 7 1020 87 10000 6.2 230 00:27 07.05.2020
3648 Drizzle 7 1020 87 10000 5.1 240 23:47 06.05.2020
3649 Drizzle 7 1020 87 10000 5.1 240 23:25 06.05.2020
3650 Drizzle 6 1021 81 3500 2.6 260 22:58 06.05.2020
3651 Drizzle 6 1021 81 3500 2.6 260 22:40 06.05.2020
3652 Drizzle 6 1021 81 3500 2.6 260 22:20 06.05.2020
3653 Clouds 7 1021 70 10000 5.1 250 21:58 06.05.2020
3654 Clouds 7 1021 70 10000 5.1 250 21:40 06.05.2020
3655 Clouds 7 1021 70 10000 5.1 250 21:21 06.05.2020
3656 Clouds 7 1021 70 10000 4.1 260 20:43 06.05.2020
3657 Clouds 7 1021 70 10000 4.1 260 20:25 06.05.2020
3658 Clouds 8 1021 65 10000 5.7 250 19:59 06.05.2020
3659 Clouds 8 1021 65 10000 5.7 250 19:39 06.05.2020
3660 Clouds 8 1021 65 10000 5.7 250 19:20 06.05.2020
3661 Clouds 8 1022 65 10000 6.2 250 18:59 06.05.2020
3662 Clouds 8 1022 65 10000 6.2 250 18:41 06.05.2020
3663 Clouds 8 1022 65 10000 6.2 250 18:21 06.05.2020
3664 Clouds 7 1022 65 10000 6.2 260 17:59 06.05.2020
3665 Clouds 7 1022 65 10000 6.2 260 17:40 06.05.2020
3666 Clouds 7 1022 65 10000 6.2 260 17:22 06.05.2020
3667 Clouds 7 1022 75 10000 4.6 250 16:59 06.05.2020
3668 Clouds 7 1022 75 10000 4.6 250 16:40 06.05.2020
3669 Clouds 7 1022 75 10000 4.6 250 16:21 06.05.2020
3670 Rain 7 1022 75 10000 5.1 250 15:59 06.05.2020
3671 Rain 7 1022 75 10000 5.1 250 15:59 06.05.2020
3672 Rain 7 1022 75 10000 5.1 250 15:40 06.05.2020
3673 Rain 7 1022 75 10000 5.1 250 15:21 06.05.2020
3674 Rain 7 1022 75 10000 5.1 230 14:56 06.05.2020
3675 Rain 7 1022 75 10000 5.1 230 14:37 06.05.2020
3676 Rain 7 1022 75 10000 5.1 230 14:18 06.05.2020
3677 Rain 7 1022 75 10000 5.1 230 14:18 06.05.2020
3678 Clouds 7 1022 65 10000 3.1 240 13:43 06.05.2020
3679 Clouds 7 1022 65 10000 3.1 240 13:24 06.05.2020
3680 Clouds 7 1021 70 10000 1.5 180 12:58 06.05.2020
3681 Clouds 7 1021 70 10000 1.5 180 12:39 06.05.2020
3682 Clouds 7 1021 70 10000 1.5 180 12:21 06.05.2020
3683 Drizzle 6 1022 81 10000 3.6 210 11:41 06.05.2020
3684 Drizzle 6 1022 81 10000 3.6 210 11:21 06.05.2020
3685 Clouds 7 1022 65 10000 1.5 200 10:58 06.05.2020
3686 Clouds 7 1022 65 10000 1.5 200 10:38 06.05.2020
3687 Clouds 7 1022 65 10000 1.5 200 10:19 06.05.2020
3688 Clouds 6 1022 70 10000 1.5 230 09:45 06.05.2020
3689 Clouds 6 1022 70 10000 1.5 230 09:24 06.05.2020
3690 Clouds 6 1022 75 10000 3.6 220 08:55 06.05.2020
3691 Clouds 6 1022 75 10000 3.6 220 08:36 06.05.2020
3692 Clouds 6 1022 75 10000 3.6 220 08:18 06.05.2020
3693 Clouds 6 1021 70 10000 2.6 220 07:40 06.05.2020
3694 Clouds 6 1021 70 10000 2.6 220 07:21 06.05.2020
3695 Clouds 6 1022 70 10000 1.5 230 06:56 06.05.2020
3696 Clouds 6 1022 70 10000 1.5 230 06:38 06.05.2020
3697 Clouds 6 1022 70 10000 1.5 230 06:18 06.05.2020
3698 Clouds 6 1022 70 10000 2.1 220 05:37 06.05.2020
3699 Clouds 6 1021 70 10000 2.1 210 04:40 06.05.2020
3700 Clouds 6 1021 70 10000 3.1 250 03:47 06.05.2020
3701 Clouds 6 1021 70 10000 3.1 250 03:22 06.05.2020
3702 Clouds 7 1021 70 10000 2.6 230 02:30 06.05.2020
3703 Clouds 7 1021 70 10000 3.6 240 01:56 06.05.2020
3704 Clouds 7 1021 70 10000 3.6 240 01:34 06.05.2020
3705 Clouds 7 1020 75 10000 4.6 250 00:55 06.05.2020
3706 Clouds 7 1020 75 10000 4.6 250 00:31 06.05.2020
3707 Clouds 7 1020 81 10000 3.1 250 23:58 05.05.2020
3708 Clouds 7 1020 81 10000 3.1 250 23:39 05.05.2020
3709 Clouds 7 1020 81 10000 3.1 250 23:19 05.05.2020
3710 Clouds 7 1019 75 10000 3.1 260 22:42 05.05.2020
3711 Clouds 8 1019 75 10000 3.1 260 22:20 05.05.2020
3712 Clouds 8 1018 75 10000 4.6 260 21:59 05.05.2020
3713 Clouds 8 1018 75 10000 4.6 260 21:40 05.05.2020
3714 Clouds 8 1018 75 10000 4.6 260 21:21 05.05.2020
3715 Clouds 8 1018 75 10000 5.1 250 20:59 05.05.2020
3716 Clouds 8 1018 75 10000 5.1 250 20:39 05.05.2020
3717 Clouds 8 1018 75 10000 5.1 250 20:19 05.05.2020
3718 Clouds 8 1017 75 10000 5.1 250 19:57 05.05.2020
3719 Clouds 8 1017 75 10000 5.1 250 19:37 05.05.2020
3720 Clouds 8 1017 75 10000 5.1 250 19:18 05.05.2020
3721 Clouds 8 1017 75 10000 6.2 250 18:55 05.05.2020
3722 Clouds 8 1017 75 10000 6.2 250 18:37 05.05.2020
3723 Clouds 8 1017 75 10000 6.2 250 18:18 05.05.2020
3724 Clouds 9 1017 66 10000 5.7 250 17:42 05.05.2020
3725 Clouds 9 1017 66 10000 5.7 250 17:24 05.05.2020
3726 Clouds 9 1016 66 10000 7.2 240 16:57 05.05.2020
3727 Clouds 9 1016 66 10000 7.2 240 16:37 05.05.2020
3728 Clouds 9 1016 66 10000 7.2 240 16:18 05.05.2020
3729 Clouds 9 1016 66 10000 7.2 240 15:55 05.05.2020
3730 Clouds 9 1016 66 10000 7.2 240 15:37 05.05.2020
3731 Clouds 9 1016 66 10000 7.2 240 15:19 05.05.2020
3732 Clouds 9 1016 70 10000 8.2 240 14:42 05.05.2020
3733 Clouds 8 1016 70 10000 8.2 240 14:42 05.05.2020
3734 Clouds 8 1016 70 10000 8.2 240 14:24 05.05.2020
3735 Clouds 8 1015 70 10000 7.7 240 13:59 05.05.2020
3736 Clouds 8 1015 70 10000 7.7 240 13:59 05.05.2020
3737 Clouds 8 1015 70 10000 7.7 240 13:41 05.05.2020
3738 Clouds 8 1015 70 10000 7.7 240 13:21 05.05.2020
3739 Sand 7 1014 75 10000 6.7 230 12:59 05.05.2020
3740 Sand 7 1014 75 10000 6.7 230 12:40 05.05.2020
3741 Sand 7 1014 75 10000 6.7 230 12:20 05.05.2020
3742 Clouds 7 1014 75 10000 6.7 230 11:59 05.05.2020
3743 Clouds 7 1014 75 10000 6.7 230 11:40 05.05.2020
3744 Clouds 7 1014 75 10000 6.7 230 11:18 05.05.2020
3745 Clouds 7 1014 75 10000 6.7 240 10:54 05.05.2020
3746 Clouds 7 1014 75 10000 6.7 240 10:36 05.05.2020
3747 Clouds 7 1014 75 10000 6.7 240 10:18 05.05.2020
3748 Clouds 6 1013 81 10000 7.7 240 09:43 05.05.2020
3749 Clouds 6 1013 81 10000 7.7 240 09:43 05.05.2020
3750 Clouds 6 1013 81 10000 7.7 240 09:25 05.05.2020
3751 Clouds 6 1013 75 10000 7.2 230 08:43 05.05.2020
3752 Clouds 6 1013 75 10000 7.2 230 08:21 05.05.2020
3753 Clouds 6 1013 81 10000 8.2 240 07:59 05.05.2020
3754 Clouds 6 1013 81 10000 8.2 240 07:41 05.05.2020
3755 Clouds 6 1013 81 10000 8.2 240 07:19 05.05.2020
3756 Clouds 6 1012 75 10000 8.2 240 06:50 05.05.2020
3757 Clouds 6 1012 75 10000 8.2 240 06:29 05.05.2020
3758 Clouds 6 1012 75 10000 8.2 240 06:29 05.05.2020
3759 Clouds 6 1012 75 10000 8.2 240 06:29 05.05.2020
3760 Clouds 6 1012 75 10000 8.2 240 06:29 05.05.2020
3761 Clouds 7 1012 75 10000 8.7 240 05:50 05.05.2020
3762 Clouds 7 1012 75 10000 9.8 230 04:52 05.05.2020
3763 Rain 7 1011 70 10000 11.8 240 02:28 05.05.2020
3764 Drizzle 7 1011 81 9000 10.3 220 00:54 05.05.2020
3765 Drizzle 7 1011 81 9000 10.3 220 00:23 05.05.2020
3766 Drizzle 8 1011 70 8000 10.8 220 23:48 04.05.2020
3767 Drizzle 8 1011 70 8000 10.8 220 23:25 04.05.2020
3768 Clouds 8 1011 65 10000 11.8 220 22:57 04.05.2020
3769 Clouds 8 1011 65 10000 11.8 220 22:57 04.05.2020
3770 Clouds 8 1011 65 10000 11.8 220 22:38 04.05.2020
3771 Clouds 8 1011 65 10000 11.8 220 22:38 04.05.2020
3772 Clouds 8 1011 65 10000 11.8 220 22:20 04.05.2020
3773 Clouds 9 1011 61 10000 12.3 210 21:57 04.05.2020
3774 Clouds 9 1011 61 10000 12.3 210 21:36 04.05.2020
3775 Clouds 9 1011 61 10000 12.3 210 21:18 04.05.2020
3776 Clouds 10 1011 53 10000 12.9 210 20:40 04.05.2020
3777 Clouds 10 1011 53 10000 12.9 210 20:40 04.05.2020
3778 Clouds 10 1011 53 10000 12.9 210 20:39 04.05.2020
3779 Clouds 10 1011 53 10000 12.9 210 20:39 04.05.2020
3780 Clouds 10 1011 53 10000 12.9 210 20:39 04.05.2020
3781 Clouds 10 1011 53 10000 12.9 210 20:19 04.05.2020
3782 Clouds 10 1011 50 10000 12.9 200 19:43 04.05.2020
3783 Clouds 10 1011 50 10000 12.9 200 19:24 04.05.2020
3784 Clouds 10 1012 53 10000 12.9 200 18:59 04.05.2020
3785 Clouds 10 1012 53 10000 12.9 200 18:38 04.05.2020
3786 Clouds 10 1012 53 10000 12.9 200 18:38 04.05.2020
3787 Clouds 10 1012 53 10000 12.9 200 18:19 04.05.2020
3788 Clouds 10 1012 53 10000 12.9 200 18:19 04.05.2020
3789 Clouds 10 1012 50 10000 12.3 200 17:56 04.05.2020
3790 Clouds 10 1012 50 10000 12.3 200 17:56 04.05.2020
3791 Clouds 11 1012 50 10000 12.3 200 17:37 04.05.2020
3792 Clouds 11 1012 50 10000 12.3 200 17:19 04.05.2020
3793 Clouds 10 1013 57 10000 11.8 200 16:43 04.05.2020
3794 Clouds 10 1013 57 10000 11.8 200 16:22 04.05.2020
3795 Clouds 10 1014 61 10000 11.3 200 15:57 04.05.2020
3796 Clouds 10 1014 61 10000 11.3 200 15:38 04.05.2020
3797 Clouds 10 1014 61 10000 11.3 200 15:19 04.05.2020
3798 Clouds 9 1014 66 10000 11.3 200 14:48 04.05.2020
3799 Clouds 9 1014 66 10000 11.3 200 14:48 04.05.2020
3800 Clouds 9 1014 66 10000 11.3 200 14:48 04.05.2020
3801 Clouds 9 1014 66 10000 11.3 200 14:48 04.05.2020
3802 Clouds 9 1014 66 10000 11.3 200 14:48 04.05.2020
3803 Clouds 9 1014 66 10000 11.3 200 14:20 04.05.2020
3804 Rain 8 1015 75 10000 10.8 200 13:20 04.05.2020
3805 Rain 8 1015 75 10000 10.8 200 13:20 04.05.2020
3806 Rain 8 1015 75 10000 10.8 200 13:20 04.05.2020
3807 Rain 8 1015 75 10000 10.8 200 13:20 04.05.2020
3808 Rain 8 1015 75 10000 10.8 200 13:20 04.05.2020
3809 Clouds 8 1015 66 10000 10.8 200 12:42 04.05.2020
3810 Clouds 8 1015 66 10000 10.8 200 12:42 04.05.2020
3811 Clouds 8 1015 66 10000 10.8 200 12:42 04.05.2020
3812 Clouds 8 1015 66 10000 10.8 200 12:42 04.05.2020
3813 Clouds 8 1016 70 10000 9.3 190 10:38 04.05.2020
3814 Clouds 7 1016 75 10000 8.7 180 09:26 04.05.2020
3815 Clouds 7 1016 75 10000 8.7 180 09:26 04.05.2020
3816 Clouds 7 1016 75 10000 8.7 180 09:26 04.05.2020
3817 Clouds 7 1016 75 10000 8.7 180 09:26 04.05.2020
3818 Clouds 7 1018 70 10000 8.2 190 07:53 04.05.2020
3819 Clouds 7 1018 70 10000 8.2 190 07:33 04.05.2020
3820 Clouds 7 1018 70 10000 8.2 190 07:33 04.05.2020
3821 Clouds 7 1018 70 10000 8.2 190 07:33 04.05.2020
3822 Clouds 7 1018 70 10000 8.2 190 07:33 04.05.2020
3823 Clouds 7 1018 70 10000 8.2 190 07:33 04.05.2020
3824 Clouds 6 1019 70 10000 6.2 170 05:24 04.05.2020
3825 Clouds 6 1020 74 10000 5.7 180 04:48 04.05.2020
3826 Clouds 5 1021 65 10000 3.1 140 02:38 04.05.2020
3827 Clouds 5 1022 56 10000 3.6 130 01:20 04.05.2020
3828 Clouds 5 1022 52 10000 4.6 240 23:59 03.05.2020
3829 Clouds 5 1022 52 10000 4.6 240 23:41 03.05.2020
3830 Clouds 5 1022 52 10000 4.6 240 23:23 03.05.2020
3831 Clouds 5 1022 44 10000 2.6 280 22:43 03.05.2020
3832 Clouds 5 1022 44 10000 2.6 280 22:24 03.05.2020
3833 Clouds 5 1022 38 10000 3.1 280 21:42 03.05.2020
3834 Clouds 5 1022 38 10000 3.1 280 21:22 03.05.2020
3835 Clouds 6 1022 30 10000 3.6 280 20:56 03.05.2020
3836 Clouds 6 1022 30 10000 3.6 280 20:38 03.05.2020
3837 Clouds 6 1022 30 10000 3.6 280 20:20 03.05.2020
3838 Clouds 6 1022 30 10000 3.6 280 20:20 03.05.2020
3839 Clouds 6 1022 35 10000 4.6 280 19:47 03.05.2020
3840 Clouds 6 1022 35 10000 4.6 280 19:47 03.05.2020
3841 Clouds 6 1022 35 10000 4.6 280 19:47 03.05.2020
3842 Clouds 6 1022 35 10000 4.6 280 19:47 03.05.2020
3843 Clouds 6 1022 35 10000 4.6 280 19:47 03.05.2020
3844 Clouds 6 1022 35 10000 4.6 280 19:27 03.05.2020
3845 Clouds 6 1022 35 10000 4.6 280 19:27 03.05.2020
3846 Clouds 6 1022 35 10000 4.6 280 19:27 03.05.2020
3847 Clouds 6 1022 35 10000 4.6 280 19:27 03.05.2020
3848 Clouds 6 1022 35 10000 4.6 280 19:27 03.05.2020
3849 Clouds 6 1023 38 10000 4.1 270 18:40 03.05.2020
3850 Clouds 6 1023 38 10000 4.1 270 18:21 03.05.2020
3851 Clouds 6 1023 35 10000 4.1 280 17:59 03.05.2020
3852 Clouds 6 1023 35 10000 4.1 280 17:40 03.05.2020
3853 Clouds 6 1023 35 10000 4.1 280 17:21 03.05.2020
3854 Clouds 6 1023 30 10000 4.6 290 16:45 03.05.2020
3855 Clouds 6 1023 30 10000 4.6 290 16:45 03.05.2020
3856 Clouds 6 1023 30 10000 4.6 290 16:20 03.05.2020
3857 Clouds 5 1023 25 10000 3.6 280 15:58 03.05.2020
3858 Clouds 5 1023 25 10000 3.6 280 15:39 03.05.2020
3859 Clouds 5 1023 25 10000 3.6 280 15:20 03.05.2020
3860 Clouds 5 1023 27 10000 2.6 290 14:58 03.05.2020
3861 Clouds 5 1023 27 10000 2.6 290 14:39 03.05.2020
3862 Clouds 5 1023 27 10000 2.6 290 14:20 03.05.2020
3863 Clouds 4 1022 29 10000 3.1 290 13:49 03.05.2020
3864 Clouds 4 1022 29 10000 3.1 290 13:49 03.05.2020
3865 Clouds 4 1022 29 10000 3.1 290 13:45 03.05.2020
3866 Clouds 4 1022 29 10000 3.1 290 13:45 03.05.2020
3867 Clouds 5 1022 25 10000 1 0 12:59 03.05.2020
3868 Clouds 5 1022 25 10000 1 0 12:41 03.05.2020
3869 Clouds 5 1022 25 10000 1 0 12:18 03.05.2020
3870 Clouds 3 1022 34 10000 1.5 0 11:55 03.05.2020
3871 Clouds 3 1022 34 10000 1.5 0 11:37 03.05.2020
3872 Clouds 3 1022 34 10000 1.5 0 11:18 03.05.2020
3873 Clouds 2 1022 37 10000 1 0 10:42 03.05.2020
3874 Clouds 2 1022 37 10000 1 0 10:42 03.05.2020
3875 Clouds 2 1022 37 10000 1 0 10:42 03.05.2020
3876 Clouds 2 1022 37 10000 1 0 10:42 03.05.2020
3877 Clouds 2 1022 37 10000 1 0 10:42 03.05.2020
3878 Clouds 2 1022 43 10000 1 0 09:57 03.05.2020
3879 Clouds 2 1022 43 10000 1 0 09:57 03.05.2020
3880 Clouds 2 1022 43 10000 1 0 09:57 03.05.2020
3881 Clouds 2 1022 43 10000 1 0 09:57 03.05.2020
3882 Clouds 2 1022 43 10000 1 0 09:57 03.05.2020
3883 Clouds 1 1022 43 10000 1 0 09:32 03.05.2020
3884 Clouds 1 1022 43 10000 1 0 09:32 03.05.2020
3885 Clouds 1 1022 43 10000 1 0 09:32 03.05.2020
3886 Clouds 1 1022 43 10000 1 0 09:29 03.05.2020
3887 Clouds -1 1022 58 10000 2.6 110 08:54 03.05.2020
3888 Clouds -1 1022 58 10000 2.6 110 08:54 03.05.2020
3889 Clouds -1 1022 58 10000 2.6 110 08:54 03.05.2020
3890 Clouds -1 1022 58 10000 2.6 110 08:54 03.05.2020
3891 Clouds -2 1022 58 10000 2.6 110 08:21 03.05.2020
3892 Clouds -2 1022 58 10000 2.6 110 08:21 03.05.2020
3893 Clouds -2 1022 58 10000 2.6 110 08:21 03.05.2020
3894 Clouds -2 1021 63 10000 2.6 110 07:38 03.05.2020
3895 Clouds -1 1021 63 10000 1.5 130 06:19 03.05.2020
3896 Clouds -1 1021 63 10000 1.5 130 05:46 03.05.2020
3897 Clear 0 1021 63 10000 2.1 170 04:46 03.05.2020
3898 Clear -1 1021 63 10000 2.1 170 04:23 03.05.2020
3899 Clear 1 1020 47 10000 2.1 140 02:57 03.05.2020
3900 Clear 1 1020 47 10000 2.1 140 02:24 03.05.2020
3901 Clear 1 1020 50 10000 2.1 140 01:44 03.05.2020
3902 Clear 1 1020 50 10000 2.1 140 01:24 03.05.2020
3903 Clear 3 1019 40 10000 3.1 30 00:42 03.05.2020
3904 Clear 3 1019 40 10000 3.1 30 00:21 03.05.2020
3905 Clear 3 1019 40 10000 3.1 30 00:21 03.05.2020
3906 Clear 3 1019 41 10000 7.7 360 23:59 02.05.2020
3907 Clear 3 1019 41 10000 7.7 360 23:41 02.05.2020
3908 Clear 4 1019 41 10000 7.7 360 23:21 02.05.2020
3909 Clear 4 1019 41 10000 7.2 10 22:43 02.05.2020
3910 Clear 4 1019 41 10000 7.2 10 22:23 02.05.2020
3911 Clear 4 1019 48 10000 7.2 10 21:56 02.05.2020
3912 Clouds 5 1018 38 10000 8.7 10 21:38 02.05.2020
3913 Clouds 5 1018 38 10000 8.7 10 21:18 02.05.2020
3914 Clouds 5 1018 38 10000 8.7 10 20:56 02.05.2020
3915 Clouds 5 1018 38 10000 8.7 10 20:37 02.05.2020
3916 Clouds 5 1018 38 10000 8.7 10 20:19 02.05.2020
3917 Clouds 5 1017 38 10000 6.7 360 19:55 02.05.2020
3918 Clouds 5 1017 38 10000 6.7 360 19:37 02.05.2020
3919 Clouds 5 1017 38 10000 6.7 360 19:18 02.05.2020
3920 Clouds 5 1017 35 10000 5.1 350 18:41 02.05.2020
3921 Clouds 5 1017 35 10000 5.1 350 18:22 02.05.2020
3922 Clouds 5 1017 35 10000 5.7 350 17:57 02.05.2020
3923 Clouds 5 1017 35 10000 5.7 350 17:39 02.05.2020
3924 Clouds 5 1017 35 10000 5.7 350 17:20 02.05.2020
3925 Clouds 4 1016 35 10000 7.2 360 16:58 02.05.2020
3926 Clouds 5 1016 35 10000 7.2 360 16:39 02.05.2020
3927 Clouds 5 1016 35 10000 7.2 360 16:21 02.05.2020
3928 Clouds 4 1016 35 10000 6.2 360 15:42 02.05.2020
3929 Clouds 5 1016 35 10000 6.2 360 15:20 02.05.2020
3930 Clouds 4 1016 44 10000 5.1 360 14:57 02.05.2020
3931 Clouds 4 1016 44 10000 5.1 360 14:39 02.05.2020
3932 Clouds 4 1016 44 10000 5.1 360 14:20 02.05.2020
3933 Clouds 3 1015 47 10000 6.2 10 13:40 02.05.2020
3934 Clouds 3 1015 47 10000 6.2 10 13:22 02.05.2020
3935 Clouds 3 1015 55 10000 5.7 350 12:44 02.05.2020
3936 Clouds 3 1015 55 10000 5.7 350 12:25 02.05.2020
3937 Clouds 2 1015 64 10000 4.1 350 11:59 02.05.2020
3938 Clouds 2 1015 64 10000 4.1 350 11:41 02.05.2020
3939 Clouds 2 1015 64 10000 4.1 350 11:22 02.05.2020
3940 Clouds 2 1015 64 10000 4.1 350 11:22 02.05.2020
3941 Clouds 2 1014 64 10000 2.6 160 10:58 02.05.2020
3942 Clouds 2 1014 64 10000 2.6 160 10:38 02.05.2020
3943 Clouds 2 1014 64 10000 2.6 160 10:20 02.05.2020
3944 Clouds 2 1014 64 10000 6.2 360 09:57 02.05.2020
3945 Clouds 2 1014 64 10000 6.2 360 09:38 02.05.2020
3946 Clouds 2 1014 64 10000 6.2 360 09:20 02.05.2020
3947 Clouds 2 1014 69 10000 4.1 350 08:46 02.05.2020
3948 Clouds 2 1014 69 10000 4.1 350 08:27 02.05.2020
3949 Clouds 2 1013 64 10000 0.5 0 07:48 02.05.2020
3950 Clouds 2 1013 64 10000 0.5 0 07:29 02.05.2020
3951 Clouds 2 1013 64 10000 0.5 0 07:29 02.05.2020
3952 Clouds 1 1013 74 10000 3.1 70 06:51 02.05.2020
3953 Clouds 2 1013 64 10000 4.1 70 05:30 02.05.2020
3954 Clouds 2 1012 64 10000 3.6 300 04:59 02.05.2020
3955 Clouds 2 1012 64 10000 3.6 300 04:25 02.05.2020
3956 Clouds 2 1013 64 10000 2.6 340 03:18 02.05.2020
3957 Clouds 3 1013 69 10000 3.1 340 02:26 02.05.2020
3958 Clouds 3 1012 60 10000 1.5 330 01:50 02.05.2020
3959 Clouds 3 1012 60 10000 1.5 330 01:50 02.05.2020
3960 Clouds 4 1012 60 10000 3.1 350 00:58 02.05.2020
3961 Clouds 4 1012 60 10000 3.1 350 00:36 02.05.2020
3962 Clouds 4 1012 60 10000 3.1 350 00:18 02.05.2020
3963 Rain 4 1012 60 10000 3.6 350 23:39 01.05.2020
3964 Rain 5 1012 60 10000 3.6 350 23:20 01.05.2020
3965 Clouds 6 1012 52 10000 1 0 22:56 01.05.2020
3966 Clouds 6 1012 52 10000 1 0 22:37 01.05.2020
3967 Clouds 6 1012 52 10000 1 0 22:18 01.05.2020
3968 Clouds 6 1012 52 10000 1 0 22:18 01.05.2020
3969 Clouds 5 1011 56 10000 4.1 70 21:56 01.05.2020
3970 Clouds 6 1011 56 10000 4.1 70 21:38 01.05.2020
3971 Clouds 6 1011 56 10000 4.1 70 21:18 01.05.2020
3972 Clouds 6 1011 56 10000 4.1 70 21:18 01.05.2020
3973 Clouds 6 1011 60 10000 5.7 40 20:56 01.05.2020
3974 Rain 7 1011 52 10000 5.7 20 20:37 01.05.2020
3975 Rain 7 1011 52 10000 5.7 20 20:18 01.05.2020
3976 Rain 6 1011 52 10000 5.7 20 19:42 01.05.2020
3977 Rain 6 1011 52 10000 5.7 20 19:42 01.05.2020
3978 Rain 6 1011 52 10000 5.7 20 19:22 01.05.2020
3979 Clouds 7 1011 48 10000 5.1 320 18:58 01.05.2020
3980 Clouds 7 1011 48 10000 5.1 320 18:39 01.05.2020
3981 Clouds 7 1011 48 10000 5.1 320 18:20 01.05.2020
3982 Clouds 7 1011 45 10000 4.1 310 17:57 01.05.2020
3983 Clouds 7 1011 45 10000 4.1 310 17:38 01.05.2020
3984 Clouds 7 1011 45 10000 4.1 310 17:20 01.05.2020
3985 Clouds 7 1011 48 10000 1.5 0 16:55 01.05.2020
3986 Clouds 7 1011 48 10000 1.5 0 16:55 01.05.2020
3987 Clouds 7 1011 48 10000 1.5 0 16:37 01.05.2020
3988 Clouds 7 1011 48 10000 1.5 0 16:19 01.05.2020
3989 Clouds 6 1011 52 10000 2.6 310 15:55 01.05.2020
3990 Clouds 6 1011 52 10000 2.6 310 15:36 01.05.2020
3991 Clouds 6 1011 52 10000 2.6 310 15:18 01.05.2020
3992 Clouds 6 1011 52 10000 1.5 340 14:41 01.05.2020
3993 Clouds 6 1011 52 10000 1.5 340 14:23 01.05.2020
3994 Clouds 6 1011 56 10000 2.6 350 13:41 01.05.2020
3995 Clouds 6 1011 56 10000 2.6 350 13:23 01.05.2020
3996 Clouds 5 1011 56 10000 3.1 60 12:58 01.05.2020
3997 Clouds 5 1011 56 10000 3.1 60 12:40 01.05.2020
3998 Clouds 5 1011 56 10000 3.1 60 12:20 01.05.2020
3999 Clouds 5 1011 56 10000 3.6 70 11:59 01.05.2020
4000 Clouds 5 1011 56 10000 3.6 70 11:40 01.05.2020
4001 Clouds 5 1011 56 10000 3.6 70 11:19 01.05.2020
4002 Clouds 5 1011 52 10000 3.1 70 10:41 01.05.2020
4003 Clouds 5 1011 52 10000 3.1 70 10:41 01.05.2020
4004 Clouds 5 1011 52 10000 3.1 70 10:20 01.05.2020
4005 Clouds 5 1010 52 10000 2.6 50 09:59 01.05.2020
4006 Clouds 5 1010 52 10000 2.6 50 09:41 01.05.2020
4007 Clouds 5 1010 52 10000 2.6 50 09:18 01.05.2020
4008 Clouds 5 1010 52 10000 2.6 80 08:43 01.05.2020
4009 Clouds 5 1010 52 10000 2.6 80 08:25 01.05.2020
4010 Clouds 5 1010 52 10000 1.5 70 07:55 01.05.2020
4011 Clouds 5 1010 52 10000 1.5 70 07:36 01.05.2020
4012 Clouds 5 1010 52 10000 2.1 100 06:58 01.05.2020
4013 Clouds 5 1010 52 10000 1 0 05:48 01.05.2020
4014 Clear 5 1010 52 10000 1 0 05:20 01.05.2020
4015 Clear 5 1010 52 10000 3.1 110 03:42 01.05.2020
4016 Clear 5 1010 52 10000 3.6 100 02:52 01.05.2020
4017 Clear 5 1010 52 10000 3.6 100 02:34 01.05.2020
4018 Clouds 5 1010 52 10000 3.1 90 01:47 01.05.2020
4019 Clouds 5 1010 52 10000 3.1 90 01:26 01.05.2020
4020 Clouds 7 1009 45 10000 4.6 80 00:40 01.05.2020
4021 Clear 7 1009 45 10000 4.6 80 00:20 01.05.2020
4022 Clear 8 1009 42 10000 5.1 80 23:57 30.04.2020
4023 Clear 8 1009 42 10000 5.1 80 23:38 30.04.2020
4024 Clear 8 1009 42 10000 5.1 80 23:38 30.04.2020
4025 Clouds 8 1008 39 10000 6.2 70 23:20 30.04.2020
4026 Clouds 8 1008 39 10000 6.2 70 22:55 30.04.2020
4027 Clouds 8 1008 39 10000 6.2 70 22:37 30.04.2020
4028 Clouds 8 1008 39 10000 6.2 70 22:18 30.04.2020
4029 Clouds 10 1008 31 10000 6.7 70 21:41 30.04.2020
4030 Clouds 10 1008 31 10000 6.7 70 21:22 30.04.2020
4031 Clouds 10 1007 31 10000 7.2 70 20:58 30.04.2020
4032 Clouds 10 1007 31 10000 7.2 70 20:40 30.04.2020
4033 Clear 10 1007 31 10000 7.2 70 20:18 30.04.2020
4034 Clear 10 1007 31 10000 8.2 90 19:46 30.04.2020
4035 Clear 10 1007 31 10000 8.2 90 19:26 30.04.2020
4036 Clear 10 1007 31 10000 7.7 70 18:59 30.04.2020
4037 Clear 10 1007 31 10000 7.7 70 18:39 30.04.2020
4038 Clear 10 1007 31 10000 7.7 70 18:21 30.04.2020
4039 Clear 10 1007 29 10000 4.1 80 17:58 30.04.2020
4040 Clear 10 1007 29 10000 4.1 80 17:39 30.04.2020
4041 Clear 10 1007 29 10000 4.1 80 17:20 30.04.2020
4042 Clouds 9 1006 37 10000 3.1 340 16:57 30.04.2020
4043 Clouds 10 1006 37 10000 3.1 340 16:38 30.04.2020
4044 Clouds 10 1006 37 10000 3.1 340 16:19 30.04.2020
4045 Clouds 9 1006 36 10000 2.6 350 15:48 30.04.2020
4046 Clouds 8 1006 36 10000 2.6 350 15:25 30.04.2020
4047 Clouds 8 1006 39 10000 3.1 360 14:57 30.04.2020
4048 Clouds 8 1006 39 10000 3.1 360 14:39 30.04.2020
4049 Clouds 8 1006 39 10000 3.1 360 14:19 30.04.2020
4050 Clear 7 1006 45 10000 2.6 330 13:55 30.04.2020
4051 Clear 7 1006 45 10000 2.6 330 13:36 30.04.2020
4052 Clear 7 1006 45 10000 2.6 330 13:18 30.04.2020
4053 Clear 6 1006 52 10000 2.1 340 12:41 30.04.2020
4054 Clear 6 1006 52 10000 2.1 340 12:20 30.04.2020
4055 Clear 5 1005 60 10000 1 0 11:58 30.04.2020
4056 Clear 5 1005 60 10000 1 0 11:36 30.04.2020
4057 Clear 5 1005 60 10000 1 0 11:18 30.04.2020
4058 Clear 4 1005 64 10000 2.6 60 10:41 30.04.2020
4059 Clear 4 1005 64 10000 2.6 60 10:22 30.04.2020
4060 Clear 4 1005 64 10000 2.6 60 10:22 30.04.2020
4061 Clear 4 1004 55 10000 4.6 80 09:58 30.04.2020
4062 Clear 4 1004 55 10000 4.6 80 09:39 30.04.2020
4063 Clear 3 1004 55 10000 4.6 80 09:21 30.04.2020
4064 Clear 2 1004 69 10000 3.1 120 08:49 30.04.2020
4065 Clouds 1 1004 69 10000 3.1 120 08:27 30.04.2020
4066 Clouds 2 1003 64 10000 3.6 290 07:58 30.04.2020
4067 Clouds 2 1003 64 10000 3.6 290 07:39 30.04.2020
4068 Clouds 2 1003 64 10000 3.6 290 07:20 30.04.2020
4069 Clouds 2 1003 69 10000 4.1 160 06:38 30.04.2020
4070 Clouds 3 1003 69 10000 7.2 360 05:49 30.04.2020
4071 Clouds 3 1003 69 10000 7.2 360 05:26 30.04.2020
4072 Clouds 3 1004 64 10000 2.6 0 04:25 30.04.2020
4073 Clouds 5 1004 56 10000 11.8 10 02:57 30.04.2020
4074 Clouds 5 1004 56 10000 11.8 10 02:57 30.04.2020
4075 Clouds 6 1004 56 10000 11.8 10 02:29 30.04.2020
4076 Clouds 6 1004 56 10000 7.2 10 01:48 30.04.2020
4077 Clouds 6 1004 56 10000 7.7 360 00:58 30.04.2020
4078 Clouds 6 1004 56 10000 7.7 360 00:36 30.04.2020
4079 Clouds 6 1004 56 10000 7.7 360 00:18 30.04.2020
4080 Clouds 7 1004 52 10000 7.7 360 23:42 29.04.2020
4081 Clouds 7 1004 52 10000 7.7 360 23:23 29.04.2020
4082 Clouds 8 1004 42 10000 6.7 360 22:59 29.04.2020
4083 Clouds 8 1004 42 10000 6.7 360 22:39 29.04.2020
4084 Clouds 8 1004 42 10000 6.7 360 22:20 29.04.2020
4085 Clouds 9 1004 39 10000 6.7 360 21:39 29.04.2020
4086 Clear 9 1004 39 10000 6.7 360 21:21 29.04.2020
4087 Clear 9 1005 43 10000 5.1 350 20:59 29.04.2020
4088 Clear 9 1005 43 10000 5.1 350 20:59 29.04.2020
4089 Clear 9 1005 43 10000 5.1 350 20:40 29.04.2020
4090 Clear 9 1005 43 10000 5.1 350 20:19 29.04.2020
4091 Clear 8 1005 64 10000 7.7 290 19:57 29.04.2020
4092 Clear 8 1005 64 10000 7.7 290 19:39 29.04.2020
4093 Clear 8 1005 65 10000 7.7 290 19:18 29.04.2020
4094 Clear 7 1006 65 10000 10.3 310 18:42 29.04.2020
4095 Clear 7 1006 65 10000 10.3 310 18:42 29.04.2020
4096 Clear 7 1006 65 10000 10.3 310 18:22 29.04.2020
4097 Clear 7 1006 65 10000 9.8 310 17:56 29.04.2020
4098 Clear 8 1006 65 10000 9.8 310 17:38 29.04.2020
4099 Clear 8 1006 65 10000 9.8 310 17:20 29.04.2020
4100 Clear 7 1007 52 10000 8.2 310 16:38 29.04.2020
4101 Clear 7 1007 52 10000 8.2 310 16:38 29.04.2020
4102 Clear 7 1007 52 10000 8.2 310 16:19 29.04.2020
4103 Clear 7 1007 56 10000 8.2 310 15:57 29.04.2020
4104 Clear 7 1007 56 10000 8.2 310 15:39 29.04.2020
4105 Clear 7 1007 56 10000 8.2 310 15:20 29.04.2020
4106 Clouds 6 1008 60 10000 6.7 320 14:46 29.04.2020
4107 Clouds 6 1008 60 10000 6.7 320 14:27 29.04.2020
4108 Clouds 6 1009 60 10000 7.7 310 13:59 29.04.2020
4109 Clouds 6 1009 60 10000 7.7 310 13:40 29.04.2020
4110 Clouds 6 1009 60 10000 7.7 310 13:20 29.04.2020
4111 Clouds 5 1009 60 10000 6.2 320 12:57 29.04.2020
4112 Clouds 5 1009 60 10000 6.2 320 12:39 29.04.2020
4113 Clouds 5 1009 60 10000 6.2 320 12:18 29.04.2020
4114 Clouds 5 1009 65 10000 4.6 320 11:40 29.04.2020
4115 Clouds 5 1009 65 10000 4.6 320 11:21 29.04.2020
4116 Clouds 4 1010 80 10000 2.6 330 10:58 29.04.2020
4117 Clouds 4 1010 80 10000 2.6 330 10:37 29.04.2020
4118 Clouds 4 1010 80 10000 2.6 330 10:19 29.04.2020
4119 Clear 4 1010 86 10000 3.1 310 09:42 29.04.2020
4120 Clear 4 1010 86 10000 3.1 310 09:23 29.04.2020
4121 Fog 2 1010 75 10000 1 150 08:56 29.04.2020
4122 Fog 2 1010 75 10000 1 150 08:56 29.04.2020
4123 Fog 2 1010 75 10000 1 150 08:37 29.04.2020
4124 Fog 2 1010 77 10000 1 150 08:19 29.04.2020
4125 Clouds 2 1011 77 10000 1 130 07:41 29.04.2020
4126 Clouds 2 1011 78 10000 1 130 07:23 29.04.2020
4127 Clouds 2 1011 78 10000 1.5 150 06:50 29.04.2020
4128 Clouds 2 1011 79 10000 1.5 150 06:30 29.04.2020
4129 Clear 2 1012 80 10000 2.6 180 05:21 29.04.2020
4130 Clear 3 1012 80 10000 2.6 190 04:39 29.04.2020
4131 Clear 3 1012 81 10000 2.6 190 04:18 29.04.2020
4132 Clouds 5 1013 82 10000 2.6 310 02:40 29.04.2020
4133 Clear 5 1014 82 10000 3.6 310 01:44 29.04.2020
4134 Clear 6 1014 80 10000 3.6 310 01:22 29.04.2020
4135 Clear 6 1014 80 10000 4.1 320 00:41 29.04.2020
4136 Clear 6 1014 79 10000 4.1 320 00:19 29.04.2020
4137 Clear 7 1015 79 10000 3.6 320 23:49 28.04.2020
4138 Clear 7 1015 77 10000 3.6 320 23:24 28.04.2020
4139 Clear 7 1015 65 10000 4.1 320 22:55 28.04.2020
4140 Clear 7 1015 65 10000 4.1 320 22:37 28.04.2020
4141 Clear 7 1015 65 10000 4.1 320 22:18 28.04.2020
4142 Clear 8 1015 61 10000 4.1 320 21:55 28.04.2020
4143 Clear 8 1015 61 10000 4.1 320 21:37 28.04.2020
4144 Clear 8 1015 61 10000 4.1 320 21:19 28.04.2020
4145 Clouds 8 1015 74 10000 5.1 300 20:55 28.04.2020
4146 Clouds 8 1015 74 10000 5.1 300 20:36 28.04.2020
4147 Clouds 8 1015 72 10000 5.1 300 20:18 28.04.2020
4148 Clouds 8 1016 57 10000 4.1 320 19:42 28.04.2020
4149 Clouds 8 1016 57 10000 4.1 320 19:22 28.04.2020
4150 Clouds 8 1016 65 10000 5.1 320 18:59 28.04.2020
4151 Clouds 8 1016 65 10000 5.1 320 18:40 28.04.2020
4152 -273 0 0 0 0 0 18:19 28.04.2020
4153 Clouds 8 1017 61 10000 5.7 290 17:57 28.04.2020
4154 Clouds 8 1017 61 10000 5.7 290 17:36 28.04.2020
4155 Clouds 8 1017 61 10000 5.7 290 17:18 28.04.2020
4156 Clouds 8 1017 61 10000 5.7 290 17:18 28.04.2020
4157 Clouds 8 1017 65 10000 5.1 310 16:43 28.04.2020
4158 Clouds 8 1017 65 10000 5.1 310 16:23 28.04.2020
4159 Clouds 8 1017 61 10000 4.1 320 15:58 28.04.2020
4160 Clouds 8 1017 61 10000 4.1 320 15:39 28.04.2020
4161 Clouds 8 1017 61 10000 4.1 320 15:21 28.04.2020
4162 Clouds 8 1018 65 10000 3.6 320 14:59 28.04.2020
4163 Clouds 8 1018 65 10000 3.6 320 14:41 28.04.2020
4164 Clouds 8 1018 65 10000 3.6 320 14:21 28.04.2020
4165 Clouds 7 1018 65 10000 3.1 310 13:58 28.04.2020
4166 Clouds 7 1018 65 10000 3.1 310 13:38 28.04.2020
4167 Clouds 7 1018 65 10000 3.1 310 13:19 28.04.2020
4168 Clouds 7 1018 65 10000 3.1 290 12:46 28.04.2020
4169 Clouds 7 1018 65 10000 3.1 290 12:27 28.04.2020
4170 Clouds 6 1019 70 10000 2.1 290 11:59 28.04.2020
4171 Clouds 6 1019 70 10000 2.1 290 11:39 28.04.2020
4172 Clouds 6 1019 70 10000 2.1 290 11:20 28.04.2020
4173 Clouds 6 1019 70 10000 1 0 10:39 28.04.2020
4174 Clouds 6 1019 70 10000 1 0 10:39 28.04.2020
4175 Clouds 6 1019 70 10000 1 0 10:19 28.04.2020
4176 Clouds 5 1020 75 10000 0.58 253 09:59 28.04.2020
4177 Clouds 5 1020 75 10000 0.58 253 09:40 28.04.2020
4178 Clouds 5 1020 75 10000 1.02 233 09:22 28.04.2020
4179 Clouds 5 1020 76 10000 1 0 08:46 28.04.2020
4180 Clouds 5 1020 77 10000 1 0 08:27 28.04.2020
4181 Clouds 5 1020 77 10000 1 280 07:58 28.04.2020
4182 Clouds 5 1020 77 10000 1 280 07:38 28.04.2020
4183 Clouds 5 1020 77 10000 1 280 07:18 28.04.2020
4184 Clouds 5 1020 77 10000 1 280 07:18 28.04.2020
4185 Clouds 5 1020 76 10000 1.5 260 06:28 28.04.2020
4186 Clouds 6 1021 76 10000 1.5 260 05:45 28.04.2020
4187 Clouds 6 1021 77 10000 1.5 260 05:26 28.04.2020
4188 Clouds 6 1021 77 10000 2.1 240 04:33 28.04.2020
4189 Clouds 6 1022 70 10000 3.1 250 02:37 28.04.2020
4190 Clouds 6 1022 70 10000 3.6 250 01:25 28.04.2020
4191 Clouds 6 1022 70 10000 3.6 250 01:25 28.04.2020
4192 Clouds 6 1022 70 10000 3.6 220 00:59 28.04.2020
4193 Clouds 6 1022 70 10000 3.6 220 00:27 28.04.2020
4194 Clouds 6 1022 65 10000 3.6 220 23:48 27.04.2020
4195 Clouds 6 1022 65 10000 3.6 220 23:25 27.04.2020
4196 Clouds 7 1022 65 10000 3.6 230 22:58 27.04.2020
4197 Clouds 7 1022 65 10000 3.6 230 22:40 27.04.2020
4198 Clouds 7 1022 65 10000 3.6 230 22:22 27.04.2020
4199 Clouds 8 1022 65 10000 3.1 300 21:56 27.04.2020
4200 Clouds 8 1022 65 10000 3.1 300 21:38 27.04.2020
4201 Clouds 8 1022 65 10000 3.1 300 21:18 27.04.2020
4202 Clouds 8 1022 65 10000 3.6 310 20:55 27.04.2020
4203 Clouds 8 1022 65 10000 3.6 310 20:37 27.04.2020
4204 Clouds 8 1022 65 10000 3.6 310 20:18 27.04.2020
4205 Clouds 9 1022 70 10000 3.1 170 19:40 27.04.2020
4206 Clouds 8 1022 68 10000 3.1 170 19:22 27.04.2020
4207 Clouds 8 1022 68 10000 4.6 150 18:59 27.04.2020
4208 Clouds 8 1022 68 10000 4.6 150 18:40 27.04.2020
4209 Clouds 9 1022 67 10000 4.6 150 18:19 27.04.2020
4210 Clouds 9 1022 67 10000 4.6 150 18:19 27.04.2020
4211 Clouds 9 1022 53 10000 6.2 180 17:58 27.04.2020
4212 Clouds 10 1022 53 10000 6.2 180 17:39 27.04.2020
4213 Clouds 10 1022 53 10000 6.2 180 17:19 27.04.2020
4214 Clouds 9 1022 57 10000 5.7 150 16:40 27.04.2020
4215 Clouds 9 1022 57 10000 5.7 150 16:40 27.04.2020
4216 Clouds 9 1022 57 10000 5.7 150 16:22 27.04.2020
4217 Clouds 9 1023 63 10000 2.6 270 15:57 27.04.2020
4218 Clouds 9 1023 63 10000 2.6 270 15:38 27.04.2020
4219 Clouds 9 1023 58 10000 2.6 270 15:19 27.04.2020
4220 Clouds 9 1023 45 10000 3.1 60 14:58 27.04.2020
4221 Clouds 9 1023 45 10000 3.1 60 14:40 27.04.2020
4222 Clouds 9 1023 45 10000 3.1 60 14:19 27.04.2020
4223 Clouds 9 1023 57 10000 3.6 120 13:56 27.04.2020
4224 Clouds 9 1023 57 10000 3.6 120 13:36 27.04.2020
4225 Clouds 9 1023 57 10000 3.6 120 13:18 27.04.2020
4226 Clouds 8 1023 61 10000 2.6 100 12:42 27.04.2020
4227 Clouds 8 1023 61 10000 2.6 100 12:21 27.04.2020
4228 Clouds 8 1023 65 10000 3.1 110 11:42 27.04.2020
4229 Clouds 8 1023 65 10000 3.1 110 11:22 27.04.2020
4230 -273 0 0 0 0 0 10:59 27.04.2020
4231 Clouds 7 1023 65 10000 2.6 70 10:40 27.04.2020
4232 Clouds 7 1023 65 10000 2.6 70 10:22 27.04.2020
4233 Clouds 6 1023 66 10000 2.1 80 09:55 27.04.2020
4234 Clouds 6 1023 66 10000 2.1 80 09:36 27.04.2020
4235 Clouds 6 1023 77 10000 2.1 80 09:18 27.04.2020
4236 Clouds 5 1023 80 10000 0.99 96 08:45 27.04.2020
4237 Clouds 5 1023 80 10000 0.99 96 08:27 27.04.2020
4238 Clouds 5 1023 80 10000 0.99 96 07:45 27.04.2020
4239 Clouds 5 1023 80 10000 0.99 96 07:23 27.04.2020
4240 Clouds 4 1023 86 10000 1.5 150 06:57 27.04.2020
4241 Clouds 4 1023 86 10000 1.5 150 06:28 27.04.2020
4242 Clouds 5 1023 80 10000 2.1 200 05:55 27.04.2020
4243 Clouds 6 1023 75 10000 1.32 31 04:55 27.04.2020
4244 Clouds 5 1023 75 10000 1.32 31 04:36 27.04.2020
4245 Clouds 5 1024 80 10000 1.32 31 03:45 27.04.2020
4246 Clouds 6 1023 75 10000 1.5 300 01:51 27.04.2020
4247 Clouds 6 1023 75 10000 1.5 300 01:20 27.04.2020
4248 Clouds 7 1023 70 10000 2.1 260 00:21 27.04.2020
4249 Clouds 7 1023 70 10000 2.1 260 00:21 27.04.2020
4250 Clouds 7 1023 70 10000 1.5 330 23:59 26.04.2020
4251 Clouds 7 1023 70 10000 1.5 330 23:41 26.04.2020
4252 Clouds 7 1023 70 10000 1.5 330 23:22 26.04.2020
4253 Clouds 8 1023 52 10000 2.1 330 22:59 26.04.2020
4254 Clouds 8 1023 52 10000 2.1 330 22:40 26.04.2020
4255 Clouds 8 1023 52 10000 2.1 330 22:21 26.04.2020
4256 Clouds 8 1023 49 10000 2.6 330 21:58 26.04.2020
4257 Clouds 9 1023 49 10000 2.6 330 21:39 26.04.2020
4258 Clouds 9 1023 49 10000 2.6 330 21:19 26.04.2020
4259 Clouds 9 1023 49 10000 2.1 340 20:55 26.04.2020
4260 Clouds 9 1023 49 10000 2.1 340 20:37 26.04.2020
4261 Clouds 9 1023 49 10000 2.1 340 20:19 26.04.2020
4262 Clouds 9 1023 49 10000 2.1 340 20:19 26.04.2020
4263 Clouds 9 1022 66 10000 4.1 310 19:57 26.04.2020
4264 Clouds 9 1022 66 10000 4.1 310 19:37 26.04.2020
4265 Clouds 9 1022 66 10000 4.1 310 19:19 26.04.2020
4266 Clouds 9 1022 57 10000 3.1 290 18:44 26.04.2020
4267 Clouds 9 1022 57 10000 3.1 290 18:24 26.04.2020
4268 Clouds 9 1022 57 10000 4.6 280 17:45 26.04.2020
4269 Clouds 9 1022 57 10000 4.6 280 17:24 26.04.2020
4270 Clouds 9 1022 65 10000 2.6 320 17:00 26.04.2020
4271 Clouds 9 1022 65 10000 2.6 320 16:40 26.04.2020
4272 Clouds 9 1022 65 10000 2.6 320 16:21 26.04.2020
4273 Clouds 8 1022 61 10000 2.6 330 15:58 26.04.2020
4274 Clouds 8 1022 61 10000 2.6 330 15:38 26.04.2020
4275 Clouds 8 1022 61 10000 2.6 330 15:20 26.04.2020
4276 Clouds 8 1022 65 10000 1.5 340 14:55 26.04.2020
4277 Clouds 8 1022 65 10000 1.5 340 14:36 26.04.2020
4278 Clouds 8 1022 65 10000 1.5 340 14:18 26.04.2020
4279 Clouds 8 1022 65 10000 2.6 280 13:43 26.04.2020
4280 Clouds 8 1022 65 10000 2.6 280 13:23 26.04.2020
4281 Clouds 8 1021 49 10000 0.5 0 12:58 26.04.2020
4282 Clouds 8 1021 49 10000 0.5 0 12:40 26.04.2020
4283 Clouds 8 1021 49 10000 0.5 0 12:21 26.04.2020
4284 Clouds 7 1021 56 10000 1.54 119 11:59 26.04.2020
4285 Clouds 7 1021 56 10000 1.54 119 11:40 26.04.2020
4286 Clouds 7 1021 56 10000 1.54 119 11:21 26.04.2020
4287 Clouds 5 1021 65 10000 1.54 119 10:56 26.04.2020
4288 Clouds 5 1021 65 10000 1.54 119 10:37 26.04.2020
4289 Clouds 5 1021 65 10000 1.54 119 10:18 26.04.2020
4290 Clouds 4 1021 64 10000 1 120 09:40 26.04.2020
4291 Clouds 4 1021 64 10000 1 120 09:21 26.04.2020
4292 Clouds 3 1020 64 10000 0.97 116 08:56 26.04.2020
4293 Clouds 3 1020 64 10000 0.97 116 08:37 26.04.2020
4294 Clouds 3 1020 64 10000 0.97 116 08:18 26.04.2020
4295 Clouds 4 1020 60 10000 2.6 70 07:46 26.04.2020
4296 Clouds 4 1020 60 10000 2.6 70 07:21 26.04.2020
4297 Clouds 4 1020 60 10000 2.6 80 06:43 26.04.2020
4298 Clouds 4 1020 56 10000 3.1 80 05:57 26.04.2020
4299 Clouds 4 1020 56 10000 3.1 80 05:38 26.04.2020
4300 Clouds 5 1019 56 10000 2.6 70 04:56 26.04.2020
4301 Clouds 5 1019 56 10000 2.6 70 04:22 26.04.2020
4302 Clouds 5 1020 60 10000 2.6 70 02:51 26.04.2020
4303 Clouds 5 1020 60 10000 2.6 70 02:31 26.04.2020
4304 Clouds 6 1019 56 10000 2.1 120 01:46 26.04.2020
4305 Clouds 7 1019 56 10000 2.1 120 01:26 26.04.2020
4306 Clouds 7 1019 75 10000 2.1 100 00:39 26.04.2020
4307 Clouds 7 1019 65 10000 2.1 100 00:19 26.04.2020
4308 Clouds 9 1019 57 10000 2.6 160 23:39 25.04.2020
4309 Clouds 9 1019 57 10000 2.6 160 23:39 25.04.2020
4310 Clouds 9 1019 57 10000 2.6 160 23:21 25.04.2020
4311 Clouds 9 1019 61 10000 1.5 170 22:58 25.04.2020
4312 Clouds 9 1019 61 10000 1.5 170 22:40 25.04.2020
4313 Clouds 9 1019 61 10000 1.5 170 22:19 25.04.2020
4314 Rain 9 1018 61 10000 2.1 230 21:54 25.04.2020
4315 Rain 9 1018 61 10000 2.1 230 21:36 25.04.2020
4316 Rain 9 1018 61 10000 2.1 230 21:18 25.04.2020
4317 Rain 10 1018 53 10000 1 0 20:42 25.04.2020
4318 Rain 10 1018 53 10000 1 0 20:22 25.04.2020
4319 Clouds 10 1018 53 10000 2.6 0 19:55 25.04.2020
4320 Clouds 11 1018 53 10000 2.6 0 19:37 25.04.2020
4321 Clouds 11 1018 53 10000 2.6 0 19:19 25.04.2020
4322 Clouds 11 1018 43 10000 4.1 90 18:41 25.04.2020
4323 Clouds 11 1018 43 10000 4.1 90 18:21 25.04.2020
4324 Clouds 11 1018 51 10000 5.1 90 17:58 25.04.2020
4325 Clouds 11 1018 51 10000 5.1 90 17:38 25.04.2020
4326 Clouds 11 1018 51 10000 5.1 90 17:19 25.04.2020
4327 Clouds 11 1018 51 10000 3.1 350 16:57 25.04.2020
4328 Clouds 10 1018 51 10000 3.1 350 16:38 25.04.2020
4329 Clouds 10 1018 51 10000 3.1 350 16:19 25.04.2020
4330 Clouds 10 1018 46 10000 5.1 10 15:41 25.04.2020
4331 Clouds 9 1018 46 10000 5.1 10 15:21 25.04.2020
4332 Clouds 9 1018 46 10000 2.6 20 14:58 25.04.2020
4333 Clouds 9 1018 46 10000 2.6 20 14:58 25.04.2020
4334 Clouds 9 1018 46 10000 2.6 20 14:39 25.04.2020
4335 Clouds 9 1018 46 10000 2.6 20 14:20 25.04.2020
4336 Clouds 9 1018 46 10000 2.6 20 14:20 25.04.2020
4337 Clear 7 1017 56 10000 2.1 340 13:54 25.04.2020
4338 Clear 7 1017 56 10000 2.1 340 13:36 25.04.2020
4339 Clear 7 1017 56 10000 2.1 340 13:18 25.04.2020
4340 Clear 6 1017 70 10000 2.1 200 12:42 25.04.2020
4341 Clouds 6 1017 70 10000 2.1 200 12:21 25.04.2020
4342 Clouds 5 1017 75 10000 3.1 250 11:59 25.04.2020
4343 Clouds 5 1017 75 10000 3.1 250 11:41 25.04.2020
4344 Clouds 5 1017 75 10000 3.1 250 11:23 25.04.2020
4345 Clouds 5 1017 71 10000 1 0 10:54 25.04.2020
4346 Clouds 5 1017 71 10000 1 0 10:36 25.04.2020
4347 Clouds 5 1017 71 10000 1 0 10:18 25.04.2020
4348 Clouds 3 1017 71 10000 3.6 140 09:41 25.04.2020
4349 Clouds 3 1017 82 10000 3.6 140 09:21 25.04.2020
4350 Clouds 3 1017 82 10000 1.5 310 08:41 25.04.2020
4351 Clouds 3 1017 82 10000 1.5 310 08:22 25.04.2020
4352 Clouds 3 1016 82 10000 2.6 170 07:59 25.04.2020
4353 Clouds 3 1016 82 10000 2.6 170 07:41 25.04.2020
4354 Clouds 4 1016 69 10000 0.5 0 06:57 25.04.2020
4355 Clouds 4 1016 69 10000 0.5 0 06:38 25.04.2020
4356 Clouds 4 1016 80 10000 1.5 100 05:42 25.04.2020
4357 Clouds 4 1016 80 10000 1.5 100 05:24 25.04.2020
4358 Clear 5 1016 80 10000 1 130 03:56 25.04.2020
4359 Clouds 6 1015 75 10000 2.6 160 02:36 25.04.2020
4360 Clouds 6 1015 70 10000 0.5 0 01:56 25.04.2020
4361 Clouds 7 1015 70 10000 0.5 0 01:38 25.04.2020
4362 Clouds 7 1015 70 10000 0.5 0 01:19 25.04.2020
4363 Clouds 6 1015 75 10000 0.5 0 00:39 25.04.2020
4364 Clouds 6 1015 75 10000 0.5 0 00:18 25.04.2020
4365 Clouds 7 1015 65 10000 2.1 40 23:41 24.04.2020
4366 Clouds 7 1015 65 10000 2.1 40 23:20 24.04.2020
4367 Clouds 7 1015 70 10000 1.5 360 22:41 24.04.2020
4368 Clouds 7 1015 70 10000 1.5 360 22:21 24.04.2020
4369 Clouds 7 1015 70 10000 1.5 350 21:59 24.04.2020
4370 Clouds 7 1015 70 10000 1.5 350 21:40 24.04.2020
4371 Clouds 7 1015 70 10000 1.5 350 21:22 24.04.2020
4372 Clouds 7 1015 75 10000 2.1 350 20:59 24.04.2020
4373 Clouds 7 1015 75 10000 2.1 350 20:40 24.04.2020
4374 Clouds 7 1015 75 10000 2.1 350 20:19 24.04.2020
4375 Rain 7 1015 70 10000 2.6 320 19:54 24.04.2020
4376 Rain 7 1015 70 10000 2.6 320 19:36 24.04.2020
4377 Rain 7 1015 70 10000 2.6 320 19:18 24.04.2020
4378 Rain 7 1015 75 10000 1.5 350 18:40 24.04.2020
4379 Rain 7 1015 75 10000 1.5 350 18:22 24.04.2020
4380 Rain 7 1015 75 10000 1.5 90 17:43 24.04.2020
4381 Rain 7 1015 75 10000 1.5 90 17:24 24.04.2020
4382 Rain 7 1015 75 10000 3.1 110 16:59 24.04.2020
4383 Rain 7 1015 75 10000 3.1 110 16:41 24.04.2020
4384 Rain 7 1015 75 10000 3.1 110 16:22 24.04.2020
4385 Rain 7 1015 75 10000 4.1 90 15:59 24.04.2020
4386 Rain 7 1015 75 10000 4.1 90 15:38 24.04.2020
4387 Rain 7 1015 75 10000 4.1 90 15:18 24.04.2020
4388 Rain 6 1016 75 10000 6.2 80 14:40 24.04.2020
4389 Rain 6 1016 75 10000 6.2 80 14:21 24.04.2020
4390 Rain 7 1016 70 10000 4.6 80 13:57 24.04.2020
4391 Rain 7 1016 70 10000 4.6 80 13:57 24.04.2020
4392 Rain 7 1016 70 10000 4.6 80 13:39 24.04.2020
4393 Rain 7 1016 70 10000 4.6 80 13:20 24.04.2020
4394 Clouds 7 1016 70 10000 5.7 100 12:42 24.04.2020
4395 Clouds 7 1016 70 10000 5.7 100 12:24 24.04.2020
4396 Rain 6 1016 70 10000 4.6 90 11:58 24.04.2020
4397 Rain 6 1016 70 10000 4.6 90 11:39 24.04.2020
4398 Rain 6 1016 70 10000 4.6 90 11:20 24.04.2020
4399 Clouds 6 1017 70 10000 6.2 80 10:55 24.04.2020
4400 Clouds 6 1017 70 10000 6.2 80 10:37 24.04.2020
4401 Clouds 6 1017 70 10000 6.2 80 10:19 24.04.2020
4402 Rain 6 1017 70 10000 8.2 100 09:45 24.04.2020
4403 Rain 6 1017 70 10000 8.2 100 09:24 24.04.2020
4404 Rain 5 1017 75 10000 8.7 100 08:58 24.04.2020
4405 Rain 5 1017 75 10000 8.7 100 08:39 24.04.2020
4406 Rain 5 1017 75 10000 8.7 100 08:18 24.04.2020
4407 Rain 5 1018 75 10000 6.2 90 07:46 24.04.2020
4408 Rain 5 1018 75 10000 6.2 90 07:26 24.04.2020
4409 Rain 6 1018 70 10000 6.7 100 06:57 24.04.2020
4410 Rain 6 1018 70 10000 6.7 100 06:37 24.04.2020
4411 Clouds 6 1019 70 10000 6.7 120 05:48 24.04.2020
4412 Clouds 6 1020 75 10000 5.7 110 04:30 24.04.2020
4413 Rain 6 1020 75 10000 5.7 120 03:24 24.04.2020
4414 Clouds 7 1021 70 10000 5.7 120 02:41 24.04.2020
4415 Clouds 7 1021 70 10000 5.7 120 02:20 24.04.2020
4416 Clouds 7 1021 65 10000 4.6 130 01:24 24.04.2020
4417 Clouds 7 1022 70 10000 5.7 130 00:43 24.04.2020
4418 Clouds 7 1022 70 10000 5.7 130 00:18 24.04.2020
4419 Clouds 7 1022 70 10000 4.6 130 23:44 23.04.2020
4420 Clouds 7 1022 70 10000 4.6 130 23:26 23.04.2020
4421 Clouds 7 1023 70 10000 3.6 130 22:55 23.04.2020
4422 Clouds 7 1023 70 10000 3.6 130 22:37 23.04.2020
4423 Clouds 7 1023 70 10000 3.6 130 22:19 23.04.2020
4424 Clouds 8 1023 65 10000 5.7 140 21:56 23.04.2020
4425 Clouds 8 1023 65 10000 5.7 140 21:56 23.04.2020
4426 Clouds 8 1023 65 10000 5.7 140 21:38 23.04.2020
4427 Clouds 8 1023 65 10000 5.7 140 21:20 23.04.2020
4428 Clouds 8 1023 70 10000 6.7 140 20:54 23.04.2020
4429 Clouds 8 1023 70 10000 6.7 140 20:36 23.04.2020
4430 Clouds 8 1023 70 10000 6.7 140 20:36 23.04.2020
4431 Clouds 8 1023 70 10000 6.7 140 20:18 23.04.2020
4432 Clouds 8 1023 75 10000 6.2 140 19:42 23.04.2020
4433 Clouds 8 1023 75 10000 6.2 140 19:42 23.04.2020
4434 Clouds 8 1023 75 10000 6.2 140 19:22 23.04.2020
4435 Clouds 8 1024 75 10000 5.7 140 19:00 23.04.2020
4436 Clouds 8 1024 75 10000 5.7 140 18:59 23.04.2020
4437 Clouds 8 1024 75 10000 5.7 140 18:39 23.04.2020
4438 Clouds 8 1024 75 10000 5.7 140 18:21 23.04.2020
4439 Clouds 8 1024 81 10000 5.1 120 17:57 23.04.2020
4440 Clouds 8 1024 81 10000 5.1 120 17:38 23.04.2020
4441 Clouds 8 1024 81 10000 5.1 120 17:20 23.04.2020
4442 Rain 8 1025 75 10000 6.7 100 16:44 23.04.2020
4443 Rain 8 1025 75 10000 6.7 100 16:44 23.04.2020
4444 Rain 8 1025 75 10000 6.7 100 16:21 23.04.2020
4445 Clouds 8 1026 70 10000 6.2 100 15:59 23.04.2020
4446 Clouds 8 1026 70 10000 6.2 100 15:40 23.04.2020
4447 Clouds 8 1026 70 10000 6.2 100 15:21 23.04.2020
4448 Clouds 7 1026 75 10000 5.7 100 14:41 23.04.2020
4449 Clouds 7 1026 75 10000 5.7 100 14:22 23.04.2020
4450 Clouds 7 1026 70 10000 4.1 90 13:59 23.04.2020
4451 Clouds 6 1026 70 10000 4.1 90 13:40 23.04.2020
4452 Clouds 6 1026 70 10000 4.1 90 13:22 23.04.2020
4453 Clouds 6 1026 70 10000 5.7 90 12:57 23.04.2020
4454 Clouds 6 1026 70 10000 5.7 90 12:38 23.04.2020
4455 Clouds 6 1026 70 10000 5.7 90 12:20 23.04.2020
4456 Clouds 6 1026 70 10000 5.1 80 11:47 23.04.2020
4457 Clouds 6 1026 70 10000 5.1 80 11:27 23.04.2020
4458 Clouds 6 1027 70 10000 4.6 80 10:58 23.04.2020
4459 Clouds 6 1027 70 10000 4.6 80 10:39 23.04.2020
4460 Clouds 6 1027 70 10000 4.6 80 10:20 23.04.2020
4461 Clouds 5 1027 75 10000 3.1 90 09:40 23.04.2020
4462 Clouds 5 1027 75 10000 3.1 90 09:18 23.04.2020
4463 Clouds 5 1027 75 10000 3.1 90 09:18 23.04.2020
4464 Clouds 5 1027 75 10000 3.6 100 08:50 23.04.2020
4465 Clouds 5 1027 75 10000 3.6 100 08:30 23.04.2020
4466 Clouds 5 1028 75 10000 4.6 90 07:57 23.04.2020
4467 Clouds 5 1028 75 10000 4.6 90 07:39 23.04.2020
4468 Clouds 5 1028 75 10000 4.6 90 07:39 23.04.2020
4469 Clouds 4 1028 80 10000 4.6 100 07:19 23.04.2020
4470 Clouds 4 1028 80 10000 4.6 100 06:44 23.04.2020
4471 Clouds 4 1029 80 10000 3.1 110 05:50 23.04.2020
4472 Clouds 4 1029 80 10000 3.1 110 05:21 23.04.2020
4473 Clouds 5 1029 80 10000 2.6 120 03:32 23.04.2020
4474 Rain 5 1030 80 10000 4.1 140 02:23 23.04.2020
4475 Clouds 5 1030 75 10000 4.1 120 01:38 23.04.2020
4476 Clouds 5 1030 80 10000 3.1 110 00:55 23.04.2020
4477 Clouds 5 1030 80 10000 3.1 110 00:27 23.04.2020
4478 Rain 6 1030 75 10000 4.1 140 23:58 22.04.2020
4479 Rain 6 1030 75 10000 4.1 140 23:40 22.04.2020
4480 Rain 6 1030 75 10000 4.1 140 23:19 22.04.2020
4481 Clouds 7 1030 65 10000 4.1 120 22:40 22.04.2020
4482 Clouds 7 1030 65 10000 4.1 120 22:20 22.04.2020
4483 Rain 7 1030 70 10000 5.1 130 21:59 22.04.2020
4484 Rain 7 1030 70 10000 5.1 130 21:40 22.04.2020
4485 Rain 7 1030 70 10000 5.1 130 21:22 22.04.2020
4486 Clouds 8 1030 61 10000 4.6 160 20:57 22.04.2020
4487 Clouds 8 1030 61 10000 4.6 160 20:39 22.04.2020
4488 Clouds 8 1030 61 10000 4.6 160 20:18 22.04.2020
4489 Clouds 8 1030 61 10000 5.7 190 19:57 22.04.2020
4490 Clouds 8 1030 61 10000 5.7 190 19:37 22.04.2020
4491 Clouds 8 1030 61 10000 5.7 190 19:18 22.04.2020
4492 Clouds 9 1030 57 10000 5.7 180 18:56 22.04.2020
4493 Clouds 9 1030 57 10000 5.7 180 18:38 22.04.2020
4494 Clouds 9 1030 57 10000 5.7 180 18:20 22.04.2020
4495 Rain 7 1031 75 10000 5.1 180 17:43 22.04.2020
4496 Rain 7 1031 75 10000 5.1 180 17:25 22.04.2020
4497 Clouds 8 1030 61 10000 5.1 180 16:56 22.04.2020
4498 Clouds 8 1030 61 10000 5.1 180 16:38 22.04.2020
4499 Clouds 8 1030 61 10000 5.1 180 16:19 22.04.2020
4500 Clouds 8 1031 65 10000 4.6 150 15:41 22.04.2020
4501 Clouds 8 1031 65 10000 4.6 150 15:22 22.04.2020
4502 Rain 7 1031 75 10000 7.2 200 14:58 22.04.2020
4503 Rain 7 1031 75 10000 7.2 200 14:38 22.04.2020
4504 Rain 7 1031 75 10000 7.2 200 14:19 22.04.2020
4505 Clouds 8 1031 75 10000 3.6 170 13:45 22.04.2020
4506 Clouds 8 1031 75 10000 3.6 170 13:21 22.04.2020
4507 Rain 6 1031 81 10000 5.7 180 12:57 22.04.2020
4508 Rain 6 1031 81 10000 5.7 180 12:39 22.04.2020
4509 Rain 6 1031 81 10000 5.7 180 12:21 22.04.2020
4510 Clouds 7 1030 75 10000 4.1 140 11:40 22.04.2020
4511 Clouds 7 1030 75 10000 4.1 140 11:20 22.04.2020
4512 Clouds 6 1030 81 10000 3.1 130 10:59 22.04.2020
4513 Clouds 5 1030 81 10000 3.1 130 10:39 22.04.2020
4514 Clouds 5 1030 81 10000 3.1 130 10:19 22.04.2020
4515 Clouds 5 1030 86 10000 2.1 110 09:39 22.04.2020
4516 Clouds 5 1030 86 10000 2.1 110 09:20 22.04.2020
4517 Clouds 3 1030 93 10000 2.1 120 08:56 22.04.2020
4518 Clouds 3 1030 93 10000 2.1 120 08:56 22.04.2020
4519 Clouds 3 1030 93 10000 2.1 120 08:38 22.04.2020
4520 Clouds 3 1030 93 10000 2.1 120 08:19 22.04.2020
4521 Clouds 3 1030 93 10000 2.1 110 07:52 22.04.2020
4522 Clouds 3 1030 93 10000 2.1 110 07:24 22.04.2020
4523 Clouds 3 1029 86 10000 2.1 130 06:52 22.04.2020
4524 Clouds 3 1029 86 10000 2.6 120 05:48 22.04.2020
4525 Clouds 3 1029 86 10000 2.6 120 05:27 22.04.2020
4526 Clouds 4 1029 86 10000 2.6 130 04:20 22.04.2020
4527 Clouds 4 1028 86 10000 2.6 130 02:43 22.04.2020
4528 Clouds 4 1027 86 10000 3.1 150 01:50 22.04.2020
4529 Clouds 4 1027 86 10000 3.1 150 01:25 22.04.2020
4530 Clouds 5 1027 87 10000 3.1 160 00:47 22.04.2020
4531 Clouds 5 1027 87 10000 3.1 160 00:22 22.04.2020
4532 Clouds 6 1026 87 10000 3.1 180 23:59 21.04.2020
4533 Clouds 6 1026 87 10000 3.1 180 23:40 21.04.2020
4534 Clouds 6 1026 87 10000 3.1 180 23:18 21.04.2020
4535 Drizzle 7 1025 87 10000 3.6 170 22:40 21.04.2020
4536 Drizzle 7 1025 87 10000 3.6 170 22:21 21.04.2020
4537 Rain 6 1025 93 1800 5.7 190 21:59 21.04.2020
4538 Rain 6 1025 93 1800 5.7 190 21:40 21.04.2020
4539 Rain 6 1025 93 1800 5.7 190 21:40 21.04.2020
4540 Rain 6 1025 93 1800 5.7 190 21:22 21.04.2020
4541 Rain 8 1024 87 10000 7.2 130 20:55 21.04.2020
4542 Rain 8 1024 87 10000 7.2 130 20:36 21.04.2020
4543 Rain 8 1024 87 10000 7.2 130 20:18 21.04.2020
4544 Rain 8 1024 87 10000 8.7 130 19:40 21.04.2020
4545 Rain 8 1024 87 10000 8.7 130 19:40 21.04.2020
4546 Rain 8 1024 87 10000 8.7 130 19:19 21.04.2020
4547 Drizzle 8 1023 81 8000 11.3 120 18:57 21.04.2020
4548 Drizzle 8 1023 81 8000 11.3 120 18:38 21.04.2020
4549 Drizzle 8 1023 81 8000 11.3 120 18:19 21.04.2020
4550 Rain 8 1024 81 10000 11.3 110 17:55 21.04.2020
4551 Rain 8 1024 81 10000 11.3 110 17:37 21.04.2020
4552 Rain 8 1024 81 10000 11.3 110 17:18 21.04.2020
4553 Rain 8 1024 81 10000 8.7 110 16:39 21.04.2020
4554 Rain 8 1024 81 10000 8.7 110 16:19 21.04.2020
4555 Drizzle 7 1024 87 9000 7.7 100 15:57 21.04.2020
4556 Drizzle 7 1024 87 9000 7.7 100 15:39 21.04.2020
4557 Drizzle 7 1024 87 9000 7.7 100 15:21 21.04.2020
4558 Drizzle 9 1024 76 9000 9.8 110 14:57 21.04.2020
4559 Drizzle 9 1024 76 9000 9.8 110 14:57 21.04.2020
4560 Drizzle 9 1024 76 9000 9.8 110 14:39 21.04.2020
4561 Drizzle 9 1024 76 9000 9.8 110 14:20 21.04.2020
4562 Clouds 9 1024 81 10000 10.8 110 13:41 21.04.2020
4563 Clouds 9 1024 81 10000 10.8 110 13:22 21.04.2020
4564 Clouds 9 1023 87 10000 11.3 110 12:55 21.04.2020
4565 Clouds 9 1023 87 10000 11.3 110 12:37 21.04.2020
4566 Clouds 9 1023 87 10000 11.3 110 12:18 21.04.2020
4567 Drizzle 9 1023 87 10000 9.8 100 11:55 21.04.2020
4568 Drizzle 9 1023 87 10000 9.8 100 11:36 21.04.2020
4569 Drizzle 9 1023 87 10000 9.8 100 11:18 21.04.2020
4570 Clouds 9 1023 87 10000 9.8 110 10:55 21.04.2020
4571 Clouds 9 1023 87 10000 9.8 110 10:37 21.04.2020
4572 Clouds 9 1023 87 10000 9.8 110 10:19 21.04.2020
4573 Clouds 9 1023 87 10000 10.8 110 09:37 21.04.2020
4574 Clouds 9 1023 87 10000 10.8 110 09:19 21.04.2020
4575 Drizzle 9 1023 87 10000 10.8 110 08:56 21.04.2020
4576 Drizzle 9 1023 87 10000 10.8 110 08:38 21.04.2020
4577 Drizzle 9 1023 87 10000 10.8 110 08:18 21.04.2020
4578 Drizzle 8 1022 93 10000 11.8 110 07:43 21.04.2020
4579 Drizzle 8 1022 93 10000 11.8 110 07:21 21.04.2020
4580 Drizzle 8 1022 93 9000 8.2 110 06:44 21.04.2020
4581 Drizzle 8 1022 93 9000 8.2 110 06:19 21.04.2020
4582 Drizzle 9 1022 87 10000 9.3 120 05:48 21.04.2020
4583 Drizzle 9 1022 87 10000 9.3 120 03:48 21.04.2020
4584 Drizzle 9 1022 87 10000 9.3 120 03:27 21.04.2020
4585 Clouds 9 1022 93 10000 9.3 110 01:46 21.04.2020
4586 Clouds 9 1021 93 10000 12.3 120 00:53 21.04.2020
4587 Clouds 7 1023 93 0 3.13 194 00:32 21.04.2020
4588 Clouds 7 1023 93 0 4.02 136 23:44 20.04.2020
4589 Clouds 7 1023 94 0 4.02 138 23:25 20.04.2020
4590 Clouds 6 1022 94 0 3.13 197 22:57 20.04.2020
4591 Drizzle 9 1020 93 10000 8.7 130 22:38 20.04.2020
4592 Drizzle 9 1020 93 10000 8.7 130 22:19 20.04.2020
4593 Drizzle 9 1020 93 10000 8.7 130 21:57 20.04.2020
4594 Drizzle 9 1020 93 10000 8.7 130 21:38 20.04.2020
4595 Drizzle 9 1020 93 10000 8.7 130 21:19 20.04.2020
4596 Clouds 9 1020 93 9000 7.7 110 20:57 20.04.2020
4597 Clouds 9 1020 93 9000 7.7 110 20:38 20.04.2020
4598 Clouds 9 1020 93 9000 7.7 110 20:18 20.04.2020
4599 Drizzle 9 1019 87 7000 9.3 120 19:57 20.04.2020
4600 Drizzle 9 1019 87 7000 9.3 120 19:38 20.04.2020
4601 Drizzle 9 1019 87 7000 9.3 120 19:19 20.04.2020
4602 Drizzle 9 1019 93 9000 10.8 120 18:42 20.04.2020
4603 Drizzle 9 1018 93 10000 11.3 120 18:22 20.04.2020
4604 Drizzle 9 1019 93 9000 10.8 120 18:22 20.04.2020
4605 Drizzle 9 1018 93 10000 11.3 120 17:55 20.04.2020
4606 Drizzle 9 1018 93 10000 11.3 120 17:37 20.04.2020
4607 Drizzle 9 1018 93 10000 11.3 120 17:19 20.04.2020
4608 Rain 9 1018 87 10000 9.8 120 16:57 20.04.2020
4609 Rain 9 1018 87 10000 9.8 120 16:38 20.04.2020
4610 Rain 9 1018 87 10000 9.8 120 16:18 20.04.2020
4611 Drizzle 9 1018 93 10000 10.3 120 15:42 20.04.2020
4612 Drizzle 9 1018 93 10000 10.3 120 15:23 20.04.2020
4613 Drizzle 9 1017 87 10000 10.8 120 14:55 20.04.2020
4614 Drizzle 8 1017 87 10000 10.8 120 14:36 20.04.2020
4615 Drizzle 9 1017 87 10000 10.8 120 14:18 20.04.2020
4616 Drizzle 8 1017 93 10000 10.8 120 13:41 20.04.2020
4617 Drizzle 8 1017 93 10000 10.8 120 13:23 20.04.2020
4618 Drizzle 8 1017 93 6000 9.3 110 12:58 20.04.2020
4619 Drizzle 8 1017 93 6000 9.3 110 12:39 20.04.2020
4620 Drizzle 8 1017 93 6000 9.3 110 12:18 20.04.2020
4621 Drizzle 8 1017 93 9000 8.7 120 11:40 20.04.2020
4622 Drizzle 8 1017 93 9000 8.7 120 11:21 20.04.2020
4623 Drizzle 8 1016 87 10000 9.3 120 10:57 20.04.2020
4624 Drizzle 8 1016 87 10000 9.3 120 10:38 20.04.2020
4625 Drizzle 8 1015 93 9000 7.7 120 10:19 20.04.2020
4626 Drizzle 8 1015 93 9000 7.7 120 09:55 20.04.2020
4627 Drizzle 8 1015 93 9000 7.7 120 09:36 20.04.2020
4628 Drizzle 8 1015 93 9000 7.7 120 09:18 20.04.2020
4629 Drizzle 8 1015 93 8000 8.7 120 08:41 20.04.2020
4630 Drizzle 8 1015 93 8000 8.7 120 08:22 20.04.2020
4631 Drizzle 8 1015 93 7000 8.7 110 07:52 20.04.2020
4632 Drizzle 8 1015 93 8000 10.8 120 07:29 20.04.2020
4633 Drizzle 8 1015 93 8000 10.8 120 06:57 20.04.2020
4634 Drizzle 8 1015 93 8000 10.8 120 06:36 20.04.2020
4635 Drizzle 8 1015 93 10000 10.8 130 05:43 20.04.2020
4636 Clouds 8 1015 93 10000 7.7 120 04:18 20.04.2020
4637 Drizzle 8 1015 93 8000 10.8 120 02:46 20.04.2020
4638 Drizzle 8 1015 93 8000 10.8 120 02:46 20.04.2020
4639 Drizzle 8 1014 93 10000 11.3 120 01:51 20.04.2020
4640 Drizzle 8 1014 93 10000 11.3 120 01:28 20.04.2020
4641 Clouds 8 1014 93 10000 11.3 120 00:36 20.04.2020
4642 Drizzle 8 1014 87 5000 10.8 120 23:59 19.04.2020
4643 Drizzle 8 1014 87 5000 10.8 120 23:38 19.04.2020
4644 Drizzle 8 1014 87 5000 10.8 120 23:19 19.04.2020
4645 Drizzle 8 1014 93 8000 10.8 120 22:41 19.04.2020
4646 Drizzle 8 1014 93 8000 10.8 120 22:23 19.04.2020
4647 Drizzle 8 1013 87 8000 8.7 120 21:59 19.04.2020
4648 Drizzle 8 1013 87 8000 8.7 120 21:40 19.04.2020
4649 Drizzle 8 1013 87 8000 8.7 120 21:21 19.04.2020
4650 Drizzle 8 1013 87 9000 8.7 120 20:55 19.04.2020
4651 Drizzle 8 1013 87 9000 8.7 120 20:37 19.04.2020
4652 Drizzle 8 1013 87 9000 8.7 120 20:19 19.04.2020
4653 Drizzle 8 1013 93 5000 8.7 130 19:41 19.04.2020
4654 Drizzle 8 1013 93 5000 8.7 130 19:23 19.04.2020
4655 Drizzle 9 1013 87 7000 8.7 130 18:58 19.04.2020
4656 Drizzle 9 1013 87 7000 8.7 130 18:40 19.04.2020
4657 Drizzle 9 1013 87 7000 8.7 130 18:21 19.04.2020
4658 Drizzle 8 1013 93 5000 8.2 130 17:59 19.04.2020
4659 Drizzle 8 1013 93 5000 8.2 130 17:41 19.04.2020
4660 Drizzle 8 1013 93 5000 8.2 130 17:22 19.04.2020
4661 Drizzle 8 1013 93 10000 9.8 140 16:59 19.04.2020
4662 Drizzle 8 1013 93 10000 9.8 140 16:39 19.04.2020
4663 Drizzle 8 1013 93 10000 9.8 140 16:21 19.04.2020
4664 Drizzle 8 1013 93 6000 8.7 140 15:54 19.04.2020
4665 Drizzle 8 1013 93 6000 8.7 140 15:36 19.04.2020
4666 Drizzle 8 1013 93 6000 8.7 140 15:18 19.04.2020
4667 Rain 8 1013 93 10000 8.2 140 14:38 19.04.2020
4668 Rain 8 1013 93 10000 8.2 140 14:20 19.04.2020
4669 Rain 8 1013 93 10000 7.7 140 13:56 19.04.2020
4670 Rain 8 1013 93 10000 7.7 140 13:36 19.04.2020
4671 Rain 8 1013 93 10000 7.7 140 13:18 19.04.2020
4672 Rain 8 1013 93 10000 7.7 140 12:43 19.04.2020
4673 Rain 8 1013 93 10000 7.7 140 12:24 19.04.2020
4674 Rain 8 1013 87 10000 8.2 140 11:39 19.04.2020
4675 Rain 8 1013 87 10000 8.2 140 11:20 19.04.2020
4676 Rain 8 1012 87 10000 6.2 130 10:59 19.04.2020
4677 Rain 7 1012 87 10000 6.2 130 10:41 19.04.2020
4678 Rain 7 1012 87 10000 6.2 130 10:20 19.04.2020
4679 Rain 7 1011 87 10000 3.6 110 09:51 19.04.2020
4680 Rain 7 1011 87 10000 3.6 110 09:32 19.04.2020
4681 Rain 6 1011 93 10000 3.6 130 08:59 19.04.2020
4682 Rain 6 1011 93 10000 3.6 130 08:38 19.04.2020
4683 Rain 5 1011 93 10000 3.6 130 08:18 19.04.2020
4684 Rain 3 1011 93 9000 2.1 40 07:45 19.04.2020
4685 Rain 3 1011 93 9000 2.1 40 07:25 19.04.2020
4686 Clouds 3 1012 93 8000 2.1 30 06:55 19.04.2020
4687 Clouds 3 1012 93 8000 2.1 30 06:19 19.04.2020
4688 Rain 2 1012 93 10000 1 110 04:56 19.04.2020
4689 Rain 2 1012 93 10000 1 0 03:34 19.04.2020
4690 Rain 2 1012 93 10000 1.5 190 02:22 19.04.2020
4691 Rain 2 1011 93 10000 2.6 190 01:39 19.04.2020
4692 Rain 2 1011 93 10000 2.6 190 01:21 19.04.2020
4693 Rain 2 1011 93 10000 2.1 160 00:40 19.04.2020
4694 Rain 1 1011 93 10000 2.1 160 00:19 19.04.2020
4695 Rain 2 1011 93 10000 3.18 340 23:42 18.04.2020
4696 Rain 2 1011 93 10000 3.18 340 23:19 18.04.2020
4697 Rain 2 1011 93 10000 4.1 310 22:43 18.04.2020
4698 Rain 2 1011 93 10000 4.1 310 22:43 18.04.2020
4699 Rain 2 1011 93 10000 4.1 310 22:24 18.04.2020
4700 Rain 2 1010 93 9000 3.1 280 21:59 18.04.2020
4701 Rain 2 1010 93 9000 3.1 280 21:41 18.04.2020
4702 Rain 2 1010 93 9000 3.1 280 21:22 18.04.2020
4703 Rain 2 1010 86 10000 3.1 300 20:58 18.04.2020
4704 Rain 2 1010 86 10000 3.1 300 20:40 18.04.2020
4705 Rain 2 1010 86 10000 3.1 300 20:20 18.04.2020
4706 Rain 2 1010 93 5000 4.6 320 19:42 18.04.2020
4707 Rain 2 1010 93 5000 4.6 320 19:24 18.04.2020
4708 Rain 2 1010 93 6000 6.7 300 18:40 18.04.2020
4709 Rain 2 1010 93 6000 6.7 300 18:20 18.04.2020
4710 Rain 6 1009 81 9000 7.7 170 17:58 18.04.2020
4711 Rain 6 1009 81 9000 7.7 170 17:40 18.04.2020
4712 Rain 6 1009 81 9000 7.7 170 17:20 18.04.2020
4713 Drizzle 7 1009 87 9000 7.7 160 16:43 18.04.2020
4714 Drizzle 7 1009 87 9000 7.7 160 16:22 18.04.2020
4715 Drizzle 7 1009 87 10000 10.8 140 15:56 18.04.2020
4716 Drizzle 7 1009 87 10000 10.8 140 15:37 18.04.2020
4717 Drizzle 7 1009 87 10000 10.8 140 15:19 18.04.2020
4718 Rain 7 1009 87 9000 7.7 160 14:44 18.04.2020
4719 Rain 8 1009 87 9000 7.7 160 14:24 18.04.2020
4720 Drizzle 7 1009 81 9000 10.3 150 13:44 18.04.2020
4721 Drizzle 8 1009 81 9000 10.3 150 13:23 18.04.2020
4722 Rain 7 1008 81 10000 10.8 150 12:55 18.04.2020
4723 Rain 7 1008 81 10000 10.8 150 12:36 18.04.2020
4724 Rain 7 1008 81 10000 10.8 150 12:18 18.04.2020
4725 Drizzle 7 1009 87 7000 10.3 150 11:42 18.04.2020
4726 Drizzle 7 1009 87 7000 10.3 150 11:22 18.04.2020
4727 Drizzle 7 1008 81 9000 13.4 140 10:57 18.04.2020
4728 Drizzle 7 1008 81 9000 13.4 140 10:37 18.04.2020
4729 Drizzle 7 1008 81 9000 13.4 140 10:18 18.04.2020
4730 Drizzle 7 1009 87 5000 11.3 130 09:41 18.04.2020
4731 Drizzle 7 1009 87 5000 11.3 130 09:22 18.04.2020
4732 Rain 7 1009 81 5000 11.8 130 08:43 18.04.2020
4733 Rain 7 1009 81 5000 11.8 130 08:24 18.04.2020
4734 Rain 7 1009 81 8000 13.9 130 07:52 18.04.2020
4735 Rain 6 1009 81 8000 13.9 130 07:33 18.04.2020
4736 Clouds 6 1009 81 10000 13.4 140 06:53 18.04.2020
4737 Rain 6 1009 81 10000 13.4 140 06:19 18.04.2020
4738 Clouds 6 1010 81 10000 13.9 140 05:35 18.04.2020
4739 Rain 6 1010 75 10000 13.9 130 04:46 18.04.2020
4740 Rain 6 1010 75 10000 13.9 130 04:24 18.04.2020
4741 Drizzle 5 1012 81 10000 10.3 140 02:45 18.04.2020
4742 Drizzle 5 1012 81 10000 10.3 140 02:22 18.04.2020
4743 Drizzle 5 1012 75 10000 9.8 130 01:51 18.04.2020
4744 Drizzle 5 1012 75 10000 9.8 130 01:31 18.04.2020
4745 Drizzle 6 1013 75 10000 6.7 130 00:41 18.04.2020
4746 Drizzle 6 1013 75 10000 6.7 130 00:20 18.04.2020
4747 Clouds 6 1013 70 10000 10.3 130 23:55 17.04.2020
4748 Clouds 6 1013 70 10000 10.3 130 23:36 17.04.2020
4749 Clouds 6 1013 70 10000 10.3 130 23:18 17.04.2020
4750 Rain 6 1013 75 10000 9.8 130 22:54 17.04.2020
4751 Rain 6 1013 75 10000 9.8 130 22:36 17.04.2020
4752 Rain 6 1013 75 10000 9.8 130 22:18 17.04.2020
4753 Clouds 7 1013 75 10000 10.8 130 21:41 17.04.2020
4754 Clouds 7 1013 75 10000 10.8 130 21:21 17.04.2020
4755 Clouds 7 1013 75 10000 10.8 130 21:21 17.04.2020
4756 Drizzle 7 1014 87 10000 10.8 140 20:56 17.04.2020
4757 Drizzle 7 1014 87 10000 10.8 140 20:37 17.04.2020
4758 Drizzle 7 1014 87 10000 10.8 140 20:18 17.04.2020
4759 Clouds 7 1014 87 10000 8.7 140 19:56 17.04.2020
4760 Clouds 7 1014 87 10000 8.7 140 19:38 17.04.2020
4761 Clouds 7 1014 87 10000 8.7 140 19:20 17.04.2020
4762 Clouds 8 1015 87 10000 9.3 150 18:42 17.04.2020
4763 Clouds 8 1015 87 10000 9.3 150 18:23 17.04.2020
4764 Clouds 8 1015 81 10000 8.2 150 17:55 17.04.2020
4765 Clouds 8 1015 81 10000 8.2 150 17:36 17.04.2020
4766 Clouds 9 1015 81 10000 8.2 150 17:18 17.04.2020
4767 Clouds 8 1015 81 10000 9.3 140 16:41 17.04.2020
4768 Clouds 8 1015 81 10000 9.3 140 16:22 17.04.2020
4769 Clouds 8 1015 87 10000 8.7 160 15:41 17.04.2020
4770 Clouds 8 1015 87 10000 8.7 160 15:22 17.04.2020
4771 Drizzle 7 1016 87 10000 4.6 160 14:55 17.04.2020
4772 Drizzle 8 1016 87 10000 4.6 160 14:37 17.04.2020
4773 Drizzle 8 1016 87 10000 4.6 160 14:19 17.04.2020
4774 Drizzle 7 1016 93 9000 5.1 160 13:40 17.04.2020
4775 Drizzle 7 1016 93 9000 5.1 160 13:20 17.04.2020
4776 Drizzle 7 1016 93 4000 6.7 160 12:57 17.04.2020
4777 Drizzle 7 1016 93 4000 6.7 160 12:38 17.04.2020
4778 Drizzle 7 1016 93 4000 6.7 160 12:20 17.04.2020
4779 Drizzle 7 1016 93 7000 6.2 170 11:40 17.04.2020
4780 Drizzle 7 1016 93 7000 6.2 170 11:19 17.04.2020
4781 Drizzle 7 1016 93 7000 6.2 170 11:19 17.04.2020
4782 Mist 6 1016 93 7000 5.1 150 10:43 17.04.2020
4783 Mist 6 1016 93 7000 5.1 150 10:22 17.04.2020
4784 Mist 6 1015 93 8000 4.6 150 09:57 17.04.2020
4785 Mist 6 1015 93 8000 4.6 150 09:38 17.04.2020
4786 Mist 6 1015 93 8000 4.6 150 09:19 17.04.2020
4787 Mist 6 1015 93 7000 5.7 160 08:48 17.04.2020
4788 Mist 6 1015 93 7000 5.7 160 08:27 17.04.2020
4789 Clouds 6 1015 93 10000 6.2 150 07:58 17.04.2020
4790 Clouds 7 1015 93 10000 6.2 150 07:40 17.04.2020
4791 Clouds 7 1015 93 10000 6.2 150 07:19 17.04.2020
4792 Rain 6 1016 93 10000 6.7 160 06:44 17.04.2020
4793 Rain 6 1016 87 10000 6.7 160 05:58 17.04.2020
4794 Clouds 6 1016 87 10000 5.1 160 03:27 17.04.2020
4795 Clouds 6 1016 81 10000 5.1 150 02:55 17.04.2020
4796 Clouds 6 1016 75 10000 5.7 140 01:52 17.04.2020
4797 Clouds 6 1016 75 10000 5.7 140 01:22 17.04.2020
4798 Clouds 5 1016 81 10000 6.7 140 00:26 17.04.2020
4799 Clouds 5 1016 75 10000 5.7 140 23:55 16.04.2020
4800 Clouds 5 1016 75 10000 5.7 140 23:37 16.04.2020
4801 Clouds 5 1016 75 10000 5.7 140 23:19 16.04.2020
4802 Clouds 5 1017 75 10000 6.2 130 22:40 16.04.2020
4803 Clouds 5 1017 75 10000 6.2 130 22:22 16.04.2020
4804 Clouds 5 1017 75 10000 6.2 160 21:59 16.04.2020
4805 Clouds 5 1017 75 10000 6.2 160 21:40 16.04.2020
4806 Clouds 5 1017 75 10000 6.2 160 21:19 16.04.2020
4807 Clouds 5 1018 70 10000 6.7 170 20:43 16.04.2020
4808 Clouds 6 1018 70 10000 6.7 170 20:23 16.04.2020
4809 Clouds 6 1017 70 10000 7.2 180 19:59 16.04.2020
4810 Clouds 6 1017 70 10000 7.2 180 19:39 16.04.2020
4811 Clouds 6 1017 70 10000 7.2 180 19:20 16.04.2020
4812 Clouds 6 1017 75 10000 6.2 200 18:56 16.04.2020
4813 Clouds 6 1017 75 10000 6.2 200 18:38 16.04.2020
4814 Clouds 6 1017 75 10000 6.2 200 18:20 16.04.2020
4815 Rain 6 1018 81 10000 9.3 200 17:45 16.04.2020
4816 Rain 6 1018 81 10000 9.3 200 17:26 16.04.2020
4817 Clouds 6 1018 75 10000 5.7 200 17:00 16.04.2020
4818 Clouds 6 1018 75 10000 5.7 200 16:59 16.04.2020
4819 Clouds 6 1018 75 10000 5.7 200 16:59 16.04.2020
4820 Clouds 6 1018 75 10000 5.7 200 16:41 16.04.2020
4821 Clouds 6 1018 75 10000 5.7 200 16:19 16.04.2020
4822 Rain 6 1018 80 10000 4.1 210 15:44 16.04.2020
4823 Rain 5 1018 80 10000 4.1 210 15:19 16.04.2020
4824 Drizzle 5 1018 86 10000 3.1 210 14:58 16.04.2020
4825 Drizzle 5 1018 86 10000 3.1 210 14:39 16.04.2020
4826 Drizzle 5 1018 86 10000 3.1 210 14:19 16.04.2020
4827 Rain 5 1018 86 10000 3.1 220 13:56 16.04.2020
4828 Rain 5 1018 86 10000 3.1 220 13:36 16.04.2020
4829 Rain 5 1018 86 10000 3.1 220 13:18 16.04.2020
4830 Rain 4 1018 80 10000 3.6 200 12:56 16.04.2020
4831 Rain 4 1018 80 10000 3.6 200 12:56 16.04.2020
4832 Rain 4 1018 80 10000 3.6 200 12:37 16.04.2020
4833 Rain 4 1018 80 10000 3.6 200 12:18 16.04.2020
4834 Rain 4 1018 80 10000 4.1 170 11:54 16.04.2020
4835 Rain 3 1018 80 10000 4.1 170 11:36 16.04.2020
4836 Rain 3 1018 80 10000 4.1 170 11:18 16.04.2020
4837 Rain 3 1018 80 10000 3.6 170 10:39 16.04.2020
4838 Rain 3 1018 80 10000 3.6 170 10:19 16.04.2020
4839 Clouds 3 1018 91 10000 2.1 120 09:58 16.04.2020
4840 Clouds 3 1018 91 10000 2.1 120 09:38 16.04.2020
4841 Clouds 3 1018 82 10000 2.1 120 09:19 16.04.2020
4842 Clouds 2 1018 74 10000 2.1 110 08:42 16.04.2020
4843 Clouds 2 1018 74 10000 2.1 110 08:23 16.04.2020
4844 Clouds 2 1018 80 10000 2.1 120 07:46 16.04.2020
4845 Clouds 2 1018 80 10000 2.1 120 07:46 16.04.2020
4846 Clouds 2 1018 80 10000 2.1 120 07:27 16.04.2020
4847 Clouds 2 1018 74 10000 2.1 110 06:45 16.04.2020
4848 Clouds 2 1018 74 10000 2.1 110 06:26 16.04.2020
4849 Clouds 1 1018 74 10000 2.6 140 05:49 16.04.2020
4850 Clouds 2 1018 74 10000 2.1 150 04:29 16.04.2020
4851 Clouds 2 1017 69 10000 2.1 260 03:24 16.04.2020
4852 Clouds 2 1016 69 10000 3.6 260 02:52 16.04.2020
4853 Clouds 2 1016 69 10000 3.6 260 02:32 16.04.2020
4854 Clouds 3 1016 64 10000 4.1 260 01:20 16.04.2020
4855 Clouds 3 1016 64 10000 4.6 260 00:37 16.04.2020
4856 Clouds 3 1015 64 10000 4.6 260 23:59 15.04.2020
4857 Clouds 3 1015 64 10000 4.6 260 23:41 15.04.2020
4858 Clouds 3 1015 64 10000 4.6 260 23:22 15.04.2020
4859 Clouds 3 1014 69 10000 4.6 250 22:41 15.04.2020
4860 Clouds 3 1014 69 10000 4.6 250 22:22 15.04.2020
4861 Clouds 3 1014 69 10000 4.6 250 22:22 15.04.2020
4862 Clouds 3 1013 64 10000 5.7 260 21:59 15.04.2020
4863 Clouds 3 1013 64 10000 5.7 260 21:41 15.04.2020
4864 Clouds 3 1013 64 10000 5.7 260 21:23 15.04.2020
4865 Clouds 3 1012 64 10000 6.7 280 20:59 15.04.2020
4866 Clouds 3 1012 64 10000 6.7 280 20:41 15.04.2020
4867 Clouds 3 1012 64 10000 6.7 280 20:22 15.04.2020
4868 Clouds 4 1011 69 10000 6.2 280 19:57 15.04.2020
4869 Clouds 4 1011 69 10000 6.2 280 19:39 15.04.2020
4870 Clouds 4 1011 69 10000 6.2 280 19:18 15.04.2020
4871 Clouds 4 1010 69 10000 7.7 280 18:40 15.04.2020
4872 Clouds 4 1010 69 10000 7.7 280 18:22 15.04.2020
4873 Rain 4 1009 74 10000 6.7 260 17:55 15.04.2020
4874 Rain 4 1009 74 10000 6.7 260 17:37 15.04.2020
4875 Rain 4 1009 74 10000 6.7 260 17:18 15.04.2020
4876 Rain 4 1008 65 10000 7.7 260 16:55 15.04.2020
4877 Rain 5 1008 65 10000 7.7 260 16:36 15.04.2020
4878 Rain 5 1008 65 10000 7.7 260 16:18 15.04.2020
4879 Rain 4 1007 74 10000 8.7 240 15:55 15.04.2020
4880 Rain 3 1007 74 10000 8.7 240 15:37 15.04.2020
4881 Rain 4 1007 68 10000 8.7 240 15:18 15.04.2020
4882 Rain 4 1006 65 10000 8.7 240 14:54 15.04.2020
4883 Rain 5 1006 65 10000 8.7 240 14:36 15.04.2020
4884 Rain 5 1006 65 10000 8.7 240 14:18 15.04.2020
4885 Rain 4 1005 64 10000 7.7 240 13:40 15.04.2020
4886 Rain 4 1005 64 10000 7.7 240 13:40 15.04.2020
4887 Rain 4 1005 64 10000 7.7 240 13:21 15.04.2020
4888 Rain 4 1004 64 10000 9.3 250 12:59 15.04.2020
4889 Rain 4 1004 64 10000 9.3 250 12:41 15.04.2020
4890 Rain 4 1004 64 10000 9.3 250 12:23 15.04.2020
4891 Clouds 4 1004 69 10000 7.7 250 11:58 15.04.2020
4892 Clouds 4 1004 69 10000 7.7 250 11:38 15.04.2020
4893 Clouds 4 1004 69 10000 7.7 250 11:20 15.04.2020
4894 Rain 4 1003 69 10000 7.7 230 10:39 15.04.2020
4895 Rain 4 1003 69 10000 7.7 230 10:20 15.04.2020
4896 Rain 3 1002 74 10000 6.2 210 09:57 15.04.2020
4897 Rain 3 1002 74 10000 6.2 210 09:39 15.04.2020
4898 Rain 3 1002 74 10000 6.2 210 09:20 15.04.2020
4899 Rain 2 1002 82 10000 4.6 240 08:55 15.04.2020
4900 Rain 2 1002 82 10000 4.6 240 08:37 15.04.2020
4901 Rain 2 1002 82 10000 4.6 240 08:37 15.04.2020
4902 Rain 2 1002 82 10000 4.6 240 08:18 15.04.2020
4903 Clouds 3 1001 74 10000 7.2 220 07:46 15.04.2020
4904 Clouds 3 1001 74 10000 7.2 220 07:28 15.04.2020
4905 Snow 2 1001 82 10000 5.7 200 06:32 15.04.2020
4906 Rain 2 1001 83 10000 8.2 210 05:50 15.04.2020
4907 Clouds 3 1001 83 10000 7.2 210 04:49 15.04.2020
4908 Clouds 2 1001 83 10000 7.2 210 04:24 15.04.2020
4909 Clouds 2 1002 81 10000 5.7 190 03:23 15.04.2020
4910 Clouds 3 1002 74 10000 4.6 180 02:52 15.04.2020
4911 Clouds 2 1002 81 10000 6.2 200 01:54 15.04.2020
4912 Clouds 3 1002 81 10000 6.2 200 01:25 15.04.2020
4913 Clouds 3 1002 81 10000 6.7 200 00:51 15.04.2020
4914 Clouds 3 1002 76 10000 6.7 200 00:30 15.04.2020
4915 Rain 3 1003 69 10000 6.2 200 23:57 14.04.2020
4916 Rain 3 1003 69 10000 6.2 200 23:39 14.04.2020
4917 Rain 3 1003 69 10000 6.2 200 23:21 14.04.2020
4918 Clouds 3 1003 69 10000 6.2 200 22:58 14.04.2020
4919 Clouds 3 1003 69 10000 6.2 200 22:39 14.04.2020
4920 Clouds 4 1003 69 10000 6.2 200 22:21 14.04.2020
4921 Clouds 4 1003 65 10000 8.2 220 21:58 14.04.2020
4922 Clouds 5 1003 65 10000 8.2 220 21:40 14.04.2020
4923 Clouds 5 1003 65 10000 8.2 220 21:20 14.04.2020
4924 Clouds 5 1003 60 10000 8.2 220 21:00 14.04.2020
4925 Clouds 5 1003 60 10000 8.2 220 20:40 14.04.2020
4926 Clouds 5 1003 60 10000 8.2 220 20:21 14.04.2020
4927 Clouds 5 1003 65 10000 8.2 230 19:57 14.04.2020
4928 Clouds 4 1003 65 10000 8.2 230 19:38 14.04.2020
4929 Clouds 5 1003 65 10000 8.2 230 19:19 14.04.2020
4930 Rain 5 1003 65 10000 8.7 220 18:41 14.04.2020
4931 Rain 5 1003 65 10000 8.7 220 18:22 14.04.2020
4932 Clouds 5 1003 56 10000 9.3 230 17:58 14.04.2020
4933 Clouds 5 1003 56 10000 9.3 230 17:58 14.04.2020
4934 Clouds 6 1003 56 10000 9.3 230 17:39 14.04.2020
4935 Clouds 6 1003 56 10000 9.3 230 17:21 14.04.2020
4936 Clouds 6 1004 56 10000 9.3 230 16:58 14.04.2020
4937 Clouds 6 1004 56 10000 9.3 230 16:39 14.04.2020
4938 Clouds 6 1004 56 10000 9.3 230 16:20 14.04.2020
4939 Clouds 6 1004 60 10000 10.3 230 15:57 14.04.2020
4940 Clouds 6 1004 60 10000 10.3 230 15:38 14.04.2020
4941 Clouds 6 1004 60 10000 10.3 230 15:19 14.04.2020
4942 Clouds 6 1004 60 10000 10.8 230 14:57 14.04.2020
4943 Clouds 6 1004 60 10000 10.8 230 14:38 14.04.2020
4944 Clouds 6 1004 60 10000 10.8 230 14:20 14.04.2020
4945 Clouds 5 1004 60 10000 12.3 220 13:43 14.04.2020
4946 Clouds 5 1004 60 10000 12.3 220 13:24 14.04.2020
4947 Clouds 5 1004 65 10000 12.3 230 12:56 14.04.2020
4948 Clouds 5 1004 65 10000 12.3 230 12:38 14.04.2020
4949 Clouds 5 1004 65 10000 12.3 230 12:19 14.04.2020
4950 Clouds 4 1004 69 10000 10.8 220 11:41 14.04.2020
4951 Clouds 4 1004 69 10000 10.8 220 11:41 14.04.2020
4952 Clouds 4 1004 69 10000 10.8 220 11:22 14.04.2020
4953 Clouds 4 1004 69 10000 10.3 220 10:56 14.04.2020
4954 Clouds 4 1004 69 10000 10.3 220 10:38 14.04.2020
4955 Clouds 4 1004 69 10000 10.3 220 10:19 14.04.2020
4956 Rain 4 1004 64 10000 10.8 220 09:42 14.04.2020
4957 Rain 4 1004 64 10000 10.8 220 09:22 14.04.2020
4958 Rain 4 1004 64 10000 10.8 220 08:56 14.04.2020
4959 Rain 4 1004 64 10000 10.8 220 08:36 14.04.2020
4960 Rain 4 1004 64 10000 10.8 220 08:36 14.04.2020
4961 Rain 4 1004 64 10000 10.8 220 08:18 14.04.2020
4962 Snow 3 1005 75 0 11.1 233 07:49 14.04.2020
4963 Clouds 4 1005 64 10000 11.3 220 07:26 14.04.2020
4964 Clouds 4 1006 75 10000 9.8 220 06:45 14.04.2020
4965 Clouds 4 1006 69 10000 10.3 220 05:47 14.04.2020
4966 Rain 4 1008 74 10000 9.3 210 03:38 14.04.2020
4967 Clouds 4 1009 80 10000 8.2 210 02:34 14.04.2020
4968 Clouds 4 1009 74 10000 6.2 200 01:27 14.04.2020
4969 Rain 4 1010 80 10000 8.2 210 00:52 14.04.2020
4970 Rain 4 1010 80 10000 8.2 210 00:32 14.04.2020
4971 Rain 4 1010 80 10000 7.7 200 23:59 13.04.2020
4972 Rain 4 1010 80 10000 7.7 200 23:39 13.04.2020
4973 Rain 4 1010 80 10000 7.7 200 23:19 13.04.2020
4974 Rain 4 1011 75 10000 6.7 220 22:54 13.04.2020
4975 Rain 4 1011 75 10000 6.7 220 22:36 13.04.2020
4976 Rain 4 1011 75 10000 6.7 220 22:18 13.04.2020
4977 Clouds 5 1011 75 10000 7.7 220 21:41 13.04.2020
4978 Clouds 5 1011 75 10000 7.7 220 21:21 13.04.2020
4979 Rain 5 1012 80 10000 7.2 220 20:58 13.04.2020
4980 Rain 5 1012 80 10000 7.2 220 20:40 13.04.2020
4981 Rain 5 1012 80 10000 7.2 220 20:19 13.04.2020
4982 Rain 5 1012 75 10000 7.7 220 19:58 13.04.2020
4983 Rain 5 1012 75 10000 7.7 220 19:37 13.04.2020
4984 Rain 6 1012 75 10000 7.7 220 19:19 13.04.2020
4985 Rain 6 1012 75 10000 7.7 220 19:19 13.04.2020
4986 Clouds 6 1012 70 10000 8.2 220 18:57 13.04.2020
4987 Clouds 6 1012 70 10000 8.2 220 18:37 13.04.2020
4988 Clouds 6 1012 70 10000 8.2 220 18:18 13.04.2020
4989 Clouds 6 1013 81 10000 6.7 220 17:56 13.04.2020
4990 Clouds 6 1013 81 10000 6.7 220 17:37 13.04.2020
4991 Clouds 6 1013 81 10000 6.7 220 17:19 13.04.2020
4992 Clouds 6 1013 87 10000 7.2 230 16:57 13.04.2020
4993 Clouds 6 1013 87 10000 7.2 230 16:37 13.04.2020
4994 Clouds 6 1013 87 10000 7.2 230 16:19 13.04.2020
4995 Drizzle 6 1013 93 3000 5.7 240 15:46 13.04.2020
4996 Drizzle 6 1013 93 3000 5.7 240 15:28 13.04.2020
4997 Drizzle 7 1013 93 5000 6.7 200 14:59 13.04.2020
4998 Drizzle 7 1013 93 5000 6.7 200 14:40 13.04.2020
4999 Drizzle 7 1013 93 5000 6.7 200 14:22 13.04.2020
5000 Drizzle 7 1014 93 8000 8.2 180 13:56 13.04.2020
5001 Drizzle 6 1014 93 8000 8.2 180 13:38 13.04.2020
5002 Drizzle 6 1014 93 8000 8.2 180 13:20 13.04.2020
5003 Rain 6 1014 87 9000 7.2 170 12:58 13.04.2020
5004 Rain 6 1014 87 9000 7.2 170 12:40 13.04.2020
5005 Rain 6 1014 87 9000 7.2 170 12:20 13.04.2020
5006 Rain 6 1015 87 9000 8.7 170 11:58 13.04.2020
5007 Rain 6 1015 87 9000 8.7 170 11:39 13.04.2020
5008 Rain 6 1015 87 9000 8.7 170 11:18 13.04.2020
5009 Rain 6 1016 81 9000 10.3 160 10:55 13.04.2020
5010 Rain 6 1016 81 9000 10.3 160 10:36 13.04.2020
5011 Rain 6 1016 81 9000 10.3 160 10:18 13.04.2020
5012 Rain 6 1017 81 9000 9.8 160 09:43 13.04.2020
5013 Rain 6 1017 81 9000 9.8 160 09:25 13.04.2020
5014 Rain 6 1017 81 8000 11.3 150 08:45 13.04.2020
5015 Rain 6 1017 81 8000 11.3 150 08:27 13.04.2020
5016 Rain 6 1019 75 10000 6.2 130 07:57 13.04.2020
5017 Rain 6 1019 75 10000 6.2 130 07:38 13.04.2020
5018 Rain 6 1019 75 10000 6.2 130 07:18 13.04.2020
5019 Rain 6 1021 75 10000 9.3 150 06:44 13.04.2020
5020 Rain 6 1022 75 10000 7.2 150 05:52 13.04.2020
5021 Rain 6 1022 75 10000 7.2 150 05:20 13.04.2020
5022 Rain 6 1024 75 10000 6.7 170 04:50 13.04.2020
5023 Rain 6 1024 75 10000 6.7 170 04:20 13.04.2020
5024 Drizzle 5 1024 81 10000 7.2 160 03:43 13.04.2020
5025 Clouds 5 1025 81 10000 7.7 170 02:41 13.04.2020
5026 Clouds 5 1026 81 10000 5.1 160 01:48 13.04.2020
5027 Clouds 5 1026 81 10000 5.1 160 01:28 13.04.2020
5028 Clouds 5 1026 81 10000 4.1 170 00:51 13.04.2020
5029 Clouds 5 1026 81 10000 4.1 170 00:25 13.04.2020
5030 Clouds 5 1027 87 10000 6.7 170 23:57 12.04.2020
5031 Clouds 5 1027 87 10000 6.7 170 23:39 12.04.2020
5032 Clouds 5 1027 87 10000 6.7 170 23:20 12.04.2020
5033 Clouds 6 1027 81 10000 5.7 150 22:55 12.04.2020
5034 Clouds 6 1027 81 10000 5.7 150 22:36 12.04.2020
5035 Clouds 6 1027 81 10000 5.7 150 22:18 12.04.2020
5036 Rain 6 1027 81 10000 6.7 140 21:38 12.04.2020
5037 Rain 6 1027 81 10000 6.7 140 21:20 12.04.2020
5038 Clouds 5 1028 75 10000 7.7 140 20:44 12.04.2020
5039 Clouds 5 1028 75 10000 7.7 140 20:44 12.04.2020
5040 Clouds 5 1028 75 10000 7.7 140 20:24 12.04.2020
5041 Clouds 6 1028 65 10000 7.7 140 19:59 12.04.2020
5042 Clouds 6 1028 65 10000 7.7 140 19:41 12.04.2020
5043 Clouds 6 1028 65 10000 7.7 140 19:19 12.04.2020
5044 Clouds 6 1029 70 10000 7.2 130 18:58 12.04.2020
5045 Clouds 6 1029 70 10000 7.2 130 18:58 12.04.2020
5046 Clouds 5 1029 70 10000 7.2 130 18:39 12.04.2020
5047 Clouds 6 1029 70 10000 7.2 130 18:19 12.04.2020
5048 Clouds 5 1029 70 10000 5.1 90 17:55 12.04.2020
5049 Clouds 5 1029 70 10000 5.1 90 17:37 12.04.2020
5050 Clouds 5 1029 70 10000 5.1 90 17:18 12.04.2020
5051 Clouds 5 1030 75 10000 6.7 100 16:42 12.04.2020
5052 Clouds 5 1030 75 10000 6.7 100 16:22 12.04.2020
5053 Clouds 4 1030 69 10000 5.1 70 15:55 12.04.2020
5054 Clouds 4 1030 69 10000 5.1 70 15:37 12.04.2020
5055 Clouds 4 1030 69 10000 5.1 70 15:18 12.04.2020
5056 Clouds 3 1030 64 10000 7.2 80 14:39 12.04.2020
5057 Clouds 3 1030 64 10000 7.2 80 14:21 12.04.2020
5058 Clouds 3 1029 64 10000 6.7 80 13:57 12.04.2020
5059 Clouds 3 1029 64 10000 6.7 80 13:37 12.04.2020
5060 Clouds 3 1029 64 10000 6.7 80 13:18 12.04.2020
5061 Rain 3 1029 55 10000 4.6 70 12:45 12.04.2020
5062 Rain 2 1029 55 10000 4.6 70 12:21 12.04.2020
5063 Clouds 2 1029 51 10000 5.7 80 11:58 12.04.2020
5064 Clouds 3 1029 51 10000 5.7 80 11:38 12.04.2020
5065 Clouds 3 1029 51 10000 5.7 80 11:18 12.04.2020
5066 Snow 1 1029 59 10000 5.1 80 10:56 12.04.2020
5067 Snow 1 1029 59 10000 5.1 80 10:37 12.04.2020
5068 Snow 1 1029 59 10000 5.1 80 10:19 12.04.2020
5069 Snow 1 1029 59 10000 4.6 50 09:56 12.04.2020
5070 Clouds 0 1029 59 10000 4.6 50 09:37 12.04.2020
5071 Clouds 0 1029 59 10000 4.6 50 09:19 12.04.2020
5072 Clouds 0 1027 59 10000 3.6 80 08:47 12.04.2020
5073 Clouds 0 1027 59 10000 3.6 80 08:29 12.04.2020
5074 Clouds 0 1027 59 10000 4.1 70 07:47 12.04.2020
5075 Clouds 0 1025 59 10000 6.2 90 07:19 12.04.2020
5076 Clouds 1 1025 59 10000 6.2 90 06:42 12.04.2020
5077 Clouds 1 1025 59 10000 6.2 90 06:22 12.04.2020
5078 Clouds 1 1024 64 10000 3.1 100 05:42 12.04.2020
5079 Clouds 1 1024 74 10000 2.6 70 04:25 12.04.2020
5080 Clouds 2 1023 69 10000 1.5 0 03:29 12.04.2020
5081 Clouds 1 1022 74 10000 2.1 150 02:47 12.04.2020
5082 Clouds 1 1022 74 10000 2.1 150 02:27 12.04.2020
5083 Clouds 3 1020 69 10000 0.5 220 01:22 12.04.2020
5084 Clouds 3 1019 64 10000 1.5 170 00:43 12.04.2020
5085 Clouds 3 1019 64 10000 1.5 170 00:21 12.04.2020
5086 Clouds 4 1016 80 10000 1.5 0 23:47 11.04.2020
5087 Clouds 4 1016 80 10000 1.5 0 23:26 11.04.2020
5088 Clouds 5 1014 65 10000 1.5 20 22:58 11.04.2020
5089 Clouds 6 1014 65 10000 1.5 20 22:37 11.04.2020
5090 Clouds 5 1014 65 10000 1.5 20 22:18 11.04.2020
5091 Clouds 6 1013 80 10000 2.1 340 21:55 11.04.2020
5092 Clouds 6 1013 82 10000 2.1 340 21:36 11.04.2020
5093 Clouds 6 1013 78 10000 2.1 340 21:18 11.04.2020
5094 Clouds 7 1011 78 10000 4.1 70 20:55 11.04.2020
5095 Clouds 7 1011 78 10000 4.1 70 20:37 11.04.2020
5096 Clouds 7 1011 78 10000 4.1 70 20:37 11.04.2020
5097 Clouds 7 1011 78 10000 4.1 70 20:19 11.04.2020
5098 Clouds 7 1009 61 10000 5.1 80 19:56 11.04.2020
5099 Clouds 7 1009 61 10000 5.1 80 19:56 11.04.2020
5100 Clouds 7 1009 61 10000 5.1 80 19:37 11.04.2020
5101 Clouds 7 1009 61 10000 5.1 80 19:18 11.04.2020
5102 Clouds 6 1008 65 10000 8.7 10 18:55 11.04.2020
5103 Clouds 6 1008 65 10000 8.7 10 18:36 11.04.2020
5104 Clouds 6 1008 65 10000 8.7 10 18:18 11.04.2020
5105 Clouds 6 1007 75 10000 5.1 360 17:56 11.04.2020
5106 Clouds 6 1007 75 10000 5.1 360 17:36 11.04.2020
5107 Clouds 6 1007 75 10000 5.1 360 17:18 11.04.2020
5108 Clouds 6 1007 75 10000 4.1 10 16:42 11.04.2020
5109 Clouds 6 1007 75 10000 4.1 10 16:21 11.04.2020
5110 Clouds 5 1006 75 10000 5.7 20 15:41 11.04.2020
5111 Clouds 5 1006 75 10000 5.7 20 15:21 11.04.2020
5112 Clouds 6 1006 70 10000 5.1 10 14:58 11.04.2020
5113 Clouds 6 1006 70 10000 5.1 10 14:40 11.04.2020
5114 Clouds 6 1006 70 10000 5.1 10 14:22 11.04.2020
5115 Clouds 7 1005 70 10000 2.6 90 13:42 11.04.2020
5116 Clouds 6 1005 70 10000 2.6 90 13:24 11.04.2020
5117 Clouds 5 1004 75 10000 1 0 12:59 11.04.2020
5118 Clouds 5 1004 75 10000 1 0 12:37 11.04.2020
5119 Clouds 5 1004 75 10000 1 0 12:18 11.04.2020
5120 Clouds 5 1004 75 10000 2.1 40 11:43 11.04.2020
5121 Clouds 5 1004 75 10000 2.1 40 11:21 11.04.2020
5122 Clouds 5 1004 75 10000 2.1 80 10:57 11.04.2020
5123 Clouds 5 1004 75 10000 2.1 80 10:37 11.04.2020
5124 Clouds 5 1004 75 10000 2.1 80 10:19 11.04.2020
5125 Clouds 4 1004 75 10000 2.6 100 09:57 11.04.2020
5126 Clouds 4 1004 75 10000 2.6 100 09:38 11.04.2020
5127 Clouds 4 1004 75 10000 2.6 100 09:19 11.04.2020
5128 Clouds 4 1003 75 10000 2.1 80 08:43 11.04.2020
5129 Clouds 4 1003 75 10000 2.1 80 08:23 11.04.2020
5130 Clouds 4 1004 75 10000 3.6 90 07:49 11.04.2020
5131 Clouds 5 1004 75 10000 3.6 90 07:28 11.04.2020
5132 Clouds 4 1004 80 10000 2.29 69 06:44 11.04.2020
5133 Clouds 4 1004 75 10000 2.29 71 05:59 11.04.2020
5134 Clouds 4 1005 75 10000 3.6 30 04:34 11.04.2020
5135 Clouds 5 1005 70 10000 1.5 80 03:40 11.04.2020
5136 Clouds 4 1007 75 10000 3.1 20 01:53 11.04.2020
5137 Clouds 4 1007 75 10000 3.1 20 01:20 11.04.2020
5138 Clouds 5 1007 70 10000 3.1 70 00:44 11.04.2020
5139 Clouds 4 1007 70 10000 3.1 70 00:19 11.04.2020
5140 Clouds 4 1008 70 10000 7.2 80 23:56 10.04.2020
5141 Clouds 4 1008 70 10000 7.2 80 23:37 10.04.2020
5142 Clouds 4 1008 70 10000 7.2 80 23:18 10.04.2020
5143 Clouds 4 1008 70 10000 7.2 80 23:18 10.04.2020
5144 Clouds 4 1009 75 10000 7.2 70 22:43 10.04.2020
5145 Clouds 4 1009 75 10000 7.2 70 22:22 10.04.2020
5146 Clouds 4 1010 75 10000 7.7 70 21:58 10.04.2020
5147 Clouds 4 1010 75 10000 7.7 70 21:39 10.04.2020
5148 Clouds 4 1010 75 10000 7.7 70 21:20 10.04.2020
5149 Clouds 4 1010 75 10000 7.7 80 20:43 10.04.2020
5150 Clouds 4 1010 75 10000 7.7 80 20:23 10.04.2020
5151 Rain 3 1011 80 10000 8.2 70 19:58 10.04.2020
5152 Rain 3 1011 80 10000 8.2 70 19:40 10.04.2020
5153 Rain 3 1011 80 10000 8.2 70 19:20 10.04.2020
5154 Rain 3 1012 80 10000 7.2 70 18:58 10.04.2020
5155 Rain 3 1012 80 10000 7.2 70 18:39 10.04.2020
5156 Rain 3 1012 80 10000 7.2 70 18:21 10.04.2020
5157 Rain 2 1014 91 10000 7.7 60 17:58 10.04.2020
5158 Rain 2 1014 91 10000 7.7 60 17:39 10.04.2020
5159 Rain 2 1014 91 10000 7.7 60 17:20 10.04.2020
5160 Rain 2 1015 91 10000 7.2 60 16:57 10.04.2020
5161 Rain 2 1015 91 10000 7.2 60 16:38 10.04.2020
5162 Rain 2 1015 91 10000 7.2 60 16:20 10.04.2020
5163 Snow 1 1016 91 10000 5.1 60 15:56 10.04.2020
5164 Snow 1 1016 91 10000 5.1 60 15:37 10.04.2020
5165 Snow 1 1016 88 10000 5.1 60 15:19 10.04.2020
5166 Snow 1 1017 86 5000 3.6 30 14:56 10.04.2020
5167 Snow 1 1017 86 5000 3.6 30 14:38 10.04.2020
5168 Snow 1 1017 86 5000 3.6 30 14:38 10.04.2020
5169 Snow 1 1017 86 5000 3.6 30 14:18 10.04.2020
5170 Snow 1 1017 86 5000 3.6 30 14:18 10.04.2020
5171 Snow 1 1018 80 5000 5.1 50 13:43 10.04.2020
5172 Snow 1 1018 80 5000 5.1 50 13:22 10.04.2020
5173 Snow 1 1018 74 8000 5.1 80 12:44 10.04.2020
5174 Snow 1 1018 74 8000 5.1 80 12:24 10.04.2020
5175 Snow 1 1018 74 4500 4.6 80 11:58 10.04.2020
5176 Snow 2 1018 59 10000 4.6 90 11:39 10.04.2020
5177 Snow 2 1018 59 10000 4.6 90 11:21 10.04.2020
5178 Rain 2 1019 55 10000 3.6 70 10:46 10.04.2020
5179 Rain 1 1019 55 10000 3.6 70 10:23 10.04.2020
5180 Snow 1 1018 51 10000 4.1 70 09:59 10.04.2020
5181 Snow 1 1018 51 10000 4.1 70 09:40 10.04.2020
5182 Clouds 1 1018 51 10000 4.1 70 09:20 10.04.2020
5183 Clouds 1 1019 55 10000 4.6 90 08:44 10.04.2020
5184 Clouds 1 1019 55 10000 4.6 90 08:24 10.04.2020
5185 Clouds 1 1019 59 10000 4.6 90 07:47 10.04.2020
5186 Clouds 0 1019 59 10000 4.6 90 07:27 10.04.2020
5187 Clouds 1 1019 59 10000 3.6 80 06:52 10.04.2020
5188 Clouds 1 1019 59 10000 3.6 80 06:29 10.04.2020
5189 Clouds 0 1020 59 10000 3.1 60 05:43 10.04.2020
5190 Clouds 0 1020 59 10000 3.1 60 05:18 10.04.2020
5191 Clouds 0 1021 64 10000 3.6 100 03:53 10.04.2020
5192 Clouds 0 1021 64 10000 3.6 100 03:32 10.04.2020
5193 Clouds 1 1021 64 10000 3.1 70 02:49 10.04.2020
5194 Clouds 1 1021 64 10000 3.1 70 02:31 10.04.2020
5195 Clouds 1 1021 64 10000 2.6 90 01:30 10.04.2020
5196 Clouds 1 1022 69 10000 1.5 110 00:53 10.04.2020
5197 Clouds 1 1022 69 10000 1.5 110 00:26 10.04.2020
5198 Clouds 1 1022 64 10000 1.5 80 23:57 09.04.2020
5199 Clouds 1 1022 64 10000 1.5 80 23:38 09.04.2020
5200 Clouds 1 1022 64 10000 1.5 80 23:38 09.04.2020
5201 Clouds 1 1022 64 10000 1.5 80 23:20 09.04.2020
5202 Clouds 2 1022 64 10000 16.5 40 22:42 09.04.2020
5203 Clouds 2 1022 64 10000 16.5 40 22:24 09.04.2020
5204 Clouds 3 1022 64 10000 2.1 20 21:59 09.04.2020
5205 Clouds 3 1022 64 10000 2.1 20 21:37 09.04.2020
5206 Clouds 3 1022 64 10000 2.1 20 21:19 09.04.2020
5207 Clouds 3 1022 69 10000 1 0 20:45 09.04.2020
5208 Clouds 3 1022 69 10000 1 0 20:21 09.04.2020
5209 Clouds 4 1022 69 10000 2.1 290 19:58 09.04.2020
5210 Clouds 4 1022 69 10000 2.1 290 19:37 09.04.2020
5211 Clouds 4 1022 69 10000 2.1 290 19:18 09.04.2020
5212 Rain 4 1023 73 10000 2.6 230 18:42 09.04.2020
5213 Rain 4 1023 73 10000 2.6 230 18:42 09.04.2020
5214 Rain 4 1023 73 10000 2.6 230 18:20 09.04.2020
5215 Rain 4 1023 73 10000 1 0 17:43 09.04.2020
5216 Rain 4 1023 73 10000 1 0 17:24 09.04.2020
5217 Drizzle 4 1023 69 10000 2.6 160 16:57 09.04.2020
5218 Drizzle 4 1023 69 10000 2.6 160 16:38 09.04.2020
5219 Drizzle 3 1023 69 10000 2.6 160 16:19 09.04.2020
5220 Clouds 3 1023 64 10000 3.1 70 15:55 09.04.2020
5221 Clouds 3 1023 64 10000 3.1 70 15:37 09.04.2020
5222 Clouds 3 1023 64 10000 3.1 70 15:18 09.04.2020
5223 Clouds 3 1023 64 10000 3.1 100 14:42 09.04.2020
5224 Clouds 3 1023 64 10000 3.1 100 14:21 09.04.2020
5225 Rain 2 1024 74 10000 3.1 110 13:56 09.04.2020
5226 Rain 2 1024 74 10000 3.1 110 13:38 09.04.2020
5227 Rain 2 1024 74 10000 3.1 110 13:19 09.04.2020
5228 Rain 1 1024 59 10000 1.5 130 12:42 09.04.2020
5229 Rain 1 1024 59 10000 1.5 130 12:23 09.04.2020
5230 Rain 0 1024 59 10000 2.6 80 11:59 09.04.2020
5231 Rain 0 1024 59 10000 2.6 80 11:40 09.04.2020
5232 Rain 0 1024 59 10000 2.6 80 11:20 09.04.2020
5233 Clouds -1 1024 64 10000 3.1 70 10:57 09.04.2020
5234 Clouds -1 1024 64 10000 3.1 70 10:39 09.04.2020
5235 Clouds -1 1024 64 10000 3.1 70 10:19 09.04.2020
5236 Clouds -2 1023 93 10000 3.6 90 09:55 09.04.2020
5237 Clouds -2 1023 87 10000 3.6 90 09:37 09.04.2020
5238 Clouds -2 1023 91 10000 3.6 90 09:19 09.04.2020
5239 Clouds -2 1023 91 10000 3.1 100 08:43 09.04.2020
5240 Clouds -2 1023 91 10000 3.1 100 08:23 09.04.2020
5241 Clouds -3 1023 68 10000 3.1 100 07:55 09.04.2020
5242 Clouds -3 1023 68 10000 3.1 100 07:27 09.04.2020
5243 Clouds -3 1023 91 10000 3.6 90 06:55 09.04.2020
5244 Clouds -2 1024 91 10000 2.6 90 05:59 09.04.2020
5245 Clouds -2 1024 91 10000 2.6 90 05:59 09.04.2020
5246 Clouds -2 1024 91 10000 2.6 90 05:38 09.04.2020
5247 Clouds -3 1024 74 10000 2.1 110 03:49 09.04.2020
5248 Clouds -3 1024 74 10000 3.1 110 02:25 09.04.2020
5249 Clouds -2 1024 74 10000 2.1 140 01:40 09.04.2020
5250 Clouds -3 1024 74 10000 2.1 140 01:20 09.04.2020
5251 Clouds -2 1024 90 10000 2.6 190 00:41 09.04.2020
5252 Clouds -2 1024 90 10000 2.6 190 00:19 09.04.2020
5253 Clouds -1 1023 64 10000 1.5 210 23:57 08.04.2020
5254 Clouds -1 1023 64 10000 1.5 210 23:39 08.04.2020
5255 Clouds -1 1023 64 10000 1.5 210 23:20 08.04.2020
5256 Clouds 0 1023 59 10000 2.6 260 22:43 08.04.2020
5257 Clouds 1 1023 59 10000 2.6 260 22:24 08.04.2020
5258 Clouds 1 1022 51 10000 1.5 230 21:56 08.04.2020
5259 Clouds 2 1022 51 10000 1.5 230 21:37 08.04.2020
5260 Clouds 2 1022 51 10000 1.5 230 21:19 08.04.2020
5261 Clouds 2 1022 51 10000 2.6 290 20:57 08.04.2020
5262 Clouds 2 1022 51 10000 2.6 290 20:38 08.04.2020
5263 Clouds 3 1022 51 10000 2.6 290 20:19 08.04.2020
5264 Clear 3 1022 47 10000 2.6 300 19:42 08.04.2020
5265 Clear 3 1022 47 10000 2.6 300 19:22 08.04.2020
5266 Clear 3 1021 47 10000 2.6 360 18:58 08.04.2020
5267 Clear 3 1021 47 10000 2.6 360 18:40 08.04.2020
5268 Clear 3 1021 47 10000 2.6 360 18:21 08.04.2020
5269 Clear 3 1021 55 10000 3.1 270 17:44 08.04.2020
5270 Clear 2 1021 55 10000 3.1 270 17:22 08.04.2020
5271 Clear 2 1021 51 10000 2.6 310 16:59 08.04.2020
5272 Clear 1 1021 51 10000 2.6 310 16:41 08.04.2020
5273 Clear 1 1021 51 10000 2.6 310 16:22 08.04.2020
5274 Clear 1 1020 55 10000 2.6 300 15:39 08.04.2020
5275 Clear 1 1020 55 10000 2.6 300 15:21 08.04.2020
5276 Clear 1 1019 47 10000 2.1 210 14:59 08.04.2020
5277 Clear 0 1019 47 10000 2.1 210 14:41 08.04.2020
5278 Clear 0 1019 47 10000 2.1 210 14:22 08.04.2020
5279 Clear 0 1019 47 10000 2.1 210 14:22 08.04.2020
5280 Clear 0 1018 50 10000 4.6 120 13:45 08.04.2020
5281 Clear 0 1018 50 10000 4.6 120 13:22 08.04.2020
5282 Clear -1 1017 82 10000 3.1 120 12:58 08.04.2020
5283 Clear -1 1017 82 10000 3.1 120 12:40 08.04.2020
5284 Clear -1 1017 88 10000 3.1 120 12:18 08.04.2020
5285 Clear -2 1016 68 10000 2.1 130 11:42 08.04.2020
5286 Clear -3 1016 68 10000 2.1 130 11:23 08.04.2020
5287 Clear -3 1016 68 10000 2.1 130 11:23 08.04.2020
5288 Clear -2 1015 79 10000 3.17 41 10:59 08.04.2020
5289 Clear -4 1015 79 10000 3.17 41 10:41 08.04.2020
5290 Clear -4 1015 79 10000 3.17 41 10:21 08.04.2020
5291 Clear -5 1014 73 10000 1 130 09:59 08.04.2020
5292 Clear -5 1014 73 10000 1 130 09:41 08.04.2020
5293 Clear -5 1014 73 10000 1 130 09:19 08.04.2020
5294 Clear -5 1012 79 10000 1.5 220 08:58 08.04.2020
5295 Clear -5 1012 79 10000 1.5 220 08:40 08.04.2020
5296 Clear -4 1012 79 10000 1.5 220 08:21 08.04.2020
5297 Clear -4 1011 79 10000 2.1 150 07:43 08.04.2020
5298 Clear -4 1011 79 10000 2.1 150 07:22 08.04.2020
5299 Clear -4 1010 86 10000 3.39 33 06:33 08.04.2020
5300 Clear -2 1009 74 10000 1.5 40 05:30 08.04.2020
5301 Clear -1 1007 80 10000 1 0 03:20 08.04.2020
5302 Clear -1 1006 92 10000 3.1 50 02:38 08.04.2020
5303 Snow -1 1006 94 10000 3.1 50 02:18 08.04.2020
5304 Snow -1 1005 94 10000 3.6 80 01:28 08.04.2020
5305 Snow -1 1004 94 10000 1.5 60 00:50 08.04.2020
5306 Clouds -1 1004 91 10000 1.5 60 00:32 08.04.2020
5307 Clouds -1 1002 80 10000 2.6 50 23:57 07.04.2020
5308 Clouds -1 1002 80 10000 2.6 50 23:38 07.04.2020
5309 Clouds -1 1002 80 10000 2.6 50 23:19 07.04.2020
5310 Clouds -1 1001 86 10000 2.1 350 22:56 07.04.2020
5311 Clouds 0 1001 86 10000 2.1 350 22:38 07.04.2020
5312 Clouds 0 1001 86 10000 2.1 350 22:18 07.04.2020
5313 Rain 1 1000 80 10000 4.1 280 21:43 07.04.2020
5314 Rain 1 1000 80 10000 4.1 280 21:23 07.04.2020
5315 Snow 2 999 74 10000 5.1 150 20:59 07.04.2020
5316 Snow 2 999 74 10000 5.1 150 20:41 07.04.2020
5317 Snow 2 999 74 10000 5.1 150 20:21 07.04.2020
5318 Clouds 2 998 69 10000 3.1 110 19:58 07.04.2020
5319 Clouds 2 998 69 10000 3.1 110 19:38 07.04.2020
5320 Clouds 2 998 69 10000 3.1 110 19:38 07.04.2020
5321 Clouds 2 998 69 10000 3.1 110 19:20 07.04.2020
5322 Snow 2 998 80 10000 6.2 160 18:59 07.04.2020
5323 Snow 2 998 80 10000 6.2 160 18:40 07.04.2020
5324 Snow 2 998 80 10000 6.2 160 18:21 07.04.2020
5325 Rain 3 998 74 10000 0.5 0 17:55 07.04.2020
5326 Rain 3 998 74 10000 0.5 0 17:37 07.04.2020
5327 Rain 3 998 74 10000 0.5 0 17:19 07.04.2020
5328 Rain 3 997 69 10000 2.1 150 16:43 07.04.2020
5329 Rain 2 997 69 10000 2.1 150 16:25 07.04.2020
5330 Rain 2 997 69 10000 2.1 250 15:44 07.04.2020
5331 Rain 2 997 69 10000 2.1 250 15:26 07.04.2020
5332 Rain 2 997 80 10000 2.6 170 14:56 07.04.2020
5333 Rain 2 997 80 10000 2.6 170 14:38 07.04.2020
5334 Rain 2 997 80 10000 2.6 170 14:19 07.04.2020
5335 Rain 1 996 75 10000 2.6 140 13:42 07.04.2020
5336 Rain 1 996 75 10000 2.6 140 13:42 07.04.2020
5337 Rain 1 996 75 10000 2.6 140 13:19 07.04.2020
5338 Snow 1 996 75 10000 3.6 160 12:58 07.04.2020
5339 Snow 0 996 75 10000 3.6 160 12:39 07.04.2020
5340 Snow 0 996 82 10000 3.6 160 12:21 07.04.2020
5341 Rain 0 996 82 10000 2.1 140 11:58 07.04.2020
5342 Rain 0 996 82 10000 2.1 140 11:39 07.04.2020
5343 Rain 0 996 82 10000 2.1 140 11:19 07.04.2020
5344 Rain -1 995 92 10000 5.7 170 10:39 07.04.2020
5345 Rain -1 995 92 10000 5.7 170 10:20 07.04.2020
5346 Rain -1 995 92 10000 5.7 170 10:20 07.04.2020
5347 Rain -1 994 86 10000 4.6 170 09:56 07.04.2020
5348 Rain -1 994 86 10000 4.6 170 09:38 07.04.2020
5349 Rain -1 994 86 10000 4.6 170 09:18 07.04.2020
5350 Clouds -1 993 92 10000 4.1 160 08:40 07.04.2020
5351 Clouds -1 993 92 10000 4.1 160 08:21 07.04.2020
5352 Rain -1 992 92 10000 4.6 160 07:47 07.04.2020
5353 Snow -1 992 92 800 6.7 200 07:26 07.04.2020
5354 Snow -1 992 92 800 8.7 210 06:53 07.04.2020
5355 Snow -1 991 92 5000 8.7 180 06:27 07.04.2020
5356 Rain -1 990 80 10000 7.7 190 05:59 07.04.2020
5357 Rain -1 990 80 10000 7.7 190 05:26 07.04.2020
5358 Rain -1 989 74 10000 12.9 220 04:31 07.04.2020
5359 Rain -1 988 87 10000 9.8 200 03:23 07.04.2020
5360 Snow -1 988 86 2000 11.8 190 02:47 07.04.2020
5361 Clouds -1 986 88 10000 10.3 210 01:43 07.04.2020
5362 Clouds -1 986 88 10000 10.3 210 01:22 07.04.2020
5363 Rain -1 984 80 10000 9.3 180 00:26 07.04.2020
5364 Snow 0 983 89 8000 14.9 190 23:44 06.04.2020
5365 Snow 0 983 89 8000 14.9 190 23:23 06.04.2020
5366 Rain 1 981 59 10000 13.9 210 22:56 06.04.2020
5367 Rain 1 981 59 10000 13.9 210 22:37 06.04.2020
5368 Rain 1 981 59 10000 13.9 210 22:19 06.04.2020
5369 Rain 1 980 74 10000 10.3 210 21:56 06.04.2020
5370 Rain 1 980 74 10000 10.3 210 21:37 06.04.2020
5371 Rain 1 980 74 10000 10.3 210 21:18 06.04.2020
5372 Snow 1 978 93 8000 14.4 200 20:42 06.04.2020
5373 Snow 1 978 93 8000 14.4 200 20:21 06.04.2020
5374 Rain 0 976 80 10000 12.9 210 19:58 06.04.2020
5375 Rain 1 976 80 10000 12.9 210 19:39 06.04.2020
5376 Rain 1 976 80 10000 12.9 210 19:20 06.04.2020
5377 Rain 3 974 69 10000 11.8 190 18:54 06.04.2020
5378 Rain 3 974 69 10000 11.8 190 18:36 06.04.2020
5379 Rain 3 974 69 10000 11.8 190 18:18 06.04.2020
5380 Rain 3 971 69 10000 15.4 200 17:41 06.04.2020
5381 Rain 3 971 69 10000 15.4 200 17:19 06.04.2020
5382 Clouds 4 970 69 10000 12.9 200 16:50 06.04.2020
5383 Clouds 4 970 69 10000 12.9 200 16:31 06.04.2020
5384 Clouds 4 968 87 10000 11.8 190 15:40 06.04.2020
5385 Clouds 4 968 87 10000 11.8 190 15:40 06.04.2020
5386 Drizzle 4 964 85 10000 8.7 160 13:45 06.04.2020
5387 Drizzle 4 964 85 10000 8.7 160 13:24 06.04.2020
5388 Drizzle 4 962 80 10000 7.7 160 12:56 06.04.2020
5389 Drizzle 4 962 80 10000 7.7 160 12:56 06.04.2020
5390 Drizzle 4 962 80 10000 7.7 160 12:56 06.04.2020
5391 Drizzle 4 962 80 10000 7.7 160 12:56 06.04.2020
5392 Drizzle 4 962 80 10000 7.7 160 12:56 06.04.2020
5393 Drizzle 4 962 80 10000 7.7 160 12:21 06.04.2020
5394 Drizzle 4 959 75 10000 15.4 130 11:54 06.04.2020
5395 Drizzle 4 959 75 10000 15.4 130 11:54 06.04.2020
5396 Drizzle 4 959 75 10000 15.4 130 11:31 06.04.2020
5397 Drizzle 4 959 75 10000 15.4 130 11:31 06.04.2020
5398 Drizzle 4 959 75 10000 15.4 130 11:31 06.04.2020
5399 Drizzle 4 959 75 10000 15.4 130 11:31 06.04.2020
5400 Drizzle 4 959 75 10000 15.4 130 11:31 06.04.2020
5401 Drizzle 5 959 81 10000 10.3 120 10:50 06.04.2020
5402 Drizzle 5 959 81 10000 10.3 120 10:50 06.04.2020
5403 Drizzle 5 959 81 10000 10.3 120 10:50 06.04.2020
5404 Drizzle 5 959 81 10000 10.3 120 10:50 06.04.2020
5405 Drizzle 5 959 81 10000 10.3 120 10:50 06.04.2020
5406 Drizzle 5 959 81 10000 10.3 120 10:21 06.04.2020
5407 Rain 6 958 87 5000 10.8 100 09:47 06.04.2020
5408 Rain 6 958 87 5000 10.8 100 09:47 06.04.2020
5409 Rain 6 958 87 5000 10.8 100 09:47 06.04.2020
5410 Rain 6 958 87 5000 10.8 100 09:47 06.04.2020
5411 Rain 6 958 87 5000 10.8 100 09:47 06.04.2020
5412 Rain 7 958 87 5000 10.8 100 09:20 06.04.2020
5413 Rain 7 958 81 3500 9.8 90 08:53 06.04.2020
5414 Rain 6 959 87 6000 8.7 90 08:30 06.04.2020
5415 Rain 6 959 87 4000 9.3 90 07:30 06.04.2020
5416 Rain 6 959 87 4000 9.3 90 07:30 06.04.2020
5417 Rain 6 959 87 4000 9.3 90 07:30 06.04.2020
5418 Rain 6 960 81 6000 10.3 80 06:41 06.04.2020
5419 Rain 5 960 81 6000 10.3 80 06:22 06.04.2020
5420 Rain 5 963 75 9000 10.8 80 04:18 06.04.2020
5421 Rain 5 965 70 10000 12.3 80 02:57 06.04.2020
5422 Rain 5 965 70 10000 12.3 80 02:25 06.04.2020
5423 Rain 4 967 70 10000 11.8 70 01:23 06.04.2020
5424 Rain 4 968 75 10000 10.8 70 00:41 06.04.2020
5425 Rain 3 968 75 10000 10.8 70 00:21 06.04.2020
5426 Drizzle 3 971 89 10000 5.1 0 23:43 05.04.2020
5427 Drizzle 3 971 89 10000 5.1 0 23:25 05.04.2020
5428 Drizzle 3 971 89 10000 5.1 0 23:25 05.04.2020
5429 Drizzle 3 971 89 10000 5.1 0 23:25 05.04.2020
5430 Clouds 1 972 80 10000 7.7 20 22:55 05.04.2020
5431 Clouds 1 972 80 10000 7.7 20 22:55 05.04.2020
5432 Clouds 1 972 80 10000 7.7 20 22:37 05.04.2020
5433 Clouds 1 972 80 10000 7.7 20 22:18 05.04.2020
5434 Snow -1 975 89 8000 7.2 20 21:45 05.04.2020
5435 Snow -1 975 89 8000 7.2 20 21:45 05.04.2020
5436 Snow -1 975 89 8000 7.2 20 21:24 05.04.2020
5437 Snow -1 975 89 8000 7.2 20 21:24 05.04.2020
5438 Snow -1 976 86 3000 10.3 20 20:26 05.04.2020
5439 Snow -2 978 92 1500 11.3 20 19:59 05.04.2020
5440 Snow -2 978 92 1500 11.3 20 19:59 05.04.2020
5441 Snow -2 978 92 1500 11.3 20 19:37 05.04.2020
5442 Snow -2 978 92 1500 11.3 20 19:19 05.04.2020
5443 Snow -2 980 92 700 10.3 20 18:44 05.04.2020
5444 Snow -2 980 92 700 10.3 20 18:44 05.04.2020
5445 Snow -2 980 92 700 10.3 20 18:44 05.04.2020
5446 Snow -2 980 92 700 10.3 20 18:44 05.04.2020
5447 Snow -2 980 92 700 10.3 20 18:44 05.04.2020
5448 Snow -2 982 92 1000 9.8 20 17:51 05.04.2020
5449 Snow -2 982 92 1000 9.8 20 17:51 05.04.2020
5450 Snow -2 982 92 1000 9.8 20 17:51 05.04.2020
5451 Snow -2 982 92 1000 9.8 20 17:51 05.04.2020
5452 Snow -2 982 92 1000 9.8 20 17:51 05.04.2020
5453 Snow -2 982 92 1000 9.8 20 17:24 05.04.2020
5454 Snow -2 984 86 1000 8.7 50 16:47 05.04.2020
5455 Snow -2 984 86 1000 8.7 50 16:20 05.04.2020
5456 Snow -2 984 86 1000 8.7 50 16:20 05.04.2020
5457 Snow -3 986 86 2000 7.2 20 15:49 05.04.2020
5458 Snow -3 986 86 2000 7.2 20 15:30 05.04.2020
5459 Snow -3 988 86 1000 4.1 30 14:48 05.04.2020
5460 Snow -3 988 86 1000 4.1 30 14:24 05.04.2020
5461 Snow -4 989 86 1500 4.1 30 13:41 05.04.2020
5462 Snow -4 990 79 2000 4.6 30 12:48 05.04.2020
5463 Snow -4 991 85 3000 5.7 20 11:41 05.04.2020
5464 Snow -4 991 85 3000 5.7 20 11:20 05.04.2020
5465 Snow -4 991 85 3000 5.7 20 11:20 05.04.2020
5466 Snow -4 993 92 4000 4.1 360 10:48 05.04.2020
5467 Snow -5 993 92 4000 4.1 360 10:24 05.04.2020
5468 Snow -5 993 92 4000 4.1 360 10:24 05.04.2020
5469 Snow -5 994 85 4000 1.5 20 09:56 05.04.2020
5470 Snow -5 994 85 4000 1.5 20 09:31 05.04.2020
5471 Snow -5 994 85 4000 1.5 20 09:31 05.04.2020
5472 Snow -5 994 85 4000 1.5 20 09:31 05.04.2020
5473 Snow -5 995 85 4000 3.1 10 08:57 05.04.2020
5474 Snow -5 995 85 4000 3.1 10 08:57 05.04.2020
5475 Snow -5 995 85 4000 3.1 10 08:57 05.04.2020
5476 Snow -5 995 85 4000 3.1 10 08:57 05.04.2020
5477 Snow -5 995 85 4000 3.1 10 08:57 05.04.2020
5478 Snow -4 996 92 1000 6.2 60 07:25 05.04.2020
5479 Snow -4 996 92 1000 6.2 60 07:25 05.04.2020
5480 Snow -4 996 92 1000 6.2 60 07:25 05.04.2020
5481 Snow -4 999 68 6000 8.7 70 04:33 05.04.2020
5482 Snow -5 1001 79 2000 9.3 50 03:30 05.04.2020
5483 Snow -5 1002 79 2500 9.3 60 02:49 05.04.2020
5484 Snow -5 1002 79 2500 10.3 60 01:46 05.04.2020
5485 Snow -5 1002 79 2500 10.3 60 01:25 05.04.2020
5486 Snow -5 1003 68 6000 7.7 50 00:43 05.04.2020
5487 Snow -5 1003 68 6000 7.7 50 00:21 05.04.2020
5488 Snow -5 1003 79 4000 11.3 60 23:43 04.04.2020
5489 Snow -5 1003 79 4000 11.3 60 23:23 04.04.2020
5490 Snow -4 1003 63 4500 10.8 60 22:58 04.04.2020
5491 Snow -4 1003 63 4500 10.8 60 22:40 04.04.2020
5492 Snow -4 1003 63 4500 10.8 60 22:21 04.04.2020
5493 Snow -4 1003 54 7000 11.8 70 21:58 04.04.2020
5494 Snow -4 1003 54 7000 11.8 70 21:39 04.04.2020
5495 Snow -4 1003 54 7000 11.8 70 21:19 04.04.2020
5496 Snow -4 1003 58 4000 13.4 60 20:58 04.04.2020
5497 Snow -4 1003 58 4000 13.4 60 20:39 04.04.2020
5498 Snow -4 1003 58 4000 13.4 60 20:20 04.04.2020
5499 Snow -4 1004 58 4000 8.7 60 19:56 04.04.2020
5500 Snow -4 1004 58 4000 8.7 60 19:37 04.04.2020
5501 Snow -3 1004 50 10000 10.3 60 19:18 04.04.2020
5502 Snow -3 1004 50 10000 10.8 70 18:55 04.04.2020
5503 Snow -3 1004 50 10000 10.8 70 18:37 04.04.2020
5504 Snow -3 1004 50 10000 10.8 70 18:18 04.04.2020
5505 Clouds -2 1005 46 10000 8.7 70 17:40 04.04.2020
5506 Clouds -2 1005 46 10000 8.7 70 17:20 04.04.2020
5507 Clouds -2 1005 42 10000 7.2 60 16:55 04.04.2020
5508 Clouds -2 1005 42 10000 7.2 60 16:37 04.04.2020
5509 Clouds -2 1005 42 10000 7.2 60 16:19 04.04.2020
5510 Clouds -3 1006 42 10000 4.6 70 15:41 04.04.2020
5511 Clouds -3 1006 42 10000 4.6 70 15:23 04.04.2020
5512 Clouds -3 1006 42 10000 7.2 60 14:59 04.04.2020
5513 Clouds -3 1006 42 10000 7.2 60 14:40 04.04.2020
5514 Clouds -3 1006 42 10000 7.2 60 14:22 04.04.2020
5515 Clouds -4 1007 45 10000 8.7 80 13:55 04.04.2020
5516 Clouds -4 1007 45 10000 8.7 80 13:37 04.04.2020
5517 Clouds -4 1007 45 10000 8.7 80 13:19 04.04.2020
5518 Clouds -4 1007 41 10000 10.8 70 12:44 04.04.2020
5519 Clouds -5 1007 41 10000 10.8 70 12:23 04.04.2020
5520 Clouds -5 1008 41 10000 9.8 80 11:59 04.04.2020
5521 Clouds -5 1008 41 10000 9.8 80 11:38 04.04.2020
5522 Clouds -5 1008 41 10000 9.8 80 11:19 04.04.2020
5523 Clouds -5 1008 35 10000 8.7 70 10:56 04.04.2020
5524 Clouds -5 1008 35 10000 8.7 70 10:37 04.04.2020
5525 Clouds -5 1008 35 10000 8.7 70 10:18 04.04.2020
5526 Clouds -5 1008 45 10000 8.2 70 09:54 04.04.2020
5527 Clouds -5 1008 45 10000 8.2 70 09:36 04.04.2020
5528 Clouds -5 1008 45 10000 8.2 70 09:18 04.04.2020
5529 Clouds -5 1008 38 10000 7.2 60 08:41 04.04.2020
5530 Clouds -5 1008 38 10000 7.2 60 08:20 04.04.2020
5531 Clouds -5 1009 38 10000 5.1 50 07:44 04.04.2020
5532 Clouds -4 1009 38 10000 5.1 50 07:26 04.04.2020
5533 Clouds -4 1009 41 10000 7.2 70 06:51 04.04.2020
5534 Clouds -5 1009 41 10000 7.2 70 06:19 04.04.2020
5535 Clouds -5 1010 41 10000 6.7 70 05:41 04.04.2020
5536 Clouds -5 1010 41 10000 6.7 70 05:23 04.04.2020
5537 Clouds -5 1010 45 10000 8.2 70 04:30 04.04.2020
5538 Clouds -5 1011 45 10000 8.2 70 03:49 04.04.2020
5539 Clouds -4 1011 42 10000 8.2 70 02:51 04.04.2020
5540 Clouds -4 1011 42 10000 8.2 70 02:32 04.04.2020
5541 Clouds -4 1011 42 10000 7.7 70 01:53 04.04.2020
5542 Clouds -4 1011 42 10000 7.7 70 01:25 04.04.2020
5543 Clouds -4 1011 42 10000 7.2 70 00:48 04.04.2020
5544 Clouds -4 1011 42 10000 7.2 70 00:29 04.04.2020
5545 Clouds -4 1012 38 10000 6.7 70 23:40 03.04.2020
5546 Clouds -4 1012 38 10000 6.7 70 23:21 03.04.2020
5547 Clouds -3 1012 36 10000 6.2 80 22:58 03.04.2020
5548 Clouds -3 1012 36 10000 6.2 80 22:39 03.04.2020
5549 Clouds -3 1012 36 10000 6.2 80 22:18 03.04.2020
5550 Clouds -3 1012 36 10000 8.2 70 21:44 03.04.2020
5551 Clouds -3 1012 36 10000 8.2 70 21:25 03.04.2020
5552 Clouds -3 1012 42 10000 7.2 60 20:57 03.04.2020
5553 Clouds -3 1012 42 10000 7.2 60 20:38 03.04.2020
5554 Clouds -3 1012 42 10000 7.2 60 20:20 03.04.2020
5555 Clouds -2 1012 39 10000 7.7 60 19:57 03.04.2020
5556 Clouds -2 1012 39 10000 7.7 60 19:39 03.04.2020
5557 Clouds -2 1012 39 10000 7.7 60 19:21 03.04.2020
5558 Clouds -2 1012 39 10000 8.2 60 18:59 03.04.2020
5559 Clouds -2 1012 39 10000 8.2 60 18:41 03.04.2020
5560 Clouds -2 1012 39 10000 8.2 60 18:41 03.04.2020
5561 Clouds -2 1012 39 10000 8.2 60 18:23 03.04.2020
5562 Clouds -2 1012 42 10000 7.2 70 17:57 03.04.2020
5563 Clouds -2 1012 42 10000 7.2 70 17:39 03.04.2020
5564 Clouds -2 1012 42 10000 7.2 70 17:18 03.04.2020
5565 Clouds -1 1012 82 10000 7.7 70 16:45 03.04.2020
5566 Clouds -1 1012 82 10000 7.7 70 16:22 03.04.2020
5567 Clouds -1 1012 36 10000 6.7 60 15:58 03.04.2020
5568 Clouds -2 1012 36 10000 6.7 60 15:40 03.04.2020
5569 Clouds -1 1012 36 10000 6.7 60 15:21 03.04.2020
5570 Clouds -1 1012 33 10000 5.7 50 14:56 03.04.2020
5571 Clouds -3 1013 72 0 7.15 92 14:38 03.04.2020
5572 Clouds -1 1012 33 10000 5.7 60 14:20 03.04.2020
5573 Clouds -2 1012 33 10000 5.7 60 13:43 03.04.2020
5574 Clouds -1 1012 33 10000 5.7 60 13:25 03.04.2020
5575 Clouds -2 1012 36 10000 3.1 40 12:56 03.04.2020
5576 Clouds -2 1012 36 10000 3.1 40 12:37 03.04.2020
5577 Clouds -3 1012 36 10000 3.1 40 12:18 03.04.2020
5578 Clouds -3 1012 35 10000 3.1 60 11:55 03.04.2020
5579 Clouds -3 1012 35 10000 3.1 60 11:37 03.04.2020
5580 Clouds -3 1012 35 10000 3.1 60 11:18 03.04.2020
5581 Clouds -5 1012 49 10000 2.1 30 10:55 03.04.2020
5582 Clouds -5 1012 49 10000 2.1 30 10:36 03.04.2020
5583 Clouds -5 1012 49 10000 2.1 30 10:18 03.04.2020
5584 Clouds -6 1013 53 10000 2.1 70 09:40 03.04.2020
5585 Clouds -6 1013 53 10000 2.1 70 09:40 03.04.2020
5586 Clear -6 1013 53 10000 2.1 70 09:22 03.04.2020
5587 Clear -6 1013 53 10000 2.1 70 08:58 03.04.2020
5588 Clear -6 1013 53 10000 2.1 70 08:40 03.04.2020
5589 Clear -6 1013 53 10000 2.1 70 08:40 03.04.2020
5590 Clear -6 1013 53 10000 2.1 70 08:22 03.04.2020
5591 Clear -6 1014 62 10000 1.5 100 07:50 03.04.2020
5592 Clear -6 1014 62 10000 1.5 100 07:32 03.04.2020
5593 Clear -6 1014 57 10000 0.5 0 06:50 03.04.2020
5594 Clear -7 1014 57 10000 0.5 0 06:25 03.04.2020
5595 Clear -6 1014 57 10000 1.5 50 05:40 03.04.2020
5596 Clear -6 1015 53 10000 2.6 90 03:45 03.04.2020
5597 Clear -6 1015 53 10000 2.6 90 03:23 03.04.2020
5598 Clear -5 1015 49 10000 1 0 02:28 03.04.2020
5599 Clear -5 1015 53 10000 2.6 120 01:23 03.04.2020
5600 Clear -5 1015 53 10000 2.6 110 00:41 03.04.2020
5601 Clear -4 1015 53 10000 2.6 110 00:20 03.04.2020
5602 Clear -4 1015 49 10000 4.6 70 23:42 02.04.2020
5603 Clear -4 1015 49 10000 4.6 70 23:23 02.04.2020
5604 Clear -3 1015 42 10000 3.6 50 22:59 02.04.2020
5605 Clear -3 1015 42 10000 3.6 50 22:41 02.04.2020
5606 Clear -3 1015 42 10000 3.6 50 22:20 02.04.2020
5607 Clear -2 1015 46 10000 6.2 360 21:55 02.04.2020
5608 Clear -2 1015 46 10000 6.2 360 21:36 02.04.2020
5609 Clear -2 1015 46 10000 6.2 360 21:18 02.04.2020
5610 Clouds -2 1015 86 10000 5.1 360 20:42 02.04.2020
5611 Clouds -1 1015 86 10000 5.1 360 20:22 02.04.2020
5612 Clear -1 1015 86 10000 3.6 20 19:55 02.04.2020
5613 Clear -1 1015 86 10000 3.6 20 19:37 02.04.2020
5614 Clear -1 1015 86 10000 3.6 20 19:18 02.04.2020
5615 Clear 0 1015 40 10000 1.5 0 18:41 02.04.2020
5616 Clouds 0 1015 40 10000 1.5 0 18:21 02.04.2020
5617 Clouds 0 1015 40 10000 1.5 0 18:21 02.04.2020
5618 Clouds -1 1015 85 10000 5.1 10 17:57 02.04.2020
5619 Clouds -1 1015 85 10000 5.1 10 17:39 02.04.2020
5620 Clouds -1 1015 85 10000 5.1 10 17:20 02.04.2020
5621 Clouds 0 1016 55 10000 3.6 360 16:56 02.04.2020
5622 Clouds -1 1016 55 10000 3.6 360 16:38 02.04.2020
5623 Clouds -1 1016 55 10000 3.6 360 16:20 02.04.2020
5624 Clouds -1 1016 47 10000 2.6 50 15:54 02.04.2020
5625 Clouds 0 1016 47 10000 2.6 50 15:36 02.04.2020
5626 Clouds -1 1016 47 10000 2.6 50 15:18 02.04.2020
5627 Clouds -1 1015 50 10000 6.7 20 14:40 02.04.2020
5628 Clouds -1 1015 50 10000 6.7 20 14:21 02.04.2020
5629 Clouds -1 1016 86 10000 6.7 10 13:58 02.04.2020
5630 Clouds -1 1016 86 10000 6.7 10 13:39 02.04.2020
5631 Clouds -1 1016 86 10000 6.7 10 13:21 02.04.2020
5632 Clouds -1 1015 86 10000 2.6 30 12:56 02.04.2020
5633 Clouds -1 1015 86 10000 2.6 30 12:38 02.04.2020
5634 Clouds -1 1015 89 10000 2.6 30 12:19 02.04.2020
5635 Clouds -1 1015 89 10000 2.6 30 12:19 02.04.2020
5636 Clouds -2 1015 68 10000 11.3 20 11:57 02.04.2020
5637 Clouds -2 1015 68 10000 11.3 20 11:38 02.04.2020
5638 Clouds -2 1015 68 10000 11.3 20 11:19 02.04.2020
5639 Clouds -2 1014 68 10000 6.7 40 10:55 02.04.2020
5640 Clouds -2 1014 68 10000 6.7 40 10:37 02.04.2020
5641 Clouds -2 1014 68 10000 6.7 40 10:19 02.04.2020
5642 Clouds -2 1013 74 10000 11.3 10 09:43 02.04.2020
5643 Clouds -2 1013 74 10000 11.3 10 09:25 02.04.2020
5644 Rain -2 1013 86 9000 6.2 350 08:59 02.04.2020
5645 Rain -2 1013 86 9000 6.2 350 08:40 02.04.2020
5646 Rain -2 1013 86 9000 6.2 350 08:22 02.04.2020
5647 Snow -3 1011 86 8000 10.3 320 07:45 02.04.2020
5648 Snow -3 1011 86 8000 10.3 320 07:20 02.04.2020
5649 Clouds -2 1012 74 10000 6.7 330 06:58 02.04.2020
5650 Clouds -3 1012 74 10000 6.7 330 06:21 02.04.2020
5651 Clouds -3 1012 68 10000 6.7 320 05:45 02.04.2020
5652 Clouds -4 1012 63 10000 6.2 330 04:33 02.04.2020
5653 Clouds -5 1011 62 10000 8.7 350 01:35 02.04.2020
5654 Clouds -4 1009 73 10000 5.1 340 00:48 02.04.2020
5655 Clouds -4 1009 73 10000 5.1 340 00:26 02.04.2020
5656 Clouds -3 1008 58 10000 6.2 310 23:54 01.04.2020
5657 Clouds -3 1008 58 10000 6.2 310 23:36 01.04.2020
5658 Clouds -3 1008 58 10000 6.2 310 23:18 01.04.2020
5659 Rain -4 1007 53 10000 9.3 310 22:40 01.04.2020
5660 Rain -4 1007 53 10000 9.3 310 22:21 01.04.2020
5661 Snow -5 1006 79 10000 13.9 300 21:55 01.04.2020
5662 Snow -4 1006 79 10000 13.9 300 21:36 01.04.2020
5663 Snow -4 1006 79 10000 13.9 300 21:18 01.04.2020
5664 Rain -4 1005 63 10000 12.3 300 20:54 01.04.2020
5665 Rain -4 1005 63 10000 12.3 300 20:54 01.04.2020
5666 Rain -4 1005 63 10000 12.3 300 20:36 01.04.2020
5667 Rain -4 1005 63 10000 12.3 300 20:18 01.04.2020
5668 Snow -5 1005 85 800 11.8 310 19:41 01.04.2020
5669 Snow -4 1005 85 800 11.8 310 19:21 01.04.2020
5670 Rain -3 1004 79 8000 15.4 280 18:46 01.04.2020
5671 Rain -3 1004 79 8000 15.4 280 18:27 01.04.2020
5672 Snow -3 1004 86 600 12.9 260 17:59 01.04.2020
5673 Snow -3 1004 86 600 12.9 260 17:59 01.04.2020
5674 Snow -3 1004 86 600 12.9 260 17:39 01.04.2020
5675 Snow -3 1004 79 3000 15.9 270 17:21 01.04.2020
5676 Snow -3 1004 79 3000 15.9 270 17:21 01.04.2020
5677 Rain -3 1004 74 6000 13.9 270 16:59 01.04.2020
5678 Rain -2 1004 74 6000 13.9 270 16:41 01.04.2020
5679 Snow -3 1005 86 700 13.9 270 16:22 01.04.2020
5680 Snow -3 1006 86 2000 14.9 270 15:58 01.04.2020
5681 Snow -3 1006 86 2000 14.9 270 15:38 01.04.2020
5682 Snow -3 1006 86 2000 14.9 270 15:38 01.04.2020
5683 Rain -1 1006 74 7000 15.9 270 15:20 01.04.2020
5684 Rain -1 1007 78 9000 14.9 270 14:57 01.04.2020
5685 Rain -1 1007 78 9000 14.9 270 14:38 01.04.2020
5686 Rain 0 1007 78 9000 14.9 270 14:19 01.04.2020
5687 Rain -1 1007 79 10000 15.4 260 13:57 01.04.2020
5688 Rain 0 1007 79 10000 15.4 260 13:37 01.04.2020
5689 Rain 0 1007 79 10000 15.4 260 13:18 01.04.2020
5690 Rain 0 1008 59 8000 15.9 270 12:54 01.04.2020
5691 Rain 0 1008 59 8000 15.9 270 12:36 01.04.2020
5692 Rain 0 1008 59 8000 15.9 270 12:18 01.04.2020
5693 Rain 1 1008 51 10000 14.9 260 11:40 01.04.2020
5694 Rain 2 1008 51 10000 14.9 260 11:21 01.04.2020
5695 Clouds 2 1009 55 10000 15.4 240 10:57 01.04.2020
5696 Clouds 2 1009 55 10000 15.4 240 10:37 01.04.2020
5697 Clouds 2 1009 55 10000 15.4 240 10:18 01.04.2020
5698 Clouds 2 1009 55 10000 15.4 240 10:18 01.04.2020
5699 Clouds 2 1010 59 10000 11.3 240 09:55 01.04.2020
5700 Clouds 2 1010 59 10000 11.3 240 09:37 01.04.2020
5701 Clouds 2 1010 59 10000 11.3 240 09:18 01.04.2020
5702 Clouds 2 1010 59 10000 11.3 240 09:18 01.04.2020
5703 Clouds 2 1012 59 10000 9.8 250 08:40 01.04.2020
5704 Clouds 2 1012 59 10000 9.8 250 08:18 01.04.2020
5705 Clouds 2 1013 80 10000 7.7 270 07:43 01.04.2020
5706 Clouds 1 1013 80 10000 7.7 270 07:21 01.04.2020
5707 Clouds 1 1014 80 10000 1.5 330 06:48 01.04.2020
5708 Clouds 1 1014 80 10000 1.5 330 06:24 01.04.2020
5709 Clouds 1 1015 80 10000 8.2 270 05:56 01.04.2020
5710 Clouds 1 1016 69 10000 6.2 310 04:32 01.04.2020
5711 Clouds 1 1016 69 10000 11.3 280 03:30 01.04.2020
5712 Clouds 1 1017 74 10000 10.3 290 02:56 01.04.2020
5713 Clouds 1 1017 74 10000 10.3 290 01:59 01.04.2020
5714 Clouds 1 1017 74 10000 10.3 290 01:38 01.04.2020
5715 Clouds 2 1017 74 10000 10.3 290 01:18 01.04.2020
5716 Clouds 1 1018 80 10000 9.3 280 00:46 01.04.2020
5717 Clouds 2 1018 80 10000 9.3 280 00:21 01.04.2020
5718 Drizzle 2 1018 74 10000 10.3 280 23:42 31.03.2020
5719 Drizzle 2 1018 74 10000 10.3 280 23:23 31.03.2020
5720 Rain 3 1018 74 10000 9.8 280 22:58 31.03.2020
5721 Rain 2 1018 74 10000 9.8 280 22:37 31.03.2020
5722 Rain 2 1018 74 10000 9.8 280 22:19 31.03.2020
5723 Drizzle 3 1017 81 10000 8.7 270 21:56 31.03.2020
5724 Drizzle 3 1017 81 10000 8.7 270 21:38 31.03.2020
5725 Drizzle 3 1017 81 10000 8.7 270 21:19 31.03.2020
5726 Drizzle 3 1017 80 10000 9.8 260 20:55 31.03.2020
5727 Drizzle 3 1017 80 10000 9.8 260 20:36 31.03.2020
5728 Drizzle 4 1017 80 10000 9.8 260 20:18 31.03.2020
5729 Drizzle 4 1017 75 7000 9.3 260 19:42 31.03.2020
5730 Drizzle 4 1017 75 7000 9.3 260 19:42 31.03.2020
5731 Drizzle 4 1017 75 7000 9.3 260 19:42 31.03.2020
5732 Drizzle 5 1017 75 7000 9.3 260 19:23 31.03.2020
5733 Rain 5 1017 80 9000 8.7 250 18:59 31.03.2020
5734 Rain 5 1017 80 9000 8.7 250 18:40 31.03.2020
5735 Rain 5 1017 80 9000 8.7 250 18:19 31.03.2020
5736 Mist 5 1017 80 10000 9.8 240 17:55 31.03.2020
5737 Mist 5 1017 80 10000 9.8 240 17:37 31.03.2020
5738 Mist 5 1017 80 10000 9.8 240 17:19 31.03.2020
5739 Rain 6 1017 87 10000 8.7 230 16:41 31.03.2020
5740 Rain 6 1017 87 10000 8.7 230 16:20 31.03.2020
5741 Drizzle 6 1017 87 4000 12.9 230 15:57 31.03.2020
5742 Drizzle 6 1017 87 4000 12.9 230 15:39 31.03.2020
5743 Drizzle 6 1017 87 4000 12.9 230 15:39 31.03.2020
5744 Drizzle 6 1017 87 4000 12.9 230 15:21 31.03.2020
5745 Drizzle 6 1018 87 5000 12.3 220 14:57 31.03.2020
5746 Drizzle 6 1018 87 5000 12.3 220 14:39 31.03.2020
5747 Drizzle 6 1018 87 5000 12.3 220 14:21 31.03.2020
5748 Drizzle 6 1019 87 6000 12.9 210 13:43 31.03.2020
5749 Drizzle 6 1019 87 6000 12.9 210 13:20 31.03.2020
5750 Drizzle 6 1020 87 6000 11.8 210 12:59 31.03.2020
5751 Drizzle 6 1020 87 6000 11.8 210 12:40 31.03.2020
5752 Drizzle 6 1020 87 6000 11.8 210 12:19 31.03.2020
5753 Drizzle 6 1021 87 3400 11.3 210 11:40 31.03.2020
5754 Drizzle 6 1021 87 3400 11.3 210 11:20 31.03.2020
5755 Drizzle 6 1023 87 7000 11.3 210 10:59 31.03.2020
5756 Drizzle 6 1023 87 7000 11.3 210 10:40 31.03.2020
5757 Drizzle 6 1023 87 7000 11.3 210 10:22 31.03.2020
5758 Mist 6 1023 87 7000 10.8 210 09:59 31.03.2020
5759 Mist 6 1023 87 7000 10.8 210 09:40 31.03.2020
5760 Mist 6 1023 87 7000 10.8 210 09:22 31.03.2020
5761 Mist 6 1024 81 9000 9.3 210 08:57 31.03.2020
5762 Mist 6 1024 81 9000 9.3 210 08:38 31.03.2020
5763 Mist 6 1024 81 9000 9.3 210 08:19 31.03.2020
5764 Mist 6 1024 81 9000 9.3 210 08:19 31.03.2020
5765 Mist 6 1025 87 9000 9.3 210 07:56 31.03.2020
5766 Mist 6 1025 87 9000 9.3 210 07:37 31.03.2020
5767 Mist 6 1025 87 9000 9.3 210 07:19 31.03.2020
5768 Mist 6 1026 87 8000 8.7 210 06:46 31.03.2020
5769 Mist 6 1026 87 8000 8.7 210 06:20 31.03.2020
5770 Mist 6 1027 87 8000 7.7 220 05:39 31.03.2020
5771 Mist 6 1029 81 9000 7.2 220 03:34 31.03.2020
5772 Mist 5 1029 86 9000 6.7 220 02:18 31.03.2020
5773 Clouds 5 1029 80 10000 8.7 220 01:45 31.03.2020
5774 Clouds 5 1030 80 10000 7.7 220 00:49 31.03.2020
5775 Clouds 5 1030 80 10000 7.7 220 00:25 31.03.2020
5776 Clouds 5 1030 80 10000 9.3 220 23:56 30.03.2020
5777 Clouds 5 1030 80 10000 9.3 220 23:37 30.03.2020
5778 Clouds 5 1030 80 10000 9.3 220 23:18 30.03.2020
5779 Rain 5 1030 80 10000 9.3 220 22:55 30.03.2020
5780 Rain 5 1030 80 10000 9.3 220 22:36 30.03.2020
5781 Rain 5 1030 80 10000 9.3 220 22:18 30.03.2020
5782 Mist 5 1031 80 10000 9.3 220 21:54 30.03.2020
5783 Mist 5 1031 80 10000 9.3 220 21:36 30.03.2020
5784 Mist 5 1031 80 10000 9.3 220 21:36 30.03.2020
5785 Mist 5 1031 80 10000 9.3 220 21:18 30.03.2020
5786 Clouds 6 1031 75 10000 9.3 230 20:40 30.03.2020
5787 Clouds 5 1031 75 10000 9.3 230 20:22 30.03.2020
5788 Clouds 6 1032 75 10000 10.3 230 19:59 30.03.2020
5789 Clouds 6 1032 75 10000 10.3 230 19:39 30.03.2020
5790 Clouds 6 1032 75 10000 10.3 230 19:21 30.03.2020
5791 Clouds 6 1033 75 10000 9.3 230 18:56 30.03.2020
5792 Clouds 6 1033 75 10000 9.3 230 18:37 30.03.2020
5793 Clouds 6 1033 75 10000 9.3 230 18:19 30.03.2020
5794 Rain 6 1034 75 10000 10.3 220 17:55 30.03.2020
5795 Rain 6 1034 75 10000 10.3 220 17:36 30.03.2020
5796 Rain 6 1034 75 10000 10.3 220 17:18 30.03.2020
5797 Clouds 6 1035 75 10000 7.7 230 16:54 30.03.2020
5798 Clouds 6 1035 75 10000 7.7 230 16:36 30.03.2020
5799 Clouds 6 1035 75 10000 7.7 230 16:18 30.03.2020
5800 Clouds 6 1036 75 10000 8.2 220 15:41 30.03.2020
5801 Clouds 6 1036 75 10000 8.2 220 15:22 30.03.2020
5802 Clouds 5 1036 80 10000 7.7 210 14:59 30.03.2020
5803 Clouds 5 1036 80 10000 7.7 210 14:38 30.03.2020
5804 Clouds 5 1036 80 10000 7.7 210 14:19 30.03.2020
5805 Clouds 5 1037 80 10000 7.7 210 13:58 30.03.2020
5806 Clouds 5 1037 80 10000 7.7 210 13:58 30.03.2020
5807 Clouds 5 1037 80 10000 7.7 210 13:39 30.03.2020
5808 -273 0 0 0 0 0 13:20 30.03.2020
5809 Clouds 5 1038 75 10000 8.2 220 12:54 30.03.2020
5810 Clouds 5 1038 75 10000 8.2 220 12:36 30.03.2020
5811 Clouds 5 1038 75 10000 8.2 220 12:18 30.03.2020
5812 Mist 5 1038 80 10000 7.7 210 11:42 30.03.2020
5813 Mist 5 1038 80 10000 7.7 210 11:22 30.03.2020
5814 Rain 5 1039 75 10000 6.2 200 10:57 30.03.2020
5815 Rain 5 1039 75 10000 6.2 200 10:38 30.03.2020
5816 Rain 5 1039 75 10000 6.2 200 10:20 30.03.2020
5817 Rain 5 1040 75 10000 5.7 200 09:54 30.03.2020
5818 Rain 5 1040 75 10000 5.7 200 09:36 30.03.2020
5819 Rain 5 1040 75 10000 5.7 200 09:18 30.03.2020
5820 Drizzle 5 1040 80 10000 5.1 210 08:39 30.03.2020
5821 -273 0 0 0 0 0 08:20 30.03.2020
5822 Clouds 5 1041 86 10000 4.6 200 07:45 30.03.2020
5823 Clouds 4 1041 86 10000 4.6 200 07:23 30.03.2020
5824 Drizzle 4 1041 86 10000 4.6 190 06:47 30.03.2020
5825 Drizzle 4 1041 86 10000 4.6 190 06:27 30.03.2020
5826 Drizzle 4 1042 80 10000 4.6 190 05:44 30.03.2020
5827 Rain 4 1043 80 10000 5.1 200 04:40 30.03.2020
5828 Rain 4 1043 80 10000 5.1 200 04:20 30.03.2020
5829 Rain 4 1044 80 10000 6.2 210 02:52 30.03.2020
5830 Clouds 4 1044 80 10000 6.2 200 01:58 30.03.2020
5831 Clouds 4 1044 80 10000 6.2 200 01:24 30.03.2020
5832 Clouds 4 1044 80 10000 6.2 200 00:30 30.03.2020
5833 Clouds 4 1045 80 10000 6.2 200 23:59 29.03.2020
5834 Clouds 4 1045 80 10000 6.2 200 23:40 29.03.2020
5835 Clouds 4 1045 80 10000 6.2 200 23:21 29.03.2020
5836 Clouds 4 1045 80 10000 6.2 220 22:55 29.03.2020
5837 Clouds 4 1045 80 10000 6.2 220 22:37 29.03.2020
5838 Clouds 4 1045 80 10000 6.2 220 22:18 29.03.2020
5839 Rain 5 1046 80 10000 7.2 220 21:40 29.03.2020
5840 Clouds 5 1046 75 10000 7.7 220 21:21 29.03.2020
5841 Clouds 5 1046 75 10000 7.7 220 20:56 29.03.2020
5842 Clouds 5 1046 75 10000 7.7 220 20:38 29.03.2020
5843 Clouds 5 1046 75 10000 7.7 220 20:19 29.03.2020
5844 Clouds 5 1046 75 10000 7.7 220 20:19 29.03.2020
5845 Clouds 5 1047 80 10000 7.2 230 19:59 29.03.2020
5846 Clouds 5 1047 80 10000 7.2 230 19:41 29.03.2020
5847 Clouds 5 1047 80 10000 7.2 230 19:23 29.03.2020
5848 Clouds 6 1046 81 10000 6.7 220 18:57 29.03.2020
5849 Clouds 6 1046 81 10000 6.7 220 18:39 29.03.2020
5850 Clouds 6 1046 81 10000 6.7 220 18:20 29.03.2020
5851 Clouds 6 1047 81 10000 7.2 230 17:56 29.03.2020
5852 Clouds 6 1047 81 10000 7.2 230 17:38 29.03.2020
5853 Clouds 6 1047 81 10000 7.2 230 17:19 29.03.2020
5854 Clouds 6 1047 81 10000 7.7 230 16:56 29.03.2020
5855 Clouds 6 1047 81 10000 7.7 230 16:38 29.03.2020
5856 Clouds 6 1047 81 10000 7.7 230 16:38 29.03.2020
5857 Clouds 6 1047 81 10000 7.7 230 16:19 29.03.2020
5858 Clouds 6 1047 81 10000 7.2 230 15:42 29.03.2020
5859 Clouds 6 1047 81 10000 7.2 230 15:42 29.03.2020
5860 Clouds 6 1047 81 10000 7.2 230 15:42 29.03.2020
5861 Clouds 6 1047 81 10000 7.2 230 15:24 29.03.2020
5862 Clouds 6 1047 81 10000 7.2 220 14:59 29.03.2020
5863 Clouds 6 1047 81 10000 7.2 220 14:40 29.03.2020
5864 Clouds 6 1047 81 10000 7.2 220 14:40 29.03.2020
5865 Clouds 6 1047 81 10000 7.2 220 14:20 29.03.2020
5866 Clouds 5 1047 86 10000 6.2 210 13:58 29.03.2020
5867 Clouds 5 1047 86 10000 6.2 210 13:40 29.03.2020
5868 Clouds 5 1047 86 10000 6.2 210 13:20 29.03.2020
5869 Clouds 5 1047 86 10000 6.7 210 12:57 29.03.2020
5870 Clouds 5 1047 86 10000 6.7 210 12:38 29.03.2020
5871 Clouds 5 1047 86 10000 6.7 210 12:19 29.03.2020
5872 Clouds 5 1047 86 10000 6.7 210 12:19 29.03.2020
5873 Clouds 5 1046 86 10000 6.7 220 11:55 29.03.2020
5874 Clouds 5 1046 86 10000 6.7 220 11:37 29.03.2020
5875 Clouds 5 1046 86 10000 6.7 220 11:19 29.03.2020
5876 Clouds 5 1046 86 10000 6.7 220 11:19 29.03.2020
5877 Drizzle 4 1046 93 6000 6.7 210 10:38 29.03.2020
5878 Drizzle 4 1046 93 6000 6.7 210 10:19 29.03.2020
5879 Rain 4 1046 86 10000 6.7 210 09:41 29.03.2020
5880 Rain 4 1046 86 10000 6.7 210 09:23 29.03.2020
5881 Rain 4 1046 86 10000 6.2 210 08:57 29.03.2020
5882 Rain 4 1046 86 10000 6.2 210 08:39 29.03.2020
5883 Rain 4 1046 86 10000 6.2 210 08:20 29.03.2020
5884 Clouds 5 1046 86 10000 6.2 210 07:44 29.03.2020
5885 Clouds 4 1046 86 10000 6.2 210 07:21 29.03.2020
5886 Clouds 5 1047 80 10000 6.7 200 05:59 29.03.2020
5887 Clouds 4 1047 86 10000 6.7 200 04:56 29.03.2020
5888 Clouds 4 1048 80 10000 4.6 220 03:37 29.03.2020
5889 Clouds 3 1048 80 10000 6.2 200 01:57 29.03.2020
5890 Clouds 3 1048 80 10000 6.2 200 01:37 29.03.2020
5891 Clouds 3 1048 80 10000 6.2 200 01:19 29.03.2020
5892 Clouds 2 1048 86 10000 4.1 190 00:39 29.03.2020
5893 Rain 2 1048 86 10000 4.6 190 23:59 28.03.2020
5894 Rain 2 1048 86 10000 4.6 190 23:40 28.03.2020
5895 Rain 2 1048 86 10000 4.6 190 23:40 28.03.2020
5896 Rain 2 1048 86 10000 4.6 190 23:22 28.03.2020
5897 Drizzle 2 1049 85 10000 3.1 190 22:42 28.03.2020
5898 Drizzle 2 1049 85 10000 3.1 190 22:22 28.03.2020
5899 Clouds 2 1049 85 10000 3.1 210 21:57 28.03.2020
5900 Clouds 2 1049 85 10000 3.1 210 21:39 28.03.2020
5901 Clouds 2 1049 85 10000 3.1 210 21:19 28.03.2020
5902 Clouds 2 1049 74 10000 3.6 190 20:56 28.03.2020
5903 Clouds 2 1049 74 10000 3.6 190 20:37 28.03.2020
5904 Clouds 2 1049 74 10000 3.6 190 20:18 28.03.2020
5905 Clouds 2 1049 69 10000 5.7 230 19:55 28.03.2020
5906 Clouds 2 1049 69 10000 5.7 230 19:36 28.03.2020
5907 Clouds 3 1049 69 10000 5.7 230 19:18 28.03.2020
5908 Clouds 3 1049 69 10000 4.6 230 18:39 28.03.2020
5909 Clouds 3 1049 69 10000 4.6 230 18:20 28.03.2020
5910 Clouds 3 1049 69 10000 3.6 200 17:42 28.03.2020
5911 Clouds 3 1049 69 10000 3.6 200 17:22 28.03.2020
5912 Clouds 3 1049 69 10000 4.6 210 16:59 28.03.2020
5913 Clouds 3 1049 69 10000 4.6 210 16:39 28.03.2020
5914 Clouds 3 1049 69 10000 4.6 210 16:18 28.03.2020
5915 Clouds 3 1049 64 10000 4.6 210 15:40 28.03.2020
5916 Clouds 2 1049 64 10000 4.6 210 15:21 28.03.2020
5917 Clouds 2 1049 64 10000 4.1 200 14:59 28.03.2020
5918 Clouds 2 1049 64 10000 4.1 200 14:40 28.03.2020
5919 Clouds 2 1049 64 10000 4.1 200 14:21 28.03.2020
5920 Clouds 2 1049 64 10000 3.6 200 13:43 28.03.2020
5921 Clouds 1 1049 64 10000 3.6 200 13:23 28.03.2020
5922 Clouds 0 1049 69 10000 4.1 200 12:41 28.03.2020
5923 Clouds 0 1049 69 10000 4.1 200 12:23 28.03.2020
5924 Clouds -1 1049 64 10000 2.1 160 11:59 28.03.2020
5925 Clouds -1 1049 64 10000 2.1 160 11:41 28.03.2020
5926 Clouds -1 1049 64 10000 2.1 160 11:20 28.03.2020
5927 Clouds -2 1049 68 10000 1 0 10:40 28.03.2020
5928 Clouds -3 1049 68 10000 1 0 10:22 28.03.2020
5929 Clouds -4 1048 68 10000 1.5 110 09:43 28.03.2020
5930 Clouds -4 1048 68 10000 1.5 110 09:24 28.03.2020
5931 Clouds -2 1048 73 10000 2.6 120 08:59 28.03.2020
5932 Clouds -2 1048 73 10000 2.6 120 08:41 28.03.2020
5933 Clouds -5 1048 73 10000 2.6 120 08:22 28.03.2020
5934 Clouds -5 1047 68 10000 1.5 100 07:46 28.03.2020
5935 Clouds -5 1047 68 10000 1.5 100 07:28 28.03.2020
5936 Clouds -2 1047 68 10000 2.6 110 06:37 28.03.2020
5937 Clouds -5 1047 68 10000 2.6 110 06:18 28.03.2020
5938 Clouds -5 1046 68 10000 2.6 110 05:23 28.03.2020
5939 Clouds -5 1046 68 10000 2.1 120 04:42 28.03.2020
5940 Clouds -4 1046 68 10000 2.1 120 04:20 28.03.2020
5941 Clouds -4 1045 68 10000 1.5 130 02:33 28.03.2020
5942 Clouds -4 1044 68 10000 2.1 140 01:45 28.03.2020
5943 Clouds -4 1044 68 10000 2.1 140 01:20 28.03.2020
5944 Clouds -4 1044 68 10000 1 140 00:46 28.03.2020
5945 Clouds -3 1044 68 10000 1 140 00:20 28.03.2020
5946 Clouds -2 1043 89 10000 0.5 0 23:42 27.03.2020
5947 Clouds -3 1043 89 10000 0.5 0 23:23 27.03.2020
5948 Clouds -2 1042 89 10000 2.1 350 22:56 27.03.2020
5949 Clouds -2 1042 89 10000 2.1 350 22:38 27.03.2020
5950 Clouds -1 1042 89 10000 2.1 350 22:20 27.03.2020
5951 Clouds -1 1040 55 10000 2.1 330 21:55 27.03.2020
5952 Clouds -1 1040 55 10000 2.1 330 21:37 27.03.2020
5953 Clouds -1 1040 55 10000 2.1 330 21:19 27.03.2020
5954 Clouds -1 1039 55 10000 3.1 330 20:42 27.03.2020
5955 Clouds -1 1039 55 10000 3.1 330 20:21 27.03.2020
5956 Clouds 0 1038 55 10000 4.6 320 19:59 27.03.2020
5957 Clouds 0 1038 55 10000 4.6 320 19:41 27.03.2020
5958 Clouds 0 1038 55 10000 4.6 320 19:22 27.03.2020
5959 Clouds 0 1037 55 10000 3.6 320 18:56 27.03.2020
5960 Clouds 0 1037 55 10000 3.6 320 18:38 27.03.2020
5961 Clouds 0 1037 55 10000 3.6 320 18:19 27.03.2020
5962 Clouds 0 1036 55 10000 6.7 290 17:40 27.03.2020
5963 Clouds 0 1036 55 10000 6.7 290 17:20 27.03.2020
5964 Clouds 0 1034 50 10000 6.7 300 16:54 27.03.2020
5965 Clouds 0 1034 50 10000 6.7 300 16:36 27.03.2020
5966 Clouds 0 1034 50 10000 6.7 300 16:36 27.03.2020
5967 Clouds 0 1034 50 10000 6.7 300 16:18 27.03.2020
5968 Clouds 1 1033 50 10000 6.2 290 15:41 27.03.2020
5969 Clouds 1 1033 50 10000 6.2 290 15:23 27.03.2020
5970 Clouds 0 1032 84 10000 7.2 310 14:46 27.03.2020
5971 Clouds 0 1032 84 10000 7.2 310 14:25 27.03.2020
5972 Clouds 0 1030 86 10000 9.3 290 13:56 27.03.2020
5973 Clouds 0 1030 86 10000 9.3 290 13:37 27.03.2020
5974 Clouds 0 1030 86 10000 9.3 290 13:37 27.03.2020
5975 Clouds 0 1030 86 10000 9.3 290 13:19 27.03.2020
5976 Clouds 0 1029 85 10000 9.3 290 12:51 27.03.2020
5977 Clouds 0 1029 85 10000 9.3 290 12:21 27.03.2020
5978 Clouds 0 1027 85 10000 8.7 270 11:59 27.03.2020
5979 Clouds 0 1027 85 10000 8.7 270 11:41 27.03.2020
5980 Clouds 0 1027 85 10000 8.7 270 11:22 27.03.2020
5981 Clouds 0 1025 90 10000 11.8 280 10:54 27.03.2020
5982 Clouds 0 1025 90 10000 11.8 280 10:36 27.03.2020
5983 Clouds 0 1025 90 10000 11.8 280 10:18 27.03.2020
5984 Clouds 0 1023 90 10000 10.8 280 09:56 27.03.2020
5985 Clouds 0 1023 90 10000 10.8 280 09:37 27.03.2020
5986 Clouds 0 1023 90 10000 10.8 280 09:18 27.03.2020
5987 Rain 0 1021 90 10000 11.8 270 08:55 27.03.2020
5988 Rain 0 1021 90 10000 11.8 270 08:37 27.03.2020
5989 Rain 0 1021 90 10000 11.8 270 08:18 27.03.2020
5990 Rain -1 1020 86 10000 9.8 270 07:49 27.03.2020
5991 Rain -1 1020 86 10000 9.8 270 07:22 27.03.2020
5992 Rain 0 1018 89 10000 11.3 250 06:46 27.03.2020
5993 Rain 0 1018 89 10000 11.3 250 06:27 27.03.2020
5994 Rain 0 1017 89 10000 11.8 250 04:21 27.03.2020
5995 Rain -2 1016 79 10000 11.3 250 02:25 27.03.2020
5996 Rain -1 1015 63 10000 9.8 250 01:22 27.03.2020
5997 Rain -1 1014 74 10000 9.8 250 00:48 27.03.2020
5998 Rain -1 1014 74 10000 9.8 250 00:23 27.03.2020
5999 Snow -1 1014 80 3200 12.9 250 23:42 26.03.2020
6000 Snow -1 1013 92 10000 8.2 250 23:21 26.03.2020
6001 Snow -1 1012 92 3500 8.2 210 22:58 26.03.2020
6002 Snow -1 1012 92 3500 8.2 210 22:37 26.03.2020
6003 Snow -1 1012 92 3500 8.2 210 22:19 26.03.2020
6004 Snow 0 1012 89 2000 9.8 230 21:55 26.03.2020
6005 Snow 0 1012 89 2000 9.8 230 21:55 26.03.2020
6006 Snow 0 1012 89 2000 9.8 230 21:36 26.03.2020
6007 Rain -1 1011 92 10000 7.7 240 21:18 26.03.2020
6008 Snow 0 1011 89 1500 10.3 250 20:41 26.03.2020
6009 Snow 0 1011 89 1500 10.3 250 20:41 26.03.2020
6010 Rain 0 1011 78 10000 7.7 200 20:23 26.03.2020
6011 Rain 0 1010 78 10000 7.2 210 19:58 26.03.2020
6012 Rain 0 1010 78 10000 7.2 210 19:40 26.03.2020
6013 Snow 0 1011 78 2000 5.1 180 19:22 26.03.2020
6014 Rain 0 1011 78 10000 6.2 170 18:59 26.03.2020
6015 Rain 0 1011 78 10000 6.2 170 18:41 26.03.2020
6016 Rain 0 1011 78 10000 3.6 190 18:23 26.03.2020
6017 Snow 0 1011 78 500 5.7 240 17:45 26.03.2020
6018 Rain 2 1012 69 10000 6.7 210 17:21 26.03.2020
6019 Clouds 2 1012 69 10000 7.2 210 16:59 26.03.2020
6020 Clouds 2 1012 69 10000 7.2 210 16:39 26.03.2020
6021 Clouds 2 1012 69 10000 7.2 210 16:21 26.03.2020
6022 Clouds 3 1012 55 10000 8.2 230 15:57 26.03.2020
6023 Clouds 3 1012 55 10000 8.2 230 15:38 26.03.2020
6024 Clouds 3 1012 55 10000 8.2 230 15:20 26.03.2020
6025 Clouds 3 1012 59 10000 9.8 230 14:55 26.03.2020
6026 Clouds 3 1012 59 10000 9.8 230 14:36 26.03.2020
6027 Clouds 3 1012 59 10000 9.8 230 14:18 26.03.2020
6028 Rain 0 1011 78 10000 8.7 230 13:41 26.03.2020
6029 Rain 0 1011 78 10000 8.7 230 13:22 26.03.2020
6030 Rain 1 1010 80 10000 7.2 220 12:55 26.03.2020
6031 Rain 1 1010 80 10000 7.2 220 12:37 26.03.2020
6032 Rain 1 1010 80 10000 7.2 220 12:18 26.03.2020
6033 Snow 0 1010 78 3000 10.8 230 11:44 26.03.2020
6034 Clouds 1 1010 86 10000 7.2 240 11:20 26.03.2020
6035 Rain 0 1009 84 10000 8.7 210 10:42 26.03.2020
6036 Rain 0 1009 84 10000 8.7 210 10:20 26.03.2020
6037 Rain 0 1008 84 10000 9.3 210 09:59 26.03.2020
6038 Rain 0 1008 84 10000 9.3 210 09:41 26.03.2020
6039 Rain 0 1008 84 10000 9.3 210 09:19 26.03.2020
6040 Snow 0 1008 84 2500 9.8 210 08:44 26.03.2020
6041 Rain -1 1007 92 10000 7.2 190 08:26 26.03.2020
6042 Clouds 0 1007 83 2500 10.8 220 07:57 26.03.2020
6043 Clouds 0 1007 83 2500 10.8 220 07:38 26.03.2020
6044 Clouds 0 1007 83 2500 10.8 220 07:19 26.03.2020
6045 Rain 0 1007 83 10000 6.7 210 06:35 26.03.2020
6046 Clouds 0 1006 83 10000 6.7 230 05:51 26.03.2020
6047 Snow 0 1006 82 2800 9.3 210 03:47 26.03.2020
6048 Clouds 1 1006 86 6000 6.2 220 03:18 26.03.2020
6049 Clouds 1 1006 86 10000 5.7 190 02:50 26.03.2020
6050 Snow 1 1006 80 2000 10.3 210 01:19 26.03.2020
6051 Clouds 2 1005 74 10000 6.7 220 00:32 26.03.2020
6052 Clouds 2 1005 74 10000 8.2 210 23:44 25.03.2020
6053 Clouds 2 1005 74 10000 8.2 210 23:26 25.03.2020
6054 Clouds 2 1005 80 10000 7.7 210 22:55 25.03.2020
6055 Clouds 2 1005 80 10000 7.7 210 22:37 25.03.2020
6056 Clouds 2 1005 80 10000 7.7 210 22:18 25.03.2020
6057 Clouds 1 1004 86 10000 6.7 220 21:43 25.03.2020
6058 Clouds 1 1004 86 10000 6.7 220 21:24 25.03.2020
6059 Rain 2 1004 83 10000 5.1 210 20:59 25.03.2020
6060 Rain 2 1004 83 10000 5.1 210 20:39 25.03.2020
6061 Rain 2 1004 81 10000 5.1 210 20:19 25.03.2020
6062 Rain 1 1003 80 10000 6.2 230 19:55 25.03.2020
6063 Rain 1 1003 80 10000 6.2 230 19:37 25.03.2020
6064 Clouds 1 1003 86 4900 9.8 230 19:18 25.03.2020
6065 Rain 3 1003 80 10000 7.2 230 18:43 25.03.2020
6066 Rain 3 1003 80 10000 7.2 230 18:43 25.03.2020
6067 Rain 3 1003 80 10000 7.2 230 18:25 25.03.2020
6068 Rain 3 1002 80 10000 8.2 210 17:59 25.03.2020
6069 Rain 3 1002 80 10000 8.2 210 17:41 25.03.2020
6070 Rain 3 1002 91 10000 8.2 210 17:22 25.03.2020
6071 Clouds 3 1002 91 10000 5.7 160 16:58 25.03.2020
6072 Clouds 3 1002 91 10000 5.7 160 16:39 25.03.2020
6073 Clouds 3 1002 91 10000 5.7 160 16:20 25.03.2020
6074 Rain 2 1002 80 10000 6.2 80 15:43 25.03.2020
6075 Rain 2 1002 80 10000 6.2 80 15:21 25.03.2020
6076 Snow 3 1003 74 10000 6.2 90 14:57 25.03.2020
6077 Snow 3 1003 74 10000 6.2 90 14:39 25.03.2020
6078 Snow 3 1003 74 10000 6.2 90 14:20 25.03.2020
6079 Snow 2 1003 69 10000 4.6 120 13:44 25.03.2020
6080 Snow 2 1003 69 10000 4.6 120 13:24 25.03.2020
6081 Clouds 2 1003 69 10000 2.6 80 12:39 25.03.2020
6082 Clouds 2 1003 69 10000 2.6 80 12:21 25.03.2020
6083 Snow 2 1003 69 10000 2.6 130 11:59 25.03.2020
6084 Snow 2 1003 69 10000 2.6 130 11:40 25.03.2020
6085 Snow 2 1003 69 10000 2.6 130 11:21 25.03.2020
6086 Snow 1 1003 80 10000 2.6 130 10:58 25.03.2020
6087 Snow 1 1003 80 10000 2.6 130 10:40 25.03.2020
6088 Snow 1 1003 80 10000 2.6 130 10:18 25.03.2020
6089 Snow 0 1003 94 10000 2.6 130 09:56 25.03.2020
6090 Snow 0 1003 94 10000 2.6 130 09:38 25.03.2020
6091 Snow 0 1003 94 10000 2.6 130 09:19 25.03.2020
6092 Clouds -1 1002 92 10000 2.6 120 08:41 25.03.2020
6093 Clouds -1 1002 92 10000 2.6 120 08:23 25.03.2020
6094 Rain 0 1001 96 10000 3.1 250 07:56 25.03.2020
6095 Rain 0 1001 96 10000 3.1 250 07:37 25.03.2020
6096 Rain 0 1001 96 10000 3.1 250 07:18 25.03.2020
6097 Snow 0 1001 96 2400 4.6 190 06:41 25.03.2020
6098 Clouds 1 1000 69 10000 2.6 130 06:23 25.03.2020
6099 Clouds 0 1000 96 10000 2.1 140 05:47 25.03.2020
6100 Clouds 0 999 92 10000 1.5 140 04:42 25.03.2020
6101 Clouds -1 999 80 10000 2.1 140 03:58 25.03.2020
6102 Clouds -1 999 80 10000 2.1 140 03:33 25.03.2020
6103 Clouds 0 997 86 10000 3.6 200 01:41 25.03.2020
6104 Clouds 1 996 74 10000 4.1 200 00:51 25.03.2020
6105 Clouds 1 996 74 10000 4.1 200 00:30 25.03.2020
6106 Clouds 1 995 74 10000 4.6 210 23:58 24.03.2020
6107 Clouds 1 995 74 10000 4.6 210 23:39 24.03.2020
6108 Clouds 1 995 74 10000 4.6 210 23:20 24.03.2020
6109 Clouds 1 994 74 10000 5.1 200 22:54 24.03.2020
6110 Clouds 1 994 74 10000 5.1 200 22:36 24.03.2020
6111 Clouds 1 994 74 10000 5.1 200 22:18 24.03.2020
6112 Clouds 2 993 69 10000 5.7 230 21:42 24.03.2020
6113 Clouds 2 993 69 10000 5.7 230 21:19 24.03.2020
6114 Clouds 2 992 69 10000 6.7 240 20:59 24.03.2020
6115 Clouds 2 992 69 10000 6.7 240 20:41 24.03.2020
6116 Clouds 3 991 69 10000 4.6 240 20:22 24.03.2020
6117 Clouds 3 991 69 10000 4.6 240 19:48 24.03.2020
6118 Clouds 3 991 69 10000 4.6 240 19:23 24.03.2020
6119 Rain 3 990 74 10000 6.2 240 18:59 24.03.2020
6120 Rain 3 990 74 10000 6.2 240 18:40 24.03.2020
6121 Rain 3 990 74 10000 6.2 240 18:20 24.03.2020
6122 Clouds 2 990 88 10000 4.1 230 17:58 24.03.2020
6123 Clouds 2 990 88 10000 4.1 230 17:40 24.03.2020
6124 Rain 1 989 86 4000 5.7 220 17:22 24.03.2020
6125 Rain 3 988 74 10000 7.2 260 16:57 24.03.2020
6126 Rain 3 988 74 10000 7.2 260 16:38 24.03.2020
6127 Rain 2 988 93 8000 7.7 160 16:20 24.03.2020
6128 Snow 2 988 100 6000 4.1 230 15:44 24.03.2020
6129 Snow 2 988 100 6000 4.1 230 15:44 24.03.2020
6130 Rain 2 988 74 9000 6.2 160 15:25 24.03.2020
6131 Snow 2 988 93 600 6.7 190 14:57 24.03.2020
6132 Snow 2 988 93 600 6.7 190 14:39 24.03.2020
6133 Clouds 4 988 64 10000 7.2 170 14:18 24.03.2020
6134 Clouds 4 988 64 10000 6.7 160 13:41 24.03.2020
6135 Clouds 4 988 64 10000 6.7 160 13:22 24.03.2020
6136 Clouds 3 988 69 10000 5.7 160 12:47 24.03.2020
6137 Clouds 3 988 69 10000 5.7 160 12:28 24.03.2020
6138 Rain 1 987 74 10000 6.2 160 11:58 24.03.2020
6139 Rain 1 987 74 10000 6.2 160 11:39 24.03.2020
6140 Rain 1 987 74 10000 6.2 160 11:18 24.03.2020
6141 Snow 0 986 74 10000 7.7 200 10:42 24.03.2020
6142 Rain 0 987 70 10000 8.2 170 10:19 24.03.2020
6143 Rain 0 986 69 10000 7.2 170 09:55 24.03.2020
6144 Rain 0 986 69 10000 7.2 170 09:37 24.03.2020
6145 Clouds 0 987 70 10000 4.1 170 09:19 24.03.2020
6146 Clouds 0 985 70 10000 7.2 190 08:38 24.03.2020
6147 Clouds -1 986 67 10000 5.1 160 08:20 24.03.2020
6148 Rain 0 985 80 10000 8.7 190 07:47 24.03.2020
6149 Snow 0 986 74 8000 12.9 210 07:24 24.03.2020
6150 -273 0 0 0 0 0 06:50 24.03.2020
6151 Clouds 0 985 67 10000 9.3 190 06:25 24.03.2020
6152 Clouds 1 983 59 10000 11.8 210 04:57 24.03.2020
6153 Rain 1 983 80 10000 11.3 190 03:48 24.03.2020
6154 Clouds 1 984 74 10000 10.3 200 03:18 24.03.2020
6155 Snow 0 982 69 4000 15.4 220 01:45 24.03.2020
6156 Rain 2 980 69 10000 15.4 220 00:46 24.03.2020
6157 Clouds 2 981 69 10000 11.3 210 00:24 24.03.2020
6158 Rain 2 979 64 10000 17 230 23:44 23.03.2020
6159 Rain 2 980 74 10000 13.4 220 23:26 23.03.2020
6160 Rain 2 978 74 10000 16.5 220 22:55 23.03.2020
6161 Rain 2 978 74 10000 16.5 220 22:55 23.03.2020
6162 Rain 2 978 74 10000 16.5 220 22:37 23.03.2020
6163 Rain 2 978 80 9000 14.9 210 22:19 23.03.2020
6164 Rain 1 976 81 10000 18 220 21:43 23.03.2020
6165 Rain 1 976 81 7000 15.9 210 21:20 23.03.2020
6166 Rain 1 975 93 10000 19.5 220 20:58 23.03.2020
6167 Rain 1 975 93 10000 19.5 220 20:39 23.03.2020
6168 Rain 1 975 80 8000 17 200 20:21 23.03.2020
6169 Rain 2 973 93 10000 21.6 220 19:45 23.03.2020
6170 Rain 2 974 74 7000 15.9 200 19:27 23.03.2020
6171 Rain 2 972 96 10000 20.1 210 18:59 23.03.2020
6172 Rain 2 972 96 10000 20.1 210 18:41 23.03.2020
6173 Rain 2 974 96 10000 13.4 200 18:21 23.03.2020
6174 Rain 1 972 96 1500 18 210 17:56 23.03.2020
6175 Rain 2 972 96 1500 18 210 17:37 23.03.2020
6176 Clouds 1 974 86 8000 11.8 210 17:18 23.03.2020
6177 Rain 2 973 72 10000 12.9 210 16:43 23.03.2020
6178 Rain 3 974 74 10000 11.8 200 16:24 23.03.2020
6179 Rain 4 972 72 10000 15.4 210 15:42 23.03.2020
6180 Rain 4 972 72 10000 15.4 210 15:42 23.03.2020
6181 Rain 3 973 69 10000 11.3 220 15:20 23.03.2020
6182 Rain 3 971 69 10000 15.4 220 14:55 23.03.2020
6183 Rain 3 971 69 10000 15.4 220 14:37 23.03.2020
6184 Rain 3 972 87 10000 8.7 220 14:18 23.03.2020
6185 Snow 3 972 87 4500 14.9 230 13:41 23.03.2020
6186 Rain 2 970 87 10000 8.7 190 13:22 23.03.2020
6187 Rain 3 969 86 10000 10.8 230 12:58 23.03.2020
6188 Rain 3 969 86 10000 10.8 230 12:58 23.03.2020
6189 Rain 3 969 86 10000 10.8 230 12:40 23.03.2020
6190 Rain 3 970 85 8000 8.7 200 12:21 23.03.2020
6191 Rain 2 968 86 10000 15.4 210 11:42 23.03.2020
6192 Rain 3 969 75 10000 12.9 200 11:21 23.03.2020
6193 Rain 2 967 75 10000 14.4 230 10:58 23.03.2020
6194 Rain 2 967 75 10000 14.4 230 10:39 23.03.2020
6195 Rain 2 967 75 8000 12.3 210 10:21 23.03.2020
6196 Rain 2 965 75 10000 17.5 230 09:57 23.03.2020
6197 Rain 2 965 75 10000 17.5 230 09:39 23.03.2020
6198 Rain 2 966 75 8000 10.8 190 09:18 23.03.2020
6199 Clouds 2 964 93 10000 14.4 220 08:38 23.03.2020
6200 Rain 2 965 74 10000 11.3 180 08:19 23.03.2020
6201 Rain 2 963 74 10000 11.8 190 07:50 23.03.2020
6202 Rain 2 965 74 10000 10.3 190 07:32 23.03.2020
6203 Rain 3 963 74 10000 13.9 210 06:54 23.03.2020
6204 Clouds 2 964 74 10000 12.9 200 06:32 23.03.2020
6205 Rain 2 962 86 10000 17 210 05:42 23.03.2020
6206 Rain 2 963 93 10000 9.8 180 03:45 23.03.2020
6207 Rain 2 963 93 10000 10.8 170 02:43 23.03.2020
6208 Rain 3 964 86 10000 12.3 170 01:39 23.03.2020
6209 Rain 2 966 77 9000 8.2 170 00:45 23.03.2020
6210 Rain 2 969 77 3000 11.8 180 23:58 22.03.2020
6211 Clouds 3 970 69 10000 8.7 160 23:40 22.03.2020
6212 Clouds 3 970 69 10000 8.7 160 23:22 22.03.2020
6213 Rain 3 968 72 10000 13.9 180 22:40 22.03.2020
6214 Rain 3 971 69 10000 8.7 170 22:20 22.03.2020
6215 Rain 2 969 86 10000 10.3 170 21:40 22.03.2020
6216 Rain 2 971 72 10000 8.7 170 21:21 22.03.2020
6217 Clouds 2 970 93 10000 9.8 180 20:58 22.03.2020
6218 Clouds 2 970 93 10000 9.8 180 20:40 22.03.2020
6219 Rain 2 971 86 10000 9.8 170 20:21 22.03.2020
6220 Rain 3 970 84 10000 10.3 180 19:56 22.03.2020
6221 Rain 3 970 84 10000 10.3 180 19:38 22.03.2020
6222 Rain 2 971 93 9000 18.5 150 19:19 22.03.2020
6223 Rain 4 970 93 5000 17.5 160 18:57 22.03.2020
6224 Rain 4 970 93 5000 17.5 160 18:39 22.03.2020
6225 Clouds 4 974 86 4000 17.5 140 18:18 22.03.2020
6226 Rain 3 972 86 8000 19 150 17:56 22.03.2020
6227 Rain 3 972 86 8000 19 150 17:37 22.03.2020
6228 Rain 3 977 93 7000 15.9 140 17:19 22.03.2020
6229 Rain 3 975 93 8000 18.5 150 16:55 22.03.2020
6230 Rain 3 975 93 8000 18.5 150 16:37 22.03.2020
6231 Rain 3 980 93 10000 16.5 140 16:19 22.03.2020
6232 Rain 3 979 100 6000 18 150 15:39 22.03.2020
6233 Rain 3 984 80 9000 13.4 140 15:19 22.03.2020
6234 Rain 2 982 100 9000 17.5 150 14:46 22.03.2020
6235 Rain 2 987 96 6000 11.8 140 14:18 22.03.2020
6236 Rain 2 985 93 8000 15.4 160 13:42 22.03.2020
6237 Rain 2 989 96 10000 10.8 140 13:20 22.03.2020
6238 Rain 2 988 93 7000 12.9 160 12:57 22.03.2020
6239 Rain 2 988 93 7000 12.9 160 12:38 22.03.2020
6240 Snow 2 991 96 7000 10.3 150 12:18 22.03.2020
6241 Rain 2 990 86 9000 12.9 150 11:43 22.03.2020
6242 Rain 2 993 74 10000 10.3 150 11:24 22.03.2020
6243 Drizzle 1 992 94 10000 11.3 150 10:58 22.03.2020
6244 Drizzle 1 992 94 10000 11.3 150 10:39 22.03.2020
6245 Snow 1 996 86 6000 7.2 150 10:21 22.03.2020
6246 Snow 1 997 80 2500 5.7 150 09:43 22.03.2020
6247 Snow 1 997 80 2500 5.7 150 09:43 22.03.2020
6248 Snow 0 998 94 9000 5.1 140 09:24 22.03.2020
6249 Clouds 0 997 94 10000 7.2 160 08:48 22.03.2020
6250 Clouds 0 997 94 10000 7.2 160 08:48 22.03.2020
6251 Rain 0 1000 94 10000 3.6 120 08:29 22.03.2020
6252 Clouds 0 999 94 10000 6.7 160 07:53 22.03.2020
6253 Rain 0 1001 94 10000 5.1 180 07:32 22.03.2020
6254 Rain -1 1000 94 10000 6.7 180 06:40 22.03.2020
6255 Rain -1 1001 74 10000 7.7 240 05:37 22.03.2020
6256 Clouds -1 1002 86 10000 5.7 190 04:34 22.03.2020
6257 Rain -1 1001 61 10000 11.3 230 01:36 22.03.2020
6258 Clouds -1 1000 62 10000 11.3 250 00:49 22.03.2020
6259 Rain -1 1001 80 10000 12.3 220 00:29 22.03.2020
6260 Clouds -1 1000 55 10000 11.3 220 23:45 21.03.2020
6261 Clouds -2 1001 86 10000 8.2 190 23:21 21.03.2020
6262 Rain -1 1000 80 10000 12.9 250 22:58 21.03.2020
6263 Rain -2 1000 80 10000 12.9 250 22:37 21.03.2020
6264 Rain -1 1001 86 10000 7.2 180 22:19 21.03.2020
6265 Rain -2 1001 92 6000 12.3 190 21:57 21.03.2020
6266 Rain -2 1001 92 6000 12.3 190 21:37 21.03.2020
6267 Clouds -2 1002 92 10000 6.2 200 21:18 21.03.2020
6268 Snow -2 1000 92 600 12.9 230 20:42 21.03.2020
6269 Rain -1 1002 92 8000 10.3 220 20:21 21.03.2020
6270 Clouds -1 1002 86 1200 6.7 170 19:55 21.03.2020
6271 Clouds -1 1002 86 1200 6.7 170 19:36 21.03.2020
6272 Rain -1 1002 80 10000 8.2 190 19:18 21.03.2020
6273 Rain -1 1002 80 10000 8.2 190 19:18 21.03.2020
6274 Rain 0 1001 57 10000 12.3 200 18:41 21.03.2020
6275 Clouds -1 1002 57 5000 7.2 220 18:20 21.03.2020
6276 Rain 0 1001 57 10000 11.3 210 17:58 21.03.2020
6277 Rain 0 1001 57 10000 11.3 210 17:40 21.03.2020
6278 Rain 0 1003 57 10000 8.7 200 17:21 21.03.2020
6279 Clouds 0 1002 69 10000 11.3 210 16:42 21.03.2020
6280 Clouds 0 1004 92 10000 8.2 200 16:23 21.03.2020
6281 Clouds 0 1004 86 1000 8.2 200 15:58 21.03.2020
6282 Clouds -1 1004 86 1000 8.2 200 15:39 21.03.2020
6283 Clouds -1 1005 61 10000 6.7 200 15:21 21.03.2020
6284 Rain 0 1004 61 10000 10.3 190 14:55 21.03.2020
6285 Rain 0 1004 61 10000 10.3 190 14:37 21.03.2020
6286 Rain 0 1005 69 10000 4.6 190 14:19 21.03.2020
6287 Snow -1 1004 92 2000 11.8 220 13:57 21.03.2020
6288 Snow -1 1004 92 2000 11.8 220 13:57 21.03.2020
6289 Snow -1 1004 92 2000 11.8 220 13:38 21.03.2020
6290 Snow -1 1004 92 2000 11.8 220 13:38 21.03.2020
6291 Clouds -1 1006 92 10000 3.6 130 13:20 21.03.2020
6292 Clouds 0 1007 86 2500 5.1 190 12:54 21.03.2020
6293 Clouds -1 1007 86 2500 5.1 190 12:36 21.03.2020
6294 Rain -1 1006 86 10000 3.1 160 12:18 21.03.2020
6295 Clouds -1 1006 67 10000 6.7 220 11:54 21.03.2020
6296 Clouds -1 1007 92 10000 2.1 150 11:36 21.03.2020
6297 Clouds -1 1007 92 10000 2.1 150 11:18 21.03.2020
6298 Clouds -1 1006 69 10000 8.7 230 10:55 21.03.2020
6299 Clouds -1 1006 69 10000 8.7 230 10:37 21.03.2020
6300 Rain -1 1007 92 10000 2.1 140 10:18 21.03.2020
6301 Clouds -1 1006 69 10000 6.2 250 09:39 21.03.2020
6302 Rain -1 1007 92 10000 2.1 180 09:21 21.03.2020
6303 Snow -1 1007 100 1500 6.7 230 08:56 21.03.2020
6304 Snow -1 1007 100 1500 6.7 230 08:38 21.03.2020
6305 Snow -1 1006 100 7000 3.1 250 08:19 21.03.2020
6306 Snow -1 1006 83 10000 5.1 240 07:39 21.03.2020
6307 Snow 0 1006 92 4500 4.1 240 07:20 21.03.2020
6308 Snow 0 1006 92 4500 4.1 240 07:20 21.03.2020
6309 Snow 0 1006 83 9000 6.7 270 06:45 21.03.2020
6310 Snow 0 1006 83 4000 2.6 180 06:25 21.03.2020
6311 Snow 0 1006 83 10000 5.7 240 05:41 21.03.2020
6312 Snow 0 1007 97 2500 1 240 04:34 21.03.2020
6313 Snow 0 1007 97 2000 5.7 260 02:37 21.03.2020
6314 Drizzle 1 1008 100 10000 4.6 250 01:49 21.03.2020
6315 Clouds 1 1008 86 6000 1 230 01:26 21.03.2020
6316 Clouds 1 1008 100 9000 5.7 260 00:43 21.03.2020
6317 Rain 2 1008 98 10000 4.1 220 00:23 21.03.2020
6318 Clouds 2 1008 100 9000 4.6 250 23:44 20.03.2020
6319 Rain 3 1008 86 7000 2.6 220 23:22 20.03.2020
6320 Clouds 3 1008 100 10000 4.6 240 22:44 20.03.2020
6321 Rain 3 1009 80 8000 6.7 180 22:25 20.03.2020
6322 Rain 3 1008 100 10000 4.6 190 21:59 20.03.2020
6323 Rain 3 1008 100 10000 4.6 190 21:41 20.03.2020
6324 Rain 4 1009 80 10000 11.3 160 21:20 20.03.2020
6325 Rain 3 1008 93 10000 6.7 210 20:59 20.03.2020
6326 Rain 3 1008 93 10000 6.7 210 20:41 20.03.2020
6327 Rain 4 1009 80 10000 11.3 160 20:20 20.03.2020
6328 Rain 4 1008 100 9000 8.2 190 19:49 20.03.2020
6329 Rain 4 1010 80 8000 12.9 170 19:22 20.03.2020
6330 Rain 4 1010 80 8000 12.9 170 19:22 20.03.2020
6331 Rain 4 1009 93 5000 11.8 190 18:59 20.03.2020
6332 Rain 4 1009 93 5000 11.8 190 18:39 20.03.2020
6333 Rain 4 1010 80 7000 13.4 170 18:20 20.03.2020
6334 Rain 4 1009 86 10000 14.9 170 17:56 20.03.2020
6335 Rain 4 1009 86 10000 14.9 170 17:38 20.03.2020
6336 Rain 4 1011 80 7000 12.3 160 17:19 20.03.2020
6337 Rain 4 1011 80 7000 12.3 160 17:19 20.03.2020
6338 Rain 4 1010 93 10000 15.4 170 16:43 20.03.2020
6339 Rain 4 1012 80 7000 12.9 160 16:21 20.03.2020
6340 Rain 3 1011 93 9000 16.5 170 15:58 20.03.2020
6341 Rain 4 1011 93 9000 16.5 170 15:39 20.03.2020
6342 Rain 4 1013 80 8000 10.8 160 15:20 20.03.2020
6343 Rain 4 1011 93 9000 15.4 170 14:42 20.03.2020
6344 Drizzle 4 1014 80 7000 11.8 160 14:21 20.03.2020
6345 Drizzle 4 1014 80 7000 11.8 160 14:21 20.03.2020
6346 Rain 3 1012 93 8000 17 170 13:51 20.03.2020
6347 Rain 3 1015 80 8000 9.8 150 13:26 20.03.2020
6348 Rain 3 1013 93 9000 15.9 160 12:59 20.03.2020
6349 Rain 3 1013 93 9000 15.9 160 12:38 20.03.2020
6350 Rain 3 1015 80 10000 9.3 150 12:20 20.03.2020
6351 Rain 3 1013 100 7000 16.5 160 11:41 20.03.2020
6352 Rain 3 1016 80 10000 11.8 150 11:21 20.03.2020
6353 Rain 3 1015 100 8000 15.9 160 10:58 20.03.2020
6354 Rain 3 1015 100 8000 15.9 160 10:40 20.03.2020
6355 Rain 3 1017 93 9000 11.8 150 10:18 20.03.2020
6356 Rain 3 1015 93 8000 15.9 160 09:47 20.03.2020
6357 Rain 3 1018 93 8000 11.3 150 09:21 20.03.2020
6358 Rain 3 1016 93 7000 14.4 160 08:59 20.03.2020
6359 Rain 3 1016 93 7000 14.4 160 08:40 20.03.2020
6360 Rain 3 1019 86 9000 11.8 150 08:19 20.03.2020
6361 Rain 2 1017 86 10000 14.9 160 07:45 20.03.2020
6362 Rain 2 1020 86 10000 9.3 140 07:26 20.03.2020
6363 Drizzle 2 1018 86 10000 13.9 150 06:47 20.03.2020
6364 Rain 2 1021 86 10000 9.8 150 06:29 20.03.2020
6365 Rain 2 1021 93 10000 11.3 150 04:49 20.03.2020
6366 Rain 3 1025 74 10000 7.2 140 03:19 20.03.2020
6367 Rain 1 1025 91 10000 10.3 150 01:51 20.03.2020
6368 Rain 1 1025 80 10000 9.3 160 00:46 20.03.2020
6369 Snow 0 1028 90 1000 7.2 120 00:25 20.03.2020
6370 Snow -1 1026 90 7000 9.8 180 23:44 19.03.2020
6371 Snow -1 1028 86 2000 7.7 90 23:25 19.03.2020
6372 Snow -2 1027 90 2000 6.7 140 22:56 19.03.2020
6373 Snow -2 1027 90 2000 6.7 140 22:37 19.03.2020
6374 Snow -2 1029 86 1500 7.2 80 22:18 19.03.2020
6375 Snow -2 1029 86 1500 7.7 100 21:41 19.03.2020
6376 Rain 0 1029 74 10000 7.2 100 21:20 19.03.2020
6377 Rain -1 1028 86 10000 6.7 120 20:56 19.03.2020
6378 Rain -1 1028 86 10000 6.7 120 20:38 19.03.2020
6379 Clouds -1 1030 85 10000 6.7 100 20:19 19.03.2020
6380 Snow -1 1028 84 10000 7.7 130 19:55 19.03.2020
6381 Snow -1 1028 84 10000 7.7 130 19:36 19.03.2020
6382 Clouds -1 1030 84 10000 6.7 100 19:18 19.03.2020
6383 Snow -1 1029 86 10000 6.2 120 18:42 19.03.2020
6384 Clouds -2 1030 84 10000 5.1 100 18:22 19.03.2020
6385 Snow -2 1030 74 10000 8.2 150 17:56 19.03.2020
6386 Snow -2 1030 74 10000 8.2 150 17:38 19.03.2020
6387 Clouds -2 1031 54 10000 5.1 70 17:18 19.03.2020
6388 Rain -2 1030 68 10000 8.7 140 16:43 19.03.2020
6389 Clouds -2 1031 54 10000 5.1 70 16:22 19.03.2020
6390 Clouds -2 1030 74 10000 9.3 140 15:45 19.03.2020
6391 Clouds -2 1031 69 10000 4.6 70 15:26 19.03.2020
6392 Clouds -2 1030 68 10000 10.3 140 14:55 19.03.2020
6393 Clouds -2 1030 68 10000 10.3 140 14:37 19.03.2020
6394 Clouds -2 1031 71 10000 4.1 80 14:18 19.03.2020
6395 Clouds -3 1030 68 10000 9.3 140 13:39 19.03.2020
6396 Clouds -3 1031 54 10000 3.6 90 13:19 19.03.2020
6397 Clouds -3 1031 68 10000 8.2 140 12:55 19.03.2020
6398 Clouds -3 1031 68 10000 8.2 140 12:37 19.03.2020
6399 Clouds -3 1031 58 10000 3.6 100 12:18 19.03.2020
6400 Clouds -5 1031 74 10000 6.7 140 11:41 19.03.2020
6401 Clouds -5 1031 58 10000 2.6 90 11:23 19.03.2020
6402 Clouds -6 1030 63 10000 5.1 140 10:56 19.03.2020
6403 Clouds -4 1031 57 10000 3.6 110 10:36 19.03.2020
6404 Clouds -6 1031 57 10000 3.6 110 10:18 19.03.2020
6405 Clouds -7 1030 73 10000 3.6 140 09:42 19.03.2020
6406 Clouds -8 1030 67 10000 3.6 90 09:24 19.03.2020
6407 Clouds -7 1029 73 10000 3.1 130 08:48 19.03.2020
6408 Clouds -8 1030 79 10000 2.1 100 08:23 19.03.2020
6409 Clouds -8 1029 79 10000 2.6 110 07:59 19.03.2020
6410 Clouds -8 1029 79 10000 2.6 110 07:38 19.03.2020
6411 Clouds -8 1029 79 10000 3.6 110 07:19 19.03.2020
6412 Clouds -7 1028 79 10000 2.1 130 06:27 19.03.2020
6413 Clouds -5 1028 68 10000 1.5 340 05:25 19.03.2020
6414 Clouds -5 1028 68 10000 2.6 20 04:47 19.03.2020
6415 Clouds -5 1028 68 10000 2.1 350 04:21 19.03.2020
6416 Clouds -4 1026 79 10000 4.1 350 01:58 19.03.2020
6417 Clouds -3 1025 68 10000 5.7 340 00:53 19.03.2020
6418 Clouds -3 1024 68 10000 6.7 330 00:20 19.03.2020
6419 Clouds -3 1024 73 10000 6.2 340 23:44 18.03.2020
6420 Clouds -3 1023 68 10000 6.2 340 23:26 18.03.2020
6421 Snow -3 1023 74 10000 6.7 350 22:43 18.03.2020
6422 Clouds -3 1022 74 10000 6.2 330 22:23 18.03.2020
6423 Clouds -2 1022 68 10000 7.7 340 21:58 18.03.2020
6424 Clouds -2 1022 68 10000 7.7 340 21:40 18.03.2020
6425 Clouds -2 1021 74 10000 7.2 330 21:20 18.03.2020
6426 Clouds -2 1021 74 10000 8.7 350 20:55 18.03.2020
6427 Clouds -2 1021 74 10000 8.7 350 20:37 18.03.2020
6428 Clouds -2 1019 74 10000 7.7 330 20:19 18.03.2020
6429 Rain -2 1019 74 10000 9.8 360 19:41 18.03.2020
6430 Clouds -2 1018 68 10000 8.7 350 19:21 18.03.2020
6431 Rain -2 1018 74 10000 8.7 350 18:59 18.03.2020
6432 Rain -2 1018 74 10000 8.7 350 18:40 18.03.2020
6433 Snow -1 1016 79 10000 8.7 350 18:19 18.03.2020
6434 Snow -1 1016 79 10000 8.7 350 18:19 18.03.2020
6435 Clouds -1 1017 74 10000 10.3 340 17:56 18.03.2020
6436 Clouds -1 1017 74 10000 10.3 340 17:38 18.03.2020
6437 Clouds -1 1015 83 10000 7.2 340 17:19 18.03.2020
6438 Clouds -1 1016 80 10000 12.3 350 16:43 18.03.2020
6439 Snow -1 1014 80 10000 9.3 350 16:21 18.03.2020
6440 Rain -1 1015 80 10000 12.9 350 15:58 18.03.2020
6441 Rain -1 1015 80 10000 12.9 350 15:38 18.03.2020
6442 Snow -1 1012 86 7000 9.8 340 15:20 18.03.2020
6443 Rain -1 1014 86 9000 12.9 350 14:43 18.03.2020
6444 Snow -1 1011 86 7000 7.2 340 14:21 18.03.2020
6445 Snow -1 1012 92 2000 11.8 350 13:42 18.03.2020
6446 Snow -1 1010 86 8000 8.2 340 13:20 18.03.2020
6447 Rain -1 1011 92 5000 11.3 350 12:58 18.03.2020
6448 Rain -1 1011 92 5000 11.3 350 12:39 18.03.2020
6449 Snow -1 1009 86 4000 5.7 340 12:19 18.03.2020
6450 Snow -1 1010 92 1500 11.8 350 11:39 18.03.2020
6451 Snow -1 1007 86 3000 5.1 340 11:19 18.03.2020
6452 Snow -2 1008 100 1500 12.9 350 10:57 18.03.2020
6453 Snow -2 1008 100 1500 12.9 350 10:38 18.03.2020
6454 Snow -1 1006 80 9000 5.1 320 10:19 18.03.2020
6455 Snow -1 1007 92 1500 12.3 350 09:43 18.03.2020
6456 Clouds -1 1005 84 10000 5.7 340 09:24 18.03.2020
6457 Snow -1 1006 100 5000 11.8 350 08:56 18.03.2020
6458 Snow -1 1006 100 5000 11.8 350 08:38 18.03.2020
6459 Snow -1 1006 100 5000 11.8 350 08:38 18.03.2020
6460 Clouds -1 1003 89 10000 7.2 350 08:20 18.03.2020
6461 Snow -1 1004 92 10000 11.8 350 07:44 18.03.2020
6462 Clouds 0 1002 89 10000 6.7 350 07:26 18.03.2020
6463 Snow -1 1003 86 10000 11.8 350 06:44 18.03.2020
6464 Clouds 0 1001 89 10000 6.2 360 06:18 18.03.2020
6465 Snow -1 1002 80 10000 10.8 350 05:34 18.03.2020
6466 Clouds 0 999 85 10000 10.3 10 04:24 18.03.2020
6467 Snow -1 999 86 10000 9.8 360 02:43 18.03.2020
6468 Snow -2 998 86 10000 9.3 360 01:48 18.03.2020
6469 Clouds -2 996 86 10000 9.8 10 01:26 18.03.2020
6470 Clouds -2 995 83 10000 7.7 20 00:24 18.03.2020
6471 Rain -3 995 86 10000 10.3 360 23:48 17.03.2020
6472 Clouds -2 993 83 10000 6.7 10 23:27 17.03.2020
6473 Rain -2 994 86 10000 10.8 360 22:57 17.03.2020
6474 Rain -2 994 86 10000 10.8 360 22:37 17.03.2020
6475 Clouds -2 992 86 10000 4.1 20 22:19 17.03.2020
6476 Rain -2 993 86 10000 10.3 350 21:39 17.03.2020
6477 Clouds -2 991 85 10000 4.6 320 21:21 17.03.2020
6478 Clouds -2 991 85 10000 4.6 320 21:21 17.03.2020
6479 Clouds -2 991 86 10000 4.6 320 21:21 17.03.2020
6480 Rain -1 992 86 10000 9.8 350 20:40 17.03.2020
6481 Rain -2 992 86 10000 9.8 350 20:40 17.03.2020
6482 Clouds -1 990 85 10000 5.7 340 20:21 17.03.2020
6483 Rain -1 991 86 10000 8.7 360 19:58 17.03.2020
6484 Rain -1 991 86 10000 8.7 360 19:39 17.03.2020
6485 Snow -1 989 78 10000 5.1 350 19:18 17.03.2020
6486 Clouds -1 990 80 10000 9.3 360 18:56 17.03.2020
6487 Clouds -1 990 80 10000 9.3 360 18:37 17.03.2020
6488 Clouds 0 988 78 10000 7.2 360 18:19 17.03.2020
6489 Clouds 0 989 78 10000 7.7 360 17:40 17.03.2020
6490 Clouds 0 989 78 10000 7.7 360 17:40 17.03.2020
6491 Clouds 0 987 69 10000 7.2 10 17:21 17.03.2020
6492 Clouds 0 988 75 10000 8.7 360 16:55 17.03.2020
6493 Clouds 0 988 75 10000 8.7 360 16:37 17.03.2020
6494 Clouds 0 987 64 10000 8.7 10 16:18 17.03.2020
6495 Clouds 0 987 75 10000 8.2 10 15:43 17.03.2020
6496 Clouds 0 985 64 10000 7.7 360 15:20 17.03.2020
6497 Clouds 0 986 75 10000 8.7 30 14:42 17.03.2020
6498 Clouds 1 984 64 10000 5.7 10 14:21 17.03.2020
6499 Clouds 0 985 76 10000 9.8 30 13:44 17.03.2020
6500 Clouds 0 983 76 10000 6.7 30 13:26 17.03.2020
6501 Clouds 0 984 80 10000 10.8 30 12:58 17.03.2020
6502 Clouds 0 984 80 10000 10.8 30 12:40 17.03.2020
6503 Clouds -1 982 64 10000 1.5 0 12:21 17.03.2020
6504 Clouds -1 982 80 10000 11.8 30 11:46 17.03.2020
6505 Clouds -1 982 80 10000 11.8 30 11:46 17.03.2020
6506 Clouds -1 980 75 10000 7.7 20 11:28 17.03.2020
6507 Clouds -1 981 80 10000 10.3 30 10:58 17.03.2020
6508 Clouds -1 981 80 10000 10.3 30 10:38 17.03.2020
6509 Clouds -1 979 83 10000 9.3 20 10:20 17.03.2020
6510 Clouds -1 979 80 10000 12.3 20 09:55 17.03.2020
6511 Clouds -1 979 80 10000 12.3 20 09:55 17.03.2020
6512 Clouds -1 979 80 10000 12.3 20 09:36 17.03.2020
6513 Clouds -1 978 83 10000 7.2 10 09:18 17.03.2020
6514 Clouds -1 978 80 10000 11.3 20 08:42 17.03.2020
6515 Clouds -1 976 90 10000 8.7 20 08:21 17.03.2020
6516 Clouds -1 977 86 10000 10.8 20 07:50 17.03.2020
6517 Clouds 0 975 90 10000 4.6 20 07:25 17.03.2020
6518 Clouds 0 976 90 10000 10.3 20 06:56 17.03.2020
6519 Clouds 0 974 90 10000 1 350 06:33 17.03.2020
6520 Clouds 0 974 90 10000 8.2 20 05:41 17.03.2020
6521 Clouds 0 972 92 10000 6.7 10 03:36 17.03.2020
6522 Clouds 0 971 100 10000 3.6 340 02:45 17.03.2020
6523 Snow 1 970 86 4500 4.6 210 01:42 17.03.2020
6524 Rain 1 970 92 10000 4.1 200 01:24 17.03.2020
6525 Clouds 1 969 86 10000 3.1 170 00:25 17.03.2020
6526 Mist 1 969 100 4000 2.1 310 23:45 16.03.2020
6527 Clouds 1 968 95 10000 2.1 150 23:23 16.03.2020
6528 Rain 1 968 100 10000 3.1 320 22:40 16.03.2020
6529 Rain 1 967 95 10000 3.1 120 22:22 16.03.2020
6530 Rain 1 967 100 10000 4.1 340 21:57 16.03.2020
6531 Rain 1 967 100 10000 4.1 340 21:38 16.03.2020
6532 Rain 1 966 95 10000 4.6 70 21:20 16.03.2020
6533 Rain 1 966 95 10000 1.5 340 20:55 16.03.2020
6534 Rain 1 966 95 10000 1.5 340 20:37 16.03.2020
6535 Snow 1 966 90 10000 6.2 80 20:18 16.03.2020
6536 Rain 1 966 100 10000 5.7 40 19:40 16.03.2020
6537 Snow 2 966 86 5000 5.1 60 19:19 16.03.2020
6538 Rain 2 965 88 10000 5.1 40 18:41 16.03.2020
6539 Clouds 2 966 88 10000 4.6 60 18:20 16.03.2020
6540 Rain 2 966 86 10000 2.6 80 17:47 16.03.2020
6541 Clouds 3 967 74 10000 3.1 70 17:26 16.03.2020
6542 Rain 3 966 86 10000 3.1 70 16:59 16.03.2020
6543 Rain 3 966 86 10000 3.1 70 16:41 16.03.2020
6544 Rain 3 967 76 10000 4.1 100 16:22 16.03.2020
6545 Rain 3 966 80 10000 3.6 100 15:44 16.03.2020
6546 Clouds 3 967 76 10000 2.1 130 15:25 16.03.2020
6547 Rain 2 967 93 10000 3.1 90 14:49 16.03.2020
6548 Snow 2 968 76 9000 3.6 150 14:25 16.03.2020
6549 Rain 1 967 100 10000 4.1 160 13:55 16.03.2020
6550 Rain 1 967 100 10000 4.1 160 13:37 16.03.2020
6551 Clouds 2 968 80 10000 8.2 140 13:18 16.03.2020
6552 Clouds 2 967 86 10000 5.7 160 12:42 16.03.2020
6553 Rain 2 968 87 10000 4.1 100 12:23 16.03.2020
6554 Snow 2 967 87 9000 4.6 140 11:46 16.03.2020
6555 Rain 2 968 87 10000 3.6 120 11:27 16.03.2020
6556 Snow 2 968 79 5000 1.5 110 10:55 16.03.2020
6557 Snow 2 968 79 5000 1.5 110 10:37 16.03.2020
6558 Rain 1 968 86 10000 1 0 10:18 16.03.2020
6559 Rain 1 967 79 10000 5.1 200 09:40 16.03.2020
6560 Rain 1 968 86 9000 4.6 200 09:20 16.03.2020
6561 Snow 2 967 74 4000 6.2 180 08:47 16.03.2020
6562 Clouds 1 967 77 10000 6.2 170 08:24 16.03.2020
6563 Snow 1 966 93 8000 10.3 210 07:45 16.03.2020
6564 Clouds 2 966 77 10000 5.1 160 07:21 16.03.2020
6565 Clouds 1 965 86 10000 8.7 210 06:46 16.03.2020
6566 Rain 1 966 77 7000 10.3 110 06:23 16.03.2020
6567 Clouds 1 967 93 7000 15.9 120 04:54 16.03.2020
6568 Clouds 1 973 93 6000 15.4 120 02:40 16.03.2020
6569 Snow 1 984 86 1500 11.8 130 00:49 16.03.2020
6570 Clouds 2 984 74 8000 10.8 120 00:30 16.03.2020
6571 Rain 2 983 93 10000 14.9 130 23:42 15.03.2020
6572 Rain 2 987 69 10000 9.3 120 23:20 15.03.2020
6573 Rain 2 985 80 10000 14.9 130 22:42 15.03.2020
6574 Clouds 3 989 64 10000 8.7 130 22:22 15.03.2020
6575 Rain 3 987 69 10000 13.9 140 21:55 15.03.2020
6576 Rain 3 987 69 10000 13.9 140 21:37 15.03.2020
6577 Clouds 3 991 64 10000 10.8 140 21:18 15.03.2020
6578 Clouds 2 990 74 10000 12.3 140 20:42 15.03.2020
6579 Clouds 1 992 64 10000 10.3 150 20:20 15.03.2020
6580 Clouds 1 991 69 10000 12.3 150 19:56 15.03.2020
6581 Clouds 1 991 69 10000 12.3 150 19:38 15.03.2020
6582 Clouds 1 994 59 10000 8.7 150 19:19 15.03.2020
6583 Clouds 2 993 74 10000 11.8 160 18:55 15.03.2020
6584 Clouds 2 993 74 10000 11.8 160 18:36 15.03.2020
6585 Clouds 2 995 59 10000 10.3 150 18:18 15.03.2020
6586 Clouds 2 995 74 10000 10.3 170 17:40 15.03.2020
6587 Clouds 3 996 59 10000 8.2 170 17:20 15.03.2020
6588 Clouds 2 996 74 10000 10.8 170 16:56 15.03.2020
6589 Clouds 2 996 74 10000 10.8 170 16:38 15.03.2020
6590 Clouds 3 998 59 10000 7.2 170 16:19 15.03.2020
6591 Clouds 0 997 74 10000 9.3 180 15:43 15.03.2020
6592 Clouds 0 999 64 10000 6.2 140 15:25 15.03.2020
6593 Rain 0 998 74 10000 9.8 190 14:55 15.03.2020
6594 Rain -1 998 74 10000 9.8 190 14:37 15.03.2020
6595 Clouds 0 999 64 10000 8.2 170 14:18 15.03.2020
6596 Rain -2 998 69 10000 10.3 190 13:42 15.03.2020
6597 Clouds -2 1000 63 10000 7.2 170 13:23 15.03.2020
6598 Clouds -3 999 74 10000 10.3 200 12:59 15.03.2020
6599 Clouds -3 999 74 10000 10.3 200 12:39 15.03.2020
6600 Clouds -4 1001 68 10000 4.6 110 12:21 15.03.2020
6601 Clouds -2 1000 74 10000 9.8 190 11:43 15.03.2020
6602 Clouds -1 1001 68 10000 5.7 120 11:24 15.03.2020
6603 Clouds -2 1000 69 10000 9.3 200 10:57 15.03.2020
6604 Clouds -2 1000 69 10000 9.3 200 10:39 15.03.2020
6605 Clouds -2 1002 68 10000 4.6 120 10:20 15.03.2020
6606 Clouds -4 1001 74 10000 7.7 180 09:42 15.03.2020
6607 Clouds -5 1002 67 10000 3.6 100 09:23 15.03.2020
6608 Clouds -6 1001 79 10000 7.2 150 08:58 15.03.2020
6609 Clouds -7 1001 79 10000 7.2 150 08:40 15.03.2020
6610 Clouds -7 1001 79 10000 7.2 150 08:40 15.03.2020
6611 Clear -7 1003 66 10000 1.5 100 08:18 15.03.2020
6612 Clouds -7 1002 79 10000 6.7 160 07:44 15.03.2020
6613 Clear -8 1003 67 10000 1 0 07:18 15.03.2020
6614 Clear -8 1002 79 10000 6.2 160 06:36 15.03.2020
6615 Clear -8 1003 73 10000 5.7 150 05:46 15.03.2020
6616 Clear -8 1003 67 10000 4.1 140 04:50 15.03.2020
6617 Clear -8 1003 67 10000 4.1 140 04:32 15.03.2020
6618 Clear -8 1004 73 10000 2.6 140 03:59 15.03.2020
6619 Clouds -7 1004 68 10000 1 30 02:49 15.03.2020
6620 Clear -8 1005 73 10000 1.5 120 02:18 15.03.2020
6621 Clouds -6 1004 79 10000 3.1 10 00:57 15.03.2020
6622 Clouds -5 1004 79 10000 3.1 10 00:38 15.03.2020
6623 Clear -5 1004 58 10000 2.6 350 00:18 15.03.2020
6624 Clouds -6 1004 68 10000 3.6 350 23:38 14.03.2020
6625 Clear -7 1004 62 10000 3.6 360 23:19 14.03.2020
6626 Clouds -7 1004 68 10000 4.6 10 22:55 14.03.2020
6627 Clouds -6 1004 68 10000 4.6 10 22:37 14.03.2020
6628 Clouds -6 1004 58 10000 4.6 20 22:19 14.03.2020
6629 Clouds -6 1004 62 10000 5.1 360 21:54 14.03.2020
6630 Clouds -6 1003 63 10000 6.2 360 21:36 14.03.2020
6631 Clouds -5 1003 63 10000 6.2 360 21:18 14.03.2020
6632 Clouds -5 1003 62 10000 4.6 360 20:55 14.03.2020
6633 Clouds -5 1003 62 10000 4.6 360 20:36 14.03.2020
6634 Clouds -5 1003 58 10000 4.6 10 20:18 14.03.2020
6635 Clouds -4 1003 73 10000 5.7 360 19:40 14.03.2020
6636 Clouds -3 1002 54 10000 5.1 350 19:20 14.03.2020
6637 Clouds -3 1002 68 10000 7.2 350 18:39 14.03.2020
6638 Clouds -3 1002 54 10000 5.7 350 18:20 14.03.2020
6639 Clouds -3 1002 74 10000 7.7 350 17:42 14.03.2020
6640 Clouds -3 1001 54 10000 5.7 350 17:23 14.03.2020
6641 Clouds -3 1001 58 10000 5.1 340 16:58 14.03.2020
6642 Clouds -3 1001 58 10000 5.1 340 16:38 14.03.2020
6643 Clouds -3 1001 58 10000 5.1 340 16:19 14.03.2020
6644 Clouds -3 1002 68 10000 6.2 360 15:46 14.03.2020
6645 Clouds -3 1002 54 10000 5.7 350 15:22 14.03.2020
6646 Clouds -4 1002 68 10000 6.7 360 14:43 14.03.2020
6647 Clouds -4 1001 58 10000 4.6 360 14:21 14.03.2020
6648 Clouds -5 1002 74 10000 5.7 360 13:57 14.03.2020
6649 Clouds -4 1002 74 10000 5.7 360 13:38 14.03.2020
6650 Clouds -4 1002 74 10000 5.7 360 13:20 14.03.2020
6651 Clouds -4 1002 74 10000 5.7 360 12:44 14.03.2020
6652 Clouds -4 1001 63 10000 6.2 340 12:26 14.03.2020
6653 Rain -5 1002 79 10000 5.1 10 11:46 14.03.2020
6654 Rain -5 1002 79 10000 5.1 10 11:46 14.03.2020
6655 Clouds -6 1001 68 10000 5.7 340 11:26 14.03.2020
6656 Rain -5 1002 86 10000 6.2 360 10:57 14.03.2020
6657 Rain -5 1002 86 10000 6.2 360 10:39 14.03.2020
6658 Clouds -5 1001 68 10000 5.1 350 10:20 14.03.2020
6659 Rain -6 1002 85 10000 5.7 10 09:41 14.03.2020
6660 Clouds -6 1001 73 10000 4.1 360 09:22 14.03.2020
6661 Clouds -7 1001 85 10000 5.1 10 08:47 14.03.2020
6662 Clouds -7 1001 73 10000 4.1 350 08:28 14.03.2020
6663 Clouds -6 1001 73 10000 5.7 360 07:49 14.03.2020
6664 Clouds -6 1001 73 10000 4.6 350 07:23 14.03.2020
6665 Clouds -6 1001 79 10000 4.1 360 06:59 14.03.2020
6666 Clouds -6 1001 79 10000 4.1 360 06:39 14.03.2020
6667 Clear -6 1001 79 10000 4.38 1 05:19 14.03.2020
6668 Clouds -5 1001 79 10000 6.7 360 03:42 14.03.2020
6669 Clouds -3 1001 73 10000 3.6 20 03:23 14.03.2020
6670 Clouds -3 1001 79 10000 4.6 350 02:20 14.03.2020
6671 Clouds -4 1002 79 10000 10.3 340 00:44 14.03.2020
6672 Clouds -5 1002 79 10000 8.7 340 23:45 13.03.2020
6673 Clouds -5 1002 74 10000 6.7 340 23:27 13.03.2020
6674 Clouds -5 1002 79 10000 7.7 330 22:49 13.03.2020
6675 Clouds -5 1002 74 10000 4.6 340 22:26 13.03.2020
6676 Clouds -4 1002 74 10000 5.7 340 21:44 13.03.2020
6677 Clouds -4 1002 68 10000 5.7 350 21:21 13.03.2020
6678 Clouds -4 1002 79 10000 6.2 350 20:58 13.03.2020
6679 Clouds -4 1002 79 10000 6.2 350 20:39 13.03.2020
6680 Clouds -4 1002 79 10000 6.2 350 20:39 13.03.2020
6681 Clouds -4 1001 68 10000 5.1 350 20:20 13.03.2020
6682 Clouds -4 1002 73 10000 6.7 350 19:47 13.03.2020
6683 Clouds -3 1002 63 10000 6.7 360 19:28 13.03.2020
6684 Clouds -2 1002 74 10000 7.7 360 18:47 13.03.2020
6685 Clouds -3 1002 63 10000 7.2 360 18:29 13.03.2020
6686 Clouds -2 1003 74 10000 8.2 10 17:57 13.03.2020
6687 Clouds -2 1003 74 10000 8.2 10 17:38 13.03.2020
6688 Clouds -2 1002 63 10000 6.7 360 17:20 13.03.2020
6689 Clouds -2 1003 74 10000 8.7 360 16:42 13.03.2020
6690 Clouds -2 1002 68 10000 6.7 360 16:24 13.03.2020
6691 Clouds -2 1004 79 10000 9.8 360 15:56 13.03.2020
6692 Clouds -1 1004 79 10000 9.8 360 15:37 13.03.2020
6693 Clouds -1 1003 80 10000 0.5 0 15:19 13.03.2020
6694 Clouds -2 1004 74 10000 9.3 360 14:41 13.03.2020
6695 Clouds -2 1003 79 10000 1.5 20 14:22 13.03.2020
6696 Clouds -2 1004 74 10000 8.2 360 13:57 13.03.2020
6697 Clouds -2 1004 74 10000 8.2 360 13:38 13.03.2020
6698